<?xml version='1.0' encoding='UTF-8'?><gpx version="1.1" creator="JPX - https://github.com/jenetics/jpx" xmlns="http://www.topografix.com/GPX/1/1"><trk><trkseg><trkpt lat="38.9015506" lon="16.3486106"><ele>51.99999999999999</ele><time>2026-04-08T14:35:34.353Z</time></trkpt><trkpt lat="38.9015133" lon="16.3485434"><ele>52.0</ele><time>2026-04-08T14:35:36.352Z</time></trkpt><trkpt lat="38.9014838" lon="16.3484282"><ele>52.0</ele><time>2026-04-08T14:35:39.353Z</time></trkpt><trkpt lat="38.9014464" lon="16.3483507"><ele>52.0</ele><time>2026-04-08T14:35:41.352Z</time></trkpt><trkpt lat="38.9014089" lon="16.3482836"><ele>51.99999999999999</ele><time>2026-04-08T14:35:43.353Z</time></trkpt><trkpt lat="38.9014331" lon="16.3481786"><ele>52.0</ele><time>2026-04-08T14:35:46.352Z</time></trkpt><trkpt lat="38.901523" lon="16.3481436"><ele>52.0</ele><time>2026-04-08T14:35:48.353Z</time></trkpt><trkpt lat="38.9016393" lon="16.3481146"><ele>52.0</ele><time>2026-04-08T14:35:50.352Z</time></trkpt><trkpt lat="38.901741" lon="16.3480492"><ele>52.0</ele><time>2026-04-08T14:35:52.353Z</time></trkpt><trkpt lat="38.9017917" lon="16.3479717"><ele>52.0</ele><time>2026-04-08T14:35:54.353Z</time></trkpt><trkpt lat="38.9018583" lon="16.3479167"><ele>52.0</ele><time>2026-04-08T14:35:56.353Z</time></trkpt><trkpt lat="38.9019483" lon="16.34788"><ele>53.2</ele><time>2026-04-08T14:35:58.353Z</time></trkpt><trkpt lat="38.9020133" lon="16.3478583"><ele>54.400000000000006</ele><time>2026-04-08T14:36:00.352Z</time></trkpt><trkpt lat="38.9020733" lon="16.347805"><ele>55.599999999999994</ele><time>2026-04-08T14:36:08.353Z</time></trkpt><trkpt lat="38.90209" lon="16.3476383"><ele>56.8</ele><time>2026-04-08T14:36:10.353Z</time></trkpt><trkpt lat="38.9020783" lon="16.347525"><ele>58.0</ele><time>2026-04-08T14:36:11.353Z</time></trkpt><trkpt lat="38.9020617" lon="16.3473817"><ele>58.0</ele><time>2026-04-08T14:36:12.353Z</time></trkpt><trkpt lat="38.9020467" lon="16.3472317"><ele>58.0</ele><time>2026-04-08T14:36:13.352Z</time></trkpt><trkpt lat="38.90202" lon="16.3470767"><ele>58.0</ele><time>2026-04-08T14:36:14.352Z</time></trkpt><trkpt lat="38.902" lon="16.3469217"><ele>58.0</ele><time>2026-04-08T14:36:15.352Z</time></trkpt><trkpt lat="38.9019783" lon="16.3467617"><ele>60.0</ele><time>2026-04-08T14:36:16.352Z</time></trkpt><trkpt lat="38.9019533" lon="16.3466"><ele>62.0</ele><time>2026-04-08T14:36:17.352Z</time></trkpt><trkpt lat="38.9019217" lon="16.34643"><ele>64.0</ele><time>2026-04-08T14:36:18.353Z</time></trkpt><trkpt lat="38.9018917" lon="16.3462633"><ele>66.0</ele><time>2026-04-08T14:36:19.352Z</time></trkpt><trkpt lat="38.901855" lon="16.3460817"><ele>67.25</ele><time>2026-04-08T14:36:20.353Z</time></trkpt><trkpt lat="38.90183" lon="16.3459033"><ele>68.5</ele><time>2026-04-08T14:36:21.352Z</time></trkpt><trkpt lat="38.9018" lon="16.3457383"><ele>69.75</ele><time>2026-04-08T14:36:22.352Z</time></trkpt><trkpt lat="38.901775" lon="16.3455683"><ele>71.0</ele><time>2026-04-08T14:36:23.352Z</time></trkpt><trkpt lat="38.9017517" lon="16.3453933"><ele>66.0</ele><time>2026-04-08T14:36:24.353Z</time></trkpt><trkpt lat="38.9017283" lon="16.3452267"><ele>61.0</ele><time>2026-04-08T14:36:25.352Z</time></trkpt><trkpt lat="38.901715" lon="16.3450433"><ele>56.0</ele><time>2026-04-08T14:36:26.353Z</time></trkpt><trkpt lat="38.9016983" lon="16.3448517"><ele>51.0</ele><time>2026-04-08T14:36:27.352Z</time></trkpt><trkpt lat="38.901675" lon="16.3446683"><ele>51.0</ele><time>2026-04-08T14:36:28.352Z</time></trkpt><trkpt lat="38.9016583" lon="16.3444833"><ele>51.0</ele><time>2026-04-08T14:36:29.352Z</time></trkpt><trkpt lat="38.9016433" lon="16.3442983"><ele>51.0</ele><time>2026-04-08T14:36:30.352Z</time></trkpt><trkpt lat="38.9016283" lon="16.34412"><ele>51.0</ele><time>2026-04-08T14:36:31.352Z</time></trkpt><trkpt lat="38.9016133" lon="16.3439267"><ele>50.66666666666667</ele><time>2026-04-08T14:36:32.352Z</time></trkpt><trkpt lat="38.9015967" lon="16.3437283"><ele>50.333333333333336</ele><time>2026-04-08T14:36:33.353Z</time></trkpt><trkpt lat="38.9015817" lon="16.343535"><ele>50.0</ele><time>2026-04-08T14:36:34.353Z</time></trkpt><trkpt lat="38.9015633" lon="16.34334"><ele>50.0</ele><time>2026-04-08T14:36:35.353Z</time></trkpt><trkpt lat="38.9015483" lon="16.34314"><ele>50.0</ele><time>2026-04-08T14:36:36.353Z</time></trkpt><trkpt lat="38.901535" lon="16.34294"><ele>50.0</ele><time>2026-04-08T14:36:37.352Z</time></trkpt><trkpt lat="38.9015117" lon="16.3427433"><ele>50.66666666666667</ele><time>2026-04-08T14:36:38.353Z</time></trkpt><trkpt lat="38.9014917" lon="16.3425483"><ele>51.33333333333333</ele><time>2026-04-08T14:36:39.352Z</time></trkpt><trkpt lat="38.9014733" lon="16.3423517"><ele>52.0</ele><time>2026-04-08T14:36:40.352Z</time></trkpt><trkpt lat="38.9014583" lon="16.3421483"><ele>52.666666666666664</ele><time>2026-04-08T14:36:41.353Z</time></trkpt><trkpt lat="38.90144" lon="16.3419483"><ele>53.33333333333333</ele><time>2026-04-08T14:36:42.353Z</time></trkpt><trkpt lat="38.9014217" lon="16.3417383"><ele>54.0</ele><time>2026-04-08T14:36:43.352Z</time></trkpt><trkpt lat="38.9014017" lon="16.3415317"><ele>53.66666666666667</ele><time>2026-04-08T14:36:44.352Z</time></trkpt><trkpt lat="38.90138" lon="16.341325"><ele>53.333333333333336</ele><time>2026-04-08T14:36:45.352Z</time></trkpt><trkpt lat="38.9013617" lon="16.341125"><ele>53.0</ele><time>2026-04-08T14:36:46.352Z</time></trkpt><trkpt lat="38.901345" lon="16.3409217"><ele>53.0</ele><time>2026-04-08T14:36:47.352Z</time></trkpt><trkpt lat="38.9013317" lon="16.34073"><ele>53.0</ele><time>2026-04-08T14:36:48.353Z</time></trkpt><trkpt lat="38.90131" lon="16.340535"><ele>53.0</ele><time>2026-04-08T14:36:49.352Z</time></trkpt><trkpt lat="38.901295" lon="16.34035"><ele>53.0</ele><time>2026-04-08T14:36:50.352Z</time></trkpt><trkpt lat="38.9012783" lon="16.3401533"><ele>53.0</ele><time>2026-04-08T14:36:51.353Z</time></trkpt><trkpt lat="38.9012583" lon="16.3399617"><ele>53.0</ele><time>2026-04-08T14:36:52.352Z</time></trkpt><trkpt lat="38.9012333" lon="16.3397717"><ele>53.0</ele><time>2026-04-08T14:36:53.353Z</time></trkpt><trkpt lat="38.9012067" lon="16.339575"><ele>53.66666666666667</ele><time>2026-04-08T14:36:54.352Z</time></trkpt><trkpt lat="38.9011833" lon="16.339395"><ele>54.33333333333333</ele><time>2026-04-08T14:36:55.353Z</time></trkpt><trkpt lat="38.9011533" lon="16.3392"><ele>55.0</ele><time>2026-04-08T14:36:56.352Z</time></trkpt><trkpt lat="38.9011267" lon="16.339"><ele>55.33333333333333</ele><time>2026-04-08T14:36:57.353Z</time></trkpt><trkpt lat="38.9010983" lon="16.3388"><ele>55.66666666666667</ele><time>2026-04-08T14:36:58.352Z</time></trkpt><trkpt lat="38.9010767" lon="16.33861"><ele>56.0</ele><time>2026-04-08T14:36:59.352Z</time></trkpt><trkpt lat="38.901055" lon="16.3384117"><ele>56.0</ele><time>2026-04-08T14:37:00.352Z</time></trkpt><trkpt lat="38.9010333" lon="16.3382233"><ele>56.0</ele><time>2026-04-08T14:37:01.352Z</time></trkpt><trkpt lat="38.9010133" lon="16.3380583"><ele>56.0</ele><time>2026-04-08T14:37:02.353Z</time></trkpt><trkpt lat="38.9009967" lon="16.3379067"><ele>56.0</ele><time>2026-04-08T14:37:03.353Z</time></trkpt><trkpt lat="38.9009883" lon="16.337765"><ele>56.00000000000001</ele><time>2026-04-08T14:37:04.352Z</time></trkpt><trkpt lat="38.9009717" lon="16.3376283"><ele>56.0</ele><time>2026-04-08T14:37:05.353Z</time></trkpt><trkpt lat="38.9009667" lon="16.3375"><ele>56.0</ele><time>2026-04-08T14:37:06.353Z</time></trkpt><trkpt lat="38.90097" lon="16.3373933"><ele>56.0</ele><time>2026-04-08T14:37:07.352Z</time></trkpt><trkpt lat="38.900975" lon="16.3373017"><ele>56.00000000000001</ele><time>2026-04-08T14:37:08.352Z</time></trkpt><trkpt lat="38.9009883" lon="16.3372183"><ele>56.0</ele><time>2026-04-08T14:37:09.353Z</time></trkpt><trkpt lat="38.901035" lon="16.3370983"><ele>55.16666666666667</ele><time>2026-04-08T14:37:11.353Z</time></trkpt><trkpt lat="38.901105" lon="16.3370383"><ele>54.333333333333336</ele><time>2026-04-08T14:37:13.353Z</time></trkpt><trkpt lat="38.90122" lon="16.33698"><ele>53.5</ele><time>2026-04-08T14:37:15.353Z</time></trkpt><trkpt lat="38.9013" lon="16.3369533"><ele>52.66666666666667</ele><time>2026-04-08T14:37:16.352Z</time></trkpt><trkpt lat="38.901375" lon="16.33693"><ele>51.833333333333336</ele><time>2026-04-08T14:37:17.352Z</time></trkpt><trkpt lat="38.9014433" lon="16.3369133"><ele>51.0</ele><time>2026-04-08T14:37:18.352Z</time></trkpt><trkpt lat="38.90154" lon="16.3368783"><ele>51.0</ele><time>2026-04-08T14:37:20.353Z</time></trkpt><trkpt lat="38.9016233" lon="16.3368467"><ele>51.0</ele><time>2026-04-08T14:37:27.353Z</time></trkpt><trkpt lat="38.901715" lon="16.3367333"><ele>51.0</ele><time>2026-04-08T14:37:29.353Z</time></trkpt><trkpt lat="38.9017767" lon="16.3366567"><ele>51.0</ele><time>2026-04-08T14:37:30.352Z</time></trkpt><trkpt lat="38.9018433" lon="16.3365733"><ele>51.0</ele><time>2026-04-08T14:37:31.353Z</time></trkpt><trkpt lat="38.9019067" lon="16.3364783"><ele>51.75</ele><time>2026-04-08T14:37:32.353Z</time></trkpt><trkpt lat="38.9019733" lon="16.3363717"><ele>52.5</ele><time>2026-04-08T14:37:33.352Z</time></trkpt><trkpt lat="38.902045" lon="16.3362583"><ele>53.25</ele><time>2026-04-08T14:37:34.353Z</time></trkpt><trkpt lat="38.9021267" lon="16.3361383"><ele>54.0</ele><time>2026-04-08T14:37:35.353Z</time></trkpt><trkpt lat="38.9022083" lon="16.336025"><ele>54.0</ele><time>2026-04-08T14:37:36.352Z</time></trkpt><trkpt lat="38.9023033" lon="16.3359167"><ele>54.0</ele><time>2026-04-08T14:37:37.353Z</time></trkpt><trkpt lat="38.9024017" lon="16.335805"><ele>54.0</ele><time>2026-04-08T14:37:38.353Z</time></trkpt><trkpt lat="38.9025" lon="16.3356933"><ele>54.0</ele><time>2026-04-08T14:37:39.352Z</time></trkpt><trkpt lat="38.9026117" lon="16.3355833"><ele>54.25</ele><time>2026-04-08T14:37:40.352Z</time></trkpt><trkpt lat="38.9027167" lon="16.3354817"><ele>54.5</ele><time>2026-04-08T14:37:41.352Z</time></trkpt><trkpt lat="38.9028383" lon="16.3353817"><ele>54.75</ele><time>2026-04-08T14:37:42.353Z</time></trkpt><trkpt lat="38.9029617" lon="16.33528"><ele>55.0</ele><time>2026-04-08T14:37:43.352Z</time></trkpt><trkpt lat="38.9030833" lon="16.3351667"><ele>55.0</ele><time>2026-04-08T14:37:44.353Z</time></trkpt><trkpt lat="38.9031867" lon="16.335045"><ele>55.0</ele><time>2026-04-08T14:37:45.353Z</time></trkpt><trkpt lat="38.9032617" lon="16.3349033"><ele>55.0</ele><time>2026-04-08T14:37:46.353Z</time></trkpt><trkpt lat="38.9033167" lon="16.334765"><ele>55.0</ele><time>2026-04-08T14:37:47.353Z</time></trkpt><trkpt lat="38.9033683" lon="16.3346383"><ele>55.6</ele><time>2026-04-08T14:37:48.352Z</time></trkpt><trkpt lat="38.90344" lon="16.3345383"><ele>56.2</ele><time>2026-04-08T14:37:49.352Z</time></trkpt><trkpt lat="38.9035267" lon="16.33447"><ele>56.8</ele><time>2026-04-08T14:37:50.352Z</time></trkpt><trkpt lat="38.903625" lon="16.3344417"><ele>57.4</ele><time>2026-04-08T14:37:51.352Z</time></trkpt><trkpt lat="38.90374" lon="16.3344517"><ele>58.0</ele><time>2026-04-08T14:37:52.353Z</time></trkpt><trkpt lat="38.9038533" lon="16.3344933"><ele>58.0</ele><time>2026-04-08T14:37:53.353Z</time></trkpt><trkpt lat="38.90397" lon="16.3345567"><ele>58.0</ele><time>2026-04-08T14:37:54.352Z</time></trkpt><trkpt lat="38.9040683" lon="16.334615"><ele>58.0</ele><time>2026-04-08T14:37:55.352Z</time></trkpt><trkpt lat="38.90417" lon="16.3346667"><ele>58.0</ele><time>2026-04-08T14:37:56.352Z</time></trkpt><trkpt lat="38.9042583" lon="16.3347133"><ele>58.0</ele><time>2026-04-08T14:37:57.352Z</time></trkpt><trkpt lat="38.9043333" lon="16.33475"><ele>57.599999999999994</ele><time>2026-04-08T14:37:58.352Z</time></trkpt><trkpt lat="38.9044133" lon="16.334775"><ele>57.199999999999996</ele><time>2026-04-08T14:37:59.352Z</time></trkpt><trkpt lat="38.9044983" lon="16.3347917"><ele>56.8</ele><time>2026-04-08T14:38:00.352Z</time></trkpt><trkpt lat="38.9045833" lon="16.3347933"><ele>56.4</ele><time>2026-04-08T14:38:01.352Z</time></trkpt><trkpt lat="38.9046817" lon="16.3347717"><ele>56.0</ele><time>2026-04-08T14:38:02.352Z</time></trkpt><trkpt lat="38.9047833" lon="16.3347167"><ele>56.0</ele><time>2026-04-08T14:38:03.352Z</time></trkpt><trkpt lat="38.9048883" lon="16.334645"><ele>56.0</ele><time>2026-04-08T14:38:04.352Z</time></trkpt><trkpt lat="38.904985" lon="16.334565"><ele>56.0</ele><time>2026-04-08T14:38:05.352Z</time></trkpt><trkpt lat="38.90509" lon="16.3344833"><ele>56.0</ele><time>2026-04-08T14:38:06.352Z</time></trkpt><trkpt lat="38.90521" lon="16.3343983"><ele>56.0</ele><time>2026-04-08T14:38:07.353Z</time></trkpt><trkpt lat="38.9053383" lon="16.33431"><ele>56.0</ele><time>2026-04-08T14:38:08.352Z</time></trkpt><trkpt lat="38.9054683" lon="16.3342217"><ele>56.0</ele><time>2026-04-08T14:38:09.352Z</time></trkpt><trkpt lat="38.90559" lon="16.3341317"><ele>56.0</ele><time>2026-04-08T14:38:10.352Z</time></trkpt><trkpt lat="38.9057033" lon="16.3340467"><ele>56.0</ele><time>2026-04-08T14:38:11.353Z</time></trkpt><trkpt lat="38.9058167" lon="16.3339583"><ele>56.0</ele><time>2026-04-08T14:38:12.352Z</time></trkpt><trkpt lat="38.90593" lon="16.3338817"><ele>56.0</ele><time>2026-04-08T14:38:13.352Z</time></trkpt><trkpt lat="38.906035" lon="16.3337933"><ele>56.0</ele><time>2026-04-08T14:38:14.352Z</time></trkpt><trkpt lat="38.9061517" lon="16.3336983"><ele>52.25</ele><time>2026-04-08T14:38:15.353Z</time></trkpt><trkpt lat="38.90627" lon="16.3336033"><ele>48.5</ele><time>2026-04-08T14:38:16.352Z</time></trkpt><trkpt lat="38.90638" lon="16.33351"><ele>44.75</ele><time>2026-04-08T14:38:17.353Z</time></trkpt><trkpt lat="38.906485" lon="16.33342"><ele>41.0</ele><time>2026-04-08T14:38:18.353Z</time></trkpt><trkpt lat="38.9065867" lon="16.3333183"><ele>41.0</ele><time>2026-04-08T14:38:19.352Z</time></trkpt><trkpt lat="38.906675" lon="16.33322"><ele>41.0</ele><time>2026-04-08T14:38:20.352Z</time></trkpt><trkpt lat="38.906755" lon="16.3331333"><ele>41.0</ele><time>2026-04-08T14:38:21.353Z</time></trkpt><trkpt lat="38.90683" lon="16.33306"><ele>41.0</ele><time>2026-04-08T14:38:22.353Z</time></trkpt><trkpt lat="38.9068883" lon="16.3330117"><ele>41.0</ele><time>2026-04-08T14:38:23.353Z</time></trkpt><trkpt lat="38.9069683" lon="16.3329633"><ele>40.5</ele><time>2026-04-08T14:38:25.352Z</time></trkpt><trkpt lat="38.9070317" lon="16.332925"><ele>40.0</ele><time>2026-04-08T14:38:27.352Z</time></trkpt><trkpt lat="38.9071367" lon="16.3328383"><ele>39.5</ele><time>2026-04-08T14:38:29.352Z</time></trkpt><trkpt lat="38.9071767" lon="16.3327067"><ele>39.0</ele><time>2026-04-08T14:38:31.353Z</time></trkpt><trkpt lat="38.90716" lon="16.332625"><ele>38.5</ele><time>2026-04-08T14:38:33.352Z</time></trkpt><trkpt lat="38.9071133" lon="16.3325517"><ele>38.0</ele><time>2026-04-08T14:38:35.353Z</time></trkpt><trkpt lat="38.907065" lon="16.3324867"><ele>38.0</ele><time>2026-04-08T14:38:36.353Z</time></trkpt><trkpt lat="38.9070083" lon="16.332405"><ele>38.0</ele><time>2026-04-08T14:38:37.352Z</time></trkpt><trkpt lat="38.9069517" lon="16.3323"><ele>38.0</ele><time>2026-04-08T14:38:38.352Z</time></trkpt><trkpt lat="38.9069117" lon="16.332165"><ele>38.0</ele><time>2026-04-08T14:38:39.352Z</time></trkpt><trkpt lat="38.906885" lon="16.3320217"><ele>38.0</ele><time>2026-04-08T14:38:40.352Z</time></trkpt><trkpt lat="38.9068783" lon="16.3318633"><ele>38.0</ele><time>2026-04-08T14:38:41.353Z</time></trkpt><trkpt lat="38.9068833" lon="16.3317033"><ele>38.0</ele><time>2026-04-08T14:38:42.352Z</time></trkpt><trkpt lat="38.9068917" lon="16.3315333"><ele>38.0</ele><time>2026-04-08T14:38:43.353Z</time></trkpt><trkpt lat="38.9068933" lon="16.3313583"><ele>38.0</ele><time>2026-04-08T14:38:44.353Z</time></trkpt><trkpt lat="38.906895" lon="16.331175"><ele>37.75</ele><time>2026-04-08T14:38:45.353Z</time></trkpt><trkpt lat="38.906905" lon="16.3309867"><ele>37.5</ele><time>2026-04-08T14:38:46.353Z</time></trkpt><trkpt lat="38.9069233" lon="16.3308017"><ele>37.25</ele><time>2026-04-08T14:38:47.352Z</time></trkpt><trkpt lat="38.90695" lon="16.3306033"><ele>37.0</ele><time>2026-04-08T14:38:48.352Z</time></trkpt><trkpt lat="38.9069783" lon="16.3304117"><ele>37.0</ele><time>2026-04-08T14:38:49.352Z</time></trkpt><trkpt lat="38.9070083" lon="16.3302183"><ele>37.0</ele><time>2026-04-08T14:38:50.353Z</time></trkpt><trkpt lat="38.90704" lon="16.3300233"><ele>37.0</ele><time>2026-04-08T14:38:51.352Z</time></trkpt><trkpt lat="38.9070717" lon="16.3298267"><ele>37.333333333333336</ele><time>2026-04-08T14:38:52.352Z</time></trkpt><trkpt lat="38.907105" lon="16.3296383"><ele>37.666666666666664</ele><time>2026-04-08T14:38:53.352Z</time></trkpt><trkpt lat="38.90714" lon="16.329435"><ele>38.0</ele><time>2026-04-08T14:38:54.352Z</time></trkpt><trkpt lat="38.907175" lon="16.3292433"><ele>38.0</ele><time>2026-04-08T14:38:55.353Z</time></trkpt><trkpt lat="38.907215" lon="16.329045"><ele>38.0</ele><time>2026-04-08T14:38:56.352Z</time></trkpt><trkpt lat="38.90726" lon="16.3288517"><ele>38.0</ele><time>2026-04-08T14:38:57.352Z</time></trkpt><trkpt lat="38.9073067" lon="16.32865"><ele>38.0</ele><time>2026-04-08T14:38:58.353Z</time></trkpt><trkpt lat="38.9073483" lon="16.32844"><ele>38.0</ele><time>2026-04-08T14:38:59.352Z</time></trkpt><trkpt lat="38.90739" lon="16.3282333"><ele>38.0</ele><time>2026-04-08T14:39:00.353Z</time></trkpt><trkpt lat="38.9074283" lon="16.3280217"><ele>38.0</ele><time>2026-04-08T14:39:01.353Z</time></trkpt><trkpt lat="38.907475" lon="16.3278117"><ele>38.0</ele><time>2026-04-08T14:39:02.352Z</time></trkpt><trkpt lat="38.907515" lon="16.3275917"><ele>38.0</ele><time>2026-04-08T14:39:03.352Z</time></trkpt><trkpt lat="38.9075533" lon="16.32737"><ele>38.33333333333333</ele><time>2026-04-08T14:39:04.353Z</time></trkpt><trkpt lat="38.9076017" lon="16.32715"><ele>38.666666666666664</ele><time>2026-04-08T14:39:05.353Z</time></trkpt><trkpt lat="38.9076467" lon="16.3269217"><ele>39.0</ele><time>2026-04-08T14:39:06.353Z</time></trkpt><trkpt lat="38.9076917" lon="16.326705"><ele>39.0</ele><time>2026-04-08T14:39:07.352Z</time></trkpt><trkpt lat="38.9077317" lon="16.326495"><ele>39.0</ele><time>2026-04-08T14:39:08.353Z</time></trkpt><trkpt lat="38.9077767" lon="16.3262733"><ele>39.0</ele><time>2026-04-08T14:39:09.352Z</time></trkpt><trkpt lat="38.9078183" lon="16.3260517"><ele>39.0</ele><time>2026-04-08T14:39:10.352Z</time></trkpt><trkpt lat="38.9078583" lon="16.325825"><ele>39.0</ele><time>2026-04-08T14:39:11.353Z</time></trkpt><trkpt lat="38.907905" lon="16.3256033"><ele>39.0</ele><time>2026-04-08T14:39:12.352Z</time></trkpt><trkpt lat="38.9079517" lon="16.3253833"><ele>38.666666666666664</ele><time>2026-04-08T14:39:13.352Z</time></trkpt><trkpt lat="38.907995" lon="16.3251733"><ele>38.33333333333333</ele><time>2026-04-08T14:39:14.353Z</time></trkpt><trkpt lat="38.908045" lon="16.3249533"><ele>38.0</ele><time>2026-04-08T14:39:15.352Z</time></trkpt><trkpt lat="38.90809" lon="16.3247283"><ele>36.666666666666664</ele><time>2026-04-08T14:39:16.353Z</time></trkpt><trkpt lat="38.9081417" lon="16.3245033"><ele>35.333333333333336</ele><time>2026-04-08T14:39:17.352Z</time></trkpt><trkpt lat="38.908185" lon="16.3242883"><ele>34.0</ele><time>2026-04-08T14:39:18.352Z</time></trkpt><trkpt lat="38.9082333" lon="16.3240667"><ele>34.0</ele><time>2026-04-08T14:39:19.352Z</time></trkpt><trkpt lat="38.90828" lon="16.3238367"><ele>34.0</ele><time>2026-04-08T14:39:20.353Z</time></trkpt><trkpt lat="38.90833" lon="16.3236033"><ele>34.0</ele><time>2026-04-08T14:39:21.353Z</time></trkpt><trkpt lat="38.908375" lon="16.3233683"><ele>34.0</ele><time>2026-04-08T14:39:22.352Z</time></trkpt><trkpt lat="38.9084217" lon="16.323125"><ele>34.0</ele><time>2026-04-08T14:39:23.352Z</time></trkpt><trkpt lat="38.908475" lon="16.3228783"><ele>34.0</ele><time>2026-04-08T14:39:24.352Z</time></trkpt><trkpt lat="38.90852" lon="16.3226433"><ele>34.0</ele><time>2026-04-08T14:39:25.353Z</time></trkpt><trkpt lat="38.9085733" lon="16.3224017"><ele>34.0</ele><time>2026-04-08T14:39:26.353Z</time></trkpt><trkpt lat="38.9086233" lon="16.322155"><ele>34.0</ele><time>2026-04-08T14:39:27.352Z</time></trkpt><trkpt lat="38.908675" lon="16.3219117"><ele>34.333333333333336</ele><time>2026-04-08T14:39:28.352Z</time></trkpt><trkpt lat="38.9087217" lon="16.3216533"><ele>34.666666666666664</ele><time>2026-04-08T14:39:29.352Z</time></trkpt><trkpt lat="38.9087617" lon="16.3214017"><ele>35.0</ele><time>2026-04-08T14:39:30.353Z</time></trkpt><trkpt lat="38.9088167" lon="16.3211483"><ele>35.0</ele><time>2026-04-08T14:39:31.353Z</time></trkpt><trkpt lat="38.9088683" lon="16.3208983"><ele>35.0</ele><time>2026-04-08T14:39:32.353Z</time></trkpt><trkpt lat="38.90892" lon="16.3206483"><ele>35.0</ele><time>2026-04-08T14:39:33.352Z</time></trkpt><trkpt lat="38.9089767" lon="16.3203967"><ele>35.0</ele><time>2026-04-08T14:39:34.353Z</time></trkpt><trkpt lat="38.9090233" lon="16.3201417"><ele>35.0</ele><time>2026-04-08T14:39:35.352Z</time></trkpt><trkpt lat="38.9090767" lon="16.3198833"><ele>35.0</ele><time>2026-04-08T14:39:36.353Z</time></trkpt><trkpt lat="38.9091317" lon="16.3196317"><ele>34.666666666666664</ele><time>2026-04-08T14:39:37.352Z</time></trkpt><trkpt lat="38.9091867" lon="16.3193783"><ele>34.333333333333336</ele><time>2026-04-08T14:39:38.353Z</time></trkpt><trkpt lat="38.9092367" lon="16.3191217"><ele>34.0</ele><time>2026-04-08T14:39:39.353Z</time></trkpt><trkpt lat="38.909285" lon="16.3188617"><ele>33.333333333333336</ele><time>2026-04-08T14:39:40.352Z</time></trkpt><trkpt lat="38.909335" lon="16.3186117"><ele>32.666666666666664</ele><time>2026-04-08T14:39:41.353Z</time></trkpt><trkpt lat="38.9093833" lon="16.31836"><ele>32.0</ele><time>2026-04-08T14:39:42.352Z</time></trkpt><trkpt lat="38.9094367" lon="16.3180967"><ele>32.0</ele><time>2026-04-08T14:39:43.353Z</time></trkpt><trkpt lat="38.90949" lon="16.31783"><ele>32.0</ele><time>2026-04-08T14:39:44.352Z</time></trkpt><trkpt lat="38.9095417" lon="16.3175617"><ele>32.0</ele><time>2026-04-08T14:39:45.352Z</time></trkpt><trkpt lat="38.9095983" lon="16.3172983"><ele>32.0</ele><time>2026-04-08T14:39:46.352Z</time></trkpt><trkpt lat="38.9096483" lon="16.3170517"><ele>32.0</ele><time>2026-04-08T14:39:47.352Z</time></trkpt><trkpt lat="38.909705" lon="16.316795"><ele>32.0</ele><time>2026-04-08T14:39:48.352Z</time></trkpt><trkpt lat="38.90975" lon="16.3165267"><ele>31.666666666666664</ele><time>2026-04-08T14:39:49.352Z</time></trkpt><trkpt lat="38.9098067" lon="16.3162583"><ele>31.333333333333336</ele><time>2026-04-08T14:39:50.352Z</time></trkpt><trkpt lat="38.90986" lon="16.3159917"><ele>31.0</ele><time>2026-04-08T14:39:51.353Z</time></trkpt><trkpt lat="38.9099167" lon="16.3157267"><ele>31.333333333333336</ele><time>2026-04-08T14:39:52.352Z</time></trkpt><trkpt lat="38.909975" lon="16.3154683"><ele>31.666666666666664</ele><time>2026-04-08T14:39:53.353Z</time></trkpt><trkpt lat="38.9100283" lon="16.3152117"><ele>32.0</ele><time>2026-04-08T14:39:54.353Z</time></trkpt><trkpt lat="38.9100833" lon="16.31495"><ele>32.666666666666664</ele><time>2026-04-08T14:39:55.353Z</time></trkpt><trkpt lat="38.9101383" lon="16.3146917"><ele>33.333333333333336</ele><time>2026-04-08T14:39:56.353Z</time></trkpt><trkpt lat="38.910195" lon="16.31442"><ele>34.0</ele><time>2026-04-08T14:39:57.352Z</time></trkpt><trkpt lat="38.9102517" lon="16.3141467"><ele>34.0</ele><time>2026-04-08T14:39:58.352Z</time></trkpt><trkpt lat="38.9103" lon="16.31388"><ele>34.0</ele><time>2026-04-08T14:39:59.352Z</time></trkpt><trkpt lat="38.9103517" lon="16.3136167"><ele>34.0</ele><time>2026-04-08T14:40:00.352Z</time></trkpt><trkpt lat="38.9104083" lon="16.313345"><ele>34.0</ele><time>2026-04-08T14:40:01.352Z</time></trkpt><trkpt lat="38.9104667" lon="16.31308"><ele>34.0</ele><time>2026-04-08T14:40:02.352Z</time></trkpt><trkpt lat="38.9105183" lon="16.3128167"><ele>34.0</ele><time>2026-04-08T14:40:03.353Z</time></trkpt><trkpt lat="38.9105717" lon="16.3125417"><ele>33.333333333333336</ele><time>2026-04-08T14:40:04.352Z</time></trkpt><trkpt lat="38.91062" lon="16.312275"><ele>32.666666666666664</ele><time>2026-04-08T14:40:05.352Z</time></trkpt><trkpt lat="38.9106767" lon="16.3120017"><ele>32.0</ele><time>2026-04-08T14:40:06.352Z</time></trkpt><trkpt lat="38.9107333" lon="16.3117433"><ele>32.0</ele><time>2026-04-08T14:40:07.353Z</time></trkpt><trkpt lat="38.91079" lon="16.311465"><ele>32.0</ele><time>2026-04-08T14:40:08.352Z</time></trkpt><trkpt lat="38.9108467" lon="16.3111967"><ele>32.0</ele><time>2026-04-08T14:40:09.353Z</time></trkpt><trkpt lat="38.9109" lon="16.3109217"><ele>32.666666666666664</ele><time>2026-04-08T14:40:10.352Z</time></trkpt><trkpt lat="38.910955" lon="16.31065"><ele>33.333333333333336</ele><time>2026-04-08T14:40:11.353Z</time></trkpt><trkpt lat="38.9110133" lon="16.31038"><ele>34.0</ele><time>2026-04-08T14:40:12.352Z</time></trkpt><trkpt lat="38.91106" lon="16.3101"><ele>34.0</ele><time>2026-04-08T14:40:13.353Z</time></trkpt><trkpt lat="38.9111117" lon="16.3098233"><ele>34.0</ele><time>2026-04-08T14:40:14.352Z</time></trkpt><trkpt lat="38.9111683" lon="16.3095433"><ele>34.0</ele><time>2026-04-08T14:40:15.353Z</time></trkpt><trkpt lat="38.9112233" lon="16.3092633"><ele>36.0</ele><time>2026-04-08T14:40:16.352Z</time></trkpt><trkpt lat="38.9112783" lon="16.3089883"><ele>38.0</ele><time>2026-04-08T14:40:17.352Z</time></trkpt><trkpt lat="38.9113283" lon="16.3087"><ele>38.0</ele><time>2026-04-08T14:40:18.353Z</time></trkpt><trkpt lat="38.9113867" lon="16.3084283"><ele>38.0</ele><time>2026-04-08T14:40:19.352Z</time></trkpt><trkpt lat="38.9114433" lon="16.30814"><ele>39.0</ele><time>2026-04-08T14:40:20.352Z</time></trkpt><trkpt lat="38.9114967" lon="16.30786"><ele>40.0</ele><time>2026-04-08T14:40:21.353Z</time></trkpt><trkpt lat="38.91155" lon="16.3075767"><ele>40.0</ele><time>2026-04-08T14:40:22.352Z</time></trkpt><trkpt lat="38.9115917" lon="16.3072933"><ele>40.0</ele><time>2026-04-08T14:40:23.352Z</time></trkpt><trkpt lat="38.91163" lon="16.307"><ele>40.333333333333336</ele><time>2026-04-08T14:40:24.353Z</time></trkpt><trkpt lat="38.91167" lon="16.3067117"><ele>40.666666666666664</ele><time>2026-04-08T14:40:25.352Z</time></trkpt><trkpt lat="38.9117133" lon="16.30644"><ele>41.0</ele><time>2026-04-08T14:40:26.352Z</time></trkpt><trkpt lat="38.9117583" lon="16.3061633"><ele>41.5</ele><time>2026-04-08T14:40:27.353Z</time></trkpt><trkpt lat="38.91179" lon="16.3058767"><ele>42.0</ele><time>2026-04-08T14:40:28.352Z</time></trkpt><trkpt lat="38.9118283" lon="16.3055817"><ele>42.0</ele><time>2026-04-08T14:40:29.352Z</time></trkpt><trkpt lat="38.9118767" lon="16.3052933"><ele>42.0</ele><time>2026-04-08T14:40:30.353Z</time></trkpt><trkpt lat="38.9119183" lon="16.305005"><ele>42.5</ele><time>2026-04-08T14:40:31.352Z</time></trkpt><trkpt lat="38.9119633" lon="16.30472"><ele>43.0</ele><time>2026-04-08T14:40:32.352Z</time></trkpt><trkpt lat="38.9120033" lon="16.3044367"><ele>43.0</ele><time>2026-04-08T14:40:33.353Z</time></trkpt><trkpt lat="38.9120433" lon="16.3041617"><ele>43.0</ele><time>2026-04-08T14:40:34.352Z</time></trkpt><trkpt lat="38.912085" lon="16.3038817"><ele>43.0</ele><time>2026-04-08T14:40:35.352Z</time></trkpt><trkpt lat="38.9121217" lon="16.3035983"><ele>44.0</ele><time>2026-04-08T14:40:36.353Z</time></trkpt><trkpt lat="38.9121667" lon="16.3033133"><ele>45.0</ele><time>2026-04-08T14:40:37.353Z</time></trkpt><trkpt lat="38.9122033" lon="16.3030267"><ele>45.666666666666664</ele><time>2026-04-08T14:40:38.352Z</time></trkpt><trkpt lat="38.9122417" lon="16.302755"><ele>46.33333333333333</ele><time>2026-04-08T14:40:39.352Z</time></trkpt><trkpt lat="38.912285" lon="16.30248"><ele>47.0</ele><time>2026-04-08T14:40:40.352Z</time></trkpt><trkpt lat="38.9123267" lon="16.3022033"><ele>47.0</ele><time>2026-04-08T14:40:41.352Z</time></trkpt><trkpt lat="38.9123683" lon="16.3019283"><ele>47.0</ele><time>2026-04-08T14:40:42.352Z</time></trkpt><trkpt lat="38.9124067" lon="16.3016483"><ele>47.0</ele><time>2026-04-08T14:40:43.353Z</time></trkpt><trkpt lat="38.9124483" lon="16.3013667"><ele>47.33333333333333</ele><time>2026-04-08T14:40:44.353Z</time></trkpt><trkpt lat="38.91249" lon="16.30109"><ele>47.666666666666664</ele><time>2026-04-08T14:40:45.352Z</time></trkpt><trkpt lat="38.9125317" lon="16.3008217"><ele>48.0</ele><time>2026-04-08T14:40:46.352Z</time></trkpt><trkpt lat="38.9125683" lon="16.3005333"><ele>48.0</ele><time>2026-04-08T14:40:47.352Z</time></trkpt><trkpt lat="38.9126133" lon="16.3002583"><ele>48.0</ele><time>2026-04-08T14:40:48.353Z</time></trkpt><trkpt lat="38.9126533" lon="16.2999833"><ele>48.0</ele><time>2026-04-08T14:40:49.352Z</time></trkpt><trkpt lat="38.9126933" lon="16.299705"><ele>47.666666666666664</ele><time>2026-04-08T14:40:50.353Z</time></trkpt><trkpt lat="38.912735" lon="16.2994283"><ele>47.33333333333333</ele><time>2026-04-08T14:40:51.353Z</time></trkpt><trkpt lat="38.9127717" lon="16.2991483"><ele>47.0</ele><time>2026-04-08T14:40:52.352Z</time></trkpt><trkpt lat="38.9128133" lon="16.2988667"><ele>46.666666666666664</ele><time>2026-04-08T14:40:53.352Z</time></trkpt><trkpt lat="38.9128517" lon="16.29859"><ele>46.333333333333336</ele><time>2026-04-08T14:40:54.353Z</time></trkpt><trkpt lat="38.91289" lon="16.2983033"><ele>46.0</ele><time>2026-04-08T14:40:55.353Z</time></trkpt><trkpt lat="38.9129333" lon="16.2980217"><ele>45.66666666666667</ele><time>2026-04-08T14:40:56.352Z</time></trkpt><trkpt lat="38.9129767" lon="16.29774"><ele>45.333333333333336</ele><time>2026-04-08T14:40:57.353Z</time></trkpt><trkpt lat="38.9130217" lon="16.2974683"><ele>45.0</ele><time>2026-04-08T14:40:58.352Z</time></trkpt><trkpt lat="38.9130667" lon="16.297185"><ele>45.0</ele><time>2026-04-08T14:40:59.352Z</time></trkpt><trkpt lat="38.9131117" lon="16.2968967"><ele>45.0</ele><time>2026-04-08T14:41:00.353Z</time></trkpt><trkpt lat="38.9131567" lon="16.2966167"><ele>45.0</ele><time>2026-04-08T14:41:01.352Z</time></trkpt><trkpt lat="38.9131917" lon="16.296335"><ele>45.0</ele><time>2026-04-08T14:41:02.352Z</time></trkpt><trkpt lat="38.91323" lon="16.296055"><ele>45.0</ele><time>2026-04-08T14:41:03.353Z</time></trkpt><trkpt lat="38.9132717" lon="16.2957733"><ele>43.5</ele><time>2026-04-08T14:41:04.353Z</time></trkpt><trkpt lat="38.9133117" lon="16.29549"><ele>42.0</ele><time>2026-04-08T14:41:05.353Z</time></trkpt><trkpt lat="38.9133533" lon="16.2952033"><ele>42.0</ele><time>2026-04-08T14:41:06.352Z</time></trkpt><trkpt lat="38.9134" lon="16.2949183"><ele>42.0</ele><time>2026-04-08T14:41:07.352Z</time></trkpt><trkpt lat="38.913445" lon="16.294625"><ele>43.0</ele><time>2026-04-08T14:41:08.352Z</time></trkpt><trkpt lat="38.913485" lon="16.2943367"><ele>44.0</ele><time>2026-04-08T14:41:09.352Z</time></trkpt><trkpt lat="38.91352" lon="16.2940417"><ele>45.0</ele><time>2026-04-08T14:41:10.352Z</time></trkpt><trkpt lat="38.913565" lon="16.2937533"><ele>46.0</ele><time>2026-04-08T14:41:11.352Z</time></trkpt><trkpt lat="38.9136117" lon="16.2934617"><ele>46.0</ele><time>2026-04-08T14:41:12.353Z</time></trkpt><trkpt lat="38.9136533" lon="16.29318"><ele>46.0</ele><time>2026-04-08T14:41:13.353Z</time></trkpt><trkpt lat="38.913695" lon="16.29289"><ele>45.0</ele><time>2026-04-08T14:41:14.352Z</time></trkpt><trkpt lat="38.9137333" lon="16.2926"><ele>44.0</ele><time>2026-04-08T14:41:15.352Z</time></trkpt><trkpt lat="38.9137783" lon="16.29231"><ele>43.666666666666664</ele><time>2026-04-08T14:41:16.353Z</time></trkpt><trkpt lat="38.9138183" lon="16.2920283"><ele>43.333333333333336</ele><time>2026-04-08T14:41:17.353Z</time></trkpt><trkpt lat="38.9138633" lon="16.2917433"><ele>43.0</ele><time>2026-04-08T14:41:18.353Z</time></trkpt><trkpt lat="38.9138983" lon="16.29146"><ele>43.5</ele><time>2026-04-08T14:41:19.352Z</time></trkpt><trkpt lat="38.9139417" lon="16.2911817"><ele>44.0</ele><time>2026-04-08T14:41:20.352Z</time></trkpt><trkpt lat="38.91398" lon="16.2908917"><ele>44.0</ele><time>2026-04-08T14:41:21.353Z</time></trkpt><trkpt lat="38.91403" lon="16.2906"><ele>44.0</ele><time>2026-04-08T14:41:22.352Z</time></trkpt><trkpt lat="38.9140783" lon="16.2903117"><ele>43.0</ele><time>2026-04-08T14:41:23.352Z</time></trkpt><trkpt lat="38.9141167" lon="16.2900133"><ele>42.0</ele><time>2026-04-08T14:41:24.352Z</time></trkpt><trkpt lat="38.9141583" lon="16.2897133"><ele>41.0</ele><time>2026-04-08T14:41:25.353Z</time></trkpt><trkpt lat="38.9142" lon="16.289415"><ele>40.0</ele><time>2026-04-08T14:41:26.352Z</time></trkpt><trkpt lat="38.91425" lon="16.289115"><ele>39.0</ele><time>2026-04-08T14:41:27.352Z</time></trkpt><trkpt lat="38.9142883" lon="16.288815"><ele>38.0</ele><time>2026-04-08T14:41:28.352Z</time></trkpt><trkpt lat="38.9143317" lon="16.28851"><ele>38.0</ele><time>2026-04-08T14:41:29.352Z</time></trkpt><trkpt lat="38.914375" lon="16.288205"><ele>38.0</ele><time>2026-04-08T14:41:30.352Z</time></trkpt><trkpt lat="38.914415" lon="16.28791"><ele>36.5</ele><time>2026-04-08T14:41:31.353Z</time></trkpt><trkpt lat="38.914465" lon="16.287615"><ele>35.0</ele><time>2026-04-08T14:41:32.353Z</time></trkpt><trkpt lat="38.9145067" lon="16.287315"><ele>35.0</ele><time>2026-04-08T14:41:33.352Z</time></trkpt><trkpt lat="38.9145533" lon="16.2870183"><ele>35.0</ele><time>2026-04-08T14:41:34.353Z</time></trkpt><trkpt lat="38.9145933" lon="16.2867183"><ele>34.5</ele><time>2026-04-08T14:41:35.353Z</time></trkpt><trkpt lat="38.9146417" lon="16.286415"><ele>34.0</ele><time>2026-04-08T14:41:36.352Z</time></trkpt><trkpt lat="38.91468" lon="16.2861217"><ele>34.0</ele><time>2026-04-08T14:41:37.353Z</time></trkpt><trkpt lat="38.9147217" lon="16.2858283"><ele>34.0</ele><time>2026-04-08T14:41:38.352Z</time></trkpt><trkpt lat="38.9147667" lon="16.2855383"><ele>34.0</ele><time>2026-04-08T14:41:39.353Z</time></trkpt><trkpt lat="38.9148033" lon="16.2852483"><ele>34.0</ele><time>2026-04-08T14:41:40.353Z</time></trkpt><trkpt lat="38.9148433" lon="16.2849567"><ele>34.0</ele><time>2026-04-08T14:41:41.352Z</time></trkpt><trkpt lat="38.9148867" lon="16.2846767"><ele>34.0</ele><time>2026-04-08T14:41:42.352Z</time></trkpt><trkpt lat="38.9149267" lon="16.284395"><ele>34.0</ele><time>2026-04-08T14:41:43.352Z</time></trkpt><trkpt lat="38.9149717" lon="16.2841117"><ele>33.0</ele><time>2026-04-08T14:41:44.352Z</time></trkpt><trkpt lat="38.9150167" lon="16.2838267"><ele>32.0</ele><time>2026-04-08T14:41:45.352Z</time></trkpt><trkpt lat="38.91506" lon="16.283545"><ele>33.666666666666664</ele><time>2026-04-08T14:41:46.352Z</time></trkpt><trkpt lat="38.9150983" lon="16.2832683"><ele>35.333333333333336</ele><time>2026-04-08T14:41:47.353Z</time></trkpt><trkpt lat="38.9151383" lon="16.2829883"><ele>37.0</ele><time>2026-04-08T14:41:48.352Z</time></trkpt><trkpt lat="38.9151817" lon="16.2827133"><ele>38.0</ele><time>2026-04-08T14:41:49.353Z</time></trkpt><trkpt lat="38.91523" lon="16.2824217"><ele>39.0</ele><time>2026-04-08T14:41:50.353Z</time></trkpt><trkpt lat="38.915275" lon="16.282135"><ele>40.5</ele><time>2026-04-08T14:41:51.353Z</time></trkpt><trkpt lat="38.9153233" lon="16.2818417"><ele>42.0</ele><time>2026-04-08T14:41:52.353Z</time></trkpt><trkpt lat="38.915375" lon="16.2815533"><ele>43.5</ele><time>2026-04-08T14:41:53.352Z</time></trkpt><trkpt lat="38.915425" lon="16.28126"><ele>45.0</ele><time>2026-04-08T14:41:54.352Z</time></trkpt><trkpt lat="38.9154783" lon="16.2809667"><ele>45.0</ele><time>2026-04-08T14:41:55.352Z</time></trkpt><trkpt lat="38.9155367" lon="16.280665"><ele>45.0</ele><time>2026-04-08T14:41:56.352Z</time></trkpt><trkpt lat="38.9155917" lon="16.2803583"><ele>45.5</ele><time>2026-04-08T14:41:57.352Z</time></trkpt><trkpt lat="38.915645" lon="16.2800567"><ele>46.0</ele><time>2026-04-08T14:41:58.352Z</time></trkpt><trkpt lat="38.9157" lon="16.2797583"><ele>46.0</ele><time>2026-04-08T14:41:59.352Z</time></trkpt><trkpt lat="38.91575" lon="16.279455"><ele>46.0</ele><time>2026-04-08T14:42:00.353Z</time></trkpt><trkpt lat="38.9158033" lon="16.2791567"><ele>46.0</ele><time>2026-04-08T14:42:01.352Z</time></trkpt><trkpt lat="38.9158617" lon="16.278865"><ele>46.0</ele><time>2026-04-08T14:42:02.352Z</time></trkpt><trkpt lat="38.9159083" lon="16.2785633"><ele>46.5</ele><time>2026-04-08T14:42:03.353Z</time></trkpt><trkpt lat="38.9159633" lon="16.27827"><ele>47.0</ele><time>2026-04-08T14:42:04.352Z</time></trkpt><trkpt lat="38.916015" lon="16.277975"><ele>48.0</ele><time>2026-04-08T14:42:05.352Z</time></trkpt><trkpt lat="38.9160617" lon="16.2776767"><ele>49.0</ele><time>2026-04-08T14:42:06.353Z</time></trkpt><trkpt lat="38.9161183" lon="16.2773883"><ele>48.5</ele><time>2026-04-08T14:42:07.352Z</time></trkpt><trkpt lat="38.9161667" lon="16.2771033"><ele>48.0</ele><time>2026-04-08T14:42:08.352Z</time></trkpt><trkpt lat="38.9162217" lon="16.2768233"><ele>48.0</ele><time>2026-04-08T14:42:09.352Z</time></trkpt><trkpt lat="38.9162783" lon="16.2765267"><ele>48.0</ele><time>2026-04-08T14:42:10.353Z</time></trkpt><trkpt lat="38.916335" lon="16.276245"><ele>48.0</ele><time>2026-04-08T14:42:11.352Z</time></trkpt><trkpt lat="38.91639" lon="16.275955"><ele>48.0</ele><time>2026-04-08T14:42:12.352Z</time></trkpt><trkpt lat="38.916445" lon="16.275655"><ele>47.0</ele><time>2026-04-08T14:42:13.352Z</time></trkpt><trkpt lat="38.9165017" lon="16.2753633"><ele>46.0</ele><time>2026-04-08T14:42:14.353Z</time></trkpt><trkpt lat="38.9165567" lon="16.2750717"><ele>46.0</ele><time>2026-04-08T14:42:15.353Z</time></trkpt><trkpt lat="38.9166083" lon="16.27478"><ele>46.0</ele><time>2026-04-08T14:42:16.353Z</time></trkpt><trkpt lat="38.9166633" lon="16.2744783"><ele>45.5</ele><time>2026-04-08T14:42:17.352Z</time></trkpt><trkpt lat="38.9167217" lon="16.2741767"><ele>45.0</ele><time>2026-04-08T14:42:18.353Z</time></trkpt><trkpt lat="38.91677" lon="16.2738833"><ele>45.0</ele><time>2026-04-08T14:42:19.353Z</time></trkpt><trkpt lat="38.9168167" lon="16.273585"><ele>45.0</ele><time>2026-04-08T14:42:20.352Z</time></trkpt><trkpt lat="38.9168683" lon="16.2732867"><ele>44.5</ele><time>2026-04-08T14:42:21.352Z</time></trkpt><trkpt lat="38.9169217" lon="16.272995"><ele>44.0</ele><time>2026-04-08T14:42:22.353Z</time></trkpt><trkpt lat="38.9169733" lon="16.2726983"><ele>44.0</ele><time>2026-04-08T14:42:23.352Z</time></trkpt><trkpt lat="38.91703" lon="16.272395"><ele>44.0</ele><time>2026-04-08T14:42:24.352Z</time></trkpt><trkpt lat="38.9170883" lon="16.2720983"><ele>43.0</ele><time>2026-04-08T14:42:25.353Z</time></trkpt><trkpt lat="38.917145" lon="16.2718"><ele>42.0</ele><time>2026-04-08T14:42:26.352Z</time></trkpt><trkpt lat="38.9172" lon="16.27149"><ele>41.0</ele><time>2026-04-08T14:42:27.353Z</time></trkpt><trkpt lat="38.9172483" lon="16.2711867"><ele>40.0</ele><time>2026-04-08T14:42:28.353Z</time></trkpt><trkpt lat="38.9173033" lon="16.2708767"><ele>38.5</ele><time>2026-04-08T14:42:29.352Z</time></trkpt><trkpt lat="38.9173633" lon="16.2705783"><ele>37.0</ele><time>2026-04-08T14:42:30.352Z</time></trkpt><trkpt lat="38.9174333" lon="16.270285"><ele>37.0</ele><time>2026-04-08T14:42:31.353Z</time></trkpt><trkpt lat="38.91749" lon="16.26999"><ele>37.0</ele><time>2026-04-08T14:42:32.353Z</time></trkpt><trkpt lat="38.91753" lon="16.2697033"><ele>36.333333333333336</ele><time>2026-04-08T14:42:33.353Z</time></trkpt><trkpt lat="38.917555" lon="16.2694467"><ele>35.666666666666664</ele><time>2026-04-08T14:42:34.353Z</time></trkpt><trkpt lat="38.917575" lon="16.2692067"><ele>35.0</ele><time>2026-04-08T14:42:35.353Z</time></trkpt><trkpt lat="38.9175833" lon="16.2689883"><ele>34.5</ele><time>2026-04-08T14:42:36.353Z</time></trkpt><trkpt lat="38.91759" lon="16.2687883"><ele>34.0</ele><time>2026-04-08T14:42:37.353Z</time></trkpt><trkpt lat="38.9175883" lon="16.2685983"><ele>33.5</ele><time>2026-04-08T14:42:38.352Z</time></trkpt><trkpt lat="38.917605" lon="16.268425"><ele>33.0</ele><time>2026-04-08T14:42:39.353Z</time></trkpt><trkpt lat="38.917635" lon="16.2682667"><ele>32.75</ele><time>2026-04-08T14:42:40.353Z</time></trkpt><trkpt lat="38.9176767" lon="16.2681033"><ele>32.5</ele><time>2026-04-08T14:42:41.353Z</time></trkpt><trkpt lat="38.9177233" lon="16.267945"><ele>32.25</ele><time>2026-04-08T14:42:42.352Z</time></trkpt><trkpt lat="38.91779" lon="16.2677933"><ele>32.0</ele><time>2026-04-08T14:42:43.352Z</time></trkpt><trkpt lat="38.91787" lon="16.2676417"><ele>32.0</ele><time>2026-04-08T14:42:44.352Z</time></trkpt><trkpt lat="38.9179567" lon="16.267505"><ele>32.0</ele><time>2026-04-08T14:42:45.352Z</time></trkpt><trkpt lat="38.9180483" lon="16.2673833"><ele>32.0</ele><time>2026-04-08T14:42:46.352Z</time></trkpt><trkpt lat="38.9181567" lon="16.26728"><ele>32.0</ele><time>2026-04-08T14:42:47.352Z</time></trkpt><trkpt lat="38.918255" lon="16.2671883"><ele>31.8</ele><time>2026-04-08T14:42:48.352Z</time></trkpt><trkpt lat="38.9183517" lon="16.267115"><ele>31.6</ele><time>2026-04-08T14:42:49.352Z</time></trkpt><trkpt lat="38.9184483" lon="16.2670667"><ele>31.400000000000002</ele><time>2026-04-08T14:42:50.352Z</time></trkpt><trkpt lat="38.91854" lon="16.267015"><ele>31.200000000000003</ele><time>2026-04-08T14:42:51.353Z</time></trkpt><trkpt lat="38.9186233" lon="16.2669567"><ele>31.0</ele><time>2026-04-08T14:42:52.352Z</time></trkpt><trkpt lat="38.918705" lon="16.26688"><ele>31.0</ele><time>2026-04-08T14:42:53.353Z</time></trkpt><trkpt lat="38.9187783" lon="16.2667867"><ele>31.0</ele><time>2026-04-08T14:42:54.352Z</time></trkpt><trkpt lat="38.9188467" lon="16.26667"><ele>31.0</ele><time>2026-04-08T14:42:55.352Z</time></trkpt><trkpt lat="38.9188883" lon="16.2665417"><ele>31.0</ele><time>2026-04-08T14:42:56.353Z</time></trkpt><trkpt lat="38.918905" lon="16.2664"><ele>31.0</ele><time>2026-04-08T14:42:57.353Z</time></trkpt><trkpt lat="38.9189017" lon="16.26625"><ele>30.25</ele><time>2026-04-08T14:42:58.353Z</time></trkpt><trkpt lat="38.918875" lon="16.266095"><ele>29.5</ele><time>2026-04-08T14:42:59.352Z</time></trkpt><trkpt lat="38.9188183" lon="16.265935"><ele>28.75</ele><time>2026-04-08T14:43:00.352Z</time></trkpt><trkpt lat="38.9187483" lon="16.26577"><ele>28.0</ele><time>2026-04-08T14:43:01.352Z</time></trkpt><trkpt lat="38.9186667" lon="16.2656"><ele>27.666666666666668</ele><time>2026-04-08T14:43:02.352Z</time></trkpt><trkpt lat="38.9185683" lon="16.265425"><ele>27.333333333333336</ele><time>2026-04-08T14:43:03.353Z</time></trkpt><trkpt lat="38.9184617" lon="16.265245"><ele>27.0</ele><time>2026-04-08T14:43:04.353Z</time></trkpt><trkpt lat="38.91836" lon="16.2650633"><ele>27.0</ele><time>2026-04-08T14:43:05.352Z</time></trkpt><trkpt lat="38.91826" lon="16.2648617"><ele>27.0</ele><time>2026-04-08T14:43:06.353Z</time></trkpt><trkpt lat="38.918175" lon="16.2646817"><ele>27.0</ele><time>2026-04-08T14:43:07.352Z</time></trkpt><trkpt lat="38.9180883" lon="16.264515"><ele>27.25</ele><time>2026-04-08T14:43:08.352Z</time></trkpt><trkpt lat="38.9180133" lon="16.26438"><ele>27.5</ele><time>2026-04-08T14:43:09.353Z</time></trkpt><trkpt lat="38.9179367" lon="16.2642417"><ele>27.75</ele><time>2026-04-08T14:43:10.353Z</time></trkpt><trkpt lat="38.9178517" lon="16.26412"><ele>28.0</ele><time>2026-04-08T14:43:11.352Z</time></trkpt><trkpt lat="38.9177533" lon="16.2640183"><ele>28.0</ele><time>2026-04-08T14:43:12.353Z</time></trkpt><trkpt lat="38.9176383" lon="16.2639483"><ele>28.0</ele><time>2026-04-08T14:43:13.352Z</time></trkpt><trkpt lat="38.9175133" lon="16.26391"><ele>28.0</ele><time>2026-04-08T14:43:14.353Z</time></trkpt><trkpt lat="38.9173767" lon="16.2639117"><ele>28.0</ele><time>2026-04-08T14:43:15.353Z</time></trkpt><trkpt lat="38.917245" lon="16.2639617"><ele>27.25</ele><time>2026-04-08T14:43:16.353Z</time></trkpt><trkpt lat="38.9171283" lon="16.2640467"><ele>26.5</ele><time>2026-04-08T14:43:17.352Z</time></trkpt><trkpt lat="38.91703" lon="16.2641667"><ele>25.75</ele><time>2026-04-08T14:43:18.352Z</time></trkpt><trkpt lat="38.9169583" lon="16.264315"><ele>25.0</ele><time>2026-04-08T14:43:19.353Z</time></trkpt><trkpt lat="38.9169233" lon="16.2644883"><ele>25.0</ele><time>2026-04-08T14:43:20.353Z</time></trkpt><trkpt lat="38.9169133" lon="16.2646583"><ele>25.0</ele><time>2026-04-08T14:43:21.353Z</time></trkpt><trkpt lat="38.916925" lon="16.2648383"><ele>25.0</ele><time>2026-04-08T14:43:22.352Z</time></trkpt><trkpt lat="38.91694" lon="16.2650167"><ele>25.0</ele><time>2026-04-08T14:43:23.352Z</time></trkpt><trkpt lat="38.91695" lon="16.2651983"><ele>25.25</ele><time>2026-04-08T14:43:24.353Z</time></trkpt><trkpt lat="38.91695" lon="16.2653817"><ele>25.5</ele><time>2026-04-08T14:43:25.352Z</time></trkpt><trkpt lat="38.91692" lon="16.2655683"><ele>25.75</ele><time>2026-04-08T14:43:26.352Z</time></trkpt><trkpt lat="38.9168683" lon="16.2657583"><ele>26.0</ele><time>2026-04-08T14:43:27.352Z</time></trkpt><trkpt lat="38.9168" lon="16.26595"><ele>26.666666666666664</ele><time>2026-04-08T14:43:28.352Z</time></trkpt><trkpt lat="38.916705" lon="16.2661283"><ele>27.333333333333336</ele><time>2026-04-08T14:43:29.352Z</time></trkpt><trkpt lat="38.9165933" lon="16.2662817"><ele>28.0</ele><time>2026-04-08T14:43:30.353Z</time></trkpt><trkpt lat="38.9164667" lon="16.26644"><ele>28.666666666666668</ele><time>2026-04-08T14:43:31.352Z</time></trkpt><trkpt lat="38.9163067" lon="16.2665683"><ele>29.333333333333336</ele><time>2026-04-08T14:43:32.352Z</time></trkpt><trkpt lat="38.916155" lon="16.2666833"><ele>30.0</ele><time>2026-04-08T14:43:33.352Z</time></trkpt><trkpt lat="38.9160267" lon="16.26679"><ele>29.333333333333336</ele><time>2026-04-08T14:43:34.352Z</time></trkpt><trkpt lat="38.9159033" lon="16.2668967"><ele>28.666666666666668</ele><time>2026-04-08T14:43:35.353Z</time></trkpt><trkpt lat="38.915785" lon="16.267005"><ele>28.0</ele><time>2026-04-08T14:43:36.353Z</time></trkpt><trkpt lat="38.91566" lon="16.26713"><ele>28.0</ele><time>2026-04-08T14:43:37.352Z</time></trkpt><trkpt lat="38.9155167" lon="16.267265"><ele>28.0</ele><time>2026-04-08T14:43:38.353Z</time></trkpt><trkpt lat="38.91537" lon="16.2674"><ele>28.0</ele><time>2026-04-08T14:43:39.352Z</time></trkpt><trkpt lat="38.9152167" lon="16.26753"><ele>27.333333333333336</ele><time>2026-04-08T14:43:40.353Z</time></trkpt><trkpt lat="38.915055" lon="16.267665"><ele>26.666666666666664</ele><time>2026-04-08T14:43:41.353Z</time></trkpt><trkpt lat="38.9148917" lon="16.2678133"><ele>26.0</ele><time>2026-04-08T14:43:42.352Z</time></trkpt><trkpt lat="38.9147283" lon="16.267965"><ele>26.0</ele><time>2026-04-08T14:43:43.352Z</time></trkpt><trkpt lat="38.9145533" lon="16.2681267"><ele>26.0</ele><time>2026-04-08T14:43:44.353Z</time></trkpt><trkpt lat="38.9143733" lon="16.2682817"><ele>26.0</ele><time>2026-04-08T14:43:45.353Z</time></trkpt><trkpt lat="38.9141883" lon="16.26844"><ele>26.0</ele><time>2026-04-08T14:43:46.352Z</time></trkpt><trkpt lat="38.914005" lon="16.2685983"><ele>26.0</ele><time>2026-04-08T14:43:47.352Z</time></trkpt><trkpt lat="38.9138233" lon="16.2687567"><ele>26.0</ele><time>2026-04-08T14:43:48.352Z</time></trkpt><trkpt lat="38.91364" lon="16.26892"><ele>26.0</ele><time>2026-04-08T14:43:49.352Z</time></trkpt><trkpt lat="38.9134567" lon="16.2690817"><ele>26.0</ele><time>2026-04-08T14:43:50.353Z</time></trkpt><trkpt lat="38.9132683" lon="16.26925"><ele>26.0</ele><time>2026-04-08T14:43:51.353Z</time></trkpt><trkpt lat="38.91308" lon="16.269425"><ele>26.0</ele><time>2026-04-08T14:43:52.352Z</time></trkpt><trkpt lat="38.9128933" lon="16.2695883"><ele>26.0</ele><time>2026-04-08T14:43:53.352Z</time></trkpt><trkpt lat="38.9127033" lon="16.2697533"><ele>26.0</ele><time>2026-04-08T14:43:54.353Z</time></trkpt><trkpt lat="38.9125117" lon="16.2699267"><ele>25.0</ele><time>2026-04-08T14:43:55.352Z</time></trkpt><trkpt lat="38.9123217" lon="16.2701033"><ele>24.0</ele><time>2026-04-08T14:43:56.353Z</time></trkpt><trkpt lat="38.912125" lon="16.270275"><ele>24.0</ele><time>2026-04-08T14:43:57.352Z</time></trkpt><trkpt lat="38.9119267" lon="16.270455"><ele>24.0</ele><time>2026-04-08T14:43:58.352Z</time></trkpt><trkpt lat="38.9117317" lon="16.270625"><ele>24.5</ele><time>2026-04-08T14:43:59.352Z</time></trkpt><trkpt lat="38.9115333" lon="16.2708017"><ele>25.0</ele><time>2026-04-08T14:44:00.352Z</time></trkpt><trkpt lat="38.9113367" lon="16.2709817"><ele>25.0</ele><time>2026-04-08T14:44:01.352Z</time></trkpt><trkpt lat="38.91113" lon="16.2711633"><ele>25.0</ele><time>2026-04-08T14:44:02.352Z</time></trkpt><trkpt lat="38.9109233" lon="16.2713367"><ele>25.0</ele><time>2026-04-08T14:44:03.352Z</time></trkpt><trkpt lat="38.91072" lon="16.27151"><ele>25.0</ele><time>2026-04-08T14:44:04.353Z</time></trkpt><trkpt lat="38.9105167" lon="16.2716983"><ele>25.0</ele><time>2026-04-08T14:44:05.352Z</time></trkpt><trkpt lat="38.9103067" lon="16.2718733"><ele>25.0</ele><time>2026-04-08T14:44:06.352Z</time></trkpt><trkpt lat="38.9101" lon="16.2720417"><ele>25.0</ele><time>2026-04-08T14:44:07.352Z</time></trkpt><trkpt lat="38.9098817" lon="16.2722217"><ele>25.0</ele><time>2026-04-08T14:44:08.353Z</time></trkpt><trkpt lat="38.90967" lon="16.2724083"><ele>25.0</ele><time>2026-04-08T14:44:09.353Z</time></trkpt><trkpt lat="38.9094667" lon="16.27259"><ele>25.0</ele><time>2026-04-08T14:44:10.352Z</time></trkpt><trkpt lat="38.9092533" lon="16.27277"><ele>25.5</ele><time>2026-04-08T14:44:11.353Z</time></trkpt><trkpt lat="38.9090383" lon="16.27295"><ele>26.0</ele><time>2026-04-08T14:44:12.352Z</time></trkpt><trkpt lat="38.90882" lon="16.27313"><ele>26.0</ele><time>2026-04-08T14:44:13.352Z</time></trkpt><trkpt lat="38.908605" lon="16.2733017"><ele>26.0</ele><time>2026-04-08T14:44:14.352Z</time></trkpt><trkpt lat="38.908395" lon="16.2734867"><ele>25.5</ele><time>2026-04-08T14:44:15.353Z</time></trkpt><trkpt lat="38.90818" lon="16.2736633"><ele>25.0</ele><time>2026-04-08T14:44:16.353Z</time></trkpt><trkpt lat="38.9079717" lon="16.2738433"><ele>25.5</ele><time>2026-04-08T14:44:17.353Z</time></trkpt><trkpt lat="38.9077633" lon="16.2740217"><ele>26.0</ele><time>2026-04-08T14:44:18.352Z</time></trkpt><trkpt lat="38.9075483" lon="16.2742083"><ele>26.0</ele><time>2026-04-08T14:44:19.353Z</time></trkpt><trkpt lat="38.907335" lon="16.2743933"><ele>26.0</ele><time>2026-04-08T14:44:20.353Z</time></trkpt><trkpt lat="38.90712" lon="16.274575"><ele>26.0</ele><time>2026-04-08T14:44:21.353Z</time></trkpt><trkpt lat="38.9069067" lon="16.2747633"><ele>26.0</ele><time>2026-04-08T14:44:22.352Z</time></trkpt><trkpt lat="38.9066983" lon="16.274945"><ele>24.5</ele><time>2026-04-08T14:44:23.353Z</time></trkpt><trkpt lat="38.906485" lon="16.2751317"><ele>23.0</ele><time>2026-04-08T14:44:24.352Z</time></trkpt><trkpt lat="38.9062733" lon="16.2753167"><ele>23.0</ele><time>2026-04-08T14:44:25.353Z</time></trkpt><trkpt lat="38.90606" lon="16.2755083"><ele>23.0</ele><time>2026-04-08T14:44:26.353Z</time></trkpt><trkpt lat="38.9058483" lon="16.2756933"><ele>22.0</ele><time>2026-04-08T14:44:27.353Z</time></trkpt><trkpt lat="38.905635" lon="16.275875"><ele>21.0</ele><time>2026-04-08T14:44:28.352Z</time></trkpt><trkpt lat="38.9054167" lon="16.2760533"><ele>21.0</ele><time>2026-04-08T14:44:29.352Z</time></trkpt><trkpt lat="38.9052033" lon="16.2762317"><ele>21.0</ele><time>2026-04-08T14:44:30.352Z</time></trkpt><trkpt lat="38.9049883" lon="16.2764167"><ele>21.0</ele><time>2026-04-08T14:44:31.352Z</time></trkpt><trkpt lat="38.904765" lon="16.27659"><ele>21.0</ele><time>2026-04-08T14:44:32.353Z</time></trkpt><trkpt lat="38.9045433" lon="16.2767617"><ele>21.0</ele><time>2026-04-08T14:44:33.352Z</time></trkpt><trkpt lat="38.9043183" lon="16.27692"><ele>21.0</ele><time>2026-04-08T14:44:34.353Z</time></trkpt><trkpt lat="38.90409" lon="16.277075"><ele>21.0</ele><time>2026-04-08T14:44:35.353Z</time></trkpt><trkpt lat="38.903855" lon="16.2772117"><ele>21.0</ele><time>2026-04-08T14:44:36.353Z</time></trkpt><trkpt lat="38.9036167" lon="16.2773517"><ele>20.0</ele><time>2026-04-08T14:44:37.352Z</time></trkpt><trkpt lat="38.9033733" lon="16.2774767"><ele>19.0</ele><time>2026-04-08T14:44:38.353Z</time></trkpt><trkpt lat="38.90313" lon="16.27759"><ele>19.0</ele><time>2026-04-08T14:44:39.352Z</time></trkpt><trkpt lat="38.9028767" lon="16.2776983"><ele>19.0</ele><time>2026-04-08T14:44:40.353Z</time></trkpt><trkpt lat="38.9026217" lon="16.2777967"><ele>19.0</ele><time>2026-04-08T14:44:41.352Z</time></trkpt><trkpt lat="38.9023667" lon="16.2778817"><ele>19.0</ele><time>2026-04-08T14:44:42.352Z</time></trkpt><trkpt lat="38.9021083" lon="16.2779617"><ele>19.0</ele><time>2026-04-08T14:44:43.352Z</time></trkpt><trkpt lat="38.901845" lon="16.278035"><ele>19.0</ele><time>2026-04-08T14:44:44.353Z</time></trkpt><trkpt lat="38.9015867" lon="16.278105"><ele>19.0</ele><time>2026-04-08T14:44:45.352Z</time></trkpt><trkpt lat="38.9013333" lon="16.2781483"><ele>19.0</ele><time>2026-04-08T14:44:46.352Z</time></trkpt><trkpt lat="38.9010683" lon="16.2781867"><ele>19.5</ele><time>2026-04-08T14:44:47.352Z</time></trkpt><trkpt lat="38.9008033" lon="16.2782217"><ele>20.0</ele><time>2026-04-08T14:44:48.352Z</time></trkpt><trkpt lat="38.9005433" lon="16.278265"><ele>20.0</ele><time>2026-04-08T14:44:49.353Z</time></trkpt><trkpt lat="38.9002783" lon="16.278305"><ele>20.0</ele><time>2026-04-08T14:44:50.353Z</time></trkpt><trkpt lat="38.9000183" lon="16.2783433"><ele>19.5</ele><time>2026-04-08T14:44:51.352Z</time></trkpt><trkpt lat="38.8997617" lon="16.2783933"><ele>19.0</ele><time>2026-04-08T14:44:52.353Z</time></trkpt><trkpt lat="38.8994983" lon="16.2784317"><ele>18.5</ele><time>2026-04-08T14:44:53.353Z</time></trkpt><trkpt lat="38.899235" lon="16.2784683"><ele>18.0</ele><time>2026-04-08T14:44:54.352Z</time></trkpt><trkpt lat="38.8989767" lon="16.2785117"><ele>18.0</ele><time>2026-04-08T14:44:55.352Z</time></trkpt><trkpt lat="38.8987167" lon="16.2785483"><ele>18.0</ele><time>2026-04-08T14:44:56.353Z</time></trkpt><trkpt lat="38.8984617" lon="16.278585"><ele>19.0</ele><time>2026-04-08T14:44:57.352Z</time></trkpt><trkpt lat="38.8981983" lon="16.278625"><ele>20.0</ele><time>2026-04-08T14:44:58.352Z</time></trkpt><trkpt lat="38.8979383" lon="16.27868"><ele>20.0</ele><time>2026-04-08T14:44:59.353Z</time></trkpt><trkpt lat="38.8976767" lon="16.2787233"><ele>20.0</ele><time>2026-04-08T14:45:00.352Z</time></trkpt><trkpt lat="38.897415" lon="16.278755"><ele>19.5</ele><time>2026-04-08T14:45:01.352Z</time></trkpt><trkpt lat="38.8971533" lon="16.2787967"><ele>19.0</ele><time>2026-04-08T14:45:02.352Z</time></trkpt><trkpt lat="38.8968967" lon="16.2788333"><ele>18.5</ele><time>2026-04-08T14:45:03.353Z</time></trkpt><trkpt lat="38.89664" lon="16.2788683"><ele>18.0</ele><time>2026-04-08T14:45:04.352Z</time></trkpt><trkpt lat="38.8963833" lon="16.2789083"><ele>17.5</ele><time>2026-04-08T14:45:05.353Z</time></trkpt><trkpt lat="38.8961233" lon="16.2789483"><ele>17.0</ele><time>2026-04-08T14:45:06.352Z</time></trkpt><trkpt lat="38.8958683" lon="16.278985"><ele>18.0</ele><time>2026-04-08T14:45:07.353Z</time></trkpt><trkpt lat="38.89561" lon="16.2790283"><ele>19.0</ele><time>2026-04-08T14:45:08.352Z</time></trkpt><trkpt lat="38.895345" lon="16.2790667"><ele>18.5</ele><time>2026-04-08T14:45:09.352Z</time></trkpt><trkpt lat="38.8950783" lon="16.2791083"><ele>18.0</ele><time>2026-04-08T14:45:10.353Z</time></trkpt><trkpt lat="38.8948133" lon="16.2791467"><ele>18.0</ele><time>2026-04-08T14:45:11.352Z</time></trkpt><trkpt lat="38.894555" lon="16.2791783"><ele>18.0</ele><time>2026-04-08T14:45:12.353Z</time></trkpt><trkpt lat="38.8942983" lon="16.2792083"><ele>18.5</ele><time>2026-04-08T14:45:13.352Z</time></trkpt><trkpt lat="38.8940283" lon="16.2792433"><ele>19.0</ele><time>2026-04-08T14:45:14.352Z</time></trkpt><trkpt lat="38.8937633" lon="16.2792917"><ele>19.0</ele><time>2026-04-08T14:45:15.353Z</time></trkpt><trkpt lat="38.8935017" lon="16.2793333"><ele>19.0</ele><time>2026-04-08T14:45:16.353Z</time></trkpt><trkpt lat="38.8932433" lon="16.2793733"><ele>19.5</ele><time>2026-04-08T14:45:17.353Z</time></trkpt><trkpt lat="38.8929833" lon="16.2794183"><ele>20.0</ele><time>2026-04-08T14:45:18.352Z</time></trkpt><trkpt lat="38.8927217" lon="16.279455"><ele>20.0</ele><time>2026-04-08T14:45:19.352Z</time></trkpt><trkpt lat="38.89246" lon="16.2794983"><ele>20.0</ele><time>2026-04-08T14:45:20.352Z</time></trkpt><trkpt lat="38.892195" lon="16.27954"><ele>20.0</ele><time>2026-04-08T14:45:21.352Z</time></trkpt><trkpt lat="38.891935" lon="16.2795717"><ele>20.0</ele><time>2026-04-08T14:45:22.352Z</time></trkpt><trkpt lat="38.8916833" lon="16.2796083"><ele>20.0</ele><time>2026-04-08T14:45:23.353Z</time></trkpt><trkpt lat="38.89142" lon="16.2796517"><ele>20.0</ele><time>2026-04-08T14:45:24.352Z</time></trkpt><trkpt lat="38.8911533" lon="16.2796933"><ele>19.5</ele><time>2026-04-08T14:45:25.353Z</time></trkpt><trkpt lat="38.8908783" lon="16.279735"><ele>19.0</ele><time>2026-04-08T14:45:26.353Z</time></trkpt><trkpt lat="38.890615" lon="16.2797733"><ele>19.0</ele><time>2026-04-08T14:45:27.352Z</time></trkpt><trkpt lat="38.8903517" lon="16.279815"><ele>19.0</ele><time>2026-04-08T14:45:28.352Z</time></trkpt><trkpt lat="38.8900867" lon="16.27986"><ele>19.0</ele><time>2026-04-08T14:45:29.353Z</time></trkpt><trkpt lat="38.8898217" lon="16.2799017"><ele>19.0</ele><time>2026-04-08T14:45:30.352Z</time></trkpt><trkpt lat="38.889555" lon="16.2799333"><ele>19.0</ele><time>2026-04-08T14:45:31.352Z</time></trkpt><trkpt lat="38.8892933" lon="16.2799667"><ele>19.0</ele><time>2026-04-08T14:45:32.353Z</time></trkpt><trkpt lat="38.8890317" lon="16.28"><ele>19.5</ele><time>2026-04-08T14:45:33.353Z</time></trkpt><trkpt lat="38.8887717" lon="16.2800367"><ele>20.0</ele><time>2026-04-08T14:45:34.353Z</time></trkpt><trkpt lat="38.8885083" lon="16.28007"><ele>20.0</ele><time>2026-04-08T14:45:35.353Z</time></trkpt><trkpt lat="38.888245" lon="16.280105"><ele>20.0</ele><time>2026-04-08T14:45:36.352Z</time></trkpt><trkpt lat="38.887985" lon="16.280145"><ele>20.0</ele><time>2026-04-08T14:45:37.353Z</time></trkpt><trkpt lat="38.887725" lon="16.28019"><ele>20.0</ele><time>2026-04-08T14:45:38.352Z</time></trkpt><trkpt lat="38.8874717" lon="16.28023"><ele>19.5</ele><time>2026-04-08T14:45:39.352Z</time></trkpt><trkpt lat="38.8872083" lon="16.28028"><ele>19.0</ele><time>2026-04-08T14:45:40.352Z</time></trkpt><trkpt lat="38.88694" lon="16.28031"><ele>20.0</ele><time>2026-04-08T14:45:41.352Z</time></trkpt><trkpt lat="38.8866883" lon="16.2803517"><ele>21.0</ele><time>2026-04-08T14:45:42.353Z</time></trkpt><trkpt lat="38.8864317" lon="16.280395"><ele>21.0</ele><time>2026-04-08T14:45:43.352Z</time></trkpt><trkpt lat="38.88617" lon="16.280425"><ele>21.0</ele><time>2026-04-08T14:45:44.352Z</time></trkpt><trkpt lat="38.8859033" lon="16.28047"><ele>20.0</ele><time>2026-04-08T14:45:45.352Z</time></trkpt><trkpt lat="38.8856383" lon="16.2805083"><ele>19.0</ele><time>2026-04-08T14:45:46.352Z</time></trkpt><trkpt lat="38.88538" lon="16.280555"><ele>19.0</ele><time>2026-04-08T14:45:47.353Z</time></trkpt><trkpt lat="38.8851167" lon="16.280595"><ele>19.0</ele><time>2026-04-08T14:45:48.352Z</time></trkpt><trkpt lat="38.88485" lon="16.280635"><ele>19.0</ele><time>2026-04-08T14:45:49.353Z</time></trkpt><trkpt lat="38.884585" lon="16.2806783"><ele>19.0</ele><time>2026-04-08T14:45:50.352Z</time></trkpt><trkpt lat="38.8843283" lon="16.2807183"><ele>18.5</ele><time>2026-04-08T14:45:51.353Z</time></trkpt><trkpt lat="38.8840683" lon="16.2807567"><ele>18.0</ele><time>2026-04-08T14:45:52.352Z</time></trkpt><trkpt lat="38.8838067" lon="16.2807967"><ele>18.0</ele><time>2026-04-08T14:45:53.353Z</time></trkpt><trkpt lat="38.8835483" lon="16.2808333"><ele>18.0</ele><time>2026-04-08T14:45:54.353Z</time></trkpt><trkpt lat="38.883285" lon="16.2808733"><ele>19.0</ele><time>2026-04-08T14:45:55.352Z</time></trkpt><trkpt lat="38.8830233" lon="16.2809167"><ele>20.0</ele><time>2026-04-08T14:45:56.353Z</time></trkpt><trkpt lat="38.882765" lon="16.2809633"><ele>19.5</ele><time>2026-04-08T14:45:57.352Z</time></trkpt><trkpt lat="38.8825067" lon="16.281005"><ele>19.0</ele><time>2026-04-08T14:45:58.353Z</time></trkpt><trkpt lat="38.882245" lon="16.2810467"><ele>19.0</ele><time>2026-04-08T14:45:59.352Z</time></trkpt><trkpt lat="38.8819767" lon="16.2810783"><ele>19.0</ele><time>2026-04-08T14:46:00.353Z</time></trkpt><trkpt lat="38.8817133" lon="16.2811067"><ele>19.5</ele><time>2026-04-08T14:46:01.352Z</time></trkpt><trkpt lat="38.8814517" lon="16.2811367"><ele>20.0</ele><time>2026-04-08T14:46:02.352Z</time></trkpt><trkpt lat="38.88119" lon="16.2811833"><ele>19.5</ele><time>2026-04-08T14:46:03.353Z</time></trkpt><trkpt lat="38.8809283" lon="16.2812233"><ele>19.0</ele><time>2026-04-08T14:46:04.352Z</time></trkpt><trkpt lat="38.8806683" lon="16.281255"><ele>19.0</ele><time>2026-04-08T14:46:05.352Z</time></trkpt><trkpt lat="38.8804083" lon="16.2812817"><ele>19.0</ele><time>2026-04-08T14:46:06.353Z</time></trkpt><trkpt lat="38.8801467" lon="16.2812983"><ele>19.0</ele><time>2026-04-08T14:46:07.352Z</time></trkpt><trkpt lat="38.8798867" lon="16.2813117"><ele>19.0</ele><time>2026-04-08T14:46:08.352Z</time></trkpt><trkpt lat="38.8796233" lon="16.281315"><ele>19.0</ele><time>2026-04-08T14:46:09.353Z</time></trkpt><trkpt lat="38.8793617" lon="16.28133"><ele>19.0</ele><time>2026-04-08T14:46:10.352Z</time></trkpt><trkpt lat="38.879105" lon="16.28134"><ele>19.5</ele><time>2026-04-08T14:46:11.352Z</time></trkpt><trkpt lat="38.8788383" lon="16.281345"><ele>20.0</ele><time>2026-04-08T14:46:12.352Z</time></trkpt><trkpt lat="38.8785783" lon="16.2813483"><ele>20.0</ele><time>2026-04-08T14:46:13.353Z</time></trkpt><trkpt lat="38.878315" lon="16.28136"><ele>20.0</ele><time>2026-04-08T14:46:14.352Z</time></trkpt><trkpt lat="38.8780567" lon="16.281375"><ele>20.0</ele><time>2026-04-08T14:46:15.352Z</time></trkpt><trkpt lat="38.8778" lon="16.2813783"><ele>20.0</ele><time>2026-04-08T14:46:16.352Z</time></trkpt><trkpt lat="38.8775367" lon="16.2813783"><ele>20.0</ele><time>2026-04-08T14:46:17.352Z</time></trkpt><trkpt lat="38.8772667" lon="16.2813833"><ele>20.0</ele><time>2026-04-08T14:46:18.353Z</time></trkpt><trkpt lat="38.8770067" lon="16.2813967"><ele>19.5</ele><time>2026-04-08T14:46:19.352Z</time></trkpt><trkpt lat="38.876745" lon="16.2814017"><ele>19.0</ele><time>2026-04-08T14:46:20.352Z</time></trkpt><trkpt lat="38.87648" lon="16.28141"><ele>19.0</ele><time>2026-04-08T14:46:21.352Z</time></trkpt><trkpt lat="38.8762167" lon="16.2814133"><ele>19.0</ele><time>2026-04-08T14:46:22.353Z</time></trkpt><trkpt lat="38.8759533" lon="16.28142"><ele>19.0</ele><time>2026-04-08T14:46:23.353Z</time></trkpt><trkpt lat="38.8756867" lon="16.2814283"><ele>19.0</ele><time>2026-04-08T14:46:24.352Z</time></trkpt><trkpt lat="38.8754267" lon="16.281425"><ele>19.0</ele><time>2026-04-08T14:46:25.353Z</time></trkpt><trkpt lat="38.8751633" lon="16.2814267"><ele>19.0</ele><time>2026-04-08T14:46:26.352Z</time></trkpt><trkpt lat="38.8748983" lon="16.28143"><ele>21.0</ele><time>2026-04-08T14:46:27.352Z</time></trkpt><trkpt lat="38.8746333" lon="16.2814283"><ele>23.0</ele><time>2026-04-08T14:46:28.352Z</time></trkpt><trkpt lat="38.874365" lon="16.2814383"><ele>25.0</ele><time>2026-04-08T14:46:29.352Z</time></trkpt><trkpt lat="38.8741033" lon="16.2814433"><ele>27.0</ele><time>2026-04-08T14:46:30.352Z</time></trkpt><trkpt lat="38.8738417" lon="16.2814467"><ele>27.0</ele><time>2026-04-08T14:46:31.352Z</time></trkpt><trkpt lat="38.873585" lon="16.2814417"><ele>27.0</ele><time>2026-04-08T14:46:32.353Z</time></trkpt><trkpt lat="38.873315" lon="16.2814567"><ele>27.0</ele><time>2026-04-08T14:46:33.352Z</time></trkpt><trkpt lat="38.87305" lon="16.2814733"><ele>27.0</ele><time>2026-04-08T14:46:34.352Z</time></trkpt><trkpt lat="38.8727883" lon="16.281475"><ele>28.0</ele><time>2026-04-08T14:46:35.353Z</time></trkpt><trkpt lat="38.87252" lon="16.2814883"><ele>29.0</ele><time>2026-04-08T14:46:36.352Z</time></trkpt><trkpt lat="38.8722567" lon="16.2814917"><ele>29.0</ele><time>2026-04-08T14:46:37.352Z</time></trkpt><trkpt lat="38.8719917" lon="16.2815"><ele>29.0</ele><time>2026-04-08T14:46:38.353Z</time></trkpt><trkpt lat="38.87172" lon="16.2815033"><ele>29.5</ele><time>2026-04-08T14:46:39.353Z</time></trkpt><trkpt lat="38.871455" lon="16.2815033"><ele>30.0</ele><time>2026-04-08T14:46:40.353Z</time></trkpt><trkpt lat="38.8711917" lon="16.2815067"><ele>31.5</ele><time>2026-04-08T14:46:41.352Z</time></trkpt><trkpt lat="38.87093" lon="16.2815083"><ele>33.0</ele><time>2026-04-08T14:46:42.352Z</time></trkpt><trkpt lat="38.87067" lon="16.28149"><ele>33.0</ele><time>2026-04-08T14:46:43.353Z</time></trkpt><trkpt lat="38.87041" lon="16.28148"><ele>33.0</ele><time>2026-04-08T14:46:44.353Z</time></trkpt><trkpt lat="38.870155" lon="16.28146"><ele>32.5</ele><time>2026-04-08T14:46:45.352Z</time></trkpt><trkpt lat="38.8698933" lon="16.2814267"><ele>32.0</ele><time>2026-04-08T14:46:46.352Z</time></trkpt><trkpt lat="38.8696333" lon="16.2813783"><ele>32.0</ele><time>2026-04-08T14:46:47.352Z</time></trkpt><trkpt lat="38.86938" lon="16.2813283"><ele>32.0</ele><time>2026-04-08T14:46:48.352Z</time></trkpt><trkpt lat="38.86912" lon="16.2812533"><ele>31.5</ele><time>2026-04-08T14:46:49.353Z</time></trkpt><trkpt lat="38.868875" lon="16.2811583"><ele>31.0</ele><time>2026-04-08T14:46:50.353Z</time></trkpt><trkpt lat="38.8686217" lon="16.2810567"><ele>30.5</ele><time>2026-04-08T14:46:51.353Z</time></trkpt><trkpt lat="38.8683833" lon="16.2809383"><ele>30.0</ele><time>2026-04-08T14:46:52.353Z</time></trkpt><trkpt lat="38.8681383" lon="16.280805"><ele>30.0</ele><time>2026-04-08T14:46:53.352Z</time></trkpt><trkpt lat="38.8679017" lon="16.2806567"><ele>30.0</ele><time>2026-04-08T14:46:54.353Z</time></trkpt><trkpt lat="38.8676733" lon="16.280495"><ele>30.0</ele><time>2026-04-08T14:46:55.352Z</time></trkpt><trkpt lat="38.867445" lon="16.2803167"><ele>30.0</ele><time>2026-04-08T14:46:56.353Z</time></trkpt><trkpt lat="38.8672217" lon="16.2801517"><ele>30.0</ele><time>2026-04-08T14:46:57.353Z</time></trkpt><trkpt lat="38.8670033" lon="16.279965"><ele>30.0</ele><time>2026-04-08T14:46:58.352Z</time></trkpt><trkpt lat="38.866795" lon="16.2797617"><ele>30.5</ele><time>2026-04-08T14:46:59.352Z</time></trkpt><trkpt lat="38.8665867" lon="16.2795567"><ele>31.0</ele><time>2026-04-08T14:47:00.353Z</time></trkpt><trkpt lat="38.86637" lon="16.2793533"><ele>31.0</ele><time>2026-04-08T14:47:01.352Z</time></trkpt><trkpt lat="38.8661617" lon="16.2791467"><ele>31.0</ele><time>2026-04-08T14:47:02.353Z</time></trkpt><trkpt lat="38.8659583" lon="16.2789317"><ele>30.5</ele><time>2026-04-08T14:47:03.352Z</time></trkpt><trkpt lat="38.8657617" lon="16.2787167"><ele>30.0</ele><time>2026-04-08T14:47:04.353Z</time></trkpt><trkpt lat="38.865555" lon="16.2785017"><ele>30.0</ele><time>2026-04-08T14:47:05.352Z</time></trkpt><trkpt lat="38.8653467" lon="16.2782967"><ele>30.0</ele><time>2026-04-08T14:47:06.352Z</time></trkpt><trkpt lat="38.86513" lon="16.2780983"><ele>29.5</ele><time>2026-04-08T14:47:07.353Z</time></trkpt><trkpt lat="38.8649283" lon="16.2778867"><ele>29.0</ele><time>2026-04-08T14:47:08.352Z</time></trkpt><trkpt lat="38.864715" lon="16.27769"><ele>29.0</ele><time>2026-04-08T14:47:09.352Z</time></trkpt><trkpt lat="38.8645033" lon="16.277485"><ele>29.0</ele><time>2026-04-08T14:47:10.353Z</time></trkpt><trkpt lat="38.86429" lon="16.2773033"><ele>27.5</ele><time>2026-04-08T14:47:11.352Z</time></trkpt><trkpt lat="38.8640733" lon="16.2771067"><ele>26.0</ele><time>2026-04-08T14:47:12.353Z</time></trkpt><trkpt lat="38.8638517" lon="16.2769117"><ele>26.0</ele><time>2026-04-08T14:47:13.353Z</time></trkpt><trkpt lat="38.8636233" lon="16.2767383"><ele>26.0</ele><time>2026-04-08T14:47:14.353Z</time></trkpt><trkpt lat="38.863395" lon="16.2765833"><ele>25.0</ele><time>2026-04-08T14:47:15.352Z</time></trkpt><trkpt lat="38.86316" lon="16.2764267"><ele>24.0</ele><time>2026-04-08T14:47:16.352Z</time></trkpt><trkpt lat="38.86292" lon="16.27628"><ele>24.0</ele><time>2026-04-08T14:47:17.352Z</time></trkpt><trkpt lat="38.8626733" lon="16.2761383"><ele>24.0</ele><time>2026-04-08T14:47:18.352Z</time></trkpt><trkpt lat="38.8624367" lon="16.276005"><ele>22.5</ele><time>2026-04-08T14:47:19.353Z</time></trkpt><trkpt lat="38.86219" lon="16.2758817"><ele>21.0</ele><time>2026-04-08T14:47:20.352Z</time></trkpt><trkpt lat="38.8619483" lon="16.27577"><ele>19.5</ele><time>2026-04-08T14:47:21.352Z</time></trkpt><trkpt lat="38.8617033" lon="16.2756617"><ele>18.0</ele><time>2026-04-08T14:47:22.353Z</time></trkpt><trkpt lat="38.86145" lon="16.27557"><ele>17.5</ele><time>2026-04-08T14:47:23.352Z</time></trkpt><trkpt lat="38.8611917" lon="16.27549"><ele>17.0</ele><time>2026-04-08T14:47:24.352Z</time></trkpt><trkpt lat="38.8609367" lon="16.2754117"><ele>17.0</ele><time>2026-04-08T14:47:25.353Z</time></trkpt><trkpt lat="38.8606767" lon="16.2753333"><ele>17.0</ele><time>2026-04-08T14:47:26.352Z</time></trkpt><trkpt lat="38.8604217" lon="16.275265"><ele>17.0</ele><time>2026-04-08T14:47:27.353Z</time></trkpt><trkpt lat="38.860165" lon="16.2751933"><ele>17.0</ele><time>2026-04-08T14:47:28.352Z</time></trkpt><trkpt lat="38.8599033" lon="16.2751233"><ele>18.0</ele><time>2026-04-08T14:47:29.353Z</time></trkpt><trkpt lat="38.8596467" lon="16.2750567"><ele>19.0</ele><time>2026-04-08T14:47:30.353Z</time></trkpt><trkpt lat="38.859385" lon="16.2749883"><ele>18.0</ele><time>2026-04-08T14:47:31.353Z</time></trkpt><trkpt lat="38.859125" lon="16.2749133"><ele>17.0</ele><time>2026-04-08T14:47:32.352Z</time></trkpt><trkpt lat="38.85887" lon="16.2748383"><ele>17.0</ele><time>2026-04-08T14:47:33.352Z</time></trkpt><trkpt lat="38.85862" lon="16.2747633"><ele>17.0</ele><time>2026-04-08T14:47:34.352Z</time></trkpt><trkpt lat="38.8583717" lon="16.2746833"><ele>17.0</ele><time>2026-04-08T14:47:35.353Z</time></trkpt><trkpt lat="38.8581233" lon="16.2745867"><ele>17.0</ele><time>2026-04-08T14:47:36.352Z</time></trkpt><trkpt lat="38.8578767" lon="16.2744783"><ele>17.0</ele><time>2026-04-08T14:47:37.352Z</time></trkpt><trkpt lat="38.8576283" lon="16.2743583"><ele>17.0</ele><time>2026-04-08T14:47:38.353Z</time></trkpt><trkpt lat="38.8573867" lon="16.2742283"><ele>16.5</ele><time>2026-04-08T14:47:39.352Z</time></trkpt><trkpt lat="38.8571433" lon="16.2740917"><ele>16.0</ele><time>2026-04-08T14:47:40.352Z</time></trkpt><trkpt lat="38.856905" lon="16.2739433"><ele>16.5</ele><time>2026-04-08T14:47:41.352Z</time></trkpt><trkpt lat="38.85667" lon="16.2737917"><ele>17.0</ele><time>2026-04-08T14:47:42.352Z</time></trkpt><trkpt lat="38.8564383" lon="16.2736283"><ele>17.0</ele><time>2026-04-08T14:47:43.352Z</time></trkpt><trkpt lat="38.8562133" lon="16.2734633"><ele>17.0</ele><time>2026-04-08T14:47:44.352Z</time></trkpt><trkpt lat="38.8559817" lon="16.2732883"><ele>18.0</ele><time>2026-04-08T14:47:45.352Z</time></trkpt><trkpt lat="38.8557567" lon="16.2731233"><ele>19.0</ele><time>2026-04-08T14:47:46.352Z</time></trkpt><trkpt lat="38.8555317" lon="16.27294"><ele>19.5</ele><time>2026-04-08T14:47:47.352Z</time></trkpt><trkpt lat="38.8553083" lon="16.2727617"><ele>20.0</ele><time>2026-04-08T14:47:48.352Z</time></trkpt><trkpt lat="38.8550833" lon="16.2725767"><ele>20.5</ele><time>2026-04-08T14:47:49.352Z</time></trkpt><trkpt lat="38.8548617" lon="16.272405"><ele>21.0</ele><time>2026-04-08T14:47:50.352Z</time></trkpt><trkpt lat="38.8546433" lon="16.2722233"><ele>21.0</ele><time>2026-04-08T14:47:51.353Z</time></trkpt><trkpt lat="38.854425" lon="16.2720333"><ele>21.0</ele><time>2026-04-08T14:47:52.352Z</time></trkpt><trkpt lat="38.8542" lon="16.27185"><ele>21.0</ele><time>2026-04-08T14:47:53.352Z</time></trkpt><trkpt lat="38.8539783" lon="16.2716617"><ele>21.0</ele><time>2026-04-08T14:47:54.352Z</time></trkpt><trkpt lat="38.85375" lon="16.2714817"><ele>21.0</ele><time>2026-04-08T14:47:55.353Z</time></trkpt><trkpt lat="38.8535317" lon="16.2712933"><ele>21.0</ele><time>2026-04-08T14:47:56.352Z</time></trkpt><trkpt lat="38.85331" lon="16.2711133"><ele>21.0</ele><time>2026-04-08T14:47:57.352Z</time></trkpt><trkpt lat="38.8530833" lon="16.27093"><ele>21.0</ele><time>2026-04-08T14:47:58.353Z</time></trkpt><trkpt lat="38.8528667" lon="16.2707467"><ele>20.5</ele><time>2026-04-08T14:47:59.352Z</time></trkpt><trkpt lat="38.8526517" lon="16.270565"><ele>20.0</ele><time>2026-04-08T14:48:00.352Z</time></trkpt><trkpt lat="38.8524233" lon="16.2703917"><ele>21.5</ele><time>2026-04-08T14:48:01.352Z</time></trkpt><trkpt lat="38.8522033" lon="16.2702167"><ele>23.0</ele><time>2026-04-08T14:48:02.352Z</time></trkpt><trkpt lat="38.8519783" lon="16.2700383"><ele>22.0</ele><time>2026-04-08T14:48:03.352Z</time></trkpt><trkpt lat="38.851755" lon="16.2698583"><ele>21.0</ele><time>2026-04-08T14:48:04.353Z</time></trkpt><trkpt lat="38.8515317" lon="16.2696717"><ele>20.5</ele><time>2026-04-08T14:48:05.353Z</time></trkpt><trkpt lat="38.8513083" lon="16.2694917"><ele>20.0</ele><time>2026-04-08T14:48:06.353Z</time></trkpt><trkpt lat="38.8510867" lon="16.26931"><ele>21.5</ele><time>2026-04-08T14:48:07.353Z</time></trkpt><trkpt lat="38.850865" lon="16.2691367"><ele>23.0</ele><time>2026-04-08T14:48:08.352Z</time></trkpt><trkpt lat="38.850645" lon="16.2689533"><ele>22.0</ele><time>2026-04-08T14:48:09.353Z</time></trkpt><trkpt lat="38.8504283" lon="16.2687733"><ele>21.0</ele><time>2026-04-08T14:48:10.353Z</time></trkpt><trkpt lat="38.850205" lon="16.2685917"><ele>23.0</ele><time>2026-04-08T14:48:11.352Z</time></trkpt><trkpt lat="38.8499833" lon="16.2684067"><ele>25.0</ele><time>2026-04-08T14:48:12.352Z</time></trkpt><trkpt lat="38.84976" lon="16.2682233"><ele>23.5</ele><time>2026-04-08T14:48:13.353Z</time></trkpt><trkpt lat="38.8495417" lon="16.2680567"><ele>22.0</ele><time>2026-04-08T14:48:14.353Z</time></trkpt><trkpt lat="38.849315" lon="16.267875"><ele>23.0</ele><time>2026-04-08T14:48:15.353Z</time></trkpt><trkpt lat="38.849095" lon="16.2676917"><ele>24.0</ele><time>2026-04-08T14:48:16.353Z</time></trkpt><trkpt lat="38.8488767" lon="16.2675083"><ele>24.0</ele><time>2026-04-08T14:48:17.352Z</time></trkpt><trkpt lat="38.8486583" lon="16.2673317"><ele>24.0</ele><time>2026-04-08T14:48:18.352Z</time></trkpt><trkpt lat="38.8484367" lon="16.2671533"><ele>24.5</ele><time>2026-04-08T14:48:19.353Z</time></trkpt><trkpt lat="38.8482167" lon="16.2669667"><ele>25.0</ele><time>2026-04-08T14:48:20.353Z</time></trkpt><trkpt lat="38.8479883" lon="16.2667967"><ele>25.0</ele><time>2026-04-08T14:48:21.352Z</time></trkpt><trkpt lat="38.847765" lon="16.2666217"><ele>25.0</ele><time>2026-04-08T14:48:22.353Z</time></trkpt><trkpt lat="38.84754" lon="16.2664367"><ele>25.5</ele><time>2026-04-08T14:48:23.352Z</time></trkpt><trkpt lat="38.84732" lon="16.2662583"><ele>26.0</ele><time>2026-04-08T14:48:24.352Z</time></trkpt><trkpt lat="38.8470967" lon="16.2660817"><ele>26.0</ele><time>2026-04-08T14:48:25.352Z</time></trkpt><trkpt lat="38.846875" lon="16.2659083"><ele>26.0</ele><time>2026-04-08T14:48:26.353Z</time></trkpt><trkpt lat="38.8466517" lon="16.2657233"><ele>27.0</ele><time>2026-04-08T14:48:27.352Z</time></trkpt><trkpt lat="38.846425" lon="16.2655533"><ele>28.0</ele><time>2026-04-08T14:48:28.352Z</time></trkpt><trkpt lat="38.8461933" lon="16.2653833"><ele>27.5</ele><time>2026-04-08T14:48:29.352Z</time></trkpt><trkpt lat="38.84596" lon="16.2652167"><ele>27.0</ele><time>2026-04-08T14:48:30.352Z</time></trkpt><trkpt lat="38.84573" lon="16.2650517"><ele>27.0</ele><time>2026-04-08T14:48:31.352Z</time></trkpt><trkpt lat="38.845495" lon="16.2648983"><ele>27.0</ele><time>2026-04-08T14:48:32.352Z</time></trkpt><trkpt lat="38.8452583" lon="16.264745"><ele>28.0</ele><time>2026-04-08T14:48:33.352Z</time></trkpt><trkpt lat="38.8450167" lon="16.264595"><ele>29.0</ele><time>2026-04-08T14:48:34.352Z</time></trkpt><trkpt lat="38.8447767" lon="16.26445"><ele>29.0</ele><time>2026-04-08T14:48:35.352Z</time></trkpt><trkpt lat="38.8445367" lon="16.2643133"><ele>29.0</ele><time>2026-04-08T14:48:36.353Z</time></trkpt><trkpt lat="38.844305" lon="16.26418"><ele>28.5</ele><time>2026-04-08T14:48:37.352Z</time></trkpt><trkpt lat="38.844065" lon="16.26405"><ele>28.0</ele><time>2026-04-08T14:48:38.352Z</time></trkpt><trkpt lat="38.843825" lon="16.2639217"><ele>27.5</ele><time>2026-04-08T14:48:39.353Z</time></trkpt><trkpt lat="38.8435817" lon="16.2638017"><ele>27.0</ele><time>2026-04-08T14:48:40.352Z</time></trkpt><trkpt lat="38.84334" lon="16.2636833"><ele>28.0</ele><time>2026-04-08T14:48:41.352Z</time></trkpt><trkpt lat="38.8430967" lon="16.2635667"><ele>29.0</ele><time>2026-04-08T14:48:42.353Z</time></trkpt><trkpt lat="38.8428483" lon="16.2634383"><ele>29.5</ele><time>2026-04-08T14:48:43.352Z</time></trkpt><trkpt lat="38.842605" lon="16.2633167"><ele>30.0</ele><time>2026-04-08T14:48:44.352Z</time></trkpt><trkpt lat="38.8423633" lon="16.26319"><ele>30.0</ele><time>2026-04-08T14:48:45.352Z</time></trkpt><trkpt lat="38.8421183" lon="16.26307"><ele>30.0</ele><time>2026-04-08T14:48:46.353Z</time></trkpt><trkpt lat="38.841875" lon="16.2629483"><ele>31.0</ele><time>2026-04-08T14:48:47.353Z</time></trkpt><trkpt lat="38.8416283" lon="16.2628283"><ele>32.0</ele><time>2026-04-08T14:48:48.353Z</time></trkpt><trkpt lat="38.84138" lon="16.2627017"><ele>32.0</ele><time>2026-04-08T14:48:49.352Z</time></trkpt><trkpt lat="38.84113" lon="16.2625683"><ele>32.0</ele><time>2026-04-08T14:48:50.352Z</time></trkpt><trkpt lat="38.840885" lon="16.2624317"><ele>32.0</ele><time>2026-04-08T14:48:51.352Z</time></trkpt><trkpt lat="38.8406467" lon="16.2622817"><ele>32.0</ele><time>2026-04-08T14:48:52.352Z</time></trkpt><trkpt lat="38.8404083" lon="16.26214"><ele>31.0</ele><time>2026-04-08T14:48:53.352Z</time></trkpt><trkpt lat="38.8401683" lon="16.26199"><ele>30.0</ele><time>2026-04-08T14:48:54.352Z</time></trkpt><trkpt lat="38.8399333" lon="16.26184"><ele>33.0</ele><time>2026-04-08T14:48:55.353Z</time></trkpt><trkpt lat="38.839705" lon="16.2616883"><ele>36.0</ele><time>2026-04-08T14:48:56.352Z</time></trkpt><trkpt lat="38.8394733" lon="16.2615217"><ele>34.0</ele><time>2026-04-08T14:48:57.352Z</time></trkpt><trkpt lat="38.8392433" lon="16.2613617"><ele>32.0</ele><time>2026-04-08T14:48:58.353Z</time></trkpt><trkpt lat="38.8390167" lon="16.2611917"><ele>32.0</ele><time>2026-04-08T14:48:59.353Z</time></trkpt><trkpt lat="38.83879" lon="16.2610133"><ele>32.0</ele><time>2026-04-08T14:49:00.353Z</time></trkpt><trkpt lat="38.8385633" lon="16.260835"><ele>32.0</ele><time>2026-04-08T14:49:01.352Z</time></trkpt><trkpt lat="38.8383467" lon="16.2606517"><ele>32.0</ele><time>2026-04-08T14:49:02.353Z</time></trkpt><trkpt lat="38.8381233" lon="16.26047"><ele>31.0</ele><time>2026-04-08T14:49:03.353Z</time></trkpt><trkpt lat="38.8379017" lon="16.2602833"><ele>30.0</ele><time>2026-04-08T14:49:04.352Z</time></trkpt><trkpt lat="38.8376833" lon="16.2600867"><ele>30.5</ele><time>2026-04-08T14:49:05.353Z</time></trkpt><trkpt lat="38.8374583" lon="16.259895"><ele>31.0</ele><time>2026-04-08T14:49:06.352Z</time></trkpt><trkpt lat="38.8372367" lon="16.2597083"><ele>30.0</ele><time>2026-04-08T14:49:07.352Z</time></trkpt><trkpt lat="38.837015" lon="16.25953"><ele>29.0</ele><time>2026-04-08T14:49:08.352Z</time></trkpt><trkpt lat="38.8368" lon="16.259345"><ele>29.0</ele><time>2026-04-08T14:49:09.353Z</time></trkpt><trkpt lat="38.8365783" lon="16.2591533"><ele>29.0</ele><time>2026-04-08T14:49:10.352Z</time></trkpt><trkpt lat="38.836355" lon="16.25897"><ele>29.0</ele><time>2026-04-08T14:49:11.352Z</time></trkpt><trkpt lat="38.83612" lon="16.258795"><ele>29.0</ele><time>2026-04-08T14:49:12.352Z</time></trkpt><trkpt lat="38.83588" lon="16.25861"><ele>29.0</ele><time>2026-04-08T14:49:13.353Z</time></trkpt><trkpt lat="38.8356517" lon="16.2584367"><ele>29.0</ele><time>2026-04-08T14:49:14.352Z</time></trkpt><trkpt lat="38.8354233" lon="16.2582783"><ele>29.0</ele><time>2026-04-08T14:49:15.352Z</time></trkpt><trkpt lat="38.835195" lon="16.258125"><ele>29.0</ele><time>2026-04-08T14:49:16.353Z</time></trkpt><trkpt lat="38.8349633" lon="16.2579683"><ele>29.0</ele><time>2026-04-08T14:49:17.353Z</time></trkpt><trkpt lat="38.8347367" lon="16.2578133"><ele>29.0</ele><time>2026-04-08T14:49:18.352Z</time></trkpt><trkpt lat="38.8345067" lon="16.2576533"><ele>29.0</ele><time>2026-04-08T14:49:19.353Z</time></trkpt><trkpt lat="38.8342767" lon="16.2574933"><ele>29.0</ele><time>2026-04-08T14:49:20.352Z</time></trkpt><trkpt lat="38.8340483" lon="16.2573367"><ele>28.5</ele><time>2026-04-08T14:49:21.353Z</time></trkpt><trkpt lat="38.8338183" lon="16.257185"><ele>28.0</ele><time>2026-04-08T14:49:22.352Z</time></trkpt><trkpt lat="38.8335867" lon="16.2570233"><ele>27.0</ele><time>2026-04-08T14:49:23.353Z</time></trkpt><trkpt lat="38.83335" lon="16.2568683"><ele>26.0</ele><time>2026-04-08T14:49:24.353Z</time></trkpt><trkpt lat="38.8331133" lon="16.2567167"><ele>26.0</ele><time>2026-04-08T14:49:25.352Z</time></trkpt><trkpt lat="38.832875" lon="16.2565533"><ele>26.0</ele><time>2026-04-08T14:49:26.352Z</time></trkpt><trkpt lat="38.83264" lon="16.2563917"><ele>26.0</ele><time>2026-04-08T14:49:27.352Z</time></trkpt><trkpt lat="38.8324083" lon="16.2562333"><ele>26.0</ele><time>2026-04-08T14:49:28.352Z</time></trkpt><trkpt lat="38.832175" lon="16.2560767"><ele>26.0</ele><time>2026-04-08T14:49:29.352Z</time></trkpt><trkpt lat="38.8319383" lon="16.255915"><ele>26.0</ele><time>2026-04-08T14:49:30.353Z</time></trkpt><trkpt lat="38.8317017" lon="16.2557517"><ele>25.5</ele><time>2026-04-08T14:49:31.353Z</time></trkpt><trkpt lat="38.831465" lon="16.2555933"><ele>25.0</ele><time>2026-04-08T14:49:32.352Z</time></trkpt><trkpt lat="38.8312333" lon="16.2554383"><ele>25.0</ele><time>2026-04-08T14:49:33.352Z</time></trkpt><trkpt lat="38.831" lon="16.25528"><ele>25.0</ele><time>2026-04-08T14:49:34.352Z</time></trkpt><trkpt lat="38.8307633" lon="16.2551217"><ele>25.5</ele><time>2026-04-08T14:49:35.352Z</time></trkpt><trkpt lat="38.8305267" lon="16.2549667"><ele>26.0</ele><time>2026-04-08T14:49:36.353Z</time></trkpt><trkpt lat="38.8303" lon="16.254805"><ele>25.5</ele><time>2026-04-08T14:49:37.352Z</time></trkpt><trkpt lat="38.830075" lon="16.2546417"><ele>25.0</ele><time>2026-04-08T14:49:38.353Z</time></trkpt><trkpt lat="38.829845" lon="16.2544783"><ele>25.0</ele><time>2026-04-08T14:49:39.352Z</time></trkpt><trkpt lat="38.8296133" lon="16.254325"><ele>25.0</ele><time>2026-04-08T14:49:40.352Z</time></trkpt><trkpt lat="38.82938" lon="16.2541633"><ele>26.5</ele><time>2026-04-08T14:49:41.352Z</time></trkpt><trkpt lat="38.8291467" lon="16.254"><ele>28.0</ele><time>2026-04-08T14:49:42.353Z</time></trkpt><trkpt lat="38.8289183" lon="16.2538383"><ele>25.5</ele><time>2026-04-08T14:49:43.353Z</time></trkpt><trkpt lat="38.8286917" lon="16.2536733"><ele>23.0</ele><time>2026-04-08T14:49:44.352Z</time></trkpt><trkpt lat="38.8284567" lon="16.2535067"><ele>23.0</ele><time>2026-04-08T14:49:45.353Z</time></trkpt><trkpt lat="38.8282283" lon="16.2533317"><ele>23.0</ele><time>2026-04-08T14:49:46.353Z</time></trkpt><trkpt lat="38.8280033" lon="16.2531617"><ele>22.0</ele><time>2026-04-08T14:49:47.353Z</time></trkpt><trkpt lat="38.8277717" lon="16.2529867"><ele>21.0</ele><time>2026-04-08T14:49:48.353Z</time></trkpt><trkpt lat="38.8275483" lon="16.2528067"><ele>23.0</ele><time>2026-04-08T14:49:49.352Z</time></trkpt><trkpt lat="38.827325" lon="16.25262"><ele>25.0</ele><time>2026-04-08T14:49:50.353Z</time></trkpt><trkpt lat="38.8271067" lon="16.25242"><ele>23.0</ele><time>2026-04-08T14:49:51.352Z</time></trkpt><trkpt lat="38.8269" lon="16.25223"><ele>21.0</ele><time>2026-04-08T14:49:52.353Z</time></trkpt><trkpt lat="38.82669" lon="16.252035"><ele>21.0</ele><time>2026-04-08T14:49:53.352Z</time></trkpt><trkpt lat="38.8264833" lon="16.2518367"><ele>21.0</ele><time>2026-04-08T14:49:54.353Z</time></trkpt><trkpt lat="38.82628" lon="16.25163"><ele>20.0</ele><time>2026-04-08T14:49:55.352Z</time></trkpt><trkpt lat="38.82607" lon="16.2514233"><ele>19.0</ele><time>2026-04-08T14:49:56.352Z</time></trkpt><trkpt lat="38.825865" lon="16.25121"><ele>19.0</ele><time>2026-04-08T14:49:57.352Z</time></trkpt><trkpt lat="38.82567" lon="16.2509933"><ele>19.0</ele><time>2026-04-08T14:49:58.352Z</time></trkpt><trkpt lat="38.825475" lon="16.2507683"><ele>19.0</ele><time>2026-04-08T14:49:59.353Z</time></trkpt><trkpt lat="38.8252833" lon="16.2505483"><ele>19.0</ele><time>2026-04-08T14:50:00.352Z</time></trkpt><trkpt lat="38.8250917" lon="16.2503217"><ele>19.0</ele><time>2026-04-08T14:50:01.352Z</time></trkpt><trkpt lat="38.8249133" lon="16.2500833"><ele>19.0</ele><time>2026-04-08T14:50:02.352Z</time></trkpt><trkpt lat="38.8247317" lon="16.24984"><ele>18.5</ele><time>2026-04-08T14:50:03.353Z</time></trkpt><trkpt lat="38.8245583" lon="16.249585"><ele>18.0</ele><time>2026-04-08T14:50:04.353Z</time></trkpt><trkpt lat="38.8243933" lon="16.249325"><ele>17.5</ele><time>2026-04-08T14:50:05.352Z</time></trkpt><trkpt lat="38.8242283" lon="16.24906"><ele>17.0</ele><time>2026-04-08T14:50:06.352Z</time></trkpt><trkpt lat="38.824075" lon="16.24879"><ele>18.0</ele><time>2026-04-08T14:50:07.352Z</time></trkpt><trkpt lat="38.8239167" lon="16.2485217"><ele>19.0</ele><time>2026-04-08T14:50:08.352Z</time></trkpt><trkpt lat="38.8237633" lon="16.24824"><ele>19.0</ele><time>2026-04-08T14:50:09.353Z</time></trkpt><trkpt lat="38.823615" lon="16.247965"><ele>19.0</ele><time>2026-04-08T14:50:10.352Z</time></trkpt><trkpt lat="38.8234683" lon="16.247685"><ele>19.0</ele><time>2026-04-08T14:50:11.352Z</time></trkpt><trkpt lat="38.82333" lon="16.2474"><ele>19.0</ele><time>2026-04-08T14:50:12.353Z</time></trkpt><trkpt lat="38.8231967" lon="16.2471033"><ele>19.5</ele><time>2026-04-08T14:50:13.353Z</time></trkpt><trkpt lat="38.8230633" lon="16.2468083"><ele>20.0</ele><time>2026-04-08T14:50:14.352Z</time></trkpt><trkpt lat="38.8229367" lon="16.2465167"><ele>20.5</ele><time>2026-04-08T14:50:15.352Z</time></trkpt><trkpt lat="38.8228083" lon="16.24622"><ele>21.0</ele><time>2026-04-08T14:50:16.352Z</time></trkpt><trkpt lat="38.8226883" lon="16.2459167"><ele>20.5</ele><time>2026-04-08T14:50:17.353Z</time></trkpt><trkpt lat="38.8225717" lon="16.2456167"><ele>20.0</ele><time>2026-04-08T14:50:18.352Z</time></trkpt><trkpt lat="38.8224533" lon="16.245315"><ele>20.0</ele><time>2026-04-08T14:50:19.353Z</time></trkpt><trkpt lat="38.8223417" lon="16.2450167"><ele>20.0</ele><time>2026-04-08T14:50:20.352Z</time></trkpt><trkpt lat="38.8222183" lon="16.2447267"><ele>20.0</ele><time>2026-04-08T14:50:21.353Z</time></trkpt><trkpt lat="38.8220983" lon="16.244435"><ele>20.0</ele><time>2026-04-08T14:50:22.353Z</time></trkpt><trkpt lat="38.8219833" lon="16.2441517"><ele>20.0</ele><time>2026-04-08T14:50:23.352Z</time></trkpt><trkpt lat="38.8218567" lon="16.2438533"><ele>20.0</ele><time>2026-04-08T14:50:24.353Z</time></trkpt><trkpt lat="38.821725" lon="16.2435583"><ele>21.0</ele><time>2026-04-08T14:50:25.353Z</time></trkpt><trkpt lat="38.8216067" lon="16.2432583"><ele>22.0</ele><time>2026-04-08T14:50:26.353Z</time></trkpt><trkpt lat="38.8214767" lon="16.2429533"><ele>22.0</ele><time>2026-04-08T14:50:27.353Z</time></trkpt><trkpt lat="38.82135" lon="16.2426633"><ele>22.0</ele><time>2026-04-08T14:50:28.353Z</time></trkpt><trkpt lat="38.8212233" lon="16.2423683"><ele>21.0</ele><time>2026-04-08T14:50:29.352Z</time></trkpt><trkpt lat="38.82108" lon="16.2420783"><ele>20.0</ele><time>2026-04-08T14:50:30.352Z</time></trkpt><trkpt lat="38.820945" lon="16.2417933"><ele>20.0</ele><time>2026-04-08T14:50:31.353Z</time></trkpt><trkpt lat="38.8208033" lon="16.2415033"><ele>20.0</ele><time>2026-04-08T14:50:32.353Z</time></trkpt><trkpt lat="38.8206483" lon="16.2412283"><ele>19.5</ele><time>2026-04-08T14:50:33.352Z</time></trkpt><trkpt lat="38.8205017" lon="16.2409517"><ele>19.0</ele><time>2026-04-08T14:50:34.353Z</time></trkpt><trkpt lat="38.82035" lon="16.24068"><ele>19.0</ele><time>2026-04-08T14:50:35.353Z</time></trkpt><trkpt lat="38.8201883" lon="16.24042"><ele>19.0</ele><time>2026-04-08T14:50:36.352Z</time></trkpt><trkpt lat="38.8200217" lon="16.2401633"><ele>17.5</ele><time>2026-04-08T14:50:37.353Z</time></trkpt><trkpt lat="38.819845" lon="16.2399083"><ele>16.0</ele><time>2026-04-08T14:50:38.352Z</time></trkpt><trkpt lat="38.819665" lon="16.2396567"><ele>15.5</ele><time>2026-04-08T14:50:39.352Z</time></trkpt><trkpt lat="38.81949" lon="16.239405"><ele>15.0</ele><time>2026-04-08T14:50:40.353Z</time></trkpt><trkpt lat="38.81931" lon="16.239155"><ele>14.5</ele><time>2026-04-08T14:50:41.353Z</time></trkpt><trkpt lat="38.8191233" lon="16.2389083"><ele>14.0</ele><time>2026-04-08T14:50:42.352Z</time></trkpt><trkpt lat="38.8189333" lon="16.2386767"><ele>14.0</ele><time>2026-04-08T14:50:43.353Z</time></trkpt><trkpt lat="38.81874" lon="16.23846"><ele>14.0</ele><time>2026-04-08T14:50:44.352Z</time></trkpt><trkpt lat="38.818545" lon="16.2382383"><ele>15.5</ele><time>2026-04-08T14:50:45.353Z</time></trkpt><trkpt lat="38.8183433" lon="16.23803"><ele>17.0</ele><time>2026-04-08T14:50:46.353Z</time></trkpt><trkpt lat="38.8181333" lon="16.237825"><ele>17.0</ele><time>2026-04-08T14:50:47.353Z</time></trkpt><trkpt lat="38.8179233" lon="16.2376317"><ele>17.0</ele><time>2026-04-08T14:50:48.352Z</time></trkpt><trkpt lat="38.8177133" lon="16.237435"><ele>17.5</ele><time>2026-04-08T14:50:49.352Z</time></trkpt><trkpt lat="38.8175" lon="16.2372517"><ele>18.0</ele><time>2026-04-08T14:50:50.352Z</time></trkpt><trkpt lat="38.81728" lon="16.2370617"><ele>18.0</ele><time>2026-04-08T14:50:51.352Z</time></trkpt><trkpt lat="38.817055" lon="16.2368783"><ele>18.0</ele><time>2026-04-08T14:50:52.353Z</time></trkpt><trkpt lat="38.816825" lon="16.2367183"><ele>19.5</ele><time>2026-04-08T14:50:53.352Z</time></trkpt><trkpt lat="38.8165917" lon="16.2365617"><ele>21.0</ele><time>2026-04-08T14:50:54.352Z</time></trkpt><trkpt lat="38.816355" lon="16.23641"><ele>20.0</ele><time>2026-04-08T14:50:55.352Z</time></trkpt><trkpt lat="38.8161133" lon="16.2362617"><ele>19.0</ele><time>2026-04-08T14:50:56.352Z</time></trkpt><trkpt lat="38.8158817" lon="16.23611"><ele>19.0</ele><time>2026-04-08T14:50:57.353Z</time></trkpt><trkpt lat="38.8156417" lon="16.235965"><ele>19.0</ele><time>2026-04-08T14:50:58.352Z</time></trkpt><trkpt lat="38.8153967" lon="16.235835"><ele>21.0</ele><time>2026-04-08T14:50:59.353Z</time></trkpt><trkpt lat="38.81515" lon="16.2357067"><ele>23.0</ele><time>2026-04-08T14:51:00.352Z</time></trkpt><trkpt lat="38.8149033" lon="16.2355783"><ele>18.5</ele><time>2026-04-08T14:51:01.353Z</time></trkpt><trkpt lat="38.8146583" lon="16.2354483"><ele>14.0</ele><time>2026-04-08T14:51:02.352Z</time></trkpt><trkpt lat="38.8144133" lon="16.2353367"><ele>16.0</ele><time>2026-04-08T14:51:03.352Z</time></trkpt><trkpt lat="38.814165" lon="16.2352233"><ele>18.0</ele><time>2026-04-08T14:51:04.353Z</time></trkpt><trkpt lat="38.813915" lon="16.2351017"><ele>18.0</ele><time>2026-04-08T14:51:05.353Z</time></trkpt><trkpt lat="38.81366" lon="16.234995"><ele>18.0</ele><time>2026-04-08T14:51:06.352Z</time></trkpt><trkpt lat="38.8134167" lon="16.2348867"><ele>14.5</ele><time>2026-04-08T14:51:07.353Z</time></trkpt><trkpt lat="38.8131617" lon="16.2347633"><ele>11.0</ele><time>2026-04-08T14:51:08.352Z</time></trkpt><trkpt lat="38.81291" lon="16.2346417"><ele>11.0</ele><time>2026-04-08T14:51:09.352Z</time></trkpt><trkpt lat="38.81266" lon="16.2345267"><ele>11.0</ele><time>2026-04-08T14:51:10.352Z</time></trkpt><trkpt lat="38.8124183" lon="16.2344133"><ele>12.0</ele><time>2026-04-08T14:51:11.352Z</time></trkpt><trkpt lat="38.81217" lon="16.2342917"><ele>13.0</ele><time>2026-04-08T14:51:12.353Z</time></trkpt><trkpt lat="38.8119217" lon="16.234185"><ele>12.5</ele><time>2026-04-08T14:51:13.352Z</time></trkpt><trkpt lat="38.8116817" lon="16.23407"><ele>12.0</ele><time>2026-04-08T14:51:14.352Z</time></trkpt><trkpt lat="38.811435" lon="16.2339517"><ele>12.0</ele><time>2026-04-08T14:51:15.352Z</time></trkpt><trkpt lat="38.81119" lon="16.233845"><ele>12.0</ele><time>2026-04-08T14:51:16.352Z</time></trkpt><trkpt lat="38.8109433" lon="16.23373"><ele>14.0</ele><time>2026-04-08T14:51:17.352Z</time></trkpt><trkpt lat="38.8106983" lon="16.233615"><ele>16.0</ele><time>2026-04-08T14:51:18.352Z</time></trkpt><trkpt lat="38.8104467" lon="16.2335033"><ele>16.0</ele><time>2026-04-08T14:51:19.352Z</time></trkpt><trkpt lat="38.8101933" lon="16.2333917"><ele>16.0</ele><time>2026-04-08T14:51:20.352Z</time></trkpt><trkpt lat="38.8099517" lon="16.2332867"><ele>16.0</ele><time>2026-04-08T14:51:21.352Z</time></trkpt><trkpt lat="38.809705" lon="16.2331667"><ele>16.0</ele><time>2026-04-08T14:51:22.352Z</time></trkpt><trkpt lat="38.809455" lon="16.23305"><ele>14.5</ele><time>2026-04-08T14:51:23.352Z</time></trkpt><trkpt lat="38.80921" lon="16.2329433"><ele>13.0</ele><time>2026-04-08T14:51:24.352Z</time></trkpt><trkpt lat="38.8089633" lon="16.232835"><ele>13.0</ele><time>2026-04-08T14:51:25.353Z</time></trkpt><trkpt lat="38.80872" lon="16.2327267"><ele>13.0</ele><time>2026-04-08T14:51:26.352Z</time></trkpt><trkpt lat="38.80847" lon="16.2326167"><ele>15.0</ele><time>2026-04-08T14:51:27.352Z</time></trkpt><trkpt lat="38.8082267" lon="16.232505"><ele>17.0</ele><time>2026-04-08T14:51:28.352Z</time></trkpt><trkpt lat="38.80798" lon="16.2324"><ele>15.5</ele><time>2026-04-08T14:51:29.353Z</time></trkpt><trkpt lat="38.807735" lon="16.2322783"><ele>14.0</ele><time>2026-04-08T14:51:30.353Z</time></trkpt><trkpt lat="38.8074783" lon="16.2321617"><ele>14.0</ele><time>2026-04-08T14:51:31.353Z</time></trkpt><trkpt lat="38.80722" lon="16.232045"><ele>14.0</ele><time>2026-04-08T14:51:32.352Z</time></trkpt><trkpt lat="38.80697" lon="16.23193"><ele>16.5</ele><time>2026-04-08T14:51:33.352Z</time></trkpt><trkpt lat="38.806725" lon="16.231815"><ele>19.0</ele><time>2026-04-08T14:51:34.353Z</time></trkpt><trkpt lat="38.8064883" lon="16.2317017"><ele>19.0</ele><time>2026-04-08T14:51:35.353Z</time></trkpt><trkpt lat="38.8062383" lon="16.231595"><ele>19.0</ele><time>2026-04-08T14:51:36.352Z</time></trkpt><trkpt lat="38.8059867" lon="16.231485"><ele>17.5</ele><time>2026-04-08T14:51:37.352Z</time></trkpt><trkpt lat="38.8057333" lon="16.2313733"><ele>16.0</ele><time>2026-04-08T14:51:38.352Z</time></trkpt><trkpt lat="38.8054833" lon="16.23126"><ele>16.0</ele><time>2026-04-08T14:51:39.352Z</time></trkpt><trkpt lat="38.8052433" lon="16.231155"><ele>16.0</ele><time>2026-04-08T14:51:40.353Z</time></trkpt><trkpt lat="38.8049967" lon="16.2310367"><ele>17.0</ele><time>2026-04-08T14:51:41.353Z</time></trkpt><trkpt lat="38.8047433" lon="16.2309267"><ele>18.0</ele><time>2026-04-08T14:51:42.353Z</time></trkpt><trkpt lat="38.8044933" lon="16.230815"><ele>18.5</ele><time>2026-04-08T14:51:43.352Z</time></trkpt><trkpt lat="38.8042517" lon="16.230695"><ele>19.0</ele><time>2026-04-08T14:51:44.352Z</time></trkpt><trkpt lat="38.804" lon="16.2305733"><ele>16.5</ele><time>2026-04-08T14:51:45.353Z</time></trkpt><trkpt lat="38.803745" lon="16.2304667"><ele>14.0</ele><time>2026-04-08T14:51:46.352Z</time></trkpt><trkpt lat="38.8034983" lon="16.230355"><ele>15.0</ele><time>2026-04-08T14:51:47.353Z</time></trkpt><trkpt lat="38.803255" lon="16.2302483"><ele>16.0</ele><time>2026-04-08T14:51:48.352Z</time></trkpt><trkpt lat="38.8030017" lon="16.23014"><ele>16.0</ele><time>2026-04-08T14:51:49.352Z</time></trkpt><trkpt lat="38.80275" lon="16.2300317"><ele>16.0</ele><time>2026-04-08T14:51:50.352Z</time></trkpt><trkpt lat="38.8025017" lon="16.22992"><ele>15.0</ele><time>2026-04-08T14:51:51.352Z</time></trkpt><trkpt lat="38.8022567" lon="16.2297983"><ele>14.0</ele><time>2026-04-08T14:51:52.352Z</time></trkpt><trkpt lat="38.8020033" lon="16.2296783"><ele>15.5</ele><time>2026-04-08T14:51:53.353Z</time></trkpt><trkpt lat="38.80176" lon="16.2295567"><ele>17.0</ele><time>2026-04-08T14:51:54.353Z</time></trkpt><trkpt lat="38.8015217" lon="16.2294417"><ele>17.0</ele><time>2026-04-08T14:51:55.352Z</time></trkpt><trkpt lat="38.8012717" lon="16.229315"><ele>17.0</ele><time>2026-04-08T14:51:56.353Z</time></trkpt><trkpt lat="38.8010283" lon="16.2291783"><ele>17.0</ele><time>2026-04-08T14:51:57.352Z</time></trkpt><trkpt lat="38.800785" lon="16.2290433"><ele>17.0</ele><time>2026-04-08T14:51:58.353Z</time></trkpt><trkpt lat="38.8005483" lon="16.2289033"><ele>17.5</ele><time>2026-04-08T14:51:59.352Z</time></trkpt><trkpt lat="38.8003017" lon="16.2287617"><ele>18.0</ele><time>2026-04-08T14:52:00.353Z</time></trkpt><trkpt lat="38.8000583" lon="16.228615"><ele>18.0</ele><time>2026-04-08T14:52:01.352Z</time></trkpt><trkpt lat="38.79985" lon="16.228455"><ele>18.0</ele><time>2026-04-08T14:52:02.352Z</time></trkpt><trkpt lat="38.7996283" lon="16.22825"><ele>15.5</ele><time>2026-04-08T14:52:03.352Z</time></trkpt><trkpt lat="38.799415" lon="16.2280567"><ele>13.0</ele><time>2026-04-08T14:52:04.353Z</time></trkpt><trkpt lat="38.799205" lon="16.2278667"><ele>13.0</ele><time>2026-04-08T14:52:05.352Z</time></trkpt><trkpt lat="38.7989833" lon="16.2276833"><ele>13.0</ele><time>2026-04-08T14:52:06.352Z</time></trkpt><trkpt lat="38.7987683" lon="16.2274883"><ele>13.0</ele><time>2026-04-08T14:52:07.353Z</time></trkpt><trkpt lat="38.7985583" lon="16.227295"><ele>13.0</ele><time>2026-04-08T14:52:08.353Z</time></trkpt><trkpt lat="38.7983517" lon="16.2271033"><ele>13.0</ele><time>2026-04-08T14:52:09.352Z</time></trkpt><trkpt lat="38.7981433" lon="16.2269"><ele>13.0</ele><time>2026-04-08T14:52:10.352Z</time></trkpt><trkpt lat="38.7979317" lon="16.2267033"><ele>13.0</ele><time>2026-04-08T14:52:11.352Z</time></trkpt><trkpt lat="38.7977133" lon="16.2265133"><ele>13.0</ele><time>2026-04-08T14:52:12.353Z</time></trkpt><trkpt lat="38.797495" lon="16.2263233"><ele>13.0</ele><time>2026-04-08T14:52:13.353Z</time></trkpt><trkpt lat="38.7972767" lon="16.2261317"><ele>13.0</ele><time>2026-04-08T14:52:14.352Z</time></trkpt><trkpt lat="38.7970517" lon="16.225945"><ele>12.5</ele><time>2026-04-08T14:52:15.353Z</time></trkpt><trkpt lat="38.7968267" lon="16.2257683"><ele>12.0</ele><time>2026-04-08T14:52:16.353Z</time></trkpt><trkpt lat="38.7966" lon="16.2255967"><ele>12.0</ele><time>2026-04-08T14:52:17.352Z</time></trkpt><trkpt lat="38.7963733" lon="16.2254317"><ele>12.0</ele><time>2026-04-08T14:52:18.353Z</time></trkpt><trkpt lat="38.7961417" lon="16.2252783"><ele>14.5</ele><time>2026-04-08T14:52:19.352Z</time></trkpt><trkpt lat="38.7959083" lon="16.2251267"><ele>17.0</ele><time>2026-04-08T14:52:20.352Z</time></trkpt><trkpt lat="38.7956733" lon="16.2249883"><ele>17.0</ele><time>2026-04-08T14:52:21.353Z</time></trkpt><trkpt lat="38.7954233" lon="16.2248533"><ele>17.0</ele><time>2026-04-08T14:52:22.352Z</time></trkpt><trkpt lat="38.79518" lon="16.22473"><ele>15.0</ele><time>2026-04-08T14:52:23.352Z</time></trkpt><trkpt lat="38.794935" lon="16.2246217"><ele>13.0</ele><time>2026-04-08T14:52:24.353Z</time></trkpt><trkpt lat="38.7946767" lon="16.2245133"><ele>13.0</ele><time>2026-04-08T14:52:25.353Z</time></trkpt><trkpt lat="38.7944333" lon="16.2243983"><ele>13.0</ele><time>2026-04-08T14:52:26.352Z</time></trkpt><trkpt lat="38.7941733" lon="16.2243167"><ele>13.0</ele><time>2026-04-08T14:52:27.353Z</time></trkpt><trkpt lat="38.7939283" lon="16.22423"><ele>13.0</ele><time>2026-04-08T14:52:28.352Z</time></trkpt><trkpt lat="38.7936667" lon="16.224145"><ele>13.5</ele><time>2026-04-08T14:52:29.352Z</time></trkpt><trkpt lat="38.7934117" lon="16.2240683"><ele>14.0</ele><time>2026-04-08T14:52:30.353Z</time></trkpt><trkpt lat="38.793155" lon="16.2240033"><ele>12.5</ele><time>2026-04-08T14:52:31.352Z</time></trkpt><trkpt lat="38.7928883" lon="16.22396"><ele>11.0</ele><time>2026-04-08T14:52:32.352Z</time></trkpt><trkpt lat="38.7926183" lon="16.223905"><ele>10.5</ele><time>2026-04-08T14:52:33.353Z</time></trkpt><trkpt lat="38.7923583" lon="16.2238367"><ele>10.0</ele><time>2026-04-08T14:52:34.353Z</time></trkpt><trkpt lat="38.7921167" lon="16.223745"><ele>10.0</ele><time>2026-04-08T14:52:35.352Z</time></trkpt><trkpt lat="38.7918617" lon="16.2236617"><ele>10.0</ele><time>2026-04-08T14:52:36.353Z</time></trkpt><trkpt lat="38.7916067" lon="16.22358"><ele>10.5</ele><time>2026-04-08T14:52:37.352Z</time></trkpt><trkpt lat="38.79135" lon="16.2234883"><ele>11.0</ele><time>2026-04-08T14:52:38.352Z</time></trkpt><trkpt lat="38.7911" lon="16.2233767"><ele>10.0</ele><time>2026-04-08T14:52:39.352Z</time></trkpt><trkpt lat="38.7908567" lon="16.2232483"><ele>9.0</ele><time>2026-04-08T14:52:40.352Z</time></trkpt><trkpt lat="38.7906183" lon="16.223115"><ele>9.0</ele><time>2026-04-08T14:52:41.353Z</time></trkpt><trkpt lat="38.7903767" lon="16.2229733"><ele>9.0</ele><time>2026-04-08T14:52:42.353Z</time></trkpt><trkpt lat="38.7901367" lon="16.222815"><ele>10.0</ele><time>2026-04-08T14:52:43.353Z</time></trkpt><trkpt lat="38.789905" lon="16.2226517"><ele>11.0</ele><time>2026-04-08T14:52:44.353Z</time></trkpt><trkpt lat="38.7896833" lon="16.222485"><ele>11.0</ele><time>2026-04-08T14:52:45.352Z</time></trkpt><trkpt lat="38.7894617" lon="16.2223067"><ele>11.0</ele><time>2026-04-08T14:52:46.352Z</time></trkpt><trkpt lat="38.7892383" lon="16.2221283"><ele>11.0</ele><time>2026-04-08T14:52:47.352Z</time></trkpt><trkpt lat="38.789015" lon="16.2219533"><ele>11.0</ele><time>2026-04-08T14:52:48.352Z</time></trkpt><trkpt lat="38.7887817" lon="16.221775"><ele>11.0</ele><time>2026-04-08T14:52:49.352Z</time></trkpt><trkpt lat="38.7885617" lon="16.2216"><ele>11.0</ele><time>2026-04-08T14:52:50.352Z</time></trkpt><trkpt lat="38.7883367" lon="16.2214183"><ele>9.5</ele><time>2026-04-08T14:52:51.352Z</time></trkpt><trkpt lat="38.788125" lon="16.2212283"><ele>8.0</ele><time>2026-04-08T14:52:52.352Z</time></trkpt><trkpt lat="38.787905" lon="16.2210333"><ele>8.0</ele><time>2026-04-08T14:52:53.352Z</time></trkpt><trkpt lat="38.7876883" lon="16.2208483"><ele>8.0</ele><time>2026-04-08T14:52:54.353Z</time></trkpt><trkpt lat="38.7874767" lon="16.2206633"><ele>8.0</ele><time>2026-04-08T14:52:55.352Z</time></trkpt><trkpt lat="38.7872533" lon="16.22048"><ele>8.0</ele><time>2026-04-08T14:52:56.353Z</time></trkpt><trkpt lat="38.787035" lon="16.2202933"><ele>11.5</ele><time>2026-04-08T14:52:57.352Z</time></trkpt><trkpt lat="38.7868067" lon="16.220115"><ele>15.0</ele><time>2026-04-08T14:52:58.353Z</time></trkpt><trkpt lat="38.7865833" lon="16.21994"><ele>11.5</ele><time>2026-04-08T14:52:59.352Z</time></trkpt><trkpt lat="38.786355" lon="16.2197683"><ele>8.0</ele><time>2026-04-08T14:53:00.352Z</time></trkpt><trkpt lat="38.7861233" lon="16.2196067"><ele>9.5</ele><time>2026-04-08T14:53:01.352Z</time></trkpt><trkpt lat="38.7859" lon="16.2194533"><ele>11.0</ele><time>2026-04-08T14:53:02.352Z</time></trkpt><trkpt lat="38.7856667" lon="16.2193017"><ele>11.0</ele><time>2026-04-08T14:53:03.352Z</time></trkpt><trkpt lat="38.7854283" lon="16.2191667"><ele>11.0</ele><time>2026-04-08T14:53:04.352Z</time></trkpt><trkpt lat="38.7851833" lon="16.2190417"><ele>8.0</ele><time>2026-04-08T14:53:05.352Z</time></trkpt><trkpt lat="38.7849433" lon="16.21892"><ele>5.0</ele><time>2026-04-08T14:53:06.352Z</time></trkpt><trkpt lat="38.7847033" lon="16.2187967"><ele>5.0</ele><time>2026-04-08T14:53:07.353Z</time></trkpt><trkpt lat="38.7844583" lon="16.2186933"><ele>5.0</ele><time>2026-04-08T14:53:08.352Z</time></trkpt><trkpt lat="38.7841967" lon="16.2185817"><ele>6.0</ele><time>2026-04-08T14:53:09.352Z</time></trkpt><trkpt lat="38.7839417" lon="16.2184717"><ele>7.0</ele><time>2026-04-08T14:53:10.353Z</time></trkpt><trkpt lat="38.7836817" lon="16.2183817"><ele>7.5</ele><time>2026-04-08T14:53:11.352Z</time></trkpt><trkpt lat="38.78343" lon="16.2182967"><ele>8.0</ele><time>2026-04-08T14:53:12.352Z</time></trkpt><trkpt lat="38.78317" lon="16.2182"><ele>8.0</ele><time>2026-04-08T14:53:13.353Z</time></trkpt><trkpt lat="38.78292" lon="16.218105"><ele>8.0</ele><time>2026-04-08T14:53:14.353Z</time></trkpt><trkpt lat="38.7826683" lon="16.2180117"><ele>8.0</ele><time>2026-04-08T14:53:15.353Z</time></trkpt><trkpt lat="38.782415" lon="16.2179183"><ele>8.0</ele><time>2026-04-08T14:53:16.352Z</time></trkpt><trkpt lat="38.7821617" lon="16.2178217"><ele>8.0</ele><time>2026-04-08T14:53:17.352Z</time></trkpt><trkpt lat="38.7819083" lon="16.2177267"><ele>8.0</ele><time>2026-04-08T14:53:18.352Z</time></trkpt><trkpt lat="38.7816583" lon="16.21763"><ele>7.5</ele><time>2026-04-08T14:53:19.353Z</time></trkpt><trkpt lat="38.7814083" lon="16.217535"><ele>7.0</ele><time>2026-04-08T14:53:20.353Z</time></trkpt><trkpt lat="38.7811517" lon="16.217445"><ele>6.5</ele><time>2026-04-08T14:53:21.352Z</time></trkpt><trkpt lat="38.7809033" lon="16.2173467"><ele>6.0</ele><time>2026-04-08T14:53:22.352Z</time></trkpt><trkpt lat="38.7806533" lon="16.21725"><ele>6.0</ele><time>2026-04-08T14:53:23.352Z</time></trkpt><trkpt lat="38.7804017" lon="16.2171483"><ele>6.0</ele><time>2026-04-08T14:53:24.352Z</time></trkpt><trkpt lat="38.7801517" lon="16.2170417"><ele>6.0</ele><time>2026-04-08T14:53:25.352Z</time></trkpt><trkpt lat="38.7799033" lon="16.2169383"><ele>6.0</ele><time>2026-04-08T14:53:26.353Z</time></trkpt><trkpt lat="38.7796483" lon="16.21684"><ele>6.0</ele><time>2026-04-08T14:53:27.353Z</time></trkpt><trkpt lat="38.7794017" lon="16.2167383"><ele>6.0</ele><time>2026-04-08T14:53:28.352Z</time></trkpt><trkpt lat="38.7791533" lon="16.2166317"><ele>6.5</ele><time>2026-04-08T14:53:29.353Z</time></trkpt><trkpt lat="38.7788967" lon="16.2165267"><ele>7.0</ele><time>2026-04-08T14:53:30.353Z</time></trkpt><trkpt lat="38.7786433" lon="16.2164233"><ele>7.0</ele><time>2026-04-08T14:53:31.353Z</time></trkpt><trkpt lat="38.7783883" lon="16.2163217"><ele>7.0</ele><time>2026-04-08T14:53:32.352Z</time></trkpt><trkpt lat="38.7781383" lon="16.216215"><ele>7.0</ele><time>2026-04-08T14:53:33.352Z</time></trkpt><trkpt lat="38.7778833" lon="16.2161117"><ele>7.0</ele><time>2026-04-08T14:53:34.353Z</time></trkpt><trkpt lat="38.77763" lon="16.216005"><ele>6.5</ele><time>2026-04-08T14:53:35.353Z</time></trkpt><trkpt lat="38.7773833" lon="16.215905"><ele>6.0</ele><time>2026-04-08T14:53:36.353Z</time></trkpt><trkpt lat="38.77714" lon="16.215805"><ele>6.0</ele><time>2026-04-08T14:53:37.353Z</time></trkpt><trkpt lat="38.7768933" lon="16.2157117"><ele>6.0</ele><time>2026-04-08T14:53:38.353Z</time></trkpt><trkpt lat="38.776645" lon="16.215615"><ele>5.5</ele><time>2026-04-08T14:53:39.353Z</time></trkpt><trkpt lat="38.7763933" lon="16.2155217"><ele>5.0</ele><time>2026-04-08T14:53:40.352Z</time></trkpt><trkpt lat="38.77615" lon="16.2154167"><ele>5.0</ele><time>2026-04-08T14:53:41.353Z</time></trkpt><trkpt lat="38.7758983" lon="16.215315"><ele>5.0</ele><time>2026-04-08T14:53:42.352Z</time></trkpt><trkpt lat="38.7756533" lon="16.21521"><ele>5.0</ele><time>2026-04-08T14:53:43.352Z</time></trkpt><trkpt lat="38.7753983" lon="16.215115"><ele>5.0</ele><time>2026-04-08T14:53:44.353Z</time></trkpt><trkpt lat="38.7751383" lon="16.2150183"><ele>5.0</ele><time>2026-04-08T14:53:45.352Z</time></trkpt><trkpt lat="38.7748833" lon="16.21492"><ele>5.0</ele><time>2026-04-08T14:53:46.353Z</time></trkpt><trkpt lat="38.774635" lon="16.2148167"><ele>5.0</ele><time>2026-04-08T14:53:47.353Z</time></trkpt><trkpt lat="38.7743817" lon="16.2147083"><ele>5.0</ele><time>2026-04-08T14:53:48.352Z</time></trkpt><trkpt lat="38.77412" lon="16.2146083"><ele>6.5</ele><time>2026-04-08T14:53:49.353Z</time></trkpt><trkpt lat="38.773865" lon="16.21451"><ele>8.0</ele><time>2026-04-08T14:53:50.353Z</time></trkpt><trkpt lat="38.773615" lon="16.2144083"><ele>9.0</ele><time>2026-04-08T14:53:51.352Z</time></trkpt><trkpt lat="38.7733667" lon="16.2142983"><ele>10.0</ele><time>2026-04-08T14:53:52.352Z</time></trkpt><trkpt lat="38.77312" lon="16.21419"><ele>10.0</ele><time>2026-04-08T14:53:53.352Z</time></trkpt><trkpt lat="38.7728783" lon="16.2140617"><ele>10.0</ele><time>2026-04-08T14:53:54.352Z</time></trkpt><trkpt lat="38.7726367" lon="16.2139117"><ele>9.0</ele><time>2026-04-08T14:53:55.352Z</time></trkpt><trkpt lat="38.7724067" lon="16.213735"><ele>8.0</ele><time>2026-04-08T14:53:56.353Z</time></trkpt><trkpt lat="38.7721817" lon="16.2135433"><ele>8.0</ele><time>2026-04-08T14:53:57.352Z</time></trkpt><trkpt lat="38.7719783" lon="16.2133367"><ele>8.0</ele><time>2026-04-08T14:53:58.352Z</time></trkpt><trkpt lat="38.771785" lon="16.2131133"><ele>8.0</ele><time>2026-04-08T14:53:59.352Z</time></trkpt><trkpt lat="38.7716033" lon="16.2128783"><ele>8.0</ele><time>2026-04-08T14:54:00.353Z</time></trkpt><trkpt lat="38.77143" lon="16.2126233"><ele>8.0</ele><time>2026-04-08T14:54:01.352Z</time></trkpt><trkpt lat="38.7712683" lon="16.21236"><ele>8.0</ele><time>2026-04-08T14:54:02.352Z</time></trkpt><trkpt lat="38.7711267" lon="16.2120817"><ele>8.0</ele><time>2026-04-08T14:54:03.353Z</time></trkpt><trkpt lat="38.7709917" lon="16.2117983"><ele>8.0</ele><time>2026-04-08T14:54:04.353Z</time></trkpt><trkpt lat="38.77085" lon="16.2115167"><ele>8.5</ele><time>2026-04-08T14:54:05.353Z</time></trkpt><trkpt lat="38.7707083" lon="16.211235"><ele>9.0</ele><time>2026-04-08T14:54:06.353Z</time></trkpt><trkpt lat="38.7705633" lon="16.2109517"><ele>9.0</ele><time>2026-04-08T14:54:07.352Z</time></trkpt><trkpt lat="38.7704183" lon="16.2106783"><ele>9.0</ele><time>2026-04-08T14:54:08.352Z</time></trkpt><trkpt lat="38.7702767" lon="16.210405"><ele>10.5</ele><time>2026-04-08T14:54:09.353Z</time></trkpt><trkpt lat="38.7701317" lon="16.2101317"><ele>12.0</ele><time>2026-04-08T14:54:10.352Z</time></trkpt><trkpt lat="38.7699783" lon="16.2098617"><ele>11.5</ele><time>2026-04-08T14:54:11.353Z</time></trkpt><trkpt lat="38.7698267" lon="16.20959"><ele>11.0</ele><time>2026-04-08T14:54:12.352Z</time></trkpt><trkpt lat="38.769665" lon="16.2093217"><ele>11.0</ele><time>2026-04-08T14:54:13.353Z</time></trkpt><trkpt lat="38.7695017" lon="16.209055"><ele>11.0</ele><time>2026-04-08T14:54:14.352Z</time></trkpt><trkpt lat="38.7693317" lon="16.2088083"><ele>14.0</ele><time>2026-04-08T14:54:15.352Z</time></trkpt><trkpt lat="38.7691567" lon="16.2085617"><ele>17.0</ele><time>2026-04-08T14:54:16.352Z</time></trkpt><trkpt lat="38.7689733" lon="16.2083183"><ele>12.5</ele><time>2026-04-08T14:54:17.353Z</time></trkpt><trkpt lat="38.76879" lon="16.2080767"><ele>8.0</ele><time>2026-04-08T14:54:18.352Z</time></trkpt><trkpt lat="38.7686" lon="16.20784"><ele>15.5</ele><time>2026-04-08T14:54:19.352Z</time></trkpt><trkpt lat="38.7684033" lon="16.2076183"><ele>23.0</ele><time>2026-04-08T14:54:20.353Z</time></trkpt><trkpt lat="38.768195" lon="16.2074117"><ele>15.0</ele><time>2026-04-08T14:54:21.353Z</time></trkpt><trkpt lat="38.7679833" lon="16.20721"><ele>7.0</ele><time>2026-04-08T14:54:22.353Z</time></trkpt><trkpt lat="38.7677683" lon="16.2070133"><ele>18.5</ele><time>2026-04-08T14:54:23.353Z</time></trkpt><trkpt lat="38.76755" lon="16.206825"><ele>30.0</ele><time>2026-04-08T14:54:24.353Z</time></trkpt><trkpt lat="38.7673283" lon="16.2066367"><ele>19.0</ele><time>2026-04-08T14:54:25.354Z</time></trkpt><trkpt lat="38.7671033" lon="16.2064533"><ele>8.0</ele><time>2026-04-08T14:54:26.354Z</time></trkpt><trkpt lat="38.766885" lon="16.20626"><ele>17.5</ele><time>2026-04-08T14:54:27.353Z</time></trkpt><trkpt lat="38.7666617" lon="16.20608"><ele>27.0</ele><time>2026-04-08T14:54:28.353Z</time></trkpt><trkpt lat="38.7664367" lon="16.2059067"><ele>27.0</ele><time>2026-04-08T14:54:29.354Z</time></trkpt><trkpt lat="38.7662133" lon="16.205725"><ele>27.0</ele><time>2026-04-08T14:54:30.353Z</time></trkpt><trkpt lat="38.7659867" lon="16.2055583"><ele>26.5</ele><time>2026-04-08T14:54:31.353Z</time></trkpt><trkpt lat="38.7657467" lon="16.2054083"><ele>26.0</ele><time>2026-04-08T14:54:32.353Z</time></trkpt><trkpt lat="38.7655083" lon="16.205265"><ele>26.0</ele><time>2026-04-08T14:54:33.354Z</time></trkpt><trkpt lat="38.7652683" lon="16.205125"><ele>26.0</ele><time>2026-04-08T14:54:34.354Z</time></trkpt><trkpt lat="38.7650267" lon="16.204995"><ele>22.5</ele><time>2026-04-08T14:54:35.353Z</time></trkpt><trkpt lat="38.76478" lon="16.204865"><ele>19.0</ele><time>2026-04-08T14:54:36.354Z</time></trkpt><trkpt lat="38.7645383" lon="16.2047267"><ele>29.5</ele><time>2026-04-08T14:54:37.353Z</time></trkpt><trkpt lat="38.7642967" lon="16.20459"><ele>40.0</ele><time>2026-04-08T14:54:38.354Z</time></trkpt><trkpt lat="38.764055" lon="16.2044517"><ele>40.0</ele><time>2026-04-08T14:54:39.354Z</time></trkpt><trkpt lat="38.7638133" lon="16.2042967"><ele>40.0</ele><time>2026-04-08T14:54:40.354Z</time></trkpt><trkpt lat="38.7635833" lon="16.2041233"><ele>39.0</ele><time>2026-04-08T14:54:41.353Z</time></trkpt><trkpt lat="38.7633633" lon="16.2039433"><ele>38.0</ele><time>2026-04-08T14:54:42.353Z</time></trkpt><trkpt lat="38.7631533" lon="16.203745"><ele>38.0</ele><time>2026-04-08T14:54:43.353Z</time></trkpt><trkpt lat="38.7629533" lon="16.20354"><ele>38.0</ele><time>2026-04-08T14:54:44.354Z</time></trkpt><trkpt lat="38.7627467" lon="16.2033517"><ele>34.5</ele><time>2026-04-08T14:54:45.353Z</time></trkpt><trkpt lat="38.762525" lon="16.20317"><ele>31.0</ele><time>2026-04-08T14:54:46.354Z</time></trkpt><trkpt lat="38.7622967" lon="16.203"><ele>31.0</ele><time>2026-04-08T14:54:47.353Z</time></trkpt><trkpt lat="38.7620567" lon="16.2028667"><ele>31.0</ele><time>2026-04-08T14:54:48.353Z</time></trkpt><trkpt lat="38.7618017" lon="16.202765"><ele>42.5</ele><time>2026-04-08T14:54:49.353Z</time></trkpt><trkpt lat="38.7615517" lon="16.2026617"><ele>54.0</ele><time>2026-04-08T14:54:50.353Z</time></trkpt><trkpt lat="38.7612917" lon="16.2025817"><ele>62.5</ele><time>2026-04-08T14:54:51.353Z</time></trkpt><trkpt lat="38.7610317" lon="16.20251"><ele>71.0</ele><time>2026-04-08T14:54:52.354Z</time></trkpt><trkpt lat="38.76078" lon="16.2024267"><ele>55.5</ele><time>2026-04-08T14:54:53.353Z</time></trkpt><trkpt lat="38.7605267" lon="16.2023267"><ele>40.0</ele><time>2026-04-08T14:54:54.354Z</time></trkpt><trkpt lat="38.7602667" lon="16.2022367"><ele>44.0</ele><time>2026-04-08T14:54:55.354Z</time></trkpt><trkpt lat="38.760015" lon="16.2021467"><ele>48.0</ele><time>2026-04-08T14:54:56.354Z</time></trkpt><trkpt lat="38.7597717" lon="16.2020433"><ele>48.0</ele><time>2026-04-08T14:54:57.353Z</time></trkpt><trkpt lat="38.7595217" lon="16.2019417"><ele>48.0</ele><time>2026-04-08T14:54:58.354Z</time></trkpt><trkpt lat="38.7592767" lon="16.2018333"><ele>59.5</ele><time>2026-04-08T14:54:59.353Z</time></trkpt><trkpt lat="38.759035" lon="16.2017083"><ele>71.0</ele><time>2026-04-08T14:55:00.354Z</time></trkpt><trkpt lat="38.758805" lon="16.2015917"><ele>70.0</ele><time>2026-04-08T14:55:01.354Z</time></trkpt><trkpt lat="38.7585667" lon="16.2014367"><ele>69.0</ele><time>2026-04-08T14:55:02.353Z</time></trkpt><trkpt lat="38.75833" lon="16.2012617"><ele>69.0</ele><time>2026-04-08T14:55:03.353Z</time></trkpt><trkpt lat="38.7580933" lon="16.2010833"><ele>69.0</ele><time>2026-04-08T14:55:04.354Z</time></trkpt><trkpt lat="38.757875" lon="16.2009017"><ele>69.0</ele><time>2026-04-08T14:55:05.353Z</time></trkpt><trkpt lat="38.7576617" lon="16.2007183"><ele>69.0</ele><time>2026-04-08T14:55:06.353Z</time></trkpt><trkpt lat="38.7574417" lon="16.2005317"><ele>69.0</ele><time>2026-04-08T14:55:07.353Z</time></trkpt><trkpt lat="38.75723" lon="16.20034"><ele>69.0</ele><time>2026-04-08T14:55:08.353Z</time></trkpt><trkpt lat="38.7570183" lon="16.2001383"><ele>69.0</ele><time>2026-04-08T14:55:09.353Z</time></trkpt><trkpt lat="38.7568033" lon="16.199955"><ele>69.0</ele><time>2026-04-08T14:55:10.353Z</time></trkpt><trkpt lat="38.7565783" lon="16.1997883"><ele>69.0</ele><time>2026-04-08T14:55:11.353Z</time></trkpt><trkpt lat="38.756345" lon="16.1996233"><ele>69.0</ele><time>2026-04-08T14:55:12.354Z</time></trkpt><trkpt lat="38.756105" lon="16.19948"><ele>77.5</ele><time>2026-04-08T14:55:13.354Z</time></trkpt><trkpt lat="38.7558733" lon="16.199325"><ele>86.0</ele><time>2026-04-08T14:55:14.354Z</time></trkpt><trkpt lat="38.75565" lon="16.1991533"><ele>73.0</ele><time>2026-04-08T14:55:15.354Z</time></trkpt><trkpt lat="38.755435" lon="16.1989617"><ele>60.0</ele><time>2026-04-08T14:55:16.354Z</time></trkpt><trkpt lat="38.75523" lon="16.1987533"><ele>73.5</ele><time>2026-04-08T14:55:17.353Z</time></trkpt><trkpt lat="38.7550317" lon="16.1985267"><ele>87.0</ele><time>2026-04-08T14:55:18.353Z</time></trkpt><trkpt lat="38.7548417" lon="16.1982933"><ele>81.5</ele><time>2026-04-08T14:55:19.353Z</time></trkpt><trkpt lat="38.75467" lon="16.19804"><ele>76.0</ele><time>2026-04-08T14:55:20.353Z</time></trkpt><trkpt lat="38.7545183" lon="16.1977683"><ele>76.0</ele><time>2026-04-08T14:55:21.354Z</time></trkpt><trkpt lat="38.7543817" lon="16.19748"><ele>76.0</ele><time>2026-04-08T14:55:22.353Z</time></trkpt><trkpt lat="38.754265" lon="16.1971833"><ele>87.5</ele><time>2026-04-08T14:55:23.354Z</time></trkpt><trkpt lat="38.7541483" lon="16.1968733"><ele>99.0</ele><time>2026-04-08T14:55:24.354Z</time></trkpt><trkpt lat="38.75403" lon="16.1965767"><ele>92.5</ele><time>2026-04-08T14:55:25.353Z</time></trkpt><trkpt lat="38.7539117" lon="16.1962733"><ele>86.0</ele><time>2026-04-08T14:55:26.353Z</time></trkpt><trkpt lat="38.7538" lon="16.19597"><ele>75.0</ele><time>2026-04-08T14:55:27.353Z</time></trkpt><trkpt lat="38.75368" lon="16.195665"><ele>64.0</ele><time>2026-04-08T14:55:28.354Z</time></trkpt><trkpt lat="38.7535617" lon="16.19536"><ele>79.0</ele><time>2026-04-08T14:55:29.353Z</time></trkpt><trkpt lat="38.7534333" lon="16.1950667"><ele>94.0</ele><time>2026-04-08T14:55:30.353Z</time></trkpt><trkpt lat="38.7533017" lon="16.1947817"><ele>94.0</ele><time>2026-04-08T14:55:31.353Z</time></trkpt><trkpt lat="38.7531533" lon="16.1945067"><ele>94.0</ele><time>2026-04-08T14:55:32.353Z</time></trkpt><trkpt lat="38.7529883" lon="16.1942433"><ele>85.5</ele><time>2026-04-08T14:55:33.353Z</time></trkpt><trkpt lat="38.7528083" lon="16.1939933"><ele>77.0</ele><time>2026-04-08T14:55:34.353Z</time></trkpt><trkpt lat="38.7526133" lon="16.1937667"><ele>94.5</ele><time>2026-04-08T14:55:35.354Z</time></trkpt><trkpt lat="38.7523917" lon="16.19357"><ele>112.0</ele><time>2026-04-08T14:55:36.353Z</time></trkpt><trkpt lat="38.75215" lon="16.1933967"><ele>112.0</ele><time>2026-04-08T14:55:37.353Z</time></trkpt><trkpt lat="38.7519183" lon="16.1932367"><ele>112.0</ele><time>2026-04-08T14:55:38.354Z</time></trkpt><trkpt lat="38.7516917" lon="16.1931033"><ele>110.0</ele><time>2026-04-08T14:55:39.353Z</time></trkpt><trkpt lat="38.7514767" lon="16.1929867"><ele>108.0</ele><time>2026-04-08T14:55:40.353Z</time></trkpt><trkpt lat="38.7512733" lon="16.1928867"><ele>108.0</ele><time>2026-04-08T14:55:41.354Z</time></trkpt><trkpt lat="38.7510867" lon="16.192775"><ele>108.0</ele><time>2026-04-08T14:55:42.353Z</time></trkpt><trkpt lat="38.7509067" lon="16.1926767"><ele>108.0</ele><time>2026-04-08T14:55:43.353Z</time></trkpt><trkpt lat="38.7507383" lon="16.1925733"><ele>109.33333333333334</ele><time>2026-04-08T14:55:44.354Z</time></trkpt><trkpt lat="38.7505683" lon="16.1924517"><ele>110.66666666666667</ele><time>2026-04-08T14:55:45.354Z</time></trkpt><trkpt lat="38.7504017" lon="16.19231"><ele>112.0</ele><time>2026-04-08T14:55:46.354Z</time></trkpt><trkpt lat="38.7502267" lon="16.1921417"><ele>115.0</ele><time>2026-04-08T14:55:47.353Z</time></trkpt><trkpt lat="38.7500433" lon="16.1919433"><ele>118.0</ele><time>2026-04-08T14:55:48.353Z</time></trkpt><trkpt lat="38.7498667" lon="16.19173"><ele>116.0</ele><time>2026-04-08T14:55:49.353Z</time></trkpt><trkpt lat="38.7496667" lon="16.19149"><ele>114.0</ele><time>2026-04-08T14:55:50.353Z</time></trkpt><trkpt lat="38.7494583" lon="16.1912383"><ele>119.0</ele><time>2026-04-08T14:55:51.353Z</time></trkpt><trkpt lat="38.749235" lon="16.19098"><ele>124.0</ele><time>2026-04-08T14:55:52.354Z</time></trkpt><trkpt lat="38.7489917" lon="16.19071"><ele>122.0</ele><time>2026-04-08T14:55:53.353Z</time></trkpt><trkpt lat="38.7487233" lon="16.1904633"><ele>120.0</ele><time>2026-04-08T14:55:54.354Z</time></trkpt><trkpt lat="38.7484483" lon="16.1902433"><ele>124.0</ele><time>2026-04-08T14:55:55.354Z</time></trkpt><trkpt lat="38.7481483" lon="16.1900583"><ele>128.0</ele><time>2026-04-08T14:55:56.353Z</time></trkpt><trkpt lat="38.7478433" lon="16.189905"><ele>129.0</ele><time>2026-04-08T14:55:57.353Z</time></trkpt><trkpt lat="38.7475367" lon="16.18978"><ele>130.0</ele><time>2026-04-08T14:55:58.354Z</time></trkpt><trkpt lat="38.74724" lon="16.1896717"><ele>130.0</ele><time>2026-04-08T14:55:59.354Z</time></trkpt><trkpt lat="38.7469533" lon="16.1895667"><ele>130.0</ele><time>2026-04-08T14:56:00.354Z</time></trkpt><trkpt lat="38.74667" lon="16.1894583"><ele>133.5</ele><time>2026-04-08T14:56:01.353Z</time></trkpt><trkpt lat="38.74639" lon="16.18935"><ele>137.0</ele><time>2026-04-08T14:56:02.354Z</time></trkpt><trkpt lat="38.7461083" lon="16.1892383"><ele>137.0</ele><time>2026-04-08T14:56:03.354Z</time></trkpt><trkpt lat="38.7458183" lon="16.1891117"><ele>137.0</ele><time>2026-04-08T14:56:04.353Z</time></trkpt><trkpt lat="38.7455367" lon="16.1889967"><ele>137.0</ele><time>2026-04-08T14:56:05.353Z</time></trkpt><trkpt lat="38.7452517" lon="16.188875"><ele>137.0</ele><time>2026-04-08T14:56:06.353Z</time></trkpt><trkpt lat="38.744975" lon="16.1887317"><ele>138.0</ele><time>2026-04-08T14:56:07.353Z</time></trkpt><trkpt lat="38.7446983" lon="16.1885833"><ele>139.0</ele><time>2026-04-08T14:56:08.354Z</time></trkpt><trkpt lat="38.7444217" lon="16.18844"><ele>137.5</ele><time>2026-04-08T14:56:09.353Z</time></trkpt><trkpt lat="38.744145" lon="16.18829"><ele>136.0</ele><time>2026-04-08T14:56:10.354Z</time></trkpt><trkpt lat="38.7438717" lon="16.188135"><ele>136.0</ele><time>2026-04-08T14:56:11.353Z</time></trkpt><trkpt lat="38.7436067" lon="16.187975"><ele>136.0</ele><time>2026-04-08T14:56:12.353Z</time></trkpt><trkpt lat="38.7433367" lon="16.1878083"><ele>141.5</ele><time>2026-04-08T14:56:13.353Z</time></trkpt><trkpt lat="38.74307" lon="16.1876433"><ele>147.0</ele><time>2026-04-08T14:56:14.353Z</time></trkpt><trkpt lat="38.742805" lon="16.18746"><ele>145.5</ele><time>2026-04-08T14:56:15.353Z</time></trkpt><trkpt lat="38.742545" lon="16.1872783"><ele>144.0</ele><time>2026-04-08T14:56:16.353Z</time></trkpt><trkpt lat="38.7422917" lon="16.1870867"><ele>144.0</ele><time>2026-04-08T14:56:17.353Z</time></trkpt><trkpt lat="38.7420383" lon="16.1869"><ele>144.0</ele><time>2026-04-08T14:56:18.354Z</time></trkpt><trkpt lat="38.7417883" lon="16.1867083"><ele>145.0</ele><time>2026-04-08T14:56:19.354Z</time></trkpt><trkpt lat="38.7415317" lon="16.1865267"><ele>146.0</ele><time>2026-04-08T14:56:20.353Z</time></trkpt><trkpt lat="38.7412833" lon="16.1863383"><ele>154.0</ele><time>2026-04-08T14:56:21.353Z</time></trkpt><trkpt lat="38.7410267" lon="16.1861467"><ele>162.0</ele><time>2026-04-08T14:56:22.354Z</time></trkpt><trkpt lat="38.7407733" lon="16.185965"><ele>162.0</ele><time>2026-04-08T14:56:23.353Z</time></trkpt><trkpt lat="38.7405333" lon="16.18577"><ele>162.0</ele><time>2026-04-08T14:56:24.354Z</time></trkpt><trkpt lat="38.74031" lon="16.1855433"><ele>165.5</ele><time>2026-04-08T14:56:25.353Z</time></trkpt><trkpt lat="38.7400933" lon="16.1853"><ele>169.0</ele><time>2026-04-08T14:56:26.354Z</time></trkpt><trkpt lat="38.73989" lon="16.1850367"><ele>162.5</ele><time>2026-04-08T14:56:27.353Z</time></trkpt><trkpt lat="38.7397067" lon="16.1847617"><ele>156.0</ele><time>2026-04-08T14:56:28.354Z</time></trkpt><trkpt lat="38.7395417" lon="16.18447"><ele>156.0</ele><time>2026-04-08T14:56:29.353Z</time></trkpt><trkpt lat="38.73939" lon="16.184165"><ele>156.0</ele><time>2026-04-08T14:56:30.353Z</time></trkpt><trkpt lat="38.7392533" lon="16.1838433"><ele>164.5</ele><time>2026-04-08T14:56:31.353Z</time></trkpt><trkpt lat="38.7391333" lon="16.18352"><ele>173.0</ele><time>2026-04-08T14:56:32.354Z</time></trkpt><trkpt lat="38.7390067" lon="16.1832033"><ele>167.0</ele><time>2026-04-08T14:56:33.353Z</time></trkpt><trkpt lat="38.7388633" lon="16.1828967"><ele>161.0</ele><time>2026-04-08T14:56:34.353Z</time></trkpt><trkpt lat="38.7387033" lon="16.1826033"><ele>166.5</ele><time>2026-04-08T14:56:35.353Z</time></trkpt><trkpt lat="38.7385267" lon="16.18232"><ele>172.0</ele><time>2026-04-08T14:56:36.354Z</time></trkpt><trkpt lat="38.7383267" lon="16.1820517"><ele>172.0</ele><time>2026-04-08T14:56:37.354Z</time></trkpt><trkpt lat="38.7381033" lon="16.1818"><ele>172.0</ele><time>2026-04-08T14:56:38.353Z</time></trkpt><trkpt lat="38.7378767" lon="16.1815633"><ele>174.0</ele><time>2026-04-08T14:56:39.353Z</time></trkpt><trkpt lat="38.7376383" lon="16.1813333"><ele>176.0</ele><time>2026-04-08T14:56:40.354Z</time></trkpt><trkpt lat="38.7374017" lon="16.1811067"><ele>176.0</ele><time>2026-04-08T14:56:41.354Z</time></trkpt><trkpt lat="38.7371767" lon="16.180865"><ele>176.0</ele><time>2026-04-08T14:56:42.354Z</time></trkpt><trkpt lat="38.7369533" lon="16.1806133"><ele>179.5</ele><time>2026-04-08T14:56:43.353Z</time></trkpt><trkpt lat="38.73674" lon="16.1803483"><ele>183.0</ele><time>2026-04-08T14:56:44.354Z</time></trkpt><trkpt lat="38.7365333" lon="16.1800783"><ele>177.5</ele><time>2026-04-08T14:56:45.353Z</time></trkpt><trkpt lat="38.73633" lon="16.1798"><ele>172.0</ele><time>2026-04-08T14:56:46.353Z</time></trkpt><trkpt lat="38.73614" lon="16.17951"><ele>179.5</ele><time>2026-04-08T14:56:47.353Z</time></trkpt><trkpt lat="38.7359567" lon="16.1792133"><ele>187.0</ele><time>2026-04-08T14:56:48.353Z</time></trkpt><trkpt lat="38.73579" lon="16.1789033"><ele>187.0</ele><time>2026-04-08T14:56:49.353Z</time></trkpt><trkpt lat="38.7356283" lon="16.1785883"><ele>187.0</ele><time>2026-04-08T14:56:50.353Z</time></trkpt><trkpt lat="38.7354783" lon="16.1782667"><ele>181.5</ele><time>2026-04-08T14:56:51.353Z</time></trkpt><trkpt lat="38.7353383" lon="16.1779317"><ele>176.0</ele><time>2026-04-08T14:56:52.354Z</time></trkpt><trkpt lat="38.7352067" lon="16.1775817"><ele>187.5</ele><time>2026-04-08T14:56:53.354Z</time></trkpt><trkpt lat="38.7350883" lon="16.17724"><ele>199.0</ele><time>2026-04-08T14:56:54.354Z</time></trkpt><trkpt lat="38.7349733" lon="16.176885"><ele>199.0</ele><time>2026-04-08T14:56:55.353Z</time></trkpt><trkpt lat="38.734865" lon="16.1765267"><ele>199.0</ele><time>2026-04-08T14:56:56.354Z</time></trkpt><trkpt lat="38.7347683" lon="16.1761583"><ele>191.0</ele><time>2026-04-08T14:56:57.354Z</time></trkpt><trkpt lat="38.7346767" lon="16.1757867"><ele>183.0</ele><time>2026-04-08T14:56:58.353Z</time></trkpt><trkpt lat="38.7346" lon="16.1754117"><ele>174.5</ele><time>2026-04-08T14:56:59.353Z</time></trkpt><trkpt lat="38.7345133" lon="16.17504"><ele>166.0</ele><time>2026-04-08T14:57:00.354Z</time></trkpt><trkpt lat="38.7344217" lon="16.1746767"><ele>176.5</ele><time>2026-04-08T14:57:01.353Z</time></trkpt><trkpt lat="38.7343267" lon="16.1743"><ele>187.0</ele><time>2026-04-08T14:57:02.353Z</time></trkpt><trkpt lat="38.734235" lon="16.1739333"><ele>187.0</ele><time>2026-04-08T14:57:03.354Z</time></trkpt><trkpt lat="38.73415" lon="16.1735567"><ele>187.0</ele><time>2026-04-08T14:57:04.353Z</time></trkpt><trkpt lat="38.73407" lon="16.173185"><ele>181.5</ele><time>2026-04-08T14:57:05.353Z</time></trkpt><trkpt lat="38.7339917" lon="16.1728083"><ele>176.0</ele><time>2026-04-08T14:57:06.353Z</time></trkpt><trkpt lat="38.733895" lon="16.172435"><ele>170.0</ele><time>2026-04-08T14:57:07.353Z</time></trkpt><trkpt lat="38.7337917" lon="16.1720683"><ele>164.0</ele><time>2026-04-08T14:57:08.353Z</time></trkpt><trkpt lat="38.7336767" lon="16.1717017"><ele>172.5</ele><time>2026-04-08T14:57:09.354Z</time></trkpt><trkpt lat="38.7335467" lon="16.1713583"><ele>181.0</ele><time>2026-04-08T14:57:10.353Z</time></trkpt><trkpt lat="38.733405" lon="16.1710017"><ele>173.0</ele><time>2026-04-08T14:57:11.353Z</time></trkpt><trkpt lat="38.7332617" lon="16.1706567"><ele>165.0</ele><time>2026-04-08T14:57:12.354Z</time></trkpt><trkpt lat="38.7331067" lon="16.17032"><ele>165.0</ele><time>2026-04-08T14:57:13.354Z</time></trkpt><trkpt lat="38.73294" lon="16.17"><ele>165.0</ele><time>2026-04-08T14:57:14.354Z</time></trkpt><trkpt lat="38.7327667" lon="16.1696767"><ele>177.5</ele><time>2026-04-08T14:57:15.354Z</time></trkpt><trkpt lat="38.7325867" lon="16.1693667"><ele>190.0</ele><time>2026-04-08T14:57:16.354Z</time></trkpt><trkpt lat="38.7323883" lon="16.1690617"><ele>179.0</ele><time>2026-04-08T14:57:17.354Z</time></trkpt><trkpt lat="38.73218" lon="16.168765"><ele>168.0</ele><time>2026-04-08T14:57:18.353Z</time></trkpt><trkpt lat="38.7319633" lon="16.16848"><ele>177.5</ele><time>2026-04-08T14:57:19.353Z</time></trkpt><trkpt lat="38.7317417" lon="16.1681983"><ele>187.0</ele><time>2026-04-08T14:57:20.353Z</time></trkpt><trkpt lat="38.7315033" lon="16.16794"><ele>187.0</ele><time>2026-04-08T14:57:21.354Z</time></trkpt><trkpt lat="38.731265" lon="16.167685"><ele>187.0</ele><time>2026-04-08T14:57:22.354Z</time></trkpt><trkpt lat="38.7310167" lon="16.16744"><ele>197.5</ele><time>2026-04-08T14:57:23.354Z</time></trkpt><trkpt lat="38.73077" lon="16.1672"><ele>208.0</ele><time>2026-04-08T14:57:24.353Z</time></trkpt><trkpt lat="38.7305117" lon="16.1669683"><ele>208.0</ele><time>2026-04-08T14:57:25.353Z</time></trkpt><trkpt lat="38.730255" lon="16.16674"><ele>208.0</ele><time>2026-04-08T14:57:26.353Z</time></trkpt><trkpt lat="38.7299983" lon="16.166515"><ele>212.0</ele><time>2026-04-08T14:57:27.354Z</time></trkpt><trkpt lat="38.7297367" lon="16.1662867"><ele>216.0</ele><time>2026-04-08T14:57:28.353Z</time></trkpt><trkpt lat="38.7294817" lon="16.1660567"><ele>219.0</ele><time>2026-04-08T14:57:29.353Z</time></trkpt><trkpt lat="38.72923" lon="16.1658233"><ele>222.0</ele><time>2026-04-08T14:57:30.354Z</time></trkpt><trkpt lat="38.7289767" lon="16.1655833"><ele>222.0</ele><time>2026-04-08T14:57:31.354Z</time></trkpt><trkpt lat="38.728725" lon="16.1653483"><ele>222.0</ele><time>2026-04-08T14:57:32.354Z</time></trkpt><trkpt lat="38.7284683" lon="16.1651083"><ele>225.0</ele><time>2026-04-08T14:57:33.354Z</time></trkpt><trkpt lat="38.7282167" lon="16.1648867"><ele>228.0</ele><time>2026-04-08T14:57:34.353Z</time></trkpt><trkpt lat="38.72797" lon="16.1646567"><ele>244.0</ele><time>2026-04-08T14:57:35.354Z</time></trkpt><trkpt lat="38.7277117" lon="16.1644283"><ele>260.0</ele><time>2026-04-08T14:57:36.353Z</time></trkpt><trkpt lat="38.727465" lon="16.1641983"><ele>245.5</ele><time>2026-04-08T14:57:37.354Z</time></trkpt><trkpt lat="38.7272183" lon="16.1639667"><ele>231.0</ele><time>2026-04-08T14:57:38.353Z</time></trkpt><trkpt lat="38.7269717" lon="16.1637283"><ele>241.5</ele><time>2026-04-08T14:57:39.353Z</time></trkpt><trkpt lat="38.7267317" lon="16.1634833"><ele>252.0</ele><time>2026-04-08T14:57:40.354Z</time></trkpt><trkpt lat="38.7264883" lon="16.1632433"><ele>254.5</ele><time>2026-04-08T14:57:41.354Z</time></trkpt><trkpt lat="38.7262467" lon="16.16301"><ele>257.0</ele><time>2026-04-08T14:57:42.354Z</time></trkpt><trkpt lat="38.7259917" lon="16.16278"><ele>257.0</ele><time>2026-04-08T14:57:43.353Z</time></trkpt><trkpt lat="38.7257433" lon="16.1625467"><ele>257.0</ele><time>2026-04-08T14:57:44.353Z</time></trkpt><trkpt lat="38.725495" lon="16.1623167"><ele>261.0</ele><time>2026-04-08T14:57:45.354Z</time></trkpt><trkpt lat="38.7252433" lon="16.16209"><ele>265.0</ele><time>2026-04-08T14:57:46.353Z</time></trkpt><trkpt lat="38.7249883" lon="16.16186"><ele>265.0</ele><time>2026-04-08T14:57:47.353Z</time></trkpt><trkpt lat="38.7247417" lon="16.1616333"><ele>265.0</ele><time>2026-04-08T14:57:48.353Z</time></trkpt><trkpt lat="38.7245033" lon="16.1613933"><ele>268.5</ele><time>2026-04-08T14:57:49.354Z</time></trkpt><trkpt lat="38.7242633" lon="16.16117"><ele>272.0</ele><time>2026-04-08T14:57:50.353Z</time></trkpt><trkpt lat="38.72402" lon="16.1609533"><ele>272.0</ele><time>2026-04-08T14:57:51.354Z</time></trkpt><trkpt lat="38.7237767" lon="16.1607317"><ele>272.0</ele><time>2026-04-08T14:57:52.353Z</time></trkpt><trkpt lat="38.7235333" lon="16.1605217"><ele>273.5</ele><time>2026-04-08T14:57:53.354Z</time></trkpt><trkpt lat="38.723295" lon="16.1603133"><ele>275.0</ele><time>2026-04-08T14:57:54.354Z</time></trkpt><trkpt lat="38.723055" lon="16.1601083"><ele>275.0</ele><time>2026-04-08T14:57:55.353Z</time></trkpt><trkpt lat="38.7228217" lon="16.1598967"><ele>275.0</ele><time>2026-04-08T14:57:56.354Z</time></trkpt><trkpt lat="38.722595" lon="16.1596767"><ele>276.0</ele><time>2026-04-08T14:57:57.353Z</time></trkpt><trkpt lat="38.7223683" lon="16.15945"><ele>277.0</ele><time>2026-04-08T14:57:58.353Z</time></trkpt><trkpt lat="38.722145" lon="16.15921"><ele>281.0</ele><time>2026-04-08T14:57:59.354Z</time></trkpt><trkpt lat="38.72192" lon="16.158975"><ele>285.0</ele><time>2026-04-08T14:58:00.354Z</time></trkpt><trkpt lat="38.721705" lon="16.1587267"><ele>285.0</ele><time>2026-04-08T14:58:01.353Z</time></trkpt><trkpt lat="38.7214917" lon="16.1584717"><ele>285.0</ele><time>2026-04-08T14:58:02.354Z</time></trkpt><trkpt lat="38.7212767" lon="16.15821"><ele>291.5</ele><time>2026-04-08T14:58:03.354Z</time></trkpt><trkpt lat="38.7210667" lon="16.15794"><ele>298.0</ele><time>2026-04-08T14:58:04.353Z</time></trkpt><trkpt lat="38.7208567" lon="16.15767"><ele>298.0</ele><time>2026-04-08T14:58:05.353Z</time></trkpt><trkpt lat="38.7206383" lon="16.1574017"><ele>298.0</ele><time>2026-04-08T14:58:06.353Z</time></trkpt><trkpt lat="38.7204283" lon="16.157135"><ele>306.0</ele><time>2026-04-08T14:58:07.354Z</time></trkpt><trkpt lat="38.7202233" lon="16.1568633"><ele>314.0</ele><time>2026-04-08T14:58:08.353Z</time></trkpt><trkpt lat="38.72002" lon="16.1565967"><ele>305.0</ele><time>2026-04-08T14:58:09.354Z</time></trkpt><trkpt lat="38.7198167" lon="16.15633"><ele>296.0</ele><time>2026-04-08T14:58:10.354Z</time></trkpt><trkpt lat="38.7196083" lon="16.1560733"><ele>294.0</ele><time>2026-04-08T14:58:11.354Z</time></trkpt><trkpt lat="38.7193867" lon="16.1558283"><ele>292.0</ele><time>2026-04-08T14:58:12.353Z</time></trkpt><trkpt lat="38.719155" lon="16.1555967"><ele>292.0</ele><time>2026-04-08T14:58:13.354Z</time></trkpt><trkpt lat="38.7189117" lon="16.1553983"><ele>292.0</ele><time>2026-04-08T14:58:14.353Z</time></trkpt><trkpt lat="38.7186583" lon="16.155225"><ele>301.0</ele><time>2026-04-08T14:58:15.353Z</time></trkpt><trkpt lat="38.7183917" lon="16.1550733"><ele>310.0</ele><time>2026-04-08T14:58:16.354Z</time></trkpt><trkpt lat="38.7181133" lon="16.1549633"><ele>310.0</ele><time>2026-04-08T14:58:17.353Z</time></trkpt><trkpt lat="38.71783" lon="16.1548717"><ele>310.0</ele><time>2026-04-08T14:58:18.354Z</time></trkpt><trkpt lat="38.7175433" lon="16.1547917"><ele>300.0</ele><time>2026-04-08T14:58:19.354Z</time></trkpt><trkpt lat="38.7172467" lon="16.1547233"><ele>290.0</ele><time>2026-04-08T14:58:20.353Z</time></trkpt><trkpt lat="38.71695" lon="16.1546583"><ele>298.0</ele><time>2026-04-08T14:58:21.354Z</time></trkpt><trkpt lat="38.716655" lon="16.154595"><ele>306.0</ele><time>2026-04-08T14:58:22.354Z</time></trkpt><trkpt lat="38.7163567" lon="16.1545383"><ele>312.5</ele><time>2026-04-08T14:58:23.354Z</time></trkpt><trkpt lat="38.7160583" lon="16.1544817"><ele>319.0</ele><time>2026-04-08T14:58:24.354Z</time></trkpt><trkpt lat="38.7157633" lon="16.15442"><ele>319.0</ele><time>2026-04-08T14:58:25.353Z</time></trkpt><trkpt lat="38.7154667" lon="16.15435"><ele>319.0</ele><time>2026-04-08T14:58:26.354Z</time></trkpt><trkpt lat="38.7151633" lon="16.1542833"><ele>323.5</ele><time>2026-04-08T14:58:27.354Z</time></trkpt><trkpt lat="38.7148633" lon="16.15421"><ele>328.0</ele><time>2026-04-08T14:58:28.353Z</time></trkpt><trkpt lat="38.71457" lon="16.1541417"><ele>326.0</ele><time>2026-04-08T14:58:29.354Z</time></trkpt><trkpt lat="38.7142683" lon="16.154075"><ele>324.0</ele><time>2026-04-08T14:58:30.353Z</time></trkpt><trkpt lat="38.7139667" lon="16.1540117"><ele>324.0</ele><time>2026-04-08T14:58:31.354Z</time></trkpt><trkpt lat="38.7136667" lon="16.153945"><ele>324.0</ele><time>2026-04-08T14:58:32.353Z</time></trkpt><trkpt lat="38.713365" lon="16.1538917"><ele>328.0</ele><time>2026-04-08T14:58:33.354Z</time></trkpt><trkpt lat="38.713065" lon="16.1538467"><ele>332.0</ele><time>2026-04-08T14:58:34.354Z</time></trkpt><trkpt lat="38.71277" lon="16.1538083"><ele>337.0</ele><time>2026-04-08T14:58:35.353Z</time></trkpt><trkpt lat="38.7124683" lon="16.1537783"><ele>342.0</ele><time>2026-04-08T14:58:36.354Z</time></trkpt><trkpt lat="38.712165" lon="16.1537567"><ele>351.5</ele><time>2026-04-08T14:58:37.353Z</time></trkpt><trkpt lat="38.71186" lon="16.1537483"><ele>361.0</ele><time>2026-04-08T14:58:38.353Z</time></trkpt><trkpt lat="38.7115517" lon="16.1537717"><ele>361.0</ele><time>2026-04-08T14:58:39.353Z</time></trkpt><trkpt lat="38.7112467" lon="16.1537683"><ele>361.0</ele><time>2026-04-08T14:58:40.354Z</time></trkpt><trkpt lat="38.71094" lon="16.1537633"><ele>363.5</ele><time>2026-04-08T14:58:41.353Z</time></trkpt><trkpt lat="38.71063" lon="16.15376"><ele>366.0</ele><time>2026-04-08T14:58:42.353Z</time></trkpt><trkpt lat="38.7103133" lon="16.1537583"><ele>364.0</ele><time>2026-04-08T14:58:43.354Z</time></trkpt><trkpt lat="38.7099967" lon="16.1537517"><ele>362.0</ele><time>2026-04-08T14:58:44.354Z</time></trkpt><trkpt lat="38.7096817" lon="16.1537583"><ele>362.5</ele><time>2026-04-08T14:58:45.354Z</time></trkpt><trkpt lat="38.70937" lon="16.153765"><ele>363.0</ele><time>2026-04-08T14:58:46.353Z</time></trkpt><trkpt lat="38.70906" lon="16.1537667"><ele>363.0</ele><time>2026-04-08T14:58:47.354Z</time></trkpt><trkpt lat="38.7087417" lon="16.15377"><ele>363.0</ele><time>2026-04-08T14:58:48.353Z</time></trkpt><trkpt lat="38.7084283" lon="16.15377"><ele>364.5</ele><time>2026-04-08T14:58:49.353Z</time></trkpt><trkpt lat="38.70812" lon="16.1537833"><ele>366.0</ele><time>2026-04-08T14:58:50.353Z</time></trkpt><trkpt lat="38.7078117" lon="16.153785"><ele>371.0</ele><time>2026-04-08T14:58:51.353Z</time></trkpt><trkpt lat="38.7075017" lon="16.15378"><ele>376.0</ele><time>2026-04-08T14:58:52.354Z</time></trkpt><trkpt lat="38.7071867" lon="16.1537783"><ele>376.0</ele><time>2026-04-08T14:58:53.354Z</time></trkpt><trkpt lat="38.7068667" lon="16.153785"><ele>376.0</ele><time>2026-04-08T14:58:54.354Z</time></trkpt><trkpt lat="38.7065533" lon="16.1537883"><ele>376.0</ele><time>2026-04-08T14:58:55.353Z</time></trkpt><trkpt lat="38.7062367" lon="16.15379"><ele>376.0</ele><time>2026-04-08T14:58:56.353Z</time></trkpt><trkpt lat="38.705935" lon="16.153795"><ele>374.0</ele><time>2026-04-08T14:58:57.353Z</time></trkpt><trkpt lat="38.7056267" lon="16.153795"><ele>372.0</ele><time>2026-04-08T14:58:58.353Z</time></trkpt><trkpt lat="38.705325" lon="16.1538033"><ele>369.5</ele><time>2026-04-08T14:58:59.353Z</time></trkpt><trkpt lat="38.7050167" lon="16.1538183"><ele>367.0</ele><time>2026-04-08T14:59:00.353Z</time></trkpt><trkpt lat="38.7047167" lon="16.15386"><ele>367.0</ele><time>2026-04-08T14:59:01.353Z</time></trkpt><trkpt lat="38.7044217" lon="16.1539283"><ele>367.0</ele><time>2026-04-08T14:59:02.353Z</time></trkpt><trkpt lat="38.7041233" lon="16.1540083"><ele>364.5</ele><time>2026-04-08T14:59:03.353Z</time></trkpt><trkpt lat="38.70383" lon="16.1541017"><ele>362.0</ele><time>2026-04-08T14:59:04.353Z</time></trkpt><trkpt lat="38.7035333" lon="16.1542167"><ele>360.0</ele><time>2026-04-08T14:59:05.353Z</time></trkpt><trkpt lat="38.7032383" lon="16.1543467"><ele>358.0</ele><time>2026-04-08T14:59:06.353Z</time></trkpt><trkpt lat="38.7029483" lon="16.1544883"><ele>356.0</ele><time>2026-04-08T14:59:07.353Z</time></trkpt><trkpt lat="38.7026617" lon="16.15465"><ele>354.0</ele><time>2026-04-08T14:59:08.353Z</time></trkpt><trkpt lat="38.702385" lon="16.1548217"><ele>349.5</ele><time>2026-04-08T14:59:09.353Z</time></trkpt><trkpt lat="38.70211" lon="16.155"><ele>345.0</ele><time>2026-04-08T14:59:10.353Z</time></trkpt><trkpt lat="38.7018333" lon="16.155165"><ele>343.5</ele><time>2026-04-08T14:59:11.353Z</time></trkpt><trkpt lat="38.7015517" lon="16.1553033"><ele>342.0</ele><time>2026-04-08T14:59:12.353Z</time></trkpt><trkpt lat="38.7012617" lon="16.15541"><ele>344.5</ele><time>2026-04-08T14:59:13.354Z</time></trkpt><trkpt lat="38.700965" lon="16.15549"><ele>347.0</ele><time>2026-04-08T14:59:14.353Z</time></trkpt><trkpt lat="38.7006783" lon="16.15554"><ele>347.0</ele><time>2026-04-08T14:59:15.353Z</time></trkpt><trkpt lat="38.7003933" lon="16.1555717"><ele>347.0</ele><time>2026-04-08T14:59:16.353Z</time></trkpt><trkpt lat="38.7001" lon="16.1555933"><ele>344.5</ele><time>2026-04-08T14:59:17.353Z</time></trkpt><trkpt lat="38.6997967" lon="16.155585"><ele>342.0</ele><time>2026-04-08T14:59:18.354Z</time></trkpt><trkpt lat="38.6994917" lon="16.155555"><ele>339.5</ele><time>2026-04-08T14:59:19.354Z</time></trkpt><trkpt lat="38.6992067" lon="16.1555017"><ele>337.0</ele><time>2026-04-08T14:59:20.353Z</time></trkpt><trkpt lat="38.6989183" lon="16.1554467"><ele>337.0</ele><time>2026-04-08T14:59:21.354Z</time></trkpt><trkpt lat="38.698615" lon="16.155405"><ele>337.0</ele><time>2026-04-08T14:59:22.353Z</time></trkpt><trkpt lat="38.6983067" lon="16.155385"><ele>334.5</ele><time>2026-04-08T14:59:23.354Z</time></trkpt><trkpt lat="38.6980067" lon="16.1553833"><ele>332.0</ele><time>2026-04-08T14:59:24.354Z</time></trkpt><trkpt lat="38.6977083" lon="16.1554067"><ele>329.5</ele><time>2026-04-08T14:59:25.354Z</time></trkpt><trkpt lat="38.69741" lon="16.1554517"><ele>327.0</ele><time>2026-04-08T14:59:26.354Z</time></trkpt><trkpt lat="38.6971083" lon="16.1555167"><ele>327.5</ele><time>2026-04-08T14:59:27.353Z</time></trkpt><trkpt lat="38.6968067" lon="16.1555883"><ele>328.0</ele><time>2026-04-08T14:59:28.354Z</time></trkpt><trkpt lat="38.6965067" lon="16.1556717"><ele>326.5</ele><time>2026-04-08T14:59:29.354Z</time></trkpt><trkpt lat="38.696195" lon="16.1557517"><ele>325.0</ele><time>2026-04-08T14:59:30.354Z</time></trkpt><trkpt lat="38.6958967" lon="16.155845"><ele>325.0</ele><time>2026-04-08T14:59:31.353Z</time></trkpt><trkpt lat="38.695595" lon="16.15594"><ele>325.0</ele><time>2026-04-08T14:59:32.354Z</time></trkpt><trkpt lat="38.6952933" lon="16.1560267"><ele>324.0</ele><time>2026-04-08T14:59:33.354Z</time></trkpt><trkpt lat="38.6950033" lon="16.156105"><ele>323.0</ele><time>2026-04-08T14:59:34.354Z</time></trkpt><trkpt lat="38.6947133" lon="16.1561817"><ele>323.0</ele><time>2026-04-08T14:59:35.354Z</time></trkpt><trkpt lat="38.6944217" lon="16.1562733"><ele>323.0</ele><time>2026-04-08T14:59:36.353Z</time></trkpt><trkpt lat="38.69413" lon="16.1563567"><ele>322.5</ele><time>2026-04-08T14:59:37.354Z</time></trkpt><trkpt lat="38.6938267" lon="16.1564333"><ele>322.0</ele><time>2026-04-08T14:59:38.353Z</time></trkpt><trkpt lat="38.69352" lon="16.1565133"><ele>318.0</ele><time>2026-04-08T14:59:39.354Z</time></trkpt><trkpt lat="38.6932117" lon="16.1565917"><ele>314.0</ele><time>2026-04-08T14:59:40.353Z</time></trkpt><trkpt lat="38.6929017" lon="16.1566667"><ele>311.5</ele><time>2026-04-08T14:59:41.353Z</time></trkpt><trkpt lat="38.6925883" lon="16.15675"><ele>309.0</ele><time>2026-04-08T14:59:42.353Z</time></trkpt><trkpt lat="38.6922783" lon="16.1568383"><ele>309.0</ele><time>2026-04-08T14:59:43.353Z</time></trkpt><trkpt lat="38.69197" lon="16.1569283"><ele>309.0</ele><time>2026-04-08T14:59:44.354Z</time></trkpt><trkpt lat="38.6916683" lon="16.157015"><ele>308.0</ele><time>2026-04-08T14:59:45.354Z</time></trkpt><trkpt lat="38.6913633" lon="16.1571233"><ele>307.0</ele><time>2026-04-08T14:59:46.354Z</time></trkpt><trkpt lat="38.6910667" lon="16.1572583"><ele>306.0</ele><time>2026-04-08T14:59:47.354Z</time></trkpt><trkpt lat="38.6907683" lon="16.1573967"><ele>305.0</ele><time>2026-04-08T14:59:48.353Z</time></trkpt><trkpt lat="38.69047" lon="16.1575433"><ele>307.5</ele><time>2026-04-08T14:59:49.353Z</time></trkpt><trkpt lat="38.6901767" lon="16.1577183"><ele>310.0</ele><time>2026-04-08T14:59:50.354Z</time></trkpt><trkpt lat="38.6898867" lon="16.1579033"><ele>310.0</ele><time>2026-04-08T14:59:51.353Z</time></trkpt><trkpt lat="38.6896033" lon="16.1581017"><ele>310.0</ele><time>2026-04-08T14:59:52.353Z</time></trkpt><trkpt lat="38.6893267" lon="16.1583"><ele>303.5</ele><time>2026-04-08T14:59:53.354Z</time></trkpt><trkpt lat="38.6890517" lon="16.1585167"><ele>297.0</ele><time>2026-04-08T14:59:54.354Z</time></trkpt><trkpt lat="38.6887783" lon="16.1587483"><ele>295.5</ele><time>2026-04-08T14:59:55.354Z</time></trkpt><trkpt lat="38.688515" lon="16.1589883"><ele>294.0</ele><time>2026-04-08T14:59:56.353Z</time></trkpt><trkpt lat="38.68826" lon="16.159235"><ele>294.0</ele><time>2026-04-08T14:59:57.354Z</time></trkpt><trkpt lat="38.6880067" lon="16.1594833"><ele>294.0</ele><time>2026-04-08T14:59:58.353Z</time></trkpt><trkpt lat="38.6877383" lon="16.1597417"><ele>293.0</ele><time>2026-04-08T14:59:59.354Z</time></trkpt><trkpt lat="38.6874783" lon="16.1600167"><ele>292.0</ele><time>2026-04-08T15:00:00.353Z</time></trkpt><trkpt lat="38.6872117" lon="16.160285"><ele>292.0</ele><time>2026-04-08T15:00:01.353Z</time></trkpt><trkpt lat="38.6869517" lon="16.1605517"><ele>292.0</ele><time>2026-04-08T15:00:02.353Z</time></trkpt><trkpt lat="38.686685" lon="16.1608233"><ele>284.5</ele><time>2026-04-08T15:00:03.353Z</time></trkpt><trkpt lat="38.68642" lon="16.1610933"><ele>277.0</ele><time>2026-04-08T15:00:04.353Z</time></trkpt><trkpt lat="38.6861533" lon="16.1613683"><ele>273.5</ele><time>2026-04-08T15:00:05.354Z</time></trkpt><trkpt lat="38.6858883" lon="16.16164"><ele>270.0</ele><time>2026-04-08T15:00:06.353Z</time></trkpt><trkpt lat="38.685625" lon="16.1619033"><ele>270.0</ele><time>2026-04-08T15:00:07.354Z</time></trkpt><trkpt lat="38.6853583" lon="16.1621683"><ele>270.0</ele><time>2026-04-08T15:00:08.353Z</time></trkpt><trkpt lat="38.6851" lon="16.1624283"><ele>274.5</ele><time>2026-04-08T15:00:09.353Z</time></trkpt><trkpt lat="38.68484" lon="16.1626983"><ele>279.0</ele><time>2026-04-08T15:00:10.353Z</time></trkpt><trkpt lat="38.68458" lon="16.1629767"><ele>276.5</ele><time>2026-04-08T15:00:11.354Z</time></trkpt><trkpt lat="38.684325" lon="16.1632567"><ele>274.0</ele><time>2026-04-08T15:00:12.353Z</time></trkpt><trkpt lat="38.6840817" lon="16.1635567"><ele>274.0</ele><time>2026-04-08T15:00:13.353Z</time></trkpt><trkpt lat="38.683855" lon="16.1638667"><ele>274.0</ele><time>2026-04-08T15:00:14.353Z</time></trkpt><trkpt lat="38.683645" lon="16.164205"><ele>265.5</ele><time>2026-04-08T15:00:15.353Z</time></trkpt><trkpt lat="38.6834517" lon="16.1645467"><ele>257.0</ele><time>2026-04-08T15:00:16.353Z</time></trkpt><trkpt lat="38.6832667" lon="16.1648967"><ele>256.0</ele><time>2026-04-08T15:00:17.353Z</time></trkpt><trkpt lat="38.6830933" lon="16.1652467"><ele>255.0</ele><time>2026-04-08T15:00:18.353Z</time></trkpt><trkpt lat="38.682935" lon="16.1655933"><ele>252.5</ele><time>2026-04-08T15:00:19.353Z</time></trkpt><trkpt lat="38.682785" lon="16.1659567"><ele>250.0</ele><time>2026-04-08T15:00:20.353Z</time></trkpt><trkpt lat="38.6826433" lon="16.1663267"><ele>254.0</ele><time>2026-04-08T15:00:21.353Z</time></trkpt><trkpt lat="38.68251" lon="16.1667017"><ele>258.0</ele><time>2026-04-08T15:00:22.354Z</time></trkpt><trkpt lat="38.6823667" lon="16.1670767"><ele>254.0</ele><time>2026-04-08T15:00:23.354Z</time></trkpt><trkpt lat="38.68222" lon="16.1674433"><ele>250.0</ele><time>2026-04-08T15:00:24.353Z</time></trkpt><trkpt lat="38.6820767" lon="16.1678083"><ele>250.0</ele><time>2026-04-08T15:00:25.353Z</time></trkpt><trkpt lat="38.681935" lon="16.1681783"><ele>250.0</ele><time>2026-04-08T15:00:26.353Z</time></trkpt><trkpt lat="38.6817883" lon="16.16854"><ele>248.0</ele><time>2026-04-08T15:00:27.354Z</time></trkpt><trkpt lat="38.6816367" lon="16.1689083"><ele>246.0</ele><time>2026-04-08T15:00:28.354Z</time></trkpt><trkpt lat="38.681475" lon="16.1692633"><ele>246.0</ele><time>2026-04-08T15:00:29.353Z</time></trkpt><trkpt lat="38.6813133" lon="16.169625"><ele>246.0</ele><time>2026-04-08T15:00:30.354Z</time></trkpt><trkpt lat="38.6811517" lon="16.1699883"><ele>239.5</ele><time>2026-04-08T15:00:31.353Z</time></trkpt><trkpt lat="38.6809933" lon="16.170345"><ele>233.0</ele><time>2026-04-08T15:00:32.353Z</time></trkpt><trkpt lat="38.6808233" lon="16.1706983"><ele>230.5</ele><time>2026-04-08T15:00:33.354Z</time></trkpt><trkpt lat="38.6806467" lon="16.171035"><ele>228.0</ele><time>2026-04-08T15:00:34.353Z</time></trkpt><trkpt lat="38.680465" lon="16.1713683"><ele>227.0</ele><time>2026-04-08T15:00:35.354Z</time></trkpt><trkpt lat="38.6802767" lon="16.1716933"><ele>226.0</ele><time>2026-04-08T15:00:36.353Z</time></trkpt><trkpt lat="38.6800833" lon="16.1720167"><ele>227.0</ele><time>2026-04-08T15:00:37.354Z</time></trkpt><trkpt lat="38.67989" lon="16.1723383"><ele>228.0</ele><time>2026-04-08T15:00:38.353Z</time></trkpt><trkpt lat="38.6796833" lon="16.1726517"><ele>228.0</ele><time>2026-04-08T15:00:39.354Z</time></trkpt><trkpt lat="38.6794717" lon="16.172965"><ele>228.0</ele><time>2026-04-08T15:00:40.353Z</time></trkpt><trkpt lat="38.679255" lon="16.1732683"><ele>214.0</ele><time>2026-04-08T15:00:41.353Z</time></trkpt><trkpt lat="38.6790333" lon="16.1735583"><ele>200.0</ele><time>2026-04-08T15:00:42.354Z</time></trkpt><trkpt lat="38.6788117" lon="16.173845"><ele>199.0</ele><time>2026-04-08T15:00:43.354Z</time></trkpt><trkpt lat="38.6785917" lon="16.1741183"><ele>198.0</ele><time>2026-04-08T15:00:44.354Z</time></trkpt><trkpt lat="38.67837" lon="16.174395"><ele>198.0</ele><time>2026-04-08T15:00:45.353Z</time></trkpt><trkpt lat="38.6781417" lon="16.174665"><ele>198.0</ele><time>2026-04-08T15:00:46.354Z</time></trkpt><trkpt lat="38.67791" lon="16.174945"><ele>207.0</ele><time>2026-04-08T15:00:47.353Z</time></trkpt><trkpt lat="38.677685" lon="16.1752133"><ele>216.0</ele><time>2026-04-08T15:00:48.354Z</time></trkpt><trkpt lat="38.677465" lon="16.1754733"><ele>214.5</ele><time>2026-04-08T15:00:49.353Z</time></trkpt><trkpt lat="38.677235" lon="16.1757317"><ele>213.0</ele><time>2026-04-08T15:00:50.353Z</time></trkpt><trkpt lat="38.6769967" lon="16.17599"><ele>222.0</ele><time>2026-04-08T15:00:51.353Z</time></trkpt><trkpt lat="38.6767583" lon="16.1762567"><ele>231.0</ele><time>2026-04-08T15:00:52.353Z</time></trkpt><trkpt lat="38.676515" lon="16.1765083"><ele>227.0</ele><time>2026-04-08T15:00:53.354Z</time></trkpt><trkpt lat="38.6762633" lon="16.176755"><ele>223.0</ele><time>2026-04-08T15:00:54.353Z</time></trkpt><trkpt lat="38.6760067" lon="16.1769883"><ele>223.0</ele><time>2026-04-08T15:00:55.354Z</time></trkpt><trkpt lat="38.6757567" lon="16.177225"><ele>223.0</ele><time>2026-04-08T15:00:56.354Z</time></trkpt><trkpt lat="38.6755017" lon="16.1774583"><ele>220.0</ele><time>2026-04-08T15:00:57.353Z</time></trkpt><trkpt lat="38.6752467" lon="16.17769"><ele>217.0</ele><time>2026-04-08T15:00:58.354Z</time></trkpt><trkpt lat="38.6749917" lon="16.17792"><ele>217.0</ele><time>2026-04-08T15:00:59.353Z</time></trkpt><trkpt lat="38.674745" lon="16.1781517"><ele>217.0</ele><time>2026-04-08T15:01:00.353Z</time></trkpt><trkpt lat="38.6744933" lon="16.1783883"><ele>217.5</ele><time>2026-04-08T15:01:01.354Z</time></trkpt><trkpt lat="38.6742433" lon="16.1786183"><ele>218.0</ele><time>2026-04-08T15:01:02.353Z</time></trkpt><trkpt lat="38.6739867" lon="16.17885"><ele>211.0</ele><time>2026-04-08T15:01:03.353Z</time></trkpt><trkpt lat="38.6737383" lon="16.1790767"><ele>204.0</ele><time>2026-04-08T15:01:04.353Z</time></trkpt><trkpt lat="38.673485" lon="16.1793083"><ele>204.0</ele><time>2026-04-08T15:01:05.353Z</time></trkpt><trkpt lat="38.6732283" lon="16.179535"><ele>204.0</ele><time>2026-04-08T15:01:06.353Z</time></trkpt><trkpt lat="38.672975" lon="16.1797667"><ele>197.5</ele><time>2026-04-08T15:01:07.353Z</time></trkpt><trkpt lat="38.6727283" lon="16.1800017"><ele>191.0</ele><time>2026-04-08T15:01:08.354Z</time></trkpt><trkpt lat="38.6724733" lon="16.1802383"><ele>191.0</ele><time>2026-04-08T15:01:09.354Z</time></trkpt><trkpt lat="38.672215" lon="16.180465"><ele>191.0</ele><time>2026-04-08T15:01:10.353Z</time></trkpt><trkpt lat="38.67196" lon="16.180695"><ele>195.5</ele><time>2026-04-08T15:01:11.354Z</time></trkpt><trkpt lat="38.6717033" lon="16.1809283"><ele>200.0</ele><time>2026-04-08T15:01:12.353Z</time></trkpt><trkpt lat="38.67145" lon="16.1811583"><ele>200.0</ele><time>2026-04-08T15:01:13.354Z</time></trkpt><trkpt lat="38.6711933" lon="16.1814017"><ele>200.0</ele><time>2026-04-08T15:01:14.354Z</time></trkpt><trkpt lat="38.670935" lon="16.1816483"><ele>198.5</ele><time>2026-04-08T15:01:15.354Z</time></trkpt><trkpt lat="38.6706833" lon="16.1818933"><ele>197.0</ele><time>2026-04-08T15:01:16.354Z</time></trkpt><trkpt lat="38.670425" lon="16.1821333"><ele>196.5</ele><time>2026-04-08T15:01:17.354Z</time></trkpt><trkpt lat="38.6701667" lon="16.1823733"><ele>196.0</ele><time>2026-04-08T15:01:18.353Z</time></trkpt><trkpt lat="38.6698933" lon="16.1826117"><ele>196.0</ele><time>2026-04-08T15:01:19.353Z</time></trkpt><trkpt lat="38.6696317" lon="16.1828483"><ele>196.0</ele><time>2026-04-08T15:01:20.353Z</time></trkpt><trkpt lat="38.66937" lon="16.1830783"><ele>190.0</ele><time>2026-04-08T15:01:21.353Z</time></trkpt><trkpt lat="38.66911" lon="16.18331"><ele>184.0</ele><time>2026-04-08T15:01:22.354Z</time></trkpt><trkpt lat="38.6688417" lon="16.1835333"><ele>189.5</ele><time>2026-04-08T15:01:23.354Z</time></trkpt><trkpt lat="38.66858" lon="16.183765"><ele>195.0</ele><time>2026-04-08T15:01:24.354Z</time></trkpt><trkpt lat="38.6683133" lon="16.1839717"><ele>186.5</ele><time>2026-04-08T15:01:25.353Z</time></trkpt><trkpt lat="38.66805" lon="16.1841867"><ele>178.0</ele><time>2026-04-08T15:01:26.353Z</time></trkpt><trkpt lat="38.6677983" lon="16.1843933"><ele>180.5</ele><time>2026-04-08T15:01:27.353Z</time></trkpt><trkpt lat="38.6675367" lon="16.1845817"><ele>183.0</ele><time>2026-04-08T15:01:28.353Z</time></trkpt><trkpt lat="38.6672633" lon="16.1847667"><ele>176.0</ele><time>2026-04-08T15:01:29.354Z</time></trkpt><trkpt lat="38.6669883" lon="16.18494"><ele>169.0</ele><time>2026-04-08T15:01:30.353Z</time></trkpt><trkpt lat="38.6667067" lon="16.1851033"><ele>169.0</ele><time>2026-04-08T15:01:31.353Z</time></trkpt><trkpt lat="38.6664133" lon="16.1852567"><ele>169.0</ele><time>2026-04-08T15:01:32.354Z</time></trkpt><trkpt lat="38.66611" lon="16.18541"><ele>167.0</ele><time>2026-04-08T15:01:33.354Z</time></trkpt><trkpt lat="38.665815" lon="16.1855517"><ele>165.0</ele><time>2026-04-08T15:01:34.353Z</time></trkpt><trkpt lat="38.665515" lon="16.1856917"><ele>167.0</ele><time>2026-04-08T15:01:35.354Z</time></trkpt><trkpt lat="38.6652117" lon="16.1858367"><ele>169.0</ele><time>2026-04-08T15:01:36.354Z</time></trkpt><trkpt lat="38.6649117" lon="16.1859733"><ele>169.0</ele><time>2026-04-08T15:01:37.354Z</time></trkpt><trkpt lat="38.6646067" lon="16.1861117"><ele>169.0</ele><time>2026-04-08T15:01:38.353Z</time></trkpt><trkpt lat="38.6643067" lon="16.1862583"><ele>168.5</ele><time>2026-04-08T15:01:39.353Z</time></trkpt><trkpt lat="38.6640167" lon="16.1863867"><ele>168.0</ele><time>2026-04-08T15:01:40.353Z</time></trkpt><trkpt lat="38.6637167" lon="16.1865217"><ele>173.0</ele><time>2026-04-08T15:01:41.354Z</time></trkpt><trkpt lat="38.6634183" lon="16.186655"><ele>178.0</ele><time>2026-04-08T15:01:42.353Z</time></trkpt><trkpt lat="38.663115" lon="16.1867917"><ele>178.0</ele><time>2026-04-08T15:01:43.353Z</time></trkpt><trkpt lat="38.6628083" lon="16.1869217"><ele>178.0</ele><time>2026-04-08T15:01:44.353Z</time></trkpt><trkpt lat="38.6624933" lon="16.187045"><ele>179.0</ele><time>2026-04-08T15:01:45.353Z</time></trkpt><trkpt lat="38.66189" lon="16.1873167"><ele>177.0</ele><time>2026-04-08T15:01:47.353Z</time></trkpt><trkpt lat="38.661585" lon="16.18748"><ele>175.0</ele><time>2026-04-08T15:01:48.354Z</time></trkpt><trkpt lat="38.661275" lon="16.1876333"><ele>175.0</ele><time>2026-04-08T15:01:49.353Z</time></trkpt><trkpt lat="38.66097" lon="16.1877717"><ele>175.0</ele><time>2026-04-08T15:01:50.354Z</time></trkpt><trkpt lat="38.6606633" lon="16.18792"><ele>175.0</ele><time>2026-04-08T15:01:51.353Z</time></trkpt><trkpt lat="38.660355" lon="16.188045"><ele>175.0</ele><time>2026-04-08T15:01:52.353Z</time></trkpt><trkpt lat="38.66005" lon="16.188165"><ele>169.5</ele><time>2026-04-08T15:01:53.353Z</time></trkpt><trkpt lat="38.6597433" lon="16.1882883"><ele>164.0</ele><time>2026-04-08T15:01:54.353Z</time></trkpt><trkpt lat="38.659435" lon="16.1883983"><ele>164.0</ele><time>2026-04-08T15:01:55.353Z</time></trkpt><trkpt lat="38.6591317" lon="16.1884983"><ele>164.0</ele><time>2026-04-08T15:01:56.354Z</time></trkpt><trkpt lat="38.6588283" lon="16.188595"><ele>163.5</ele><time>2026-04-08T15:01:57.353Z</time></trkpt><trkpt lat="38.6585267" lon="16.1886867"><ele>163.0</ele><time>2026-04-08T15:01:58.354Z</time></trkpt><trkpt lat="38.6582117" lon="16.188765"><ele>163.0</ele><time>2026-04-08T15:01:59.354Z</time></trkpt><trkpt lat="38.6579017" lon="16.18884"><ele>163.0</ele><time>2026-04-08T15:02:00.353Z</time></trkpt><trkpt lat="38.6575967" lon="16.1889017"><ele>169.0</ele><time>2026-04-08T15:02:01.353Z</time></trkpt><trkpt lat="38.65729" lon="16.188955"><ele>175.0</ele><time>2026-04-08T15:02:02.353Z</time></trkpt><trkpt lat="38.65698" lon="16.18899"><ele>173.0</ele><time>2026-04-08T15:02:03.353Z</time></trkpt><trkpt lat="38.6566717" lon="16.1890167"><ele>171.0</ele><time>2026-04-08T15:02:04.353Z</time></trkpt><trkpt lat="38.6563617" lon="16.1890283"><ele>175.5</ele><time>2026-04-08T15:02:05.354Z</time></trkpt><trkpt lat="38.6560583" lon="16.1890283"><ele>180.0</ele><time>2026-04-08T15:02:06.353Z</time></trkpt><trkpt lat="38.655755" lon="16.1890233"><ele>180.0</ele><time>2026-04-08T15:02:07.354Z</time></trkpt><trkpt lat="38.6554533" lon="16.1890133"><ele>180.0</ele><time>2026-04-08T15:02:08.353Z</time></trkpt><trkpt lat="38.655155" lon="16.189005"><ele>194.0</ele><time>2026-04-08T15:02:09.353Z</time></trkpt><trkpt lat="38.6548633" lon="16.18901"><ele>208.0</ele><time>2026-04-08T15:02:10.354Z</time></trkpt><trkpt lat="38.654565" lon="16.1890067"><ele>148.0</ele><time>2026-04-08T15:02:11.354Z</time></trkpt><trkpt lat="38.6505883" lon="16.1874633"><ele>147.5</ele><time>2026-04-08T15:02:25.352Z</time></trkpt><trkpt lat="38.6503317" lon="16.1872933"><ele>147.0</ele><time>2026-04-08T15:02:26.352Z</time></trkpt><trkpt lat="38.6500783" lon="16.1871267"><ele>147.0</ele><time>2026-04-08T15:02:27.351Z</time></trkpt><trkpt lat="38.6498267" lon="16.1869617"><ele>147.0</ele><time>2026-04-08T15:02:28.352Z</time></trkpt><trkpt lat="38.6495733" lon="16.18679"><ele>147.0</ele><time>2026-04-08T15:02:29.351Z</time></trkpt><trkpt lat="38.6493167" lon="16.1866183"><ele>147.0</ele><time>2026-04-08T15:02:30.352Z</time></trkpt><trkpt lat="38.649055" lon="16.1864483"><ele>147.0</ele><time>2026-04-08T15:02:31.352Z</time></trkpt><trkpt lat="38.64879" lon="16.18627"><ele>147.0</ele><time>2026-04-08T15:02:32.352Z</time></trkpt><trkpt lat="38.6485067" lon="16.1860933"><ele>145.5</ele><time>2026-04-08T15:02:33.351Z</time></trkpt><trkpt lat="38.6482167" lon="16.1859"><ele>144.0</ele><time>2026-04-08T15:02:34.352Z</time></trkpt><trkpt lat="38.6479117" lon="16.1856983"><ele>144.0</ele><time>2026-04-08T15:02:35.351Z</time></trkpt><trkpt lat="38.6475967" lon="16.1854833"><ele>144.0</ele><time>2026-04-08T15:02:36.351Z</time></trkpt><trkpt lat="38.6472783" lon="16.18527"><ele>143.5</ele><time>2026-04-08T15:02:37.352Z</time></trkpt><trkpt lat="38.64695" lon="16.1850383"><ele>143.0</ele><time>2026-04-08T15:02:38.351Z</time></trkpt><trkpt lat="38.6466083" lon="16.184795"><ele>142.5</ele><time>2026-04-08T15:02:39.351Z</time></trkpt><trkpt lat="38.6462633" lon="16.1845667"><ele>142.0</ele><time>2026-04-08T15:02:40.352Z</time></trkpt><trkpt lat="38.6459267" lon="16.1843267"><ele>141.5</ele><time>2026-04-08T15:02:41.352Z</time></trkpt><trkpt lat="38.6455933" lon="16.184095"><ele>141.0</ele><time>2026-04-08T15:02:42.351Z</time></trkpt><trkpt lat="38.6452767" lon="16.1838783"><ele>141.0</ele><time>2026-04-08T15:02:43.351Z</time></trkpt><trkpt lat="38.6449617" lon="16.1836583"><ele>141.0</ele><time>2026-04-08T15:02:44.352Z</time></trkpt><trkpt lat="38.644655" lon="16.1834433"><ele>141.0</ele><time>2026-04-08T15:02:45.351Z</time></trkpt><trkpt lat="38.6443517" lon="16.1832433"><ele>141.0</ele><time>2026-04-08T15:02:46.351Z</time></trkpt><trkpt lat="38.64406" lon="16.1830383"><ele>141.0</ele><time>2026-04-08T15:02:47.352Z</time></trkpt><trkpt lat="38.6437767" lon="16.182835"><ele>141.0</ele><time>2026-04-08T15:02:48.351Z</time></trkpt><trkpt lat="38.6434933" lon="16.18263"><ele>141.0</ele><time>2026-04-08T15:02:49.351Z</time></trkpt><trkpt lat="38.643215" lon="16.182425"><ele>141.0</ele><time>2026-04-08T15:02:50.351Z</time></trkpt><trkpt lat="38.64294" lon="16.1822217"><ele>140.0</ele><time>2026-04-08T15:02:51.351Z</time></trkpt><trkpt lat="38.6426733" lon="16.1820183"><ele>139.0</ele><time>2026-04-08T15:02:52.351Z</time></trkpt><trkpt lat="38.6424067" lon="16.1818083"><ele>139.0</ele><time>2026-04-08T15:02:53.352Z</time></trkpt><trkpt lat="38.6421483" lon="16.1815983"><ele>139.0</ele><time>2026-04-08T15:02:54.351Z</time></trkpt><trkpt lat="38.6418967" lon="16.1813833"><ele>138.5</ele><time>2026-04-08T15:02:55.352Z</time></trkpt><trkpt lat="38.6416417" lon="16.1811633"><ele>138.0</ele><time>2026-04-08T15:02:56.352Z</time></trkpt><trkpt lat="38.6413983" lon="16.18094"><ele>138.0</ele><time>2026-04-08T15:02:57.351Z</time></trkpt><trkpt lat="38.6411567" lon="16.1807117"><ele>138.0</ele><time>2026-04-08T15:02:58.351Z</time></trkpt><trkpt lat="38.6409017" lon="16.1804967"><ele>138.0</ele><time>2026-04-08T15:02:59.351Z</time></trkpt><trkpt lat="38.6406667" lon="16.1802633"><ele>138.0</ele><time>2026-04-08T15:03:00.351Z</time></trkpt><trkpt lat="38.640425" lon="16.1800333"><ele>137.5</ele><time>2026-04-08T15:03:01.351Z</time></trkpt><trkpt lat="38.6401883" lon="16.1798083"><ele>137.0</ele><time>2026-04-08T15:03:02.352Z</time></trkpt><trkpt lat="38.6399433" lon="16.1795817"><ele>137.0</ele><time>2026-04-08T15:03:03.351Z</time></trkpt><trkpt lat="38.63971" lon="16.17935"><ele>137.0</ele><time>2026-04-08T15:03:04.351Z</time></trkpt><trkpt lat="38.639485" lon="16.1791183"><ele>136.5</ele><time>2026-04-08T15:03:05.351Z</time></trkpt><trkpt lat="38.639255" lon="16.17888"><ele>136.0</ele><time>2026-04-08T15:03:06.352Z</time></trkpt><trkpt lat="38.6390317" lon="16.1786417"><ele>136.0</ele><time>2026-04-08T15:03:07.352Z</time></trkpt><trkpt lat="38.6388017" lon="16.1783983"><ele>136.0</ele><time>2026-04-08T15:03:08.352Z</time></trkpt><trkpt lat="38.6385767" lon="16.178135"><ele>135.5</ele><time>2026-04-08T15:03:09.351Z</time></trkpt><trkpt lat="38.6383517" lon="16.1778783"><ele>135.0</ele><time>2026-04-08T15:03:10.352Z</time></trkpt><trkpt lat="38.6381217" lon="16.1776133"><ele>135.0</ele><time>2026-04-08T15:03:11.352Z</time></trkpt><trkpt lat="38.6378983" lon="16.1773483"><ele>135.0</ele><time>2026-04-08T15:03:12.351Z</time></trkpt><trkpt lat="38.6376767" lon="16.177085"><ele>134.5</ele><time>2026-04-08T15:03:13.351Z</time></trkpt><trkpt lat="38.63746" lon="16.176815"><ele>134.0</ele><time>2026-04-08T15:03:14.352Z</time></trkpt><trkpt lat="38.6372417" lon="16.1765383"><ele>133.0</ele><time>2026-04-08T15:03:15.351Z</time></trkpt><trkpt lat="38.637025" lon="16.176265"><ele>132.0</ele><time>2026-04-08T15:03:16.352Z</time></trkpt><trkpt lat="38.636815" lon="16.17599"><ele>132.0</ele><time>2026-04-08T15:03:17.352Z</time></trkpt><trkpt lat="38.6366083" lon="16.17571"><ele>132.0</ele><time>2026-04-08T15:03:18.351Z</time></trkpt><trkpt lat="38.6364067" lon="16.1754233"><ele>132.0</ele><time>2026-04-08T15:03:19.351Z</time></trkpt><trkpt lat="38.6362067" lon="16.1751367"><ele>132.0</ele><time>2026-04-08T15:03:20.351Z</time></trkpt><trkpt lat="38.636005" lon="16.1748533"><ele>132.0</ele><time>2026-04-08T15:03:21.351Z</time></trkpt><trkpt lat="38.635805" lon="16.174565"><ele>132.0</ele><time>2026-04-08T15:03:22.351Z</time></trkpt><trkpt lat="38.635605" lon="16.1742733"><ele>131.5</ele><time>2026-04-08T15:03:23.352Z</time></trkpt><trkpt lat="38.6354117" lon="16.17398"><ele>131.0</ele><time>2026-04-08T15:03:24.352Z</time></trkpt><trkpt lat="38.6352267" lon="16.17369"><ele>131.0</ele><time>2026-04-08T15:03:25.351Z</time></trkpt><trkpt lat="38.63504" lon="16.1734033"><ele>131.0</ele><time>2026-04-08T15:03:26.352Z</time></trkpt><trkpt lat="38.6348583" lon="16.17311"><ele>131.0</ele><time>2026-04-08T15:03:27.352Z</time></trkpt><trkpt lat="38.6346817" lon="16.17281"><ele>131.0</ele><time>2026-04-08T15:03:28.352Z</time></trkpt><trkpt lat="38.634505" lon="16.17251"><ele>131.5</ele><time>2026-04-08T15:03:29.351Z</time></trkpt><trkpt lat="38.63433" lon="16.1722117"><ele>132.0</ele><time>2026-04-08T15:03:30.351Z</time></trkpt><trkpt lat="38.6341583" lon="16.1719133"><ele>132.0</ele><time>2026-04-08T15:03:31.351Z</time></trkpt><trkpt lat="38.6339867" lon="16.1716133"><ele>132.0</ele><time>2026-04-08T15:03:32.352Z</time></trkpt><trkpt lat="38.633825" lon="16.1713083"><ele>132.0</ele><time>2026-04-08T15:03:33.351Z</time></trkpt><trkpt lat="38.6336617" lon="16.171015"><ele>132.0</ele><time>2026-04-08T15:03:34.351Z</time></trkpt><trkpt lat="38.6335033" lon="16.1707133"><ele>130.5</ele><time>2026-04-08T15:03:35.351Z</time></trkpt><trkpt lat="38.6333383" lon="16.170405"><ele>129.0</ele><time>2026-04-08T15:03:36.352Z</time></trkpt><trkpt lat="38.6331767" lon="16.1701033"><ele>129.0</ele><time>2026-04-08T15:03:37.352Z</time></trkpt><trkpt lat="38.6330117" lon="16.1697983"><ele>129.0</ele><time>2026-04-08T15:03:38.351Z</time></trkpt><trkpt lat="38.6328533" lon="16.1694917"><ele>129.0</ele><time>2026-04-08T15:03:39.351Z</time></trkpt><trkpt lat="38.632695" lon="16.1691833"><ele>129.0</ele><time>2026-04-08T15:03:40.352Z</time></trkpt><trkpt lat="38.6325283" lon="16.1688767"><ele>129.0</ele><time>2026-04-08T15:03:41.352Z</time></trkpt><trkpt lat="38.632355" lon="16.1685683"><ele>129.0</ele><time>2026-04-08T15:03:42.351Z</time></trkpt><trkpt lat="38.6321867" lon="16.1682617"><ele>129.0</ele><time>2026-04-08T15:03:43.352Z</time></trkpt><trkpt lat="38.6320167" lon="16.1679583"><ele>129.0</ele><time>2026-04-08T15:03:44.352Z</time></trkpt><trkpt lat="38.6318367" lon="16.16765"><ele>129.0</ele><time>2026-04-08T15:03:45.351Z</time></trkpt><trkpt lat="38.631665" lon="16.1673517"><ele>129.0</ele><time>2026-04-08T15:03:46.351Z</time></trkpt><trkpt lat="38.6314867" lon="16.1670483"><ele>129.0</ele><time>2026-04-08T15:03:47.351Z</time></trkpt><trkpt lat="38.6313067" lon="16.1667583"><ele>129.0</ele><time>2026-04-08T15:03:48.352Z</time></trkpt><trkpt lat="38.63112" lon="16.1664667"><ele>129.5</ele><time>2026-04-08T15:03:49.352Z</time></trkpt><trkpt lat="38.6309283" lon="16.1661833"><ele>130.0</ele><time>2026-04-08T15:03:50.352Z</time></trkpt><trkpt lat="38.63073" lon="16.165905"><ele>129.0</ele><time>2026-04-08T15:03:51.351Z</time></trkpt><trkpt lat="38.630525" lon="16.165635"><ele>128.0</ele><time>2026-04-08T15:03:52.351Z</time></trkpt><trkpt lat="38.63031" lon="16.1653717"><ele>128.0</ele><time>2026-04-08T15:03:53.352Z</time></trkpt><trkpt lat="38.630095" lon="16.1651117"><ele>128.0</ele><time>2026-04-08T15:03:54.352Z</time></trkpt><trkpt lat="38.6298783" lon="16.16486"><ele>127.0</ele><time>2026-04-08T15:03:55.352Z</time></trkpt><trkpt lat="38.6296667" lon="16.1646083"><ele>126.0</ele><time>2026-04-08T15:03:56.351Z</time></trkpt><trkpt lat="38.6294467" lon="16.164365"><ele>126.0</ele><time>2026-04-08T15:03:57.351Z</time></trkpt><trkpt lat="38.6292183" lon="16.16413"><ele>126.0</ele><time>2026-04-08T15:03:58.352Z</time></trkpt><trkpt lat="38.6289883" lon="16.1638933"><ele>125.0</ele><time>2026-04-08T15:03:59.351Z</time></trkpt><trkpt lat="38.62876" lon="16.1636617"><ele>124.0</ele><time>2026-04-08T15:04:00.352Z</time></trkpt><trkpt lat="38.62853" lon="16.163435"><ele>124.0</ele><time>2026-04-08T15:04:01.351Z</time></trkpt><trkpt lat="38.6282967" lon="16.1632183"><ele>124.0</ele><time>2026-04-08T15:04:02.352Z</time></trkpt><trkpt lat="38.6280617" lon="16.16302"><ele>123.5</ele><time>2026-04-08T15:04:03.352Z</time></trkpt><trkpt lat="38.627825" lon="16.16282"><ele>123.0</ele><time>2026-04-08T15:04:04.351Z</time></trkpt><trkpt lat="38.627585" lon="16.1626117"><ele>123.0</ele><time>2026-04-08T15:04:05.351Z</time></trkpt><trkpt lat="38.6273383" lon="16.1624167"><ele>123.0</ele><time>2026-04-08T15:04:06.352Z</time></trkpt><trkpt lat="38.6270933" lon="16.1622267"><ele>122.5</ele><time>2026-04-08T15:04:07.351Z</time></trkpt><trkpt lat="38.626845" lon="16.16203"><ele>122.0</ele><time>2026-04-08T15:04:08.351Z</time></trkpt><trkpt lat="38.6265967" lon="16.1618567"><ele>122.0</ele><time>2026-04-08T15:04:09.351Z</time></trkpt><trkpt lat="38.6263417" lon="16.161685"><ele>122.0</ele><time>2026-04-08T15:04:10.352Z</time></trkpt><trkpt lat="38.6260833" lon="16.161515"><ele>121.0</ele><time>2026-04-08T15:04:11.351Z</time></trkpt><trkpt lat="38.6258167" lon="16.16136"><ele>120.0</ele><time>2026-04-08T15:04:12.351Z</time></trkpt><trkpt lat="38.6255517" lon="16.1612167"><ele>121.5</ele><time>2026-04-08T15:04:13.351Z</time></trkpt><trkpt lat="38.6252833" lon="16.16107"><ele>123.0</ele><time>2026-04-08T15:04:14.352Z</time></trkpt><trkpt lat="38.6250067" lon="16.1609267"><ele>123.0</ele><time>2026-04-08T15:04:15.352Z</time></trkpt><trkpt lat="38.62474" lon="16.160795"><ele>123.0</ele><time>2026-04-08T15:04:16.351Z</time></trkpt><trkpt lat="38.6244667" lon="16.1606683"><ele>121.5</ele><time>2026-04-08T15:04:17.352Z</time></trkpt><trkpt lat="38.6241817" lon="16.16056"><ele>120.0</ele><time>2026-04-08T15:04:18.351Z</time></trkpt><trkpt lat="38.623895" lon="16.160445"><ele>122.0</ele><time>2026-04-08T15:04:19.351Z</time></trkpt><trkpt lat="38.6236233" lon="16.1603383"><ele>124.0</ele><time>2026-04-08T15:04:20.352Z</time></trkpt><trkpt lat="38.6233533" lon="16.1602267"><ele>124.0</ele><time>2026-04-08T15:04:21.351Z</time></trkpt><trkpt lat="38.6230667" lon="16.160125"><ele>124.0</ele><time>2026-04-08T15:04:22.351Z</time></trkpt><trkpt lat="38.62278" lon="16.160025"><ele>124.5</ele><time>2026-04-08T15:04:23.351Z</time></trkpt><trkpt lat="38.6225083" lon="16.1599233"><ele>125.0</ele><time>2026-04-08T15:04:24.351Z</time></trkpt><trkpt lat="38.6222317" lon="16.1598167"><ele>119.5</ele><time>2026-04-08T15:04:25.352Z</time></trkpt><trkpt lat="38.621945" lon="16.15972"><ele>114.0</ele><time>2026-04-08T15:04:26.351Z</time></trkpt><trkpt lat="38.6216633" lon="16.1596183"><ele>114.0</ele><time>2026-04-08T15:04:27.351Z</time></trkpt><trkpt lat="38.6213883" lon="16.1595167"><ele>114.0</ele><time>2026-04-08T15:04:28.351Z</time></trkpt><trkpt lat="38.6211083" lon="16.1594"><ele>115.0</ele><time>2026-04-08T15:04:29.352Z</time></trkpt><trkpt lat="38.6208333" lon="16.1592783"><ele>116.0</ele><time>2026-04-08T15:04:30.351Z</time></trkpt><trkpt lat="38.6205567" lon="16.15916"><ele>116.0</ele><time>2026-04-08T15:04:31.351Z</time></trkpt><trkpt lat="38.62028" lon="16.159035"><ele>116.0</ele><time>2026-04-08T15:04:32.352Z</time></trkpt><trkpt lat="38.6200117" lon="16.1588933"><ele>116.0</ele><time>2026-04-08T15:04:33.351Z</time></trkpt><trkpt lat="38.619735" lon="16.158765"><ele>116.0</ele><time>2026-04-08T15:04:34.351Z</time></trkpt><trkpt lat="38.6194667" lon="16.158625"><ele>116.5</ele><time>2026-04-08T15:04:35.352Z</time></trkpt><trkpt lat="38.6191967" lon="16.1584717"><ele>117.0</ele><time>2026-04-08T15:04:36.351Z</time></trkpt><trkpt lat="38.6189417" lon="16.158315"><ele>116.0</ele><time>2026-04-08T15:04:37.351Z</time></trkpt><trkpt lat="38.618675" lon="16.1581483"><ele>115.0</ele><time>2026-04-08T15:04:38.352Z</time></trkpt><trkpt lat="38.6184133" lon="16.1579783"><ele>115.0</ele><time>2026-04-08T15:04:39.352Z</time></trkpt><trkpt lat="38.61816" lon="16.157805"><ele>115.0</ele><time>2026-04-08T15:04:40.351Z</time></trkpt><trkpt lat="38.6179067" lon="16.1576167"><ele>115.5</ele><time>2026-04-08T15:04:41.351Z</time></trkpt><trkpt lat="38.6176583" lon="16.1574117"><ele>116.0</ele><time>2026-04-08T15:04:42.351Z</time></trkpt><trkpt lat="38.6174167" lon="16.15721"><ele>116.0</ele><time>2026-04-08T15:04:43.352Z</time></trkpt><trkpt lat="38.6171667" lon="16.1570067"><ele>116.0</ele><time>2026-04-08T15:04:44.351Z</time></trkpt><trkpt lat="38.6169167" lon="16.1568017"><ele>115.0</ele><time>2026-04-08T15:04:45.351Z</time></trkpt><trkpt lat="38.616675" lon="16.1565933"><ele>114.0</ele><time>2026-04-08T15:04:46.351Z</time></trkpt><trkpt lat="38.6164367" lon="16.1563817"><ele>114.0</ele><time>2026-04-08T15:04:47.352Z</time></trkpt><trkpt lat="38.61621" lon="16.1561483"><ele>114.0</ele><time>2026-04-08T15:04:48.351Z</time></trkpt><trkpt lat="38.6159883" lon="16.1559117"><ele>114.0</ele><time>2026-04-08T15:04:49.352Z</time></trkpt><trkpt lat="38.6157717" lon="16.1556667"><ele>114.0</ele><time>2026-04-08T15:04:50.351Z</time></trkpt><trkpt lat="38.61555" lon="16.1554183"><ele>114.0</ele><time>2026-04-08T15:04:51.352Z</time></trkpt><trkpt lat="38.6153367" lon="16.1551683"><ele>114.0</ele><time>2026-04-08T15:04:52.352Z</time></trkpt><trkpt lat="38.61512" lon="16.1549267"><ele>115.0</ele><time>2026-04-08T15:04:53.352Z</time></trkpt><trkpt lat="38.6148983" lon="16.1546883"><ele>116.0</ele><time>2026-04-08T15:04:54.351Z</time></trkpt><trkpt lat="38.6146783" lon="16.1544483"><ele>116.0</ele><time>2026-04-08T15:04:55.351Z</time></trkpt><trkpt lat="38.6144517" lon="16.15421"><ele>116.0</ele><time>2026-04-08T15:04:56.351Z</time></trkpt><trkpt lat="38.6142283" lon="16.1539683"><ele>115.5</ele><time>2026-04-08T15:04:57.351Z</time></trkpt><trkpt lat="38.6140067" lon="16.153735"><ele>115.0</ele><time>2026-04-08T15:04:58.351Z</time></trkpt><trkpt lat="38.61379" lon="16.1534983"><ele>115.5</ele><time>2026-04-08T15:04:59.351Z</time></trkpt><trkpt lat="38.6135667" lon="16.153255"><ele>116.0</ele><time>2026-04-08T15:05:00.351Z</time></trkpt><trkpt lat="38.61334" lon="16.1530167"><ele>115.0</ele><time>2026-04-08T15:05:01.352Z</time></trkpt><trkpt lat="38.613115" lon="16.152785"><ele>114.0</ele><time>2026-04-08T15:05:02.351Z</time></trkpt><trkpt lat="38.6128833" lon="16.1525517"><ele>113.0</ele><time>2026-04-08T15:05:03.351Z</time></trkpt><trkpt lat="38.61265" lon="16.15232"><ele>112.0</ele><time>2026-04-08T15:05:04.352Z</time></trkpt><trkpt lat="38.6124167" lon="16.15209"><ele>112.0</ele><time>2026-04-08T15:05:05.351Z</time></trkpt><trkpt lat="38.612185" lon="16.1518583"><ele>112.0</ele><time>2026-04-08T15:05:06.352Z</time></trkpt><trkpt lat="38.61195" lon="16.1516333"><ele>111.0</ele><time>2026-04-08T15:05:07.351Z</time></trkpt><trkpt lat="38.61171" lon="16.151415"><ele>110.0</ele><time>2026-04-08T15:05:08.351Z</time></trkpt><trkpt lat="38.6114717" lon="16.151205"><ele>110.0</ele><time>2026-04-08T15:05:09.351Z</time></trkpt><trkpt lat="38.6112333" lon="16.1509967"><ele>110.0</ele><time>2026-04-08T15:05:10.352Z</time></trkpt><trkpt lat="38.6109883" lon="16.1507883"><ele>111.0</ele><time>2026-04-08T15:05:11.351Z</time></trkpt><trkpt lat="38.610735" lon="16.1505817"><ele>112.0</ele><time>2026-04-08T15:05:12.351Z</time></trkpt><trkpt lat="38.6104917" lon="16.1503833"><ele>111.5</ele><time>2026-04-08T15:05:13.351Z</time></trkpt><trkpt lat="38.610245" lon="16.15019"><ele>111.0</ele><time>2026-04-08T15:05:14.351Z</time></trkpt><trkpt lat="38.6099917" lon="16.1500033"><ele>115.0</ele><time>2026-04-08T15:05:15.351Z</time></trkpt><trkpt lat="38.6097483" lon="16.1498133"><ele>119.0</ele><time>2026-04-08T15:05:16.351Z</time></trkpt><trkpt lat="38.6094967" lon="16.1496233"><ele>116.0</ele><time>2026-04-08T15:05:17.352Z</time></trkpt><trkpt lat="38.609245" lon="16.1494417"><ele>113.0</ele><time>2026-04-08T15:05:18.352Z</time></trkpt><trkpt lat="38.6089917" lon="16.149255"><ele>113.0</ele><time>2026-04-08T15:05:19.352Z</time></trkpt><trkpt lat="38.6087383" lon="16.1490683"><ele>113.0</ele><time>2026-04-08T15:05:20.352Z</time></trkpt><trkpt lat="38.60849" lon="16.1488733"><ele>115.0</ele><time>2026-04-08T15:05:21.352Z</time></trkpt><trkpt lat="38.608245" lon="16.1486817"><ele>117.0</ele><time>2026-04-08T15:05:22.351Z</time></trkpt><trkpt lat="38.607995" lon="16.1484933"><ele>114.5</ele><time>2026-04-08T15:05:23.351Z</time></trkpt><trkpt lat="38.6077483" lon="16.1483067"><ele>112.0</ele><time>2026-04-08T15:05:24.351Z</time></trkpt><trkpt lat="38.6074967" lon="16.148125"><ele>112.0</ele><time>2026-04-08T15:05:25.351Z</time></trkpt><trkpt lat="38.6072433" lon="16.1479417"><ele>112.0</ele><time>2026-04-08T15:05:26.351Z</time></trkpt><trkpt lat="38.6069917" lon="16.14776"><ele>112.0</ele><time>2026-04-08T15:05:27.351Z</time></trkpt><trkpt lat="38.6067367" lon="16.1475767"><ele>112.0</ele><time>2026-04-08T15:05:28.351Z</time></trkpt><trkpt lat="38.6064867" lon="16.147385"><ele>114.5</ele><time>2026-04-08T15:05:29.351Z</time></trkpt><trkpt lat="38.60624" lon="16.14719"><ele>117.0</ele><time>2026-04-08T15:05:30.351Z</time></trkpt><trkpt lat="38.605995" lon="16.1469933"><ele>117.0</ele><time>2026-04-08T15:05:31.351Z</time></trkpt><trkpt lat="38.605745" lon="16.1467983"><ele>117.0</ele><time>2026-04-08T15:05:32.351Z</time></trkpt><trkpt lat="38.6054983" lon="16.1465983"><ele>116.5</ele><time>2026-04-08T15:05:33.351Z</time></trkpt><trkpt lat="38.6052533" lon="16.1463883"><ele>116.0</ele><time>2026-04-08T15:05:34.352Z</time></trkpt><trkpt lat="38.6050133" lon="16.1461733"><ele>116.0</ele><time>2026-04-08T15:05:35.351Z</time></trkpt><trkpt lat="38.6047783" lon="16.145955"><ele>116.0</ele><time>2026-04-08T15:05:36.352Z</time></trkpt><trkpt lat="38.6045433" lon="16.1457367"><ele>113.0</ele><time>2026-04-08T15:05:37.351Z</time></trkpt><trkpt lat="38.6043133" lon="16.1455117"><ele>110.0</ele><time>2026-04-08T15:05:38.351Z</time></trkpt><trkpt lat="38.604085" lon="16.14528"><ele>110.0</ele><time>2026-04-08T15:05:39.352Z</time></trkpt><trkpt lat="38.60387" lon="16.1450367"><ele>110.0</ele><time>2026-04-08T15:05:40.351Z</time></trkpt><trkpt lat="38.6036467" lon="16.1448"><ele>110.5</ele><time>2026-04-08T15:05:41.352Z</time></trkpt><trkpt lat="38.6034283" lon="16.144555"><ele>111.0</ele><time>2026-04-08T15:05:42.351Z</time></trkpt><trkpt lat="38.6032033" lon="16.144315"><ele>111.0</ele><time>2026-04-08T15:05:43.351Z</time></trkpt><trkpt lat="38.602985" lon="16.144075"><ele>111.0</ele><time>2026-04-08T15:05:44.352Z</time></trkpt><trkpt lat="38.60276" lon="16.1438417"><ele>109.5</ele><time>2026-04-08T15:05:45.351Z</time></trkpt><trkpt lat="38.602535" lon="16.1436033"><ele>108.0</ele><time>2026-04-08T15:05:46.351Z</time></trkpt><trkpt lat="38.6023117" lon="16.14337"><ele>108.0</ele><time>2026-04-08T15:05:47.351Z</time></trkpt><trkpt lat="38.6020817" lon="16.1431433"><ele>108.0</ele><time>2026-04-08T15:05:48.352Z</time></trkpt><trkpt lat="38.601845" lon="16.142925"><ele>107.5</ele><time>2026-04-08T15:05:49.352Z</time></trkpt><trkpt lat="38.6016067" lon="16.142705"><ele>107.0</ele><time>2026-04-08T15:05:50.351Z</time></trkpt><trkpt lat="38.6013617" lon="16.142495"><ele>107.5</ele><time>2026-04-08T15:05:51.352Z</time></trkpt><trkpt lat="38.601115" lon="16.14229"><ele>108.0</ele><time>2026-04-08T15:05:52.351Z</time></trkpt><trkpt lat="38.60087" lon="16.1420967"><ele>108.0</ele><time>2026-04-08T15:05:53.352Z</time></trkpt><trkpt lat="38.600625" lon="16.1419033"><ele>108.0</ele><time>2026-04-08T15:05:54.351Z</time></trkpt><trkpt lat="38.6003833" lon="16.141705"><ele>114.0</ele><time>2026-04-08T15:05:55.351Z</time></trkpt><trkpt lat="38.60013" lon="16.1415083"><ele>120.0</ele><time>2026-04-08T15:05:56.351Z</time></trkpt><trkpt lat="38.5998783" lon="16.1413133"><ele>120.0</ele><time>2026-04-08T15:05:57.351Z</time></trkpt><trkpt lat="38.59963" lon="16.1411167"><ele>120.0</ele><time>2026-04-08T15:05:58.351Z</time></trkpt><trkpt lat="38.5993833" lon="16.140915"><ele>121.0</ele><time>2026-04-08T15:05:59.351Z</time></trkpt><trkpt lat="38.5991333" lon="16.140725"><ele>122.0</ele><time>2026-04-08T15:06:00.352Z</time></trkpt><trkpt lat="38.5988783" lon="16.140535"><ele>117.0</ele><time>2026-04-08T15:06:01.351Z</time></trkpt><trkpt lat="38.5986283" lon="16.1403467"><ele>112.0</ele><time>2026-04-08T15:06:02.351Z</time></trkpt><trkpt lat="38.59839" lon="16.1401483"><ele>112.0</ele><time>2026-04-08T15:06:03.351Z</time></trkpt><trkpt lat="38.5981417" lon="16.1399483"><ele>112.0</ele><time>2026-04-08T15:06:04.351Z</time></trkpt><trkpt lat="38.597895" lon="16.1397567"><ele>112.5</ele><time>2026-04-08T15:06:05.351Z</time></trkpt><trkpt lat="38.5976483" lon="16.1395633"><ele>113.0</ele><time>2026-04-08T15:06:06.351Z</time></trkpt><trkpt lat="38.5973983" lon="16.13937"><ele>113.0</ele><time>2026-04-08T15:06:07.352Z</time></trkpt><trkpt lat="38.5971467" lon="16.1391733"><ele>113.0</ele><time>2026-04-08T15:06:08.351Z</time></trkpt><trkpt lat="38.596905" lon="16.138975"><ele>110.5</ele><time>2026-04-08T15:06:09.351Z</time></trkpt><trkpt lat="38.59666" lon="16.1387867"><ele>108.0</ele><time>2026-04-08T15:06:10.352Z</time></trkpt><trkpt lat="38.5964067" lon="16.138615"><ele>106.0</ele><time>2026-04-08T15:06:11.352Z</time></trkpt><trkpt lat="38.5961517" lon="16.13845"><ele>104.0</ele><time>2026-04-08T15:06:12.352Z</time></trkpt><trkpt lat="38.59589" lon="16.1382817"><ele>107.0</ele><time>2026-04-08T15:06:13.351Z</time></trkpt><trkpt lat="38.595625" lon="16.1381217"><ele>110.0</ele><time>2026-04-08T15:06:14.351Z</time></trkpt><trkpt lat="38.5953617" lon="16.1379683"><ele>106.5</ele><time>2026-04-08T15:06:15.351Z</time></trkpt><trkpt lat="38.59509" lon="16.13783"><ele>103.0</ele><time>2026-04-08T15:06:16.351Z</time></trkpt><trkpt lat="38.5948217" lon="16.1376983"><ele>103.0</ele><time>2026-04-08T15:06:17.351Z</time></trkpt><trkpt lat="38.5945483" lon="16.13757"><ele>103.0</ele><time>2026-04-08T15:06:18.351Z</time></trkpt><trkpt lat="38.594275" lon="16.1374467"><ele>103.0</ele><time>2026-04-08T15:06:19.351Z</time></trkpt><trkpt lat="38.5939967" lon="16.13734"><ele>103.0</ele><time>2026-04-08T15:06:20.352Z</time></trkpt><trkpt lat="38.5937133" lon="16.1372417"><ele>105.0</ele><time>2026-04-08T15:06:21.352Z</time></trkpt><trkpt lat="38.5934317" lon="16.1371483"><ele>107.0</ele><time>2026-04-08T15:06:22.351Z</time></trkpt><trkpt lat="38.5931433" lon="16.137075"><ele>107.0</ele><time>2026-04-08T15:06:23.352Z</time></trkpt><trkpt lat="38.5928583" lon="16.137005"><ele>107.0</ele><time>2026-04-08T15:06:24.352Z</time></trkpt><trkpt lat="38.59257" lon="16.1369333"><ele>106.0</ele><time>2026-04-08T15:06:25.352Z</time></trkpt><trkpt lat="38.59228" lon="16.1368767"><ele>105.0</ele><time>2026-04-08T15:06:26.351Z</time></trkpt><trkpt lat="38.5919917" lon="16.1368167"><ele>104.0</ele><time>2026-04-08T15:06:27.351Z</time></trkpt><trkpt lat="38.5916983" lon="16.1367633"><ele>103.0</ele><time>2026-04-08T15:06:28.352Z</time></trkpt><trkpt lat="38.59141" lon="16.13671"><ele>102.5</ele><time>2026-04-08T15:06:29.352Z</time></trkpt><trkpt lat="38.5911233" lon="16.1366467"><ele>102.0</ele><time>2026-04-08T15:06:30.352Z</time></trkpt><trkpt lat="38.590835" lon="16.136585"><ele>110.0</ele><time>2026-04-08T15:06:31.351Z</time></trkpt><trkpt lat="38.5905483" lon="16.1365433"><ele>118.0</ele><time>2026-04-08T15:06:32.352Z</time></trkpt><trkpt lat="38.5902633" lon="16.13649"><ele>118.0</ele><time>2026-04-08T15:06:33.351Z</time></trkpt><trkpt lat="38.5899767" lon="16.1364333"><ele>118.0</ele><time>2026-04-08T15:06:34.352Z</time></trkpt><trkpt lat="38.58969" lon="16.13637"><ele>113.0</ele><time>2026-04-08T15:06:35.351Z</time></trkpt><trkpt lat="38.5894017" lon="16.1363"><ele>108.0</ele><time>2026-04-08T15:06:36.351Z</time></trkpt><trkpt lat="38.589115" lon="16.136225"><ele>108.0</ele><time>2026-04-08T15:06:37.352Z</time></trkpt><trkpt lat="38.5888283" lon="16.13615"><ele>108.0</ele><time>2026-04-08T15:06:38.351Z</time></trkpt><trkpt lat="38.58855" lon="16.1360583"><ele>106.0</ele><time>2026-04-08T15:06:39.351Z</time></trkpt><trkpt lat="38.5882683" lon="16.13597"><ele>104.0</ele><time>2026-04-08T15:06:40.351Z</time></trkpt><trkpt lat="38.5879833" lon="16.1358783"><ele>103.5</ele><time>2026-04-08T15:06:41.352Z</time></trkpt><trkpt lat="38.5877017" lon="16.1357833"><ele>103.0</ele><time>2026-04-08T15:06:42.351Z</time></trkpt><trkpt lat="38.58743" lon="16.135675"><ele>107.0</ele><time>2026-04-08T15:06:43.351Z</time></trkpt><trkpt lat="38.587155" lon="16.1355683"><ele>111.0</ele><time>2026-04-08T15:06:44.352Z</time></trkpt><trkpt lat="38.5868833" lon="16.13544"><ele>111.0</ele><time>2026-04-08T15:06:45.351Z</time></trkpt><trkpt lat="38.5866117" lon="16.1353067"><ele>111.0</ele><time>2026-04-08T15:06:46.352Z</time></trkpt><trkpt lat="38.5863433" lon="16.1351617"><ele>113.0</ele><time>2026-04-08T15:06:47.352Z</time></trkpt><trkpt lat="38.586075" lon="16.1350083"><ele>115.0</ele><time>2026-04-08T15:06:48.351Z</time></trkpt><trkpt lat="38.5858067" lon="16.1348483"><ele>115.0</ele><time>2026-04-08T15:06:49.352Z</time></trkpt><trkpt lat="38.5855417" lon="16.1346817"><ele>115.0</ele><time>2026-04-08T15:06:50.352Z</time></trkpt><trkpt lat="38.5852817" lon="16.134505"><ele>109.5</ele><time>2026-04-08T15:06:51.352Z</time></trkpt><trkpt lat="38.5850283" lon="16.13432"><ele>104.0</ele><time>2026-04-08T15:06:52.351Z</time></trkpt><trkpt lat="38.5847783" lon="16.134125"><ele>103.0</ele><time>2026-04-08T15:06:53.351Z</time></trkpt><trkpt lat="38.5845283" lon="16.1339267"><ele>102.0</ele><time>2026-04-08T15:06:54.351Z</time></trkpt><trkpt lat="38.5842833" lon="16.1337233"><ele>102.0</ele><time>2026-04-08T15:06:55.351Z</time></trkpt><trkpt lat="38.5840467" lon="16.1335083"><ele>102.0</ele><time>2026-04-08T15:06:56.352Z</time></trkpt><trkpt lat="38.5838133" lon="16.133285"><ele>99.5</ele><time>2026-04-08T15:06:57.351Z</time></trkpt><trkpt lat="38.5835867" lon="16.1330533"><ele>97.0</ele><time>2026-04-08T15:06:58.351Z</time></trkpt><trkpt lat="38.5833667" lon="16.1328133"><ele>97.0</ele><time>2026-04-08T15:06:59.352Z</time></trkpt><trkpt lat="38.5831433" lon="16.1325683"><ele>97.0</ele><time>2026-04-08T15:07:00.351Z</time></trkpt><trkpt lat="38.58293" lon="16.13232"><ele>97.0</ele><time>2026-04-08T15:07:01.351Z</time></trkpt><trkpt lat="38.5827167" lon="16.1320617"><ele>97.0</ele><time>2026-04-08T15:07:02.351Z</time></trkpt><trkpt lat="38.5825083" lon="16.1318"><ele>97.0</ele><time>2026-04-08T15:07:03.351Z</time></trkpt><trkpt lat="38.58231" lon="16.1315233"><ele>97.0</ele><time>2026-04-08T15:07:04.351Z</time></trkpt><trkpt lat="38.5821067" lon="16.1312517"><ele>96.5</ele><time>2026-04-08T15:07:05.352Z</time></trkpt><trkpt lat="38.5819167" lon="16.13097"><ele>96.0</ele><time>2026-04-08T15:07:06.352Z</time></trkpt><trkpt lat="38.58173" lon="16.130685"><ele>96.0</ele><time>2026-04-08T15:07:07.351Z</time></trkpt><trkpt lat="38.5815467" lon="16.13039"><ele>96.0</ele><time>2026-04-08T15:07:08.352Z</time></trkpt><trkpt lat="38.5813717" lon="16.1300933"><ele>100.0</ele><time>2026-04-08T15:07:09.351Z</time></trkpt><trkpt lat="38.5812017" lon="16.1298"><ele>104.0</ele><time>2026-04-08T15:07:10.351Z</time></trkpt><trkpt lat="38.5810417" lon="16.1294883"><ele>104.0</ele><time>2026-04-08T15:07:11.351Z</time></trkpt><trkpt lat="38.58089" lon="16.129175"><ele>104.0</ele><time>2026-04-08T15:07:12.352Z</time></trkpt><trkpt lat="38.5807367" lon="16.1288567"><ele>106.5</ele><time>2026-04-08T15:07:13.351Z</time></trkpt><trkpt lat="38.5805883" lon="16.128535"><ele>109.0</ele><time>2026-04-08T15:07:14.352Z</time></trkpt><trkpt lat="38.5804333" lon="16.1282117"><ele>104.0</ele><time>2026-04-08T15:07:15.351Z</time></trkpt><trkpt lat="38.5802833" lon="16.1278817"><ele>99.0</ele><time>2026-04-08T15:07:16.351Z</time></trkpt><trkpt lat="38.5801317" lon="16.12756"><ele>104.0</ele><time>2026-04-08T15:07:17.352Z</time></trkpt><trkpt lat="38.57999" lon="16.1272317"><ele>109.0</ele><time>2026-04-08T15:07:18.352Z</time></trkpt><trkpt lat="38.5798467" lon="16.1269033"><ele>109.0</ele><time>2026-04-08T15:07:19.351Z</time></trkpt><trkpt lat="38.5797" lon="16.12658"><ele>109.0</ele><time>2026-04-08T15:07:20.351Z</time></trkpt><trkpt lat="38.579565" lon="16.1262433"><ele>105.5</ele><time>2026-04-08T15:07:21.352Z</time></trkpt><trkpt lat="38.5794233" lon="16.1259067"><ele>102.0</ele><time>2026-04-08T15:07:22.352Z</time></trkpt><trkpt lat="38.579285" lon="16.1255783"><ele>102.0</ele><time>2026-04-08T15:07:23.351Z</time></trkpt><trkpt lat="38.579145" lon="16.125245"><ele>102.0</ele><time>2026-04-08T15:07:24.351Z</time></trkpt><trkpt lat="38.579" lon="16.1249133"><ele>106.5</ele><time>2026-04-08T15:07:25.351Z</time></trkpt><trkpt lat="38.578855" lon="16.1245833"><ele>111.0</ele><time>2026-04-08T15:07:26.352Z</time></trkpt><trkpt lat="38.5787083" lon="16.124245"><ele>109.5</ele><time>2026-04-08T15:07:27.352Z</time></trkpt><trkpt lat="38.5785617" lon="16.1239133"><ele>108.0</ele><time>2026-04-08T15:07:28.351Z</time></trkpt><trkpt lat="38.5784167" lon="16.1235783"><ele>108.0</ele><time>2026-04-08T15:07:29.352Z</time></trkpt><trkpt lat="38.5782683" lon="16.123245"><ele>108.0</ele><time>2026-04-08T15:07:30.351Z</time></trkpt><trkpt lat="38.578125" lon="16.1229083"><ele>110.5</ele><time>2026-04-08T15:07:31.351Z</time></trkpt><trkpt lat="38.5779817" lon="16.1225767"><ele>113.0</ele><time>2026-04-08T15:07:32.351Z</time></trkpt><trkpt lat="38.577845" lon="16.1222583"><ele>113.0</ele><time>2026-04-08T15:07:33.352Z</time></trkpt><trkpt lat="38.5777133" lon="16.1219517"><ele>113.0</ele><time>2026-04-08T15:07:34.351Z</time></trkpt><trkpt lat="38.5775833" lon="16.1216567"><ele>115.0</ele><time>2026-04-08T15:07:35.352Z</time></trkpt><trkpt lat="38.5774467" lon="16.1213583"><ele>117.0</ele><time>2026-04-08T15:07:36.352Z</time></trkpt><trkpt lat="38.5773167" lon="16.1210583"><ele>117.0</ele><time>2026-04-08T15:07:37.351Z</time></trkpt><trkpt lat="38.57719" lon="16.12076"><ele>117.0</ele><time>2026-04-08T15:07:38.351Z</time></trkpt><trkpt lat="38.57706" lon="16.120455"><ele>119.0</ele><time>2026-04-08T15:07:39.351Z</time></trkpt><trkpt lat="38.5769283" lon="16.1201383"><ele>121.0</ele><time>2026-04-08T15:07:40.352Z</time></trkpt><trkpt lat="38.5768267" lon="16.1197917"><ele>122.5</ele><time>2026-04-08T15:07:41.351Z</time></trkpt><trkpt lat="38.5767033" lon="16.119475"><ele>124.0</ele><time>2026-04-08T15:07:42.351Z</time></trkpt><trkpt lat="38.5765817" lon="16.1191583"><ele>129.0</ele><time>2026-04-08T15:07:43.351Z</time></trkpt><trkpt lat="38.5764583" lon="16.1188417"><ele>134.0</ele><time>2026-04-08T15:07:44.351Z</time></trkpt><trkpt lat="38.5763367" lon="16.1185233"><ele>92.0</ele><time>2026-04-08T15:07:45.351Z</time></trkpt><trkpt lat="38.5748067" lon="16.1111167"><ele>93.5</ele><time>2026-04-08T15:08:02.363Z</time></trkpt><trkpt lat="38.57475" lon="16.1106933"><ele>95.0</ele><time>2026-04-08T15:08:03.364Z</time></trkpt><trkpt lat="38.5747117" lon="16.1103"><ele>101.5</ele><time>2026-04-08T15:08:04.363Z</time></trkpt><trkpt lat="38.574675" lon="16.1099"><ele>108.0</ele><time>2026-04-08T15:08:05.363Z</time></trkpt><trkpt lat="38.5746383" lon="16.109525"><ele>108.0</ele><time>2026-04-08T15:08:06.364Z</time></trkpt><trkpt lat="38.5745983" lon="16.10914"><ele>108.0</ele><time>2026-04-08T15:08:07.363Z</time></trkpt><trkpt lat="38.574565" lon="16.1087483"><ele>108.0</ele><time>2026-04-08T15:08:08.364Z</time></trkpt><trkpt lat="38.574545" lon="16.1083367"><ele>108.0</ele><time>2026-04-08T15:08:09.364Z</time></trkpt><trkpt lat="38.5745067" lon="16.1079683"><ele>98.5</ele><time>2026-04-08T15:08:10.364Z</time></trkpt><trkpt lat="38.5744517" lon="16.107585"><ele>89.0</ele><time>2026-04-08T15:08:11.364Z</time></trkpt><trkpt lat="38.574405" lon="16.1072067"><ele>89.0</ele><time>2026-04-08T15:08:12.364Z</time></trkpt><trkpt lat="38.5743583" lon="16.1068233"><ele>89.0</ele><time>2026-04-08T15:08:13.363Z</time></trkpt><trkpt lat="38.5743233" lon="16.1064383"><ele>90.5</ele><time>2026-04-08T15:08:14.364Z</time></trkpt><trkpt lat="38.5743" lon="16.106055"><ele>92.0</ele><time>2026-04-08T15:08:15.364Z</time></trkpt><trkpt lat="38.5742767" lon="16.1056667"><ele>92.0</ele><time>2026-04-08T15:08:16.364Z</time></trkpt><trkpt lat="38.57424" lon="16.1052967"><ele>92.0</ele><time>2026-04-08T15:08:17.363Z</time></trkpt><trkpt lat="38.5742117" lon="16.1049167"><ele>90.5</ele><time>2026-04-08T15:08:18.364Z</time></trkpt><trkpt lat="38.5741767" lon="16.1045267"><ele>89.0</ele><time>2026-04-08T15:08:19.363Z</time></trkpt><trkpt lat="38.5741417" lon="16.1041433"><ele>88.0</ele><time>2026-04-08T15:08:20.363Z</time></trkpt><trkpt lat="38.5741033" lon="16.10376"><ele>87.0</ele><time>2026-04-08T15:08:21.364Z</time></trkpt><trkpt lat="38.57407" lon="16.1033817"><ele>86.0</ele><time>2026-04-08T15:08:22.363Z</time></trkpt><trkpt lat="38.574035" lon="16.1029983"><ele>85.0</ele><time>2026-04-08T15:08:23.363Z</time></trkpt><trkpt lat="38.5740017" lon="16.102625"><ele>85.5</ele><time>2026-04-08T15:08:24.364Z</time></trkpt><trkpt lat="38.5739733" lon="16.1022467"><ele>86.0</ele><time>2026-04-08T15:08:25.363Z</time></trkpt><trkpt lat="38.5739433" lon="16.101865"><ele>94.0</ele><time>2026-04-08T15:08:26.364Z</time></trkpt><trkpt lat="38.5739083" lon="16.1014917"><ele>102.0</ele><time>2026-04-08T15:08:27.363Z</time></trkpt><trkpt lat="38.5738767" lon="16.1011133"><ele>106.5</ele><time>2026-04-08T15:08:28.363Z</time></trkpt><trkpt lat="38.5738433" lon="16.1007483"><ele>111.0</ele><time>2026-04-08T15:08:29.364Z</time></trkpt><trkpt lat="38.5738117" lon="16.1003833"><ele>111.0</ele><time>2026-04-08T15:08:30.363Z</time></trkpt><trkpt lat="38.5737833" lon="16.1000267"><ele>111.0</ele><time>2026-04-08T15:08:31.363Z</time></trkpt><trkpt lat="38.5737533" lon="16.0996667"><ele>105.5</ele><time>2026-04-08T15:08:32.363Z</time></trkpt><trkpt lat="38.5737233" lon="16.0992967"><ele>100.0</ele><time>2026-04-08T15:08:33.363Z</time></trkpt><trkpt lat="38.5736917" lon="16.0989367"><ele>92.5</ele><time>2026-04-08T15:08:34.364Z</time></trkpt><trkpt lat="38.5736567" lon="16.0985867"><ele>85.0</ele><time>2026-04-08T15:08:35.363Z</time></trkpt><trkpt lat="38.57362" lon="16.0982233"><ele>85.0</ele><time>2026-04-08T15:08:36.363Z</time></trkpt><trkpt lat="38.5735717" lon="16.0978783"><ele>85.0</ele><time>2026-04-08T15:08:37.363Z</time></trkpt><trkpt lat="38.5735267" lon="16.09752"><ele>86.0</ele><time>2026-04-08T15:08:38.363Z</time></trkpt><trkpt lat="38.573475" lon="16.097175"><ele>87.0</ele><time>2026-04-08T15:08:39.364Z</time></trkpt><trkpt lat="38.5734283" lon="16.0968233"><ele>88.5</ele><time>2026-04-08T15:08:40.363Z</time></trkpt><trkpt lat="38.5733717" lon="16.09647"><ele>90.0</ele><time>2026-04-08T15:08:41.364Z</time></trkpt><trkpt lat="38.5733083" lon="16.0961117"><ele>90.0</ele><time>2026-04-08T15:08:42.363Z</time></trkpt><trkpt lat="38.5732367" lon="16.09576"><ele>90.0</ele><time>2026-04-08T15:08:43.364Z</time></trkpt><trkpt lat="38.5731617" lon="16.0954067"><ele>93.0</ele><time>2026-04-08T15:08:44.363Z</time></trkpt><trkpt lat="38.57308" lon="16.0950567"><ele>96.0</ele><time>2026-04-08T15:08:45.363Z</time></trkpt><trkpt lat="38.5729883" lon="16.0947117"><ele>97.0</ele><time>2026-04-08T15:08:46.364Z</time></trkpt><trkpt lat="38.5728867" lon="16.0943667"><ele>98.0</ele><time>2026-04-08T15:08:47.364Z</time></trkpt><trkpt lat="38.5727767" lon="16.0940333"><ele>98.0</ele><time>2026-04-08T15:08:48.363Z</time></trkpt><trkpt lat="38.572665" lon="16.0936967"><ele>98.0</ele><time>2026-04-08T15:08:49.364Z</time></trkpt><trkpt lat="38.5725483" lon="16.093365"><ele>103.0</ele><time>2026-04-08T15:08:50.363Z</time></trkpt><trkpt lat="38.5724283" lon="16.0930267"><ele>108.0</ele><time>2026-04-08T15:08:51.364Z</time></trkpt><trkpt lat="38.5723183" lon="16.09269"><ele>109.5</ele><time>2026-04-08T15:08:52.364Z</time></trkpt><trkpt lat="38.5722067" lon="16.0923567"><ele>111.0</ele><time>2026-04-08T15:08:53.364Z</time></trkpt><trkpt lat="38.5721" lon="16.092015"><ele>104.0</ele><time>2026-04-08T15:08:54.364Z</time></trkpt><trkpt lat="38.5719983" lon="16.0916783"><ele>97.0</ele><time>2026-04-08T15:08:55.363Z</time></trkpt><trkpt lat="38.57188" lon="16.09132"><ele>92.5</ele><time>2026-04-08T15:08:56.364Z</time></trkpt><trkpt lat="38.5716483" lon="16.091005"><ele>88.0</ele><time>2026-04-08T15:08:57.363Z</time></trkpt><trkpt lat="38.5713683" lon="16.090745"><ele>90.0</ele><time>2026-04-08T15:08:58.364Z</time></trkpt><trkpt lat="38.5711117" lon="16.0904933"><ele>92.0</ele><time>2026-04-08T15:08:59.364Z</time></trkpt><trkpt lat="38.5708817" lon="16.0902283"><ele>92.0</ele><time>2026-04-08T15:09:00.363Z</time></trkpt><trkpt lat="38.5706533" lon="16.089975"><ele>92.0</ele><time>2026-04-08T15:09:01.363Z</time></trkpt><trkpt lat="38.5704367" lon="16.0897283"><ele>88.5</ele><time>2026-04-08T15:09:02.363Z</time></trkpt><trkpt lat="38.57022" lon="16.0894767"><ele>85.0</ele><time>2026-04-08T15:09:03.363Z</time></trkpt><trkpt lat="38.5699983" lon="16.089235"><ele>85.5</ele><time>2026-04-08T15:09:04.363Z</time></trkpt><trkpt lat="38.5697767" lon="16.08899"><ele>86.0</ele><time>2026-04-08T15:09:05.363Z</time></trkpt><trkpt lat="38.5695567" lon="16.08875"><ele>82.5</ele><time>2026-04-08T15:09:06.363Z</time></trkpt><trkpt lat="38.569335" lon="16.0885167"><ele>79.0</ele><time>2026-04-08T15:09:07.364Z</time></trkpt><trkpt lat="38.569105" lon="16.088275"><ele>80.0</ele><time>2026-04-08T15:09:08.364Z</time></trkpt><trkpt lat="38.5688783" lon="16.0880333"><ele>81.0</ele><time>2026-04-08T15:09:09.363Z</time></trkpt><trkpt lat="38.5686483" lon="16.0877933"><ele>81.0</ele><time>2026-04-08T15:09:10.363Z</time></trkpt><trkpt lat="38.5684183" lon="16.08755"><ele>81.0</ele><time>2026-04-08T15:09:11.364Z</time></trkpt><trkpt lat="38.5681867" lon="16.0873133"><ele>83.0</ele><time>2026-04-08T15:09:12.364Z</time></trkpt><trkpt lat="38.567955" lon="16.0870733"><ele>85.0</ele><time>2026-04-08T15:09:13.363Z</time></trkpt><trkpt lat="38.5677333" lon="16.0868267"><ele>89.0</ele><time>2026-04-08T15:09:14.363Z</time></trkpt><trkpt lat="38.5675167" lon="16.08657"><ele>93.0</ele><time>2026-04-08T15:09:15.363Z</time></trkpt><trkpt lat="38.5673067" lon="16.0863167"><ele>93.0</ele><time>2026-04-08T15:09:16.363Z</time></trkpt><trkpt lat="38.5670983" lon="16.0860483"><ele>93.0</ele><time>2026-04-08T15:09:17.364Z</time></trkpt><trkpt lat="38.5668917" lon="16.0857817"><ele>88.5</ele><time>2026-04-08T15:09:18.363Z</time></trkpt><trkpt lat="38.5666983" lon="16.0854983"><ele>84.0</ele><time>2026-04-08T15:09:19.364Z</time></trkpt><trkpt lat="38.5665167" lon="16.085215"><ele>86.0</ele><time>2026-04-08T15:09:20.363Z</time></trkpt><trkpt lat="38.5663317" lon="16.0849233"><ele>88.0</ele><time>2026-04-08T15:09:21.364Z</time></trkpt><trkpt lat="38.566165" lon="16.084615"><ele>84.0</ele><time>2026-04-08T15:09:22.364Z</time></trkpt><trkpt lat="38.566005" lon="16.08431"><ele>80.0</ele><time>2026-04-08T15:09:23.363Z</time></trkpt><trkpt lat="38.565845" lon="16.083995"><ele>80.0</ele><time>2026-04-08T15:09:24.363Z</time></trkpt><trkpt lat="38.5656983" lon="16.0836683"><ele>80.0</ele><time>2026-04-08T15:09:25.364Z</time></trkpt><trkpt lat="38.5655483" lon="16.0833483"><ele>81.5</ele><time>2026-04-08T15:09:26.364Z</time></trkpt><trkpt lat="38.565405" lon="16.0830183"><ele>83.0</ele><time>2026-04-08T15:09:27.363Z</time></trkpt><trkpt lat="38.5652567" lon="16.0826867"><ele>82.0</ele><time>2026-04-08T15:09:28.364Z</time></trkpt><trkpt lat="38.5651083" lon="16.0823467"><ele>81.0</ele><time>2026-04-08T15:09:29.364Z</time></trkpt><trkpt lat="38.5649583" lon="16.0820133"><ele>81.0</ele><time>2026-04-08T15:09:30.363Z</time></trkpt><trkpt lat="38.564815" lon="16.0816833"><ele>81.0</ele><time>2026-04-08T15:09:31.363Z</time></trkpt><trkpt lat="38.5646667" lon="16.0813467"><ele>78.5</ele><time>2026-04-08T15:09:32.364Z</time></trkpt><trkpt lat="38.56452" lon="16.081005"><ele>76.0</ele><time>2026-04-08T15:09:33.364Z</time></trkpt><trkpt lat="38.564375" lon="16.0806617"><ele>76.0</ele><time>2026-04-08T15:09:34.364Z</time></trkpt><trkpt lat="38.564245" lon="16.0803233"><ele>76.0</ele><time>2026-04-08T15:09:35.363Z</time></trkpt><trkpt lat="38.5641217" lon="16.07998"><ele>77.0</ele><time>2026-04-08T15:09:36.364Z</time></trkpt><trkpt lat="38.5640033" lon="16.0796383"><ele>78.0</ele><time>2026-04-08T15:09:37.364Z</time></trkpt><trkpt lat="38.563895" lon="16.07929"><ele>75.5</ele><time>2026-04-08T15:09:38.364Z</time></trkpt><trkpt lat="38.5637783" lon="16.0789483"><ele>73.0</ele><time>2026-04-08T15:09:39.363Z</time></trkpt><trkpt lat="38.563665" lon="16.0786117"><ele>73.0</ele><time>2026-04-08T15:09:40.363Z</time></trkpt><trkpt lat="38.56355" lon="16.0782733"><ele>73.0</ele><time>2026-04-08T15:09:41.363Z</time></trkpt><trkpt lat="38.563435" lon="16.0779283"><ele>76.5</ele><time>2026-04-08T15:09:42.363Z</time></trkpt><trkpt lat="38.5633267" lon="16.0775917"><ele>80.0</ele><time>2026-04-08T15:09:43.363Z</time></trkpt><trkpt lat="38.56322" lon="16.07727"><ele>82.0</ele><time>2026-04-08T15:09:44.363Z</time></trkpt><trkpt lat="38.5631033" lon="16.0769483"><ele>84.0</ele><time>2026-04-08T15:09:45.363Z</time></trkpt><trkpt lat="38.562975" lon="16.0766367"><ele>80.0</ele><time>2026-04-08T15:09:46.364Z</time></trkpt><trkpt lat="38.56285" lon="16.0763133"><ele>76.0</ele><time>2026-04-08T15:09:47.364Z</time></trkpt><trkpt lat="38.5627083" lon="16.075995"><ele>79.0</ele><time>2026-04-08T15:09:48.363Z</time></trkpt><trkpt lat="38.562565" lon="16.075685"><ele>82.0</ele><time>2026-04-08T15:09:49.364Z</time></trkpt><trkpt lat="38.5624217" lon="16.0753817"><ele>82.0</ele><time>2026-04-08T15:09:50.363Z</time></trkpt><trkpt lat="38.5622583" lon="16.075095"><ele>82.0</ele><time>2026-04-08T15:09:51.364Z</time></trkpt><trkpt lat="38.5621" lon="16.0748033"><ele>79.0</ele><time>2026-04-08T15:09:52.363Z</time></trkpt><trkpt lat="38.5619283" lon="16.0745217"><ele>76.0</ele><time>2026-04-08T15:09:53.364Z</time></trkpt><trkpt lat="38.5617533" lon="16.07425"><ele>80.5</ele><time>2026-04-08T15:09:54.363Z</time></trkpt><trkpt lat="38.5615767" lon="16.0739817"><ele>85.0</ele><time>2026-04-08T15:09:55.363Z</time></trkpt><trkpt lat="38.5613933" lon="16.0737167"><ele>85.5</ele><time>2026-04-08T15:09:56.364Z</time></trkpt><trkpt lat="38.5611967" lon="16.0734633"><ele>86.0</ele><time>2026-04-08T15:09:57.363Z</time></trkpt><trkpt lat="38.5610017" lon="16.0732183"><ele>86.0</ele><time>2026-04-08T15:09:58.363Z</time></trkpt><trkpt lat="38.5608" lon="16.0729783"><ele>86.0</ele><time>2026-04-08T15:09:59.363Z</time></trkpt><trkpt lat="38.5605883" lon="16.072755"><ele>83.0</ele><time>2026-04-08T15:10:00.364Z</time></trkpt><trkpt lat="38.560365" lon="16.07254"><ele>80.0</ele><time>2026-04-08T15:10:01.363Z</time></trkpt><trkpt lat="38.560145" lon="16.07233"><ele>80.0</ele><time>2026-04-08T15:10:02.364Z</time></trkpt><trkpt lat="38.5599267" lon="16.0721167"><ele>80.0</ele><time>2026-04-08T15:10:03.364Z</time></trkpt><trkpt lat="38.559705" lon="16.0719083"><ele>81.5</ele><time>2026-04-08T15:10:04.363Z</time></trkpt><trkpt lat="38.5594717" lon="16.0717117"><ele>83.0</ele><time>2026-04-08T15:10:05.363Z</time></trkpt><trkpt lat="38.559235" lon="16.0715283"><ele>83.0</ele><time>2026-04-08T15:10:06.363Z</time></trkpt><trkpt lat="38.5589983" lon="16.0713683"><ele>83.0</ele><time>2026-04-08T15:10:07.364Z</time></trkpt><trkpt lat="38.5587433" lon="16.0712133"><ele>77.5</ele><time>2026-04-08T15:10:08.364Z</time></trkpt><trkpt lat="38.55849" lon="16.071065"><ele>72.0</ele><time>2026-04-08T15:10:09.364Z</time></trkpt><trkpt lat="38.558235" lon="16.0709283"><ele>72.0</ele><time>2026-04-08T15:10:10.364Z</time></trkpt><trkpt lat="38.5579733" lon="16.070805"><ele>72.0</ele><time>2026-04-08T15:10:11.363Z</time></trkpt><trkpt lat="38.55771" lon="16.0706933"><ele>71.0</ele><time>2026-04-08T15:10:12.364Z</time></trkpt><trkpt lat="38.5574433" lon="16.0705917"><ele>70.0</ele><time>2026-04-08T15:10:13.364Z</time></trkpt><trkpt lat="38.5571767" lon="16.07049"><ele>69.0</ele><time>2026-04-08T15:10:14.365Z</time></trkpt><trkpt lat="38.5569067" lon="16.0704033"><ele>68.0</ele><time>2026-04-08T15:10:15.364Z</time></trkpt><trkpt lat="38.5566333" lon="16.070335"><ele>68.0</ele><time>2026-04-08T15:10:16.364Z</time></trkpt><trkpt lat="38.55636" lon="16.0702683"><ele>68.0</ele><time>2026-04-08T15:10:17.364Z</time></trkpt><trkpt lat="38.5560817" lon="16.0702117"><ele>68.5</ele><time>2026-04-08T15:10:18.365Z</time></trkpt><trkpt lat="38.5558017" lon="16.0701583"><ele>69.0</ele><time>2026-04-08T15:10:19.365Z</time></trkpt><trkpt lat="38.5555183" lon="16.0701167"><ele>69.5</ele><time>2026-04-08T15:10:20.364Z</time></trkpt><trkpt lat="38.5552417" lon="16.0700767"><ele>70.0</ele><time>2026-04-08T15:10:21.364Z</time></trkpt><trkpt lat="38.5549617" lon="16.07004"><ele>70.0</ele><time>2026-04-08T15:10:22.365Z</time></trkpt><trkpt lat="38.5546833" lon="16.0700083"><ele>70.0</ele><time>2026-04-08T15:10:23.365Z</time></trkpt><trkpt lat="38.554405" lon="16.0699833"><ele>70.0</ele><time>2026-04-08T15:10:24.364Z</time></trkpt><trkpt lat="38.55412" lon="16.0699533"><ele>70.0</ele><time>2026-04-08T15:10:25.365Z</time></trkpt><trkpt lat="38.55384" lon="16.0699233"><ele>81.5</ele><time>2026-04-08T15:10:26.364Z</time></trkpt><trkpt lat="38.5535583" lon="16.0698867"><ele>93.0</ele><time>2026-04-08T15:10:27.364Z</time></trkpt><trkpt lat="38.55328" lon="16.0698383"><ele>93.0</ele><time>2026-04-08T15:10:28.365Z</time></trkpt><trkpt lat="38.5530083" lon="16.0697883"><ele>93.0</ele><time>2026-04-08T15:10:29.364Z</time></trkpt><trkpt lat="38.5527367" lon="16.0697333"><ele>94.5</ele><time>2026-04-08T15:10:30.364Z</time></trkpt><trkpt lat="38.55247" lon="16.0696717"><ele>96.0</ele><time>2026-04-08T15:10:31.364Z</time></trkpt><trkpt lat="38.5522017" lon="16.06959"><ele>93.0</ele><time>2026-04-08T15:10:32.365Z</time></trkpt><trkpt lat="38.551935" lon="16.0694867"><ele>90.0</ele><time>2026-04-08T15:10:33.365Z</time></trkpt><trkpt lat="38.5516733" lon="16.069385"><ele>90.0</ele><time>2026-04-08T15:10:34.364Z</time></trkpt><trkpt lat="38.5514167" lon="16.0692683"><ele>90.0</ele><time>2026-04-08T15:10:35.364Z</time></trkpt><trkpt lat="38.551165" lon="16.0691367"><ele>91.0</ele><time>2026-04-08T15:10:36.364Z</time></trkpt><trkpt lat="38.550915" lon="16.06901"><ele>92.0</ele><time>2026-04-08T15:10:37.365Z</time></trkpt><trkpt lat="38.5506733" lon="16.0688767"><ele>92.0</ele><time>2026-04-08T15:10:38.364Z</time></trkpt><trkpt lat="38.5504233" lon="16.068735"><ele>92.0</ele><time>2026-04-08T15:10:39.364Z</time></trkpt><trkpt lat="38.5501733" lon="16.0685917"><ele>84.0</ele><time>2026-04-08T15:10:40.365Z</time></trkpt><trkpt lat="38.54993" lon="16.0684433"><ele>76.0</ele><time>2026-04-08T15:10:41.365Z</time></trkpt><trkpt lat="38.5496833" lon="16.0682933"><ele>82.0</ele><time>2026-04-08T15:10:42.365Z</time></trkpt><trkpt lat="38.549435" lon="16.0681417"><ele>88.0</ele><time>2026-04-08T15:10:43.364Z</time></trkpt><trkpt lat="38.5491883" lon="16.0679867"><ele>88.0</ele><time>2026-04-08T15:10:44.365Z</time></trkpt><trkpt lat="38.5489483" lon="16.0678367"><ele>88.0</ele><time>2026-04-08T15:10:45.364Z</time></trkpt><trkpt lat="38.54871" lon="16.06768"><ele>87.0</ele><time>2026-04-08T15:10:46.364Z</time></trkpt><trkpt lat="38.548465" lon="16.0675283"><ele>86.0</ele><time>2026-04-08T15:10:47.365Z</time></trkpt><trkpt lat="38.5482267" lon="16.0673733"><ele>86.0</ele><time>2026-04-08T15:10:48.364Z</time></trkpt><trkpt lat="38.5479833" lon="16.0672083"><ele>86.0</ele><time>2026-04-08T15:10:49.365Z</time></trkpt><trkpt lat="38.5477383" lon="16.0670567"><ele>83.0</ele><time>2026-04-08T15:10:50.364Z</time></trkpt><trkpt lat="38.547495" lon="16.0669033"><ele>80.0</ele><time>2026-04-08T15:10:51.364Z</time></trkpt><trkpt lat="38.5472533" lon="16.06676"><ele>80.0</ele><time>2026-04-08T15:10:52.364Z</time></trkpt><trkpt lat="38.54702" lon="16.0666167"><ele>80.0</ele><time>2026-04-08T15:10:53.365Z</time></trkpt><trkpt lat="38.5467783" lon="16.0664717"><ele>80.0</ele><time>2026-04-08T15:10:54.364Z</time></trkpt><trkpt lat="38.5465417" lon="16.0663167"><ele>80.0</ele><time>2026-04-08T15:10:55.364Z</time></trkpt><trkpt lat="38.5463067" lon="16.06616"><ele>73.0</ele><time>2026-04-08T15:10:56.364Z</time></trkpt><trkpt lat="38.5460717" lon="16.066005"><ele>66.0</ele><time>2026-04-08T15:10:57.364Z</time></trkpt><trkpt lat="38.54584" lon="16.0658433"><ele>65.0</ele><time>2026-04-08T15:10:58.364Z</time></trkpt><trkpt lat="38.5456033" lon="16.0656817"><ele>64.0</ele><time>2026-04-08T15:10:59.365Z</time></trkpt><trkpt lat="38.5453717" lon="16.0655183"><ele>64.0</ele><time>2026-04-08T15:11:00.364Z</time></trkpt><trkpt lat="38.5451333" lon="16.065355"><ele>64.0</ele><time>2026-04-08T15:11:01.365Z</time></trkpt><trkpt lat="38.5449033" lon="16.065185"><ele>64.0</ele><time>2026-04-08T15:11:02.365Z</time></trkpt><trkpt lat="38.54467" lon="16.065015"><ele>64.0</ele><time>2026-04-08T15:11:03.365Z</time></trkpt><trkpt lat="38.5444383" lon="16.0648367"><ele>63.0</ele><time>2026-04-08T15:11:04.365Z</time></trkpt><trkpt lat="38.5442133" lon="16.064655"><ele>62.0</ele><time>2026-04-08T15:11:05.364Z</time></trkpt><trkpt lat="38.54399" lon="16.0644767"><ele>62.0</ele><time>2026-04-08T15:11:06.364Z</time></trkpt><trkpt lat="38.5437667" lon="16.0642917"><ele>62.0</ele><time>2026-04-08T15:11:07.364Z</time></trkpt><trkpt lat="38.5435417" lon="16.0641"><ele>63.0</ele><time>2026-04-08T15:11:08.364Z</time></trkpt><trkpt lat="38.5433233" lon="16.0639033"><ele>64.0</ele><time>2026-04-08T15:11:09.365Z</time></trkpt><trkpt lat="38.5431083" lon="16.063705"><ele>64.0</ele><time>2026-04-08T15:11:10.365Z</time></trkpt><trkpt lat="38.542895" lon="16.0635033"><ele>64.0</ele><time>2026-04-08T15:11:11.364Z</time></trkpt><trkpt lat="38.5426817" lon="16.0632983"><ele>62.5</ele><time>2026-04-08T15:11:12.364Z</time></trkpt><trkpt lat="38.5424633" lon="16.0630967"><ele>61.0</ele><time>2026-04-08T15:11:13.364Z</time></trkpt><trkpt lat="38.5422533" lon="16.0628867"><ele>65.5</ele><time>2026-04-08T15:11:14.364Z</time></trkpt><trkpt lat="38.5420367" lon="16.0626883"><ele>70.0</ele><time>2026-04-08T15:11:15.365Z</time></trkpt><trkpt lat="38.541825" lon="16.0624833"><ele>65.0</ele><time>2026-04-08T15:11:16.365Z</time></trkpt><trkpt lat="38.54162" lon="16.0622733"><ele>60.0</ele><time>2026-04-08T15:11:17.365Z</time></trkpt><trkpt lat="38.54141" lon="16.06207"><ele>62.0</ele><time>2026-04-08T15:11:18.364Z</time></trkpt><trkpt lat="38.5412" lon="16.06186"><ele>64.0</ele><time>2026-04-08T15:11:19.364Z</time></trkpt><trkpt lat="38.5409883" lon="16.0616467"><ele>61.5</ele><time>2026-04-08T15:11:20.364Z</time></trkpt><trkpt lat="38.54078" lon="16.0614367"><ele>59.0</ele><time>2026-04-08T15:11:21.364Z</time></trkpt><trkpt lat="38.54057" lon="16.0612283"><ele>62.5</ele><time>2026-04-08T15:11:22.364Z</time></trkpt><trkpt lat="38.5403533" lon="16.0610167"><ele>66.0</ele><time>2026-04-08T15:11:23.364Z</time></trkpt><trkpt lat="38.54014" lon="16.0607983"><ele>62.0</ele><time>2026-04-08T15:11:24.365Z</time></trkpt><trkpt lat="38.539925" lon="16.0605867"><ele>58.0</ele><time>2026-04-08T15:11:25.365Z</time></trkpt><trkpt lat="38.5397067" lon="16.060375"><ele>58.5</ele><time>2026-04-08T15:11:26.364Z</time></trkpt><trkpt lat="38.53949" lon="16.06016"><ele>59.0</ele><time>2026-04-08T15:11:27.364Z</time></trkpt><trkpt lat="38.5392767" lon="16.0599483"><ele>59.0</ele><time>2026-04-08T15:11:28.365Z</time></trkpt><trkpt lat="38.5390633" lon="16.0597333"><ele>59.0</ele><time>2026-04-08T15:11:29.364Z</time></trkpt><trkpt lat="38.5388467" lon="16.0595217"><ele>59.0</ele><time>2026-04-08T15:11:30.365Z</time></trkpt><trkpt lat="38.53863" lon="16.05931"><ele>59.0</ele><time>2026-04-08T15:11:31.365Z</time></trkpt><trkpt lat="38.538415" lon="16.0590983"><ele>59.0</ele><time>2026-04-08T15:11:32.365Z</time></trkpt><trkpt lat="38.538195" lon="16.05889"><ele>59.0</ele><time>2026-04-08T15:11:33.365Z</time></trkpt><trkpt lat="38.53798" lon="16.0586733"><ele>58.0</ele><time>2026-04-08T15:11:34.365Z</time></trkpt><trkpt lat="38.537765" lon="16.0584617"><ele>57.0</ele><time>2026-04-08T15:11:35.364Z</time></trkpt><trkpt lat="38.5375517" lon="16.0582467"><ele>57.0</ele><time>2026-04-08T15:11:36.364Z</time></trkpt><trkpt lat="38.5373333" lon="16.0580367"><ele>57.0</ele><time>2026-04-08T15:11:37.364Z</time></trkpt><trkpt lat="38.5371167" lon="16.0578167"><ele>57.0</ele><time>2026-04-08T15:11:38.365Z</time></trkpt><trkpt lat="38.5368967" lon="16.0575967"><ele>57.0</ele><time>2026-04-08T15:11:39.364Z</time></trkpt><trkpt lat="38.53668" lon="16.057375"><ele>56.5</ele><time>2026-04-08T15:11:40.365Z</time></trkpt><trkpt lat="38.53646" lon="16.0571567"><ele>56.0</ele><time>2026-04-08T15:11:41.364Z</time></trkpt><trkpt lat="38.536245" lon="16.0569383"><ele>56.0</ele><time>2026-04-08T15:11:42.365Z</time></trkpt><trkpt lat="38.536035" lon="16.05672"><ele>56.0</ele><time>2026-04-08T15:11:43.365Z</time></trkpt><trkpt lat="38.535825" lon="16.0564983"><ele>56.0</ele><time>2026-04-08T15:11:44.365Z</time></trkpt><trkpt lat="38.5356183" lon="16.056275"><ele>56.0</ele><time>2026-04-08T15:11:45.364Z</time></trkpt><trkpt lat="38.535415" lon="16.0560483"><ele>55.0</ele><time>2026-04-08T15:11:46.365Z</time></trkpt><trkpt lat="38.5352067" lon="16.0558217"><ele>54.0</ele><time>2026-04-08T15:11:47.364Z</time></trkpt><trkpt lat="38.5349967" lon="16.0555867"><ele>56.0</ele><time>2026-04-08T15:11:48.364Z</time></trkpt><trkpt lat="38.5347817" lon="16.055355"><ele>58.0</ele><time>2026-04-08T15:11:49.364Z</time></trkpt><trkpt lat="38.5345633" lon="16.05512"><ele>60.5</ele><time>2026-04-08T15:11:50.364Z</time></trkpt><trkpt lat="38.5343417" lon="16.05488"><ele>63.0</ele><time>2026-04-08T15:11:51.364Z</time></trkpt><trkpt lat="38.5341117" lon="16.0546467"><ele>63.0</ele><time>2026-04-08T15:11:52.365Z</time></trkpt><trkpt lat="38.5338767" lon="16.05442"><ele>63.0</ele><time>2026-04-08T15:11:53.364Z</time></trkpt><trkpt lat="38.5336433" lon="16.0542067"><ele>62.5</ele><time>2026-04-08T15:11:54.364Z</time></trkpt><trkpt lat="38.5334133" lon="16.0540117"><ele>62.0</ele><time>2026-04-08T15:11:55.364Z</time></trkpt><trkpt lat="38.5331817" lon="16.05383"><ele>62.0</ele><time>2026-04-08T15:11:56.364Z</time></trkpt><trkpt lat="38.532955" lon="16.0536533"><ele>62.0</ele><time>2026-04-08T15:11:57.365Z</time></trkpt><trkpt lat="38.5327183" lon="16.0534917"><ele>65.0</ele><time>2026-04-08T15:11:58.365Z</time></trkpt><trkpt lat="38.53248" lon="16.0533317"><ele>68.0</ele><time>2026-04-08T15:11:59.364Z</time></trkpt><trkpt lat="38.532235" lon="16.053185"><ele>62.0</ele><time>2026-04-08T15:12:00.365Z</time></trkpt><trkpt lat="38.5319717" lon="16.0530517"><ele>56.0</ele><time>2026-04-08T15:12:01.364Z</time></trkpt><trkpt lat="38.5317083" lon="16.0529317"><ele>56.0</ele><time>2026-04-08T15:12:02.365Z</time></trkpt><trkpt lat="38.5314417" lon="16.0528217"><ele>56.0</ele><time>2026-04-08T15:12:03.365Z</time></trkpt><trkpt lat="38.5311717" lon="16.0527167"><ele>54.0</ele><time>2026-04-08T15:12:04.364Z</time></trkpt><trkpt lat="38.530895" lon="16.05262"><ele>52.0</ele><time>2026-04-08T15:12:05.364Z</time></trkpt><trkpt lat="38.5306133" lon="16.0525383"><ele>53.0</ele><time>2026-04-08T15:12:06.364Z</time></trkpt><trkpt lat="38.5303317" lon="16.052455"><ele>54.0</ele><time>2026-04-08T15:12:07.364Z</time></trkpt><trkpt lat="38.53005" lon="16.0523883"><ele>54.0</ele><time>2026-04-08T15:12:08.365Z</time></trkpt><trkpt lat="38.5297567" lon="16.0523333"><ele>54.0</ele><time>2026-04-08T15:12:09.365Z</time></trkpt><trkpt lat="38.5294633" lon="16.05228"><ele>53.5</ele><time>2026-04-08T15:12:10.365Z</time></trkpt><trkpt lat="38.5291633" lon="16.0522583"><ele>53.0</ele><time>2026-04-08T15:12:11.364Z</time></trkpt><trkpt lat="38.5288717" lon="16.052235"><ele>51.5</ele><time>2026-04-08T15:12:12.364Z</time></trkpt><trkpt lat="38.5285833" lon="16.0522333"><ele>50.0</ele><time>2026-04-08T15:12:13.364Z</time></trkpt><trkpt lat="38.528295" lon="16.0522417"><ele>50.0</ele><time>2026-04-08T15:12:14.364Z</time></trkpt><trkpt lat="38.52801" lon="16.0522533"><ele>50.0</ele><time>2026-04-08T15:12:15.365Z</time></trkpt><trkpt lat="38.52772" lon="16.0522783"><ele>52.0</ele><time>2026-04-08T15:12:16.365Z</time></trkpt><trkpt lat="38.5274317" lon="16.05231"><ele>54.0</ele><time>2026-04-08T15:12:17.365Z</time></trkpt><trkpt lat="38.527145" lon="16.0523583"><ele>54.0</ele><time>2026-04-08T15:12:18.365Z</time></trkpt><trkpt lat="38.52686" lon="16.05241"><ele>54.0</ele><time>2026-04-08T15:12:19.364Z</time></trkpt><trkpt lat="38.5265733" lon="16.05246"><ele>54.0</ele><time>2026-04-08T15:12:20.364Z</time></trkpt><trkpt lat="38.5262867" lon="16.052505"><ele>54.0</ele><time>2026-04-08T15:12:21.365Z</time></trkpt><trkpt lat="38.5259983" lon="16.0525567"><ele>53.5</ele><time>2026-04-08T15:12:22.364Z</time></trkpt><trkpt lat="38.5257067" lon="16.0526183"><ele>53.0</ele><time>2026-04-08T15:12:23.364Z</time></trkpt><trkpt lat="38.5254217" lon="16.0526717"><ele>52.5</ele><time>2026-04-08T15:12:24.364Z</time></trkpt><trkpt lat="38.52513" lon="16.0527217"><ele>52.0</ele><time>2026-04-08T15:12:25.364Z</time></trkpt><trkpt lat="38.52484" lon="16.0527767"><ele>53.5</ele><time>2026-04-08T15:12:26.365Z</time></trkpt><trkpt lat="38.52455" lon="16.0528183"><ele>55.0</ele><time>2026-04-08T15:12:27.365Z</time></trkpt><trkpt lat="38.5242567" lon="16.05285"><ele>55.0</ele><time>2026-04-08T15:12:28.365Z</time></trkpt><trkpt lat="38.5239633" lon="16.0528767"><ele>55.0</ele><time>2026-04-08T15:12:29.364Z</time></trkpt><trkpt lat="38.5236667" lon="16.0529"><ele>59.5</ele><time>2026-04-08T15:12:30.365Z</time></trkpt><trkpt lat="38.5233783" lon="16.0529167"><ele>64.0</ele><time>2026-04-08T15:12:31.365Z</time></trkpt><trkpt lat="38.523085" lon="16.052915"><ele>67.0</ele><time>2026-04-08T15:12:32.364Z</time></trkpt><trkpt lat="38.5227917" lon="16.0529167"><ele>70.0</ele><time>2026-04-08T15:12:33.364Z</time></trkpt><trkpt lat="38.5224983" lon="16.0528967"><ele>70.0</ele><time>2026-04-08T15:12:34.364Z</time></trkpt><trkpt lat="38.522205" lon="16.0528733"><ele>70.0</ele><time>2026-04-08T15:12:35.364Z</time></trkpt><trkpt lat="38.521915" lon="16.05284"><ele>63.5</ele><time>2026-04-08T15:12:36.364Z</time></trkpt><trkpt lat="38.5216333" lon="16.052785"><ele>57.0</ele><time>2026-04-08T15:12:37.365Z</time></trkpt><trkpt lat="38.521345" lon="16.0527317"><ele>54.0</ele><time>2026-04-08T15:12:38.365Z</time></trkpt><trkpt lat="38.52106" lon="16.0526617"><ele>51.0</ele><time>2026-04-08T15:12:39.365Z</time></trkpt><trkpt lat="38.5207717" lon="16.0525783"><ele>51.0</ele><time>2026-04-08T15:12:40.364Z</time></trkpt><trkpt lat="38.5204833" lon="16.0525"><ele>51.0</ele><time>2026-04-08T15:12:41.364Z</time></trkpt><trkpt lat="38.5202017" lon="16.0524117"><ele>53.5</ele><time>2026-04-08T15:12:42.364Z</time></trkpt><trkpt lat="38.519925" lon="16.0523117"><ele>56.0</ele><time>2026-04-08T15:12:43.364Z</time></trkpt><trkpt lat="38.5196433" lon="16.0521967"><ele>53.5</ele><time>2026-04-08T15:12:44.364Z</time></trkpt><trkpt lat="38.5193667" lon="16.05208"><ele>51.0</ele><time>2026-04-08T15:12:45.365Z</time></trkpt><trkpt lat="38.5190917" lon="16.05196"><ele>51.0</ele><time>2026-04-08T15:12:46.364Z</time></trkpt><trkpt lat="38.5188133" lon="16.05184"><ele>51.0</ele><time>2026-04-08T15:12:47.365Z</time></trkpt><trkpt lat="38.51854" lon="16.0517133"><ele>60.5</ele><time>2026-04-08T15:12:48.364Z</time></trkpt><trkpt lat="38.518265" lon="16.0515867"><ele>70.0</ele><time>2026-04-08T15:12:49.364Z</time></trkpt><trkpt lat="38.517995" lon="16.0514517"><ele>65.5</ele><time>2026-04-08T15:12:50.364Z</time></trkpt><trkpt lat="38.5177233" lon="16.0513067"><ele>61.0</ele><time>2026-04-08T15:12:51.365Z</time></trkpt><trkpt lat="38.5174517" lon="16.0511633"><ele>61.0</ele><time>2026-04-08T15:12:52.364Z</time></trkpt><trkpt lat="38.517185" lon="16.0510083"><ele>61.0</ele><time>2026-04-08T15:12:53.365Z</time></trkpt><trkpt lat="38.51692" lon="16.0508517"><ele>62.0</ele><time>2026-04-08T15:12:54.364Z</time></trkpt><trkpt lat="38.5166567" lon="16.0507"><ele>63.0</ele><time>2026-04-08T15:12:55.364Z</time></trkpt><trkpt lat="38.5163967" lon="16.050545"><ele>58.0</ele><time>2026-04-08T15:12:56.364Z</time></trkpt><trkpt lat="38.5161417" lon="16.05039"><ele>53.0</ele><time>2026-04-08T15:12:57.364Z</time></trkpt><trkpt lat="38.5158867" lon="16.050235"><ele>53.0</ele><time>2026-04-08T15:12:58.365Z</time></trkpt><trkpt lat="38.5156333" lon="16.0500783"><ele>53.0</ele><time>2026-04-08T15:12:59.365Z</time></trkpt><trkpt lat="38.5153783" lon="16.049925"><ele>51.0</ele><time>2026-04-08T15:13:00.364Z</time></trkpt><trkpt lat="38.515125" lon="16.0497617"><ele>49.0</ele><time>2026-04-08T15:13:01.364Z</time></trkpt><trkpt lat="38.514885" lon="16.0496"><ele>49.0</ele><time>2026-04-08T15:13:02.364Z</time></trkpt><trkpt lat="38.5146417" lon="16.0494333"><ele>49.0</ele><time>2026-04-08T15:13:03.365Z</time></trkpt><trkpt lat="38.5144033" lon="16.0492633"><ele>48.0</ele><time>2026-04-08T15:13:04.364Z</time></trkpt><trkpt lat="38.5141683" lon="16.0490917"><ele>47.0</ele><time>2026-04-08T15:13:05.365Z</time></trkpt><trkpt lat="38.5139383" lon="16.0489167"><ele>46.5</ele><time>2026-04-08T15:13:06.364Z</time></trkpt><trkpt lat="38.513715" lon="16.0487383"><ele>46.0</ele><time>2026-04-08T15:13:07.365Z</time></trkpt><trkpt lat="38.5134967" lon="16.0485533"><ele>46.0</ele><time>2026-04-08T15:13:08.365Z</time></trkpt><trkpt lat="38.5132717" lon="16.048365"><ele>46.0</ele><time>2026-04-08T15:13:09.364Z</time></trkpt><trkpt lat="38.51305" lon="16.0481683"><ele>46.0</ele><time>2026-04-08T15:13:10.365Z</time></trkpt><trkpt lat="38.5128383" lon="16.047965"><ele>46.0</ele><time>2026-04-08T15:13:11.364Z</time></trkpt><trkpt lat="38.5126283" lon="16.0477567"><ele>46.0</ele><time>2026-04-08T15:13:12.365Z</time></trkpt><trkpt lat="38.5124167" lon="16.0475483"><ele>46.0</ele><time>2026-04-08T15:13:13.364Z</time></trkpt><trkpt lat="38.512205" lon="16.0473317"><ele>46.0</ele><time>2026-04-08T15:13:14.365Z</time></trkpt><trkpt lat="38.5119917" lon="16.0471117"><ele>46.0</ele><time>2026-04-08T15:13:15.365Z</time></trkpt><trkpt lat="38.5117833" lon="16.04689"><ele>46.0</ele><time>2026-04-08T15:13:16.364Z</time></trkpt><trkpt lat="38.5115833" lon="16.0466617"><ele>46.0</ele><time>2026-04-08T15:13:17.365Z</time></trkpt><trkpt lat="38.51138" lon="16.04643"><ele>45.0</ele><time>2026-04-08T15:13:18.364Z</time></trkpt><trkpt lat="38.5111883" lon="16.0461983"><ele>44.0</ele><time>2026-04-08T15:13:19.364Z</time></trkpt><trkpt lat="38.5109867" lon="16.0459667"><ele>44.5</ele><time>2026-04-08T15:13:20.365Z</time></trkpt><trkpt lat="38.5107933" lon="16.04573"><ele>45.0</ele><time>2026-04-08T15:13:21.365Z</time></trkpt><trkpt lat="38.5105983" lon="16.0454867"><ele>44.5</ele><time>2026-04-08T15:13:22.364Z</time></trkpt><trkpt lat="38.51039" lon="16.0452333"><ele>44.0</ele><time>2026-04-08T15:13:23.364Z</time></trkpt><trkpt lat="38.5101783" lon="16.0449733"><ele>44.5</ele><time>2026-04-08T15:13:24.365Z</time></trkpt><trkpt lat="38.5099633" lon="16.0447"><ele>45.0</ele><time>2026-04-08T15:13:25.364Z</time></trkpt><trkpt lat="38.50975" lon="16.0444167"><ele>44.5</ele><time>2026-04-08T15:13:26.364Z</time></trkpt><trkpt lat="38.50954" lon="16.0441283"><ele>44.0</ele><time>2026-04-08T15:13:27.364Z</time></trkpt><trkpt lat="38.5093367" lon="16.043835"><ele>44.0</ele><time>2026-04-08T15:13:28.364Z</time></trkpt><trkpt lat="38.509135" lon="16.0435467"><ele>44.0</ele><time>2026-04-08T15:13:29.364Z</time></trkpt><trkpt lat="38.5089283" lon="16.04326"><ele>44.5</ele><time>2026-04-08T15:13:30.364Z</time></trkpt><trkpt lat="38.5087267" lon="16.0429783"><ele>45.0</ele><time>2026-04-08T15:13:31.364Z</time></trkpt><trkpt lat="38.5085317" lon="16.0427"><ele>44.0</ele><time>2026-04-08T15:13:32.364Z</time></trkpt><trkpt lat="38.5083433" lon="16.04242"><ele>43.0</ele><time>2026-04-08T15:13:33.364Z</time></trkpt><trkpt lat="38.508155" lon="16.042145"><ele>43.0</ele><time>2026-04-08T15:13:34.365Z</time></trkpt><trkpt lat="38.5079683" lon="16.0418667"><ele>43.0</ele><time>2026-04-08T15:13:35.365Z</time></trkpt><trkpt lat="38.5077817" lon="16.0415867"><ele>42.5</ele><time>2026-04-08T15:13:36.364Z</time></trkpt><trkpt lat="38.5076" lon="16.0413017"><ele>42.0</ele><time>2026-04-08T15:13:37.365Z</time></trkpt><trkpt lat="38.50742" lon="16.0410167"><ele>42.0</ele><time>2026-04-08T15:13:38.365Z</time></trkpt><trkpt lat="38.50724" lon="16.0407367"><ele>42.0</ele><time>2026-04-08T15:13:39.364Z</time></trkpt><trkpt lat="38.5070633" lon="16.0404467"><ele>41.5</ele><time>2026-04-08T15:13:40.364Z</time></trkpt><trkpt lat="38.5068833" lon="16.0401533"><ele>41.0</ele><time>2026-04-08T15:13:41.364Z</time></trkpt><trkpt lat="38.5067033" lon="16.0398583"><ele>40.5</ele><time>2026-04-08T15:13:42.364Z</time></trkpt><trkpt lat="38.5065217" lon="16.0395567"><ele>40.0</ele><time>2026-04-08T15:13:43.364Z</time></trkpt><trkpt lat="38.506345" lon="16.0392583"><ele>40.5</ele><time>2026-04-08T15:13:44.365Z</time></trkpt><trkpt lat="38.5061633" lon="16.03896"><ele>41.0</ele><time>2026-04-08T15:13:45.364Z</time></trkpt><trkpt lat="38.50599" lon="16.0386583"><ele>41.0</ele><time>2026-04-08T15:13:46.364Z</time></trkpt><trkpt lat="38.505815" lon="16.0383583"><ele>41.0</ele><time>2026-04-08T15:13:47.364Z</time></trkpt><trkpt lat="38.505635" lon="16.0380633"><ele>40.5</ele><time>2026-04-08T15:13:48.364Z</time></trkpt><trkpt lat="38.5054583" lon="16.0377667"><ele>40.0</ele><time>2026-04-08T15:13:49.365Z</time></trkpt><trkpt lat="38.505285" lon="16.0374667"><ele>40.0</ele><time>2026-04-08T15:13:50.365Z</time></trkpt><trkpt lat="38.5051067" lon="16.0371733"><ele>40.0</ele><time>2026-04-08T15:13:51.364Z</time></trkpt><trkpt lat="38.5049317" lon="16.0368783"><ele>40.5</ele><time>2026-04-08T15:13:52.364Z</time></trkpt><trkpt lat="38.5047617" lon="16.036585"><ele>41.0</ele><time>2026-04-08T15:13:53.365Z</time></trkpt><trkpt lat="38.50459" lon="16.0362967"><ele>40.0</ele><time>2026-04-08T15:13:54.365Z</time></trkpt><trkpt lat="38.5044183" lon="16.0360083"><ele>39.0</ele><time>2026-04-08T15:13:55.364Z</time></trkpt><trkpt lat="38.504245" lon="16.0357267"><ele>39.0</ele><time>2026-04-08T15:13:56.364Z</time></trkpt><trkpt lat="38.5040817" lon="16.03544"><ele>39.0</ele><time>2026-04-08T15:13:57.364Z</time></trkpt><trkpt lat="38.503915" lon="16.0351583"><ele>39.5</ele><time>2026-04-08T15:13:58.364Z</time></trkpt><trkpt lat="38.5037517" lon="16.0348867"><ele>40.0</ele><time>2026-04-08T15:13:59.364Z</time></trkpt><trkpt lat="38.503585" lon="16.0346133"><ele>40.0</ele><time>2026-04-08T15:14:00.364Z</time></trkpt><trkpt lat="38.5034233" lon="16.0343433"><ele>40.0</ele><time>2026-04-08T15:14:01.365Z</time></trkpt><trkpt lat="38.503265" lon="16.0340783"><ele>39.5</ele><time>2026-04-08T15:14:02.364Z</time></trkpt><trkpt lat="38.5031117" lon="16.0338133"><ele>39.0</ele><time>2026-04-08T15:14:03.364Z</time></trkpt><trkpt lat="38.5029517" lon="16.0335467"><ele>40.0</ele><time>2026-04-08T15:14:04.364Z</time></trkpt><trkpt lat="38.5027917" lon="16.0332817"><ele>41.0</ele><time>2026-04-08T15:14:05.364Z</time></trkpt><trkpt lat="38.5026317" lon="16.0330117"><ele>41.0</ele><time>2026-04-08T15:14:06.365Z</time></trkpt><trkpt lat="38.5024717" lon="16.03274"><ele>41.0</ele><time>2026-04-08T15:14:07.364Z</time></trkpt><trkpt lat="38.5023183" lon="16.0324667"><ele>40.0</ele><time>2026-04-08T15:14:08.365Z</time></trkpt><trkpt lat="38.5021683" lon="16.03219"><ele>39.0</ele><time>2026-04-08T15:14:09.364Z</time></trkpt><trkpt lat="38.50202" lon="16.03191"><ele>39.0</ele><time>2026-04-08T15:14:10.364Z</time></trkpt><trkpt lat="38.5018767" lon="16.03163"><ele>39.0</ele><time>2026-04-08T15:14:11.364Z</time></trkpt><trkpt lat="38.5017383" lon="16.0313383"><ele>39.0</ele><time>2026-04-08T15:14:12.364Z</time></trkpt><trkpt lat="38.5016033" lon="16.0310333"><ele>39.0</ele><time>2026-04-08T15:14:13.365Z</time></trkpt><trkpt lat="38.5014717" lon="16.0307267"><ele>38.5</ele><time>2026-04-08T15:14:14.364Z</time></trkpt><trkpt lat="38.50134" lon="16.0304217"><ele>38.0</ele><time>2026-04-08T15:14:15.364Z</time></trkpt><trkpt lat="38.50122" lon="16.0301133"><ele>37.0</ele><time>2026-04-08T15:14:16.364Z</time></trkpt><trkpt lat="38.5011017" lon="16.0298017"><ele>36.0</ele><time>2026-04-08T15:14:17.365Z</time></trkpt><trkpt lat="38.5009933" lon="16.029495"><ele>36.0</ele><time>2026-04-08T15:14:18.364Z</time></trkpt><trkpt lat="38.5008933" lon="16.0291767"><ele>36.0</ele><time>2026-04-08T15:14:19.364Z</time></trkpt><trkpt lat="38.500795" lon="16.02886"><ele>36.5</ele><time>2026-04-08T15:14:20.364Z</time></trkpt><trkpt lat="38.5007017" lon="16.0285367"><ele>37.0</ele><time>2026-04-08T15:14:21.365Z</time></trkpt><trkpt lat="38.500615" lon="16.028205"><ele>37.0</ele><time>2026-04-08T15:14:22.364Z</time></trkpt><trkpt lat="38.500535" lon="16.027865"><ele>37.0</ele><time>2026-04-08T15:14:23.364Z</time></trkpt><trkpt lat="38.5004567" lon="16.0275217"><ele>37.0</ele><time>2026-04-08T15:14:24.364Z</time></trkpt><trkpt lat="38.50039" lon="16.027175"><ele>37.0</ele><time>2026-04-08T15:14:25.364Z</time></trkpt><trkpt lat="38.5003167" lon="16.0268267"><ele>36.5</ele><time>2026-04-08T15:14:26.364Z</time></trkpt><trkpt lat="38.500245" lon="16.02648"><ele>36.0</ele><time>2026-04-08T15:14:27.364Z</time></trkpt><trkpt lat="38.5001717" lon="16.0261283"><ele>35.5</ele><time>2026-04-08T15:14:28.364Z</time></trkpt><trkpt lat="38.5001067" lon="16.0257783"><ele>35.0</ele><time>2026-04-08T15:14:29.365Z</time></trkpt><trkpt lat="38.5000383" lon="16.0254283"><ele>35.0</ele><time>2026-04-08T15:14:30.364Z</time></trkpt><trkpt lat="38.499975" lon="16.0250817"><ele>35.0</ele><time>2026-04-08T15:14:31.365Z</time></trkpt><trkpt lat="38.4999117" lon="16.0247367"><ele>35.0</ele><time>2026-04-08T15:14:32.364Z</time></trkpt><trkpt lat="38.4998467" lon="16.0243883"><ele>35.0</ele><time>2026-04-08T15:14:33.365Z</time></trkpt><trkpt lat="38.499775" lon="16.0240333"><ele>35.5</ele><time>2026-04-08T15:14:34.365Z</time></trkpt><trkpt lat="38.4997083" lon="16.023685"><ele>36.0</ele><time>2026-04-08T15:14:35.364Z</time></trkpt><trkpt lat="38.4996433" lon="16.02334"><ele>35.0</ele><time>2026-04-08T15:14:36.364Z</time></trkpt><trkpt lat="38.4995817" lon="16.0230033"><ele>34.0</ele><time>2026-04-08T15:14:37.365Z</time></trkpt><trkpt lat="38.4995217" lon="16.0226667"><ele>33.0</ele><time>2026-04-08T15:14:38.365Z</time></trkpt><trkpt lat="38.4994483" lon="16.0223233"><ele>32.0</ele><time>2026-04-08T15:14:39.364Z</time></trkpt><trkpt lat="38.4993733" lon="16.0219917"><ele>32.0</ele><time>2026-04-08T15:14:40.365Z</time></trkpt><trkpt lat="38.499295" lon="16.021655"><ele>32.0</ele><time>2026-04-08T15:14:41.365Z</time></trkpt><trkpt lat="38.49921" lon="16.0213183"><ele>33.0</ele><time>2026-04-08T15:14:42.364Z</time></trkpt><trkpt lat="38.4991267" lon="16.0209833"><ele>34.0</ele><time>2026-04-08T15:14:43.364Z</time></trkpt><trkpt lat="38.4990367" lon="16.0206517"><ele>34.0</ele><time>2026-04-08T15:14:44.364Z</time></trkpt><trkpt lat="38.498945" lon="16.0203233"><ele>34.0</ele><time>2026-04-08T15:14:45.365Z</time></trkpt><trkpt lat="38.4988533" lon="16.02"><ele>34.0</ele><time>2026-04-08T15:14:46.365Z</time></trkpt><trkpt lat="38.4987567" lon="16.0196717"><ele>34.0</ele><time>2026-04-08T15:14:47.364Z</time></trkpt><trkpt lat="38.49865" lon="16.01935"><ele>32.5</ele><time>2026-04-08T15:14:48.364Z</time></trkpt><trkpt lat="38.49854" lon="16.019035"><ele>31.0</ele><time>2026-04-08T15:14:49.365Z</time></trkpt><trkpt lat="38.49843" lon="16.018715"><ele>31.0</ele><time>2026-04-08T15:14:50.364Z</time></trkpt><trkpt lat="38.4983167" lon="16.01841"><ele>31.0</ele><time>2026-04-08T15:14:51.364Z</time></trkpt><trkpt lat="38.4982" lon="16.0181"><ele>30.5</ele><time>2026-04-08T15:14:52.364Z</time></trkpt><trkpt lat="38.4980783" lon="16.01779"><ele>30.0</ele><time>2026-04-08T15:14:53.365Z</time></trkpt><trkpt lat="38.497955" lon="16.0174783"><ele>32.0</ele><time>2026-04-08T15:14:54.364Z</time></trkpt><trkpt lat="38.4978217" lon="16.0171767"><ele>34.0</ele><time>2026-04-08T15:14:55.364Z</time></trkpt><trkpt lat="38.49769" lon="16.0168667"><ele>33.5</ele><time>2026-04-08T15:14:56.364Z</time></trkpt><trkpt lat="38.4975433" lon="16.01657"><ele>33.0</ele><time>2026-04-08T15:14:57.364Z</time></trkpt><trkpt lat="38.4973967" lon="16.0162767"><ele>33.0</ele><time>2026-04-08T15:14:58.364Z</time></trkpt><trkpt lat="38.4972517" lon="16.0159833"><ele>33.0</ele><time>2026-04-08T15:14:59.364Z</time></trkpt><trkpt lat="38.49711" lon="16.01569"><ele>37.5</ele><time>2026-04-08T15:15:00.364Z</time></trkpt><trkpt lat="38.496955" lon="16.0154117"><ele>42.0</ele><time>2026-04-08T15:15:01.365Z</time></trkpt><trkpt lat="38.4968017" lon="16.015135"><ele>39.5</ele><time>2026-04-08T15:15:02.364Z</time></trkpt><trkpt lat="38.4966417" lon="16.014865"><ele>37.0</ele><time>2026-04-08T15:15:03.364Z</time></trkpt><trkpt lat="38.4964767" lon="16.0146017"><ele>37.0</ele><time>2026-04-08T15:15:04.365Z</time></trkpt><trkpt lat="38.4963117" lon="16.01434"><ele>37.0</ele><time>2026-04-08T15:15:05.364Z</time></trkpt><trkpt lat="38.496145" lon="16.0140783"><ele>39.0</ele><time>2026-04-08T15:15:06.364Z</time></trkpt><trkpt lat="38.49597" lon="16.013825"><ele>41.0</ele><time>2026-04-08T15:15:07.365Z</time></trkpt><trkpt lat="38.49579" lon="16.013585"><ele>41.0</ele><time>2026-04-08T15:15:08.365Z</time></trkpt><trkpt lat="38.4956" lon="16.0133433"><ele>41.0</ele><time>2026-04-08T15:15:09.364Z</time></trkpt><trkpt lat="38.495405" lon="16.01311"><ele>43.0</ele><time>2026-04-08T15:15:10.365Z</time></trkpt><trkpt lat="38.495205" lon="16.01288"><ele>45.0</ele><time>2026-04-08T15:15:11.365Z</time></trkpt><trkpt lat="38.495" lon="16.0126567"><ele>44.5</ele><time>2026-04-08T15:15:12.365Z</time></trkpt><trkpt lat="38.4947867" lon="16.0124467"><ele>44.0</ele><time>2026-04-08T15:15:13.365Z</time></trkpt><trkpt lat="38.4945667" lon="16.01224"><ele>44.0</ele><time>2026-04-08T15:15:14.364Z</time></trkpt><trkpt lat="38.4943433" lon="16.0120483"><ele>44.0</ele><time>2026-04-08T15:15:15.365Z</time></trkpt><trkpt lat="38.4941167" lon="16.0118517"><ele>44.0</ele><time>2026-04-08T15:15:16.365Z</time></trkpt><trkpt lat="38.493885" lon="16.0116633"><ele>44.0</ele><time>2026-04-08T15:15:17.364Z</time></trkpt><trkpt lat="38.49364" lon="16.011485"><ele>40.0</ele><time>2026-04-08T15:15:18.365Z</time></trkpt><trkpt lat="38.493395" lon="16.0113117"><ele>36.0</ele><time>2026-04-08T15:15:19.365Z</time></trkpt><trkpt lat="38.4931467" lon="16.0111367"><ele>35.0</ele><time>2026-04-08T15:15:20.364Z</time></trkpt><trkpt lat="38.492895" lon="16.010965"><ele>34.0</ele><time>2026-04-08T15:15:21.365Z</time></trkpt><trkpt lat="38.4926383" lon="16.0108033"><ele>34.0</ele><time>2026-04-08T15:15:22.364Z</time></trkpt><trkpt lat="38.4923767" lon="16.01064"><ele>34.0</ele><time>2026-04-08T15:15:23.364Z</time></trkpt><trkpt lat="38.492115" lon="16.0104817"><ele>33.0</ele><time>2026-04-08T15:15:24.364Z</time></trkpt><trkpt lat="38.491855" lon="16.010325"><ele>32.0</ele><time>2026-04-08T15:15:25.364Z</time></trkpt><trkpt lat="38.491595" lon="16.0101683"><ele>32.0</ele><time>2026-04-08T15:15:26.364Z</time></trkpt><trkpt lat="38.49133" lon="16.0100083"><ele>32.0</ele><time>2026-04-08T15:15:27.364Z</time></trkpt><trkpt lat="38.49106" lon="16.00985"><ele>31.5</ele><time>2026-04-08T15:15:28.364Z</time></trkpt><trkpt lat="38.49079" lon="16.0096867"><ele>31.0</ele><time>2026-04-08T15:15:29.365Z</time></trkpt><trkpt lat="38.4905233" lon="16.0095183"><ele>32.0</ele><time>2026-04-08T15:15:30.364Z</time></trkpt><trkpt lat="38.490265" lon="16.0093417"><ele>33.0</ele><time>2026-04-08T15:15:31.364Z</time></trkpt><trkpt lat="38.4900083" lon="16.0091533"><ele>33.0</ele><time>2026-04-08T15:15:32.365Z</time></trkpt><trkpt lat="38.4897533" lon="16.0089567"><ele>33.0</ele><time>2026-04-08T15:15:33.364Z</time></trkpt><trkpt lat="38.4895033" lon="16.008745"><ele>32.5</ele><time>2026-04-08T15:15:34.364Z</time></trkpt><trkpt lat="38.4892617" lon="16.0085233"><ele>32.0</ele><time>2026-04-08T15:15:35.365Z</time></trkpt><trkpt lat="38.4890233" lon="16.008285"><ele>31.5</ele><time>2026-04-08T15:15:36.364Z</time></trkpt><trkpt lat="38.4887967" lon="16.0080483"><ele>31.0</ele><time>2026-04-08T15:15:37.364Z</time></trkpt><trkpt lat="38.4885667" lon="16.0077983"><ele>30.5</ele><time>2026-04-08T15:15:38.364Z</time></trkpt><trkpt lat="38.4883467" lon="16.0075467"><ele>30.0</ele><time>2026-04-08T15:15:39.364Z</time></trkpt><trkpt lat="38.488135" lon="16.00729"><ele>30.0</ele><time>2026-04-08T15:15:40.364Z</time></trkpt><trkpt lat="38.4879317" lon="16.00702"><ele>30.0</ele><time>2026-04-08T15:15:41.364Z</time></trkpt><trkpt lat="38.48774" lon="16.006745"><ele>30.5</ele><time>2026-04-08T15:15:42.365Z</time></trkpt><trkpt lat="38.487545" lon="16.0064733"><ele>31.0</ele><time>2026-04-08T15:15:43.364Z</time></trkpt><trkpt lat="38.487355" lon="16.0061967"><ele>31.0</ele><time>2026-04-08T15:15:44.364Z</time></trkpt><trkpt lat="38.4871667" lon="16.00592"><ele>31.0</ele><time>2026-04-08T15:15:45.364Z</time></trkpt><trkpt lat="38.486975" lon="16.0056467"><ele>31.0</ele><time>2026-04-08T15:15:46.365Z</time></trkpt><trkpt lat="38.4867817" lon="16.00537"><ele>31.0</ele><time>2026-04-08T15:15:47.365Z</time></trkpt><trkpt lat="38.4865883" lon="16.0050883"><ele>31.0</ele><time>2026-04-08T15:15:48.364Z</time></trkpt><trkpt lat="38.4863883" lon="16.0048133"><ele>31.0</ele><time>2026-04-08T15:15:49.364Z</time></trkpt><trkpt lat="38.4861817" lon="16.004545"><ele>31.0</ele><time>2026-04-08T15:15:50.364Z</time></trkpt><trkpt lat="38.4859683" lon="16.0042833"><ele>31.0</ele><time>2026-04-08T15:15:51.365Z</time></trkpt><trkpt lat="38.4857483" lon="16.004025"><ele>31.0</ele><time>2026-04-08T15:15:52.364Z</time></trkpt><trkpt lat="38.4855217" lon="16.003785"><ele>31.0</ele><time>2026-04-08T15:15:53.365Z</time></trkpt><trkpt lat="38.48529" lon="16.0035517"><ele>31.5</ele><time>2026-04-08T15:15:54.365Z</time></trkpt><trkpt lat="38.4850483" lon="16.0033317"><ele>32.0</ele><time>2026-04-08T15:15:55.364Z</time></trkpt><trkpt lat="38.4848017" lon="16.0031217"><ele>37.5</ele><time>2026-04-08T15:15:56.364Z</time></trkpt><trkpt lat="38.484555" lon="16.002925"><ele>43.0</ele><time>2026-04-08T15:15:57.365Z</time></trkpt><trkpt lat="38.4842983" lon="16.00274"><ele>43.0</ele><time>2026-04-08T15:15:58.365Z</time></trkpt><trkpt lat="38.4840383" lon="16.002565"><ele>43.0</ele><time>2026-04-08T15:15:59.364Z</time></trkpt><trkpt lat="38.483775" lon="16.0024"><ele>46.0</ele><time>2026-04-08T15:16:00.365Z</time></trkpt><trkpt lat="38.483505" lon="16.0022467"><ele>49.0</ele><time>2026-04-08T15:16:01.365Z</time></trkpt><trkpt lat="38.4832333" lon="16.002105"><ele>49.0</ele><time>2026-04-08T15:16:02.364Z</time></trkpt><trkpt lat="38.48296" lon="16.001975"><ele>49.0</ele><time>2026-04-08T15:16:03.364Z</time></trkpt><trkpt lat="38.482685" lon="16.0018483"><ele>50.0</ele><time>2026-04-08T15:16:04.364Z</time></trkpt><trkpt lat="38.4824067" lon="16.001725"><ele>51.0</ele><time>2026-04-08T15:16:05.365Z</time></trkpt><trkpt lat="38.4821333" lon="16.0016117"><ele>52.0</ele><time>2026-04-08T15:16:06.364Z</time></trkpt><trkpt lat="38.481855" lon="16.0015"><ele>53.0</ele><time>2026-04-08T15:16:07.364Z</time></trkpt><trkpt lat="38.4815533" lon="16.001415"><ele>53.0</ele><time>2026-04-08T15:16:08.364Z</time></trkpt><trkpt lat="38.4812733" lon="16.0013183"><ele>53.0</ele><time>2026-04-08T15:16:09.364Z</time></trkpt><trkpt lat="38.4809883" lon="16.0012283"><ele>49.5</ele><time>2026-04-08T15:16:10.365Z</time></trkpt><trkpt lat="38.4807067" lon="16.0011567"><ele>46.0</ele><time>2026-04-08T15:16:11.365Z</time></trkpt><trkpt lat="38.480415" lon="16.0010783"><ele>42.0</ele><time>2026-04-08T15:16:12.365Z</time></trkpt><trkpt lat="38.4801233" lon="16.000985"><ele>38.0</ele><time>2026-04-08T15:16:13.364Z</time></trkpt><trkpt lat="38.479845" lon="16.0008567"><ele>35.0</ele><time>2026-04-08T15:16:14.364Z</time></trkpt><trkpt lat="38.4795433" lon="16.0007667"><ele>32.0</ele><time>2026-04-08T15:16:15.364Z</time></trkpt><trkpt lat="38.47925" lon="16.0006717"><ele>32.0</ele><time>2026-04-08T15:16:16.364Z</time></trkpt><trkpt lat="38.4789567" lon="16.0005683"><ele>32.0</ele><time>2026-04-08T15:16:17.364Z</time></trkpt><trkpt lat="38.478665" lon="16.0004617"><ele>33.5</ele><time>2026-04-08T15:16:18.364Z</time></trkpt><trkpt lat="38.4783733" lon="16.0003417"><ele>35.0</ele><time>2026-04-08T15:16:19.364Z</time></trkpt><trkpt lat="38.478085" lon="16.0002133"><ele>34.5</ele><time>2026-04-08T15:16:20.364Z</time></trkpt><trkpt lat="38.4777983" lon="16.0000783"><ele>34.0</ele><time>2026-04-08T15:16:21.364Z</time></trkpt><trkpt lat="38.47752" lon="15.9999283"><ele>34.0</ele><time>2026-04-08T15:16:22.364Z</time></trkpt><trkpt lat="38.47724" lon="15.9997717"><ele>34.0</ele><time>2026-04-08T15:16:23.365Z</time></trkpt><trkpt lat="38.4769617" lon="15.9996033"><ele>35.0</ele><time>2026-04-08T15:16:24.364Z</time></trkpt><trkpt lat="38.4766883" lon="15.999425"><ele>36.0</ele><time>2026-04-08T15:16:25.365Z</time></trkpt><trkpt lat="38.4764183" lon="15.9992467"><ele>34.5</ele><time>2026-04-08T15:16:26.364Z</time></trkpt><trkpt lat="38.47615" lon="15.9990617"><ele>33.0</ele><time>2026-04-08T15:16:27.365Z</time></trkpt><trkpt lat="38.4758883" lon="15.9988717"><ele>33.0</ele><time>2026-04-08T15:16:28.364Z</time></trkpt><trkpt lat="38.4756233" lon="15.99868"><ele>33.0</ele><time>2026-04-08T15:16:29.365Z</time></trkpt><trkpt lat="38.4753567" lon="15.9984833"><ele>34.5</ele><time>2026-04-08T15:16:30.364Z</time></trkpt><trkpt lat="38.4750883" lon="15.9982867"><ele>36.0</ele><time>2026-04-08T15:16:31.365Z</time></trkpt><trkpt lat="38.4748367" lon="15.9980917"><ele>35.0</ele><time>2026-04-08T15:16:32.364Z</time></trkpt><trkpt lat="38.4745733" lon="15.9978917"><ele>34.0</ele><time>2026-04-08T15:16:33.365Z</time></trkpt><trkpt lat="38.4743133" lon="15.99769"><ele>34.0</ele><time>2026-04-08T15:16:34.364Z</time></trkpt><trkpt lat="38.474055" lon="15.9974917"><ele>34.0</ele><time>2026-04-08T15:16:35.364Z</time></trkpt><trkpt lat="38.4737933" lon="15.9972933"><ele>34.5</ele><time>2026-04-08T15:16:36.365Z</time></trkpt><trkpt lat="38.4735367" lon="15.9970933"><ele>35.0</ele><time>2026-04-08T15:16:37.364Z</time></trkpt><trkpt lat="38.4732817" lon="15.9968967"><ele>35.0</ele><time>2026-04-08T15:16:38.365Z</time></trkpt><trkpt lat="38.4730317" lon="15.9966883"><ele>35.0</ele><time>2026-04-08T15:16:39.365Z</time></trkpt><trkpt lat="38.4727867" lon="15.9964717"><ele>35.5</ele><time>2026-04-08T15:16:40.365Z</time></trkpt><trkpt lat="38.47254" lon="15.9962483"><ele>36.0</ele><time>2026-04-08T15:16:41.364Z</time></trkpt><trkpt lat="38.4723033" lon="15.9960117"><ele>35.0</ele><time>2026-04-08T15:16:42.364Z</time></trkpt><trkpt lat="38.47207" lon="15.9957617"><ele>34.0</ele><time>2026-04-08T15:16:43.365Z</time></trkpt><trkpt lat="38.4718417" lon="15.995505"><ele>34.0</ele><time>2026-04-08T15:16:44.364Z</time></trkpt><trkpt lat="38.47162" lon="15.9952333"><ele>34.0</ele><time>2026-04-08T15:16:45.364Z</time></trkpt><trkpt lat="38.47141" lon="15.9949483"><ele>33.5</ele><time>2026-04-08T15:16:46.364Z</time></trkpt><trkpt lat="38.4711983" lon="15.9946567"><ele>33.0</ele><time>2026-04-08T15:16:47.364Z</time></trkpt><trkpt lat="38.471" lon="15.994355"><ele>33.0</ele><time>2026-04-08T15:16:48.364Z</time></trkpt><trkpt lat="38.4708033" lon="15.9940467"><ele>33.0</ele><time>2026-04-08T15:16:49.365Z</time></trkpt><trkpt lat="38.4706167" lon="15.99373"><ele>32.5</ele><time>2026-04-08T15:16:50.364Z</time></trkpt><trkpt lat="38.4704333" lon="15.993415"><ele>32.0</ele><time>2026-04-08T15:16:51.364Z</time></trkpt><trkpt lat="38.4702517" lon="15.9930983"><ele>31.5</ele><time>2026-04-08T15:16:52.365Z</time></trkpt><trkpt lat="38.470075" lon="15.992785"><ele>31.0</ele><time>2026-04-08T15:16:53.364Z</time></trkpt><trkpt lat="38.4698967" lon="15.99247"><ele>32.0</ele><time>2026-04-08T15:16:54.364Z</time></trkpt><trkpt lat="38.46972" lon="15.9921533"><ele>33.0</ele><time>2026-04-08T15:16:55.364Z</time></trkpt><trkpt lat="38.4695517" lon="15.9918367"><ele>45.5</ele><time>2026-04-08T15:16:56.365Z</time></trkpt><trkpt lat="38.4693767" lon="15.9915133"><ele>58.0</ele><time>2026-04-08T15:16:57.364Z</time></trkpt><trkpt lat="38.469205" lon="15.991195"><ele>58.0</ele><time>2026-04-08T15:16:58.365Z</time></trkpt><trkpt lat="38.4690433" lon="15.990865"><ele>58.0</ele><time>2026-04-08T15:16:59.364Z</time></trkpt><trkpt lat="38.4688717" lon="15.9905383"><ele>59.5</ele><time>2026-04-08T15:17:00.365Z</time></trkpt><trkpt lat="38.4687017" lon="15.99021"><ele>61.0</ele><time>2026-04-08T15:17:01.364Z</time></trkpt><trkpt lat="38.4685367" lon="15.9898867"><ele>61.0</ele><time>2026-04-08T15:17:02.365Z</time></trkpt><trkpt lat="38.46837" lon="15.9895667"><ele>61.0</ele><time>2026-04-08T15:17:03.364Z</time></trkpt><trkpt lat="38.46816" lon="15.9893017"><ele>60.0</ele><time>2026-04-08T15:17:04.365Z</time></trkpt><trkpt lat="38.4679933" lon="15.98899"><ele>59.0</ele><time>2026-04-08T15:17:05.365Z</time></trkpt><trkpt lat="38.46783" lon="15.9886717"><ele>57.0</ele><time>2026-04-08T15:17:06.364Z</time></trkpt><trkpt lat="38.467665" lon="15.9883533"><ele>55.0</ele><time>2026-04-08T15:17:07.365Z</time></trkpt><trkpt lat="38.4674967" lon="15.9880333"><ele>55.0</ele><time>2026-04-08T15:17:08.365Z</time></trkpt><trkpt lat="38.467325" lon="15.9877233"><ele>55.0</ele><time>2026-04-08T15:17:09.364Z</time></trkpt><trkpt lat="38.4671583" lon="15.9874233"><ele>55.5</ele><time>2026-04-08T15:17:10.364Z</time></trkpt><trkpt lat="38.4669917" lon="15.9871167"><ele>56.0</ele><time>2026-04-08T15:17:11.364Z</time></trkpt><trkpt lat="38.4668267" lon="15.98682"><ele>56.5</ele><time>2026-04-08T15:17:12.365Z</time></trkpt><trkpt lat="38.466655" lon="15.9865167"><ele>57.0</ele><time>2026-04-08T15:17:13.364Z</time></trkpt><trkpt lat="38.4664867" lon="15.9862117"><ele>57.0</ele><time>2026-04-08T15:17:14.364Z</time></trkpt><trkpt lat="38.4663283" lon="15.9859067"><ele>57.0</ele><time>2026-04-08T15:17:15.365Z</time></trkpt><trkpt lat="38.4661717" lon="15.9856067"><ele>58.0</ele><time>2026-04-08T15:17:16.364Z</time></trkpt><trkpt lat="38.466005" lon="15.9853017"><ele>59.0</ele><time>2026-04-08T15:17:17.364Z</time></trkpt><trkpt lat="38.4658417" lon="15.9849883"><ele>59.0</ele><time>2026-04-08T15:17:18.365Z</time></trkpt><trkpt lat="38.4656783" lon="15.9846867"><ele>59.0</ele><time>2026-04-08T15:17:19.364Z</time></trkpt><trkpt lat="38.46551" lon="15.984385"><ele>62.5</ele><time>2026-04-08T15:17:20.364Z</time></trkpt><trkpt lat="38.4653367" lon="15.984085"><ele>66.0</ele><time>2026-04-08T15:17:21.364Z</time></trkpt><trkpt lat="38.4651633" lon="15.9837833"><ele>66.0</ele><time>2026-04-08T15:17:22.365Z</time></trkpt><trkpt lat="38.4649983" lon="15.98349"><ele>66.0</ele><time>2026-04-08T15:17:23.364Z</time></trkpt><trkpt lat="38.4648333" lon="15.9831917"><ele>65.0</ele><time>2026-04-08T15:17:24.364Z</time></trkpt><trkpt lat="38.4646517" lon="15.982905"><ele>64.0</ele><time>2026-04-08T15:17:25.365Z</time></trkpt><trkpt lat="38.464475" lon="15.982625"><ele>63.5</ele><time>2026-04-08T15:17:26.364Z</time></trkpt><trkpt lat="38.4642933" lon="15.9823483"><ele>63.0</ele><time>2026-04-08T15:17:27.364Z</time></trkpt><trkpt lat="38.464125" lon="15.9820767"><ele>63.0</ele><time>2026-04-08T15:17:28.365Z</time></trkpt><trkpt lat="38.4639383" lon="15.9818067"><ele>63.0</ele><time>2026-04-08T15:17:29.365Z</time></trkpt><trkpt lat="38.46374" lon="15.98155"><ele>65.0</ele><time>2026-04-08T15:17:30.364Z</time></trkpt><trkpt lat="38.463545" lon="15.98129"><ele>67.0</ele><time>2026-04-08T15:17:31.365Z</time></trkpt><trkpt lat="38.463345" lon="15.9810383"><ele>66.5</ele><time>2026-04-08T15:17:32.364Z</time></trkpt><trkpt lat="38.463145" lon="15.980795"><ele>66.0</ele><time>2026-04-08T15:17:33.364Z</time></trkpt><trkpt lat="38.4629417" lon="15.98056"><ele>66.0</ele><time>2026-04-08T15:17:34.365Z</time></trkpt><trkpt lat="38.4627217" lon="15.98033"><ele>66.0</ele><time>2026-04-08T15:17:35.364Z</time></trkpt><trkpt lat="38.4625067" lon="15.98009"><ele>66.0</ele><time>2026-04-08T15:17:36.364Z</time></trkpt><trkpt lat="38.462285" lon="15.979855"><ele>66.0</ele><time>2026-04-08T15:17:37.364Z</time></trkpt><trkpt lat="38.4620683" lon="15.9796283"><ele>66.0</ele><time>2026-04-08T15:17:38.364Z</time></trkpt><trkpt lat="38.46185" lon="15.9794033"><ele>66.0</ele><time>2026-04-08T15:17:39.364Z</time></trkpt><trkpt lat="38.4616283" lon="15.97918"><ele>66.0</ele><time>2026-04-08T15:17:40.365Z</time></trkpt><trkpt lat="38.4614083" lon="15.9789517"><ele>66.0</ele><time>2026-04-08T15:17:41.365Z</time></trkpt><trkpt lat="38.4611867" lon="15.978725"><ele>66.0</ele><time>2026-04-08T15:17:42.365Z</time></trkpt><trkpt lat="38.46096" lon="15.9784917"><ele>66.0</ele><time>2026-04-08T15:17:43.364Z</time></trkpt><trkpt lat="38.4607333" lon="15.97826"><ele>66.0</ele><time>2026-04-08T15:17:44.364Z</time></trkpt><trkpt lat="38.4605083" lon="15.9780267"><ele>66.0</ele><time>2026-04-08T15:17:45.364Z</time></trkpt><trkpt lat="38.4602867" lon="15.977795"><ele>68.0</ele><time>2026-04-08T15:17:46.364Z</time></trkpt><trkpt lat="38.4600633" lon="15.9775683"><ele>70.0</ele><time>2026-04-08T15:17:47.365Z</time></trkpt><trkpt lat="38.45984" lon="15.9773283"><ele>72.0</ele><time>2026-04-08T15:17:48.365Z</time></trkpt><trkpt lat="38.45961" lon="15.9770917"><ele>74.0</ele><time>2026-04-08T15:17:49.364Z</time></trkpt><trkpt lat="38.4593833" lon="15.976855"><ele>74.0</ele><time>2026-04-08T15:17:50.365Z</time></trkpt><trkpt lat="38.4591633" lon="15.9766117"><ele>74.0</ele><time>2026-04-08T15:17:51.364Z</time></trkpt><trkpt lat="38.4589317" lon="15.9763617"><ele>74.5</ele><time>2026-04-08T15:17:52.364Z</time></trkpt><trkpt lat="38.45869" lon="15.9761033"><ele>75.0</ele><time>2026-04-08T15:17:53.365Z</time></trkpt><trkpt lat="38.45844" lon="15.97582"><ele>75.0</ele><time>2026-04-08T15:17:54.364Z</time></trkpt><trkpt lat="38.4581783" lon="15.97554"><ele>75.0</ele><time>2026-04-08T15:17:55.364Z</time></trkpt><trkpt lat="38.4579117" lon="15.9752517"><ele>74.5</ele><time>2026-04-08T15:17:56.364Z</time></trkpt><trkpt lat="38.4576367" lon="15.9749567"><ele>74.0</ele><time>2026-04-08T15:17:57.364Z</time></trkpt><trkpt lat="38.4573483" lon="15.97466"><ele>74.5</ele><time>2026-04-08T15:17:58.364Z</time></trkpt><trkpt lat="38.4570667" lon="15.9743617"><ele>75.0</ele><time>2026-04-08T15:17:59.364Z</time></trkpt><trkpt lat="38.4567733" lon="15.9740617"><ele>75.0</ele><time>2026-04-08T15:18:00.364Z</time></trkpt><trkpt lat="38.456475" lon="15.9737517"><ele>75.0</ele><time>2026-04-08T15:18:01.364Z</time></trkpt><trkpt lat="38.4561733" lon="15.973435"><ele>74.0</ele><time>2026-04-08T15:18:02.364Z</time></trkpt><trkpt lat="38.4558733" lon="15.9731167"><ele>73.0</ele><time>2026-04-08T15:18:03.365Z</time></trkpt><trkpt lat="38.4555733" lon="15.9728033"><ele>72.5</ele><time>2026-04-08T15:18:04.365Z</time></trkpt><trkpt lat="38.4552783" lon="15.9724983"><ele>72.0</ele><time>2026-04-08T15:18:05.364Z</time></trkpt><trkpt lat="38.4549767" lon="15.9721983"><ele>72.0</ele><time>2026-04-08T15:18:06.364Z</time></trkpt><trkpt lat="38.4546867" lon="15.971895"><ele>72.0</ele><time>2026-04-08T15:18:07.364Z</time></trkpt><trkpt lat="38.4544017" lon="15.9715833"><ele>70.0</ele><time>2026-04-08T15:18:08.365Z</time></trkpt><trkpt lat="38.45412" lon="15.9712683"><ele>68.0</ele><time>2026-04-08T15:18:09.364Z</time></trkpt><trkpt lat="38.4538483" lon="15.9709533"><ele>68.0</ele><time>2026-04-08T15:18:10.365Z</time></trkpt><trkpt lat="38.4535767" lon="15.97063"><ele>68.0</ele><time>2026-04-08T15:18:11.364Z</time></trkpt><trkpt lat="38.453315" lon="15.9702967"><ele>68.0</ele><time>2026-04-08T15:18:12.365Z</time></trkpt><trkpt lat="38.453055" lon="15.9699583"><ele>68.0</ele><time>2026-04-08T15:18:13.365Z</time></trkpt><trkpt lat="38.4528017" lon="15.969615"><ele>69.0</ele><time>2026-04-08T15:18:14.365Z</time></trkpt><trkpt lat="38.4525517" lon="15.9692683"><ele>70.0</ele><time>2026-04-08T15:18:15.364Z</time></trkpt><trkpt lat="38.4523017" lon="15.9689083"><ele>69.0</ele><time>2026-04-08T15:18:16.365Z</time></trkpt><trkpt lat="38.4520667" lon="15.9685483"><ele>68.0</ele><time>2026-04-08T15:18:17.364Z</time></trkpt><trkpt lat="38.451835" lon="15.96819"><ele>67.5</ele><time>2026-04-08T15:18:18.364Z</time></trkpt><trkpt lat="38.4516083" lon="15.967835"><ele>67.0</ele><time>2026-04-08T15:18:19.364Z</time></trkpt><trkpt lat="38.4513833" lon="15.9674667"><ele>67.5</ele><time>2026-04-08T15:18:20.364Z</time></trkpt><trkpt lat="38.4511667" lon="15.9671"><ele>68.0</ele><time>2026-04-08T15:18:21.364Z</time></trkpt><trkpt lat="38.4509617" lon="15.9667333"><ele>67.5</ele><time>2026-04-08T15:18:22.365Z</time></trkpt><trkpt lat="38.45076" lon="15.9663633"><ele>67.0</ele><time>2026-04-08T15:18:23.365Z</time></trkpt><trkpt lat="38.4505633" lon="15.9659917"><ele>66.5</ele><time>2026-04-08T15:18:24.365Z</time></trkpt><trkpt lat="38.4503617" lon="15.965615"><ele>66.0</ele><time>2026-04-08T15:18:25.365Z</time></trkpt><trkpt lat="38.4501717" lon="15.9652317"><ele>68.0</ele><time>2026-04-08T15:18:26.365Z</time></trkpt><trkpt lat="38.4499883" lon="15.9648483"><ele>70.0</ele><time>2026-04-08T15:18:27.365Z</time></trkpt><trkpt lat="38.44981" lon="15.9644683"><ele>70.0</ele><time>2026-04-08T15:18:28.364Z</time></trkpt><trkpt lat="38.44964" lon="15.9640983"><ele>70.0</ele><time>2026-04-08T15:18:29.364Z</time></trkpt><trkpt lat="38.4494817" lon="15.9637183"><ele>70.5</ele><time>2026-04-08T15:18:30.365Z</time></trkpt><trkpt lat="38.449325" lon="15.963325"><ele>71.0</ele><time>2026-04-08T15:18:31.364Z</time></trkpt><trkpt lat="38.449175" lon="15.9629167"><ele>71.0</ele><time>2026-04-08T15:18:32.364Z</time></trkpt><trkpt lat="38.4490267" lon="15.96252"><ele>71.0</ele><time>2026-04-08T15:18:33.364Z</time></trkpt><trkpt lat="38.448895" lon="15.9621383"><ele>71.0</ele><time>2026-04-08T15:18:34.364Z</time></trkpt><trkpt lat="38.44877" lon="15.9617717"><ele>71.0</ele><time>2026-04-08T15:18:35.364Z</time></trkpt><trkpt lat="38.4486517" lon="15.9614167"><ele>69.5</ele><time>2026-04-08T15:18:36.364Z</time></trkpt><trkpt lat="38.4485417" lon="15.9610733"><ele>68.0</ele><time>2026-04-08T15:18:37.365Z</time></trkpt><trkpt lat="38.4484367" lon="15.96074"><ele>68.0</ele><time>2026-04-08T15:18:38.364Z</time></trkpt><trkpt lat="38.4483367" lon="15.960405"><ele>68.0</ele><time>2026-04-08T15:18:39.364Z</time></trkpt><trkpt lat="38.448235" lon="15.9600683"><ele>68.0</ele><time>2026-04-08T15:18:40.364Z</time></trkpt><trkpt lat="38.44814" lon="15.9597283"><ele>68.0</ele><time>2026-04-08T15:18:41.364Z</time></trkpt><trkpt lat="38.4480517" lon="15.9594017"><ele>68.5</ele><time>2026-04-08T15:18:42.365Z</time></trkpt><trkpt lat="38.4479617" lon="15.95907"><ele>69.0</ele><time>2026-04-08T15:18:43.364Z</time></trkpt><trkpt lat="38.4478767" lon="15.9587383"><ele>69.0</ele><time>2026-04-08T15:18:44.364Z</time></trkpt><trkpt lat="38.4477867" lon="15.9584017"><ele>69.0</ele><time>2026-04-08T15:18:45.364Z</time></trkpt><trkpt lat="38.4477017" lon="15.958055"><ele>67.5</ele><time>2026-04-08T15:18:46.364Z</time></trkpt><trkpt lat="38.4476133" lon="15.95771"><ele>66.0</ele><time>2026-04-08T15:18:47.365Z</time></trkpt><trkpt lat="38.4475183" lon="15.9573683"><ele>66.0</ele><time>2026-04-08T15:18:48.364Z</time></trkpt><trkpt lat="38.4474217" lon="15.95703"><ele>66.0</ele><time>2026-04-08T15:18:49.364Z</time></trkpt><trkpt lat="38.4473183" lon="15.956685"><ele>66.0</ele><time>2026-04-08T15:18:50.364Z</time></trkpt><trkpt lat="38.4472117" lon="15.9563367"><ele>66.0</ele><time>2026-04-08T15:18:51.364Z</time></trkpt><trkpt lat="38.4470917" lon="15.9559883"><ele>66.5</ele><time>2026-04-08T15:18:52.364Z</time></trkpt><trkpt lat="38.44697" lon="15.9556417"><ele>67.0</ele><time>2026-04-08T15:18:53.364Z</time></trkpt><trkpt lat="38.446835" lon="15.955295"><ele>65.0</ele><time>2026-04-08T15:18:54.364Z</time></trkpt><trkpt lat="38.4467033" lon="15.95495"><ele>63.0</ele><time>2026-04-08T15:18:55.364Z</time></trkpt><trkpt lat="38.4465583" lon="15.9546067"><ele>63.0</ele><time>2026-04-08T15:18:56.364Z</time></trkpt><trkpt lat="38.4464067" lon="15.9542733"><ele>63.0</ele><time>2026-04-08T15:18:57.364Z</time></trkpt><trkpt lat="38.44624" lon="15.9539517"><ele>64.0</ele><time>2026-04-08T15:18:58.364Z</time></trkpt><trkpt lat="38.4460667" lon="15.9536417"><ele>65.0</ele><time>2026-04-08T15:18:59.365Z</time></trkpt><trkpt lat="38.4458867" lon="15.9533383"><ele>65.0</ele><time>2026-04-08T15:19:00.365Z</time></trkpt><trkpt lat="38.4457083" lon="15.9530467"><ele>65.0</ele><time>2026-04-08T15:19:01.365Z</time></trkpt><trkpt lat="38.4455267" lon="15.952755"><ele>64.0</ele><time>2026-04-08T15:19:02.364Z</time></trkpt><trkpt lat="38.4453367" lon="15.9524717"><ele>63.0</ele><time>2026-04-08T15:19:03.365Z</time></trkpt><trkpt lat="38.4451333" lon="15.9521883"><ele>63.0</ele><time>2026-04-08T15:19:04.365Z</time></trkpt><trkpt lat="38.444925" lon="15.9519083"><ele>63.0</ele><time>2026-04-08T15:19:05.364Z</time></trkpt><trkpt lat="38.4447133" lon="15.9516183"><ele>64.0</ele><time>2026-04-08T15:19:06.365Z</time></trkpt><trkpt lat="38.4445" lon="15.9513217"><ele>65.0</ele><time>2026-04-08T15:19:07.364Z</time></trkpt><trkpt lat="38.4442833" lon="15.9510183"><ele>64.5</ele><time>2026-04-08T15:19:08.365Z</time></trkpt><trkpt lat="38.444065" lon="15.9507217"><ele>64.0</ele><time>2026-04-08T15:19:09.364Z</time></trkpt><trkpt lat="38.44384" lon="15.9504217"><ele>64.5</ele><time>2026-04-08T15:19:10.365Z</time></trkpt><trkpt lat="38.44362" lon="15.95013"><ele>65.0</ele><time>2026-04-08T15:19:11.364Z</time></trkpt><trkpt lat="38.4434117" lon="15.9498383"><ele>64.0</ele><time>2026-04-08T15:19:12.365Z</time></trkpt><trkpt lat="38.4431983" lon="15.9495483"><ele>63.0</ele><time>2026-04-08T15:19:13.365Z</time></trkpt><trkpt lat="38.4429917" lon="15.94926"><ele>62.5</ele><time>2026-04-08T15:19:14.364Z</time></trkpt><trkpt lat="38.4427867" lon="15.9489667"><ele>62.0</ele><time>2026-04-08T15:19:15.364Z</time></trkpt><trkpt lat="38.4425867" lon="15.9486683"><ele>61.5</ele><time>2026-04-08T15:19:16.365Z</time></trkpt><trkpt lat="38.442395" lon="15.9483667"><ele>61.0</ele><time>2026-04-08T15:19:17.364Z</time></trkpt><trkpt lat="38.44221" lon="15.948065"><ele>61.5</ele><time>2026-04-08T15:19:18.364Z</time></trkpt><trkpt lat="38.4420367" lon="15.94775"><ele>62.0</ele><time>2026-04-08T15:19:19.365Z</time></trkpt><trkpt lat="38.44186" lon="15.9474483"><ele>60.5</ele><time>2026-04-08T15:19:20.365Z</time></trkpt><trkpt lat="38.4416817" lon="15.947135"><ele>59.0</ele><time>2026-04-08T15:19:21.365Z</time></trkpt><trkpt lat="38.44152" lon="15.9468267"><ele>58.5</ele><time>2026-04-08T15:19:22.365Z</time></trkpt><trkpt lat="38.4413667" lon="15.9465033"><ele>58.0</ele><time>2026-04-08T15:19:23.365Z</time></trkpt><trkpt lat="38.4412067" lon="15.9461833"><ele>59.5</ele><time>2026-04-08T15:19:24.364Z</time></trkpt><trkpt lat="38.44106" lon="15.9458633"><ele>61.0</ele><time>2026-04-08T15:19:25.364Z</time></trkpt><trkpt lat="38.440925" lon="15.94553"><ele>61.0</ele><time>2026-04-08T15:19:26.365Z</time></trkpt><trkpt lat="38.4407817" lon="15.9451933"><ele>61.0</ele><time>2026-04-08T15:19:27.364Z</time></trkpt><trkpt lat="38.4406467" lon="15.944845"><ele>60.5</ele><time>2026-04-08T15:19:28.364Z</time></trkpt><trkpt lat="38.4405167" lon="15.9445"><ele>60.0</ele><time>2026-04-08T15:19:29.364Z</time></trkpt><trkpt lat="38.44039" lon="15.9441517"><ele>59.0</ele><time>2026-04-08T15:19:30.364Z</time></trkpt><trkpt lat="38.4402583" lon="15.9437967"><ele>58.0</ele><time>2026-04-08T15:19:31.364Z</time></trkpt><trkpt lat="38.4401317" lon="15.9434533"><ele>56.5</ele><time>2026-04-08T15:19:32.364Z</time></trkpt><trkpt lat="38.4400117" lon="15.9431083"><ele>55.0</ele><time>2026-04-08T15:19:33.365Z</time></trkpt><trkpt lat="38.4398817" lon="15.9427517"><ele>54.5</ele><time>2026-04-08T15:19:34.364Z</time></trkpt><trkpt lat="38.4397567" lon="15.9424133"><ele>54.0</ele><time>2026-04-08T15:19:35.364Z</time></trkpt><trkpt lat="38.4396217" lon="15.9420733"><ele>54.0</ele><time>2026-04-08T15:19:36.364Z</time></trkpt><trkpt lat="38.4394833" lon="15.9417267"><ele>54.0</ele><time>2026-04-08T15:19:37.365Z</time></trkpt><trkpt lat="38.43934" lon="15.9413767"><ele>54.0</ele><time>2026-04-08T15:19:38.365Z</time></trkpt><trkpt lat="38.439195" lon="15.9410183"><ele>54.0</ele><time>2026-04-08T15:19:39.364Z</time></trkpt><trkpt lat="38.4390483" lon="15.94066"><ele>53.5</ele><time>2026-04-08T15:19:40.364Z</time></trkpt><trkpt lat="38.4389083" lon="15.940305"><ele>53.0</ele><time>2026-04-08T15:19:41.364Z</time></trkpt><trkpt lat="38.43876" lon="15.939945"><ele>54.5</ele><time>2026-04-08T15:19:42.364Z</time></trkpt><trkpt lat="38.43861" lon="15.9395867"><ele>56.0</ele><time>2026-04-08T15:19:43.364Z</time></trkpt><trkpt lat="38.4384517" lon="15.93924"><ele>55.0</ele><time>2026-04-08T15:19:44.365Z</time></trkpt><trkpt lat="38.4382867" lon="15.9388967"><ele>54.0</ele><time>2026-04-08T15:19:45.364Z</time></trkpt><trkpt lat="38.4381233" lon="15.9385667"><ele>55.0</ele><time>2026-04-08T15:19:46.364Z</time></trkpt><trkpt lat="38.4379567" lon="15.9382417"><ele>56.0</ele><time>2026-04-08T15:19:47.364Z</time></trkpt><trkpt lat="38.4377833" lon="15.937925"><ele>56.0</ele><time>2026-04-08T15:19:48.364Z</time></trkpt><trkpt lat="38.4376067" lon="15.9376133"><ele>56.0</ele><time>2026-04-08T15:19:49.365Z</time></trkpt><trkpt lat="38.43742" lon="15.9373117"><ele>54.5</ele><time>2026-04-08T15:19:50.364Z</time></trkpt><trkpt lat="38.4372267" lon="15.9370083"><ele>53.0</ele><time>2026-04-08T15:19:51.364Z</time></trkpt><trkpt lat="38.4370317" lon="15.936715"><ele>51.5</ele><time>2026-04-08T15:19:52.365Z</time></trkpt><trkpt lat="38.43685" lon="15.936415"><ele>50.0</ele><time>2026-04-08T15:19:53.364Z</time></trkpt><trkpt lat="38.4366483" lon="15.9361283"><ele>50.5</ele><time>2026-04-08T15:19:54.364Z</time></trkpt><trkpt lat="38.4364433" lon="15.93586"><ele>51.0</ele><time>2026-04-08T15:19:55.365Z</time></trkpt><trkpt lat="38.43624" lon="15.9355967"><ele>50.0</ele><time>2026-04-08T15:19:56.364Z</time></trkpt><trkpt lat="38.4360317" lon="15.93532"><ele>49.0</ele><time>2026-04-08T15:19:57.364Z</time></trkpt><trkpt lat="38.4358183" lon="15.9350467"><ele>49.0</ele><time>2026-04-08T15:19:58.364Z</time></trkpt><trkpt lat="38.4355967" lon="15.9347717"><ele>49.0</ele><time>2026-04-08T15:19:59.364Z</time></trkpt><trkpt lat="38.43538" lon="15.9344933"><ele>44.0</ele><time>2026-04-08T15:20:00.364Z</time></trkpt><trkpt lat="38.4351517" lon="15.9342117"><ele>39.0</ele><time>2026-04-08T15:20:01.364Z</time></trkpt><trkpt lat="38.4349217" lon="15.93394"><ele>39.0</ele><time>2026-04-08T15:20:02.365Z</time></trkpt><trkpt lat="38.4347017" lon="15.93368"><ele>39.0</ele><time>2026-04-08T15:20:03.365Z</time></trkpt><trkpt lat="38.4344783" lon="15.9334183"><ele>35.5</ele><time>2026-04-08T15:20:04.364Z</time></trkpt><trkpt lat="38.43426" lon="15.933155"><ele>32.0</ele><time>2026-04-08T15:20:05.365Z</time></trkpt><trkpt lat="38.4340483" lon="15.9328933"><ele>32.0</ele><time>2026-04-08T15:20:06.364Z</time></trkpt><trkpt lat="38.4338317" lon="15.9326383"><ele>32.0</ele><time>2026-04-08T15:20:07.365Z</time></trkpt><trkpt lat="38.4336133" lon="15.932375"><ele>30.5</ele><time>2026-04-08T15:20:08.365Z</time></trkpt><trkpt lat="38.4333967" lon="15.9321133"><ele>29.0</ele><time>2026-04-08T15:20:09.364Z</time></trkpt><trkpt lat="38.433175" lon="15.931845"><ele>27.0</ele><time>2026-04-08T15:20:10.364Z</time></trkpt><trkpt lat="38.4329517" lon="15.931575"><ele>25.0</ele><time>2026-04-08T15:20:11.366Z</time></trkpt><trkpt lat="38.4327267" lon="15.9312967"><ele>25.0</ele><time>2026-04-08T15:20:12.365Z</time></trkpt><trkpt lat="38.4324917" lon="15.9310183"><ele>25.0</ele><time>2026-04-08T15:20:13.366Z</time></trkpt><trkpt lat="38.4322617" lon="15.930745"><ele>27.0</ele><time>2026-04-08T15:20:14.365Z</time></trkpt><trkpt lat="38.43203" lon="15.9304617"><ele>29.0</ele><time>2026-04-08T15:20:15.366Z</time></trkpt><trkpt lat="38.4318017" lon="15.9301733"><ele>28.5</ele><time>2026-04-08T15:20:16.366Z</time></trkpt><trkpt lat="38.431565" lon="15.9298883"><ele>28.0</ele><time>2026-04-08T15:20:17.366Z</time></trkpt><trkpt lat="38.4313433" lon="15.929605"><ele>25.0</ele><time>2026-04-08T15:20:18.366Z</time></trkpt><trkpt lat="38.4311133" lon="15.929325"><ele>22.0</ele><time>2026-04-08T15:20:19.366Z</time></trkpt><trkpt lat="38.43088" lon="15.9290533"><ele>22.0</ele><time>2026-04-08T15:20:20.366Z</time></trkpt><trkpt lat="38.430645" lon="15.9287733"><ele>22.0</ele><time>2026-04-08T15:20:21.366Z</time></trkpt><trkpt lat="38.43041" lon="15.92851"><ele>21.0</ele><time>2026-04-08T15:20:22.366Z</time></trkpt><trkpt lat="38.4301767" lon="15.9282467"><ele>20.0</ele><time>2026-04-08T15:20:23.366Z</time></trkpt><trkpt lat="38.4299417" lon="15.927985"><ele>20.0</ele><time>2026-04-08T15:20:24.366Z</time></trkpt><trkpt lat="38.42971" lon="15.9277217"><ele>20.0</ele><time>2026-04-08T15:20:25.365Z</time></trkpt><trkpt lat="38.4294667" lon="15.9274767"><ele>18.5</ele><time>2026-04-08T15:20:26.365Z</time></trkpt><trkpt lat="38.4292183" lon="15.9272317"><ele>17.0</ele><time>2026-04-08T15:20:27.366Z</time></trkpt><trkpt lat="38.4289733" lon="15.926995"><ele>17.0</ele><time>2026-04-08T15:20:28.366Z</time></trkpt><trkpt lat="38.4287283" lon="15.9267633"><ele>17.0</ele><time>2026-04-08T15:20:29.365Z</time></trkpt><trkpt lat="38.4284833" lon="15.9265383"><ele>17.0</ele><time>2026-04-08T15:20:30.366Z</time></trkpt><trkpt lat="38.428235" lon="15.9263233"><ele>17.0</ele><time>2026-04-08T15:20:31.366Z</time></trkpt><trkpt lat="38.4279883" lon="15.9261117"><ele>17.5</ele><time>2026-04-08T15:20:32.365Z</time></trkpt><trkpt lat="38.4277317" lon="15.9259017"><ele>18.0</ele><time>2026-04-08T15:20:33.365Z</time></trkpt><trkpt lat="38.4274667" lon="15.9256967"><ele>19.0</ele><time>2026-04-08T15:20:34.365Z</time></trkpt><trkpt lat="38.42721" lon="15.925495"><ele>20.0</ele><time>2026-04-08T15:20:35.366Z</time></trkpt><trkpt lat="38.426945" lon="15.9253117"><ele>21.5</ele><time>2026-04-08T15:20:36.365Z</time></trkpt><trkpt lat="38.4266833" lon="15.9251317"><ele>23.0</ele><time>2026-04-08T15:20:37.366Z</time></trkpt><trkpt lat="38.4264183" lon="15.9249533"><ele>29.0</ele><time>2026-04-08T15:20:38.366Z</time></trkpt><trkpt lat="38.4261533" lon="15.9247817"><ele>35.0</ele><time>2026-04-08T15:20:39.366Z</time></trkpt><trkpt lat="38.4258883" lon="15.9246233"><ele>35.0</ele><time>2026-04-08T15:20:40.366Z</time></trkpt><trkpt lat="38.425625" lon="15.9244633"><ele>35.0</ele><time>2026-04-08T15:20:41.366Z</time></trkpt><trkpt lat="38.4253583" lon="15.92431"><ele>34.5</ele><time>2026-04-08T15:20:42.365Z</time></trkpt><trkpt lat="38.4250883" lon="15.924165"><ele>34.0</ele><time>2026-04-08T15:20:43.366Z</time></trkpt><trkpt lat="38.424825" lon="15.92403"><ele>40.0</ele><time>2026-04-08T15:20:44.365Z</time></trkpt><trkpt lat="38.4245567" lon="15.9239017"><ele>46.0</ele><time>2026-04-08T15:20:45.366Z</time></trkpt><trkpt lat="38.42428" lon="15.9237783"><ele>46.0</ele><time>2026-04-08T15:20:46.366Z</time></trkpt><trkpt lat="38.4240067" lon="15.9236533"><ele>46.0</ele><time>2026-04-08T15:20:47.365Z</time></trkpt><trkpt lat="38.4237317" lon="15.9235317"><ele>48.5</ele><time>2026-04-08T15:20:48.365Z</time></trkpt><trkpt lat="38.4234483" lon="15.9234083"><ele>51.0</ele><time>2026-04-08T15:20:49.365Z</time></trkpt><trkpt lat="38.4231683" lon="15.9232967"><ele>51.0</ele><time>2026-04-08T15:20:50.366Z</time></trkpt><trkpt lat="38.42289" lon="15.923185"><ele>51.0</ele><time>2026-04-08T15:20:51.366Z</time></trkpt><trkpt lat="38.42261" lon="15.9230783"><ele>51.0</ele><time>2026-04-08T15:20:52.366Z</time></trkpt><trkpt lat="38.42233" lon="15.9229767"><ele>51.0</ele><time>2026-04-08T15:20:53.365Z</time></trkpt><trkpt lat="38.4220517" lon="15.9228717"><ele>54.5</ele><time>2026-04-08T15:20:54.365Z</time></trkpt><trkpt lat="38.42177" lon="15.9227533"><ele>58.0</ele><time>2026-04-08T15:20:55.366Z</time></trkpt><trkpt lat="38.4214817" lon="15.92264"><ele>57.5</ele><time>2026-04-08T15:20:56.365Z</time></trkpt><trkpt lat="38.4211767" lon="15.9225283"><ele>57.0</ele><time>2026-04-08T15:20:57.366Z</time></trkpt><trkpt lat="38.4208533" lon="15.9224217"><ele>57.0</ele><time>2026-04-08T15:20:58.365Z</time></trkpt><trkpt lat="38.420525" lon="15.922305"><ele>57.0</ele><time>2026-04-08T15:20:59.365Z</time></trkpt><trkpt lat="38.4201817" lon="15.9221783"><ele>58.0</ele><time>2026-04-08T15:21:00.366Z</time></trkpt><trkpt lat="38.4198267" lon="15.9220533"><ele>59.0</ele><time>2026-04-08T15:21:01.366Z</time></trkpt><trkpt lat="38.4194767" lon="15.9219067"><ele>59.5</ele><time>2026-04-08T15:21:02.366Z</time></trkpt><trkpt lat="38.4191383" lon="15.92176"><ele>60.0</ele><time>2026-04-08T15:21:03.365Z</time></trkpt><trkpt lat="38.4188117" lon="15.921625"><ele>60.0</ele><time>2026-04-08T15:21:04.365Z</time></trkpt><trkpt lat="38.418495" lon="15.9215033"><ele>60.0</ele><time>2026-04-08T15:21:05.365Z</time></trkpt><trkpt lat="38.4181967" lon="15.92139"><ele>60.0</ele><time>2026-04-08T15:21:06.366Z</time></trkpt><trkpt lat="38.417885" lon="15.92128"><ele>60.0</ele><time>2026-04-08T15:21:07.365Z</time></trkpt><trkpt lat="38.4175883" lon="15.921165"><ele>60.0</ele><time>2026-04-08T15:21:08.366Z</time></trkpt><trkpt lat="38.417305" lon="15.921055"><ele>60.0</ele><time>2026-04-08T15:21:09.365Z</time></trkpt><trkpt lat="38.41702" lon="15.9209433"><ele>60.5</ele><time>2026-04-08T15:21:10.366Z</time></trkpt><trkpt lat="38.4167433" lon="15.9208283"><ele>61.0</ele><time>2026-04-08T15:21:11.365Z</time></trkpt><trkpt lat="38.4164667" lon="15.9207233"><ele>62.0</ele><time>2026-04-08T15:21:12.366Z</time></trkpt><trkpt lat="38.4161867" lon="15.920615"><ele>63.0</ele><time>2026-04-08T15:21:13.365Z</time></trkpt><trkpt lat="38.415905" lon="15.9205033"><ele>63.0</ele><time>2026-04-08T15:21:14.365Z</time></trkpt><trkpt lat="38.4156183" lon="15.9203967"><ele>63.0</ele><time>2026-04-08T15:21:15.365Z</time></trkpt><trkpt lat="38.415345" lon="15.92029"><ele>63.0</ele><time>2026-04-08T15:21:16.365Z</time></trkpt><trkpt lat="38.4150717" lon="15.920175"><ele>63.0</ele><time>2026-04-08T15:21:17.365Z</time></trkpt><trkpt lat="38.4148017" lon="15.920055"><ele>63.0</ele><time>2026-04-08T15:21:18.366Z</time></trkpt><trkpt lat="38.4145383" lon="15.9199283"><ele>63.0</ele><time>2026-04-08T15:21:19.366Z</time></trkpt><trkpt lat="38.4142767" lon="15.9197983"><ele>63.0</ele><time>2026-04-08T15:21:20.366Z</time></trkpt><trkpt lat="38.4140117" lon="15.919655"><ele>63.0</ele><time>2026-04-08T15:21:21.366Z</time></trkpt><trkpt lat="38.4137567" lon="15.9195033"><ele>63.5</ele><time>2026-04-08T15:21:22.365Z</time></trkpt><trkpt lat="38.413495" lon="15.9193483"><ele>64.0</ele><time>2026-04-08T15:21:23.365Z</time></trkpt><trkpt lat="38.4132433" lon="15.91919"><ele>63.0</ele><time>2026-04-08T15:21:24.365Z</time></trkpt><trkpt lat="38.4129983" lon="15.91903"><ele>62.0</ele><time>2026-04-08T15:21:25.365Z</time></trkpt><trkpt lat="38.4127583" lon="15.91886"><ele>62.0</ele><time>2026-04-08T15:21:26.365Z</time></trkpt><trkpt lat="38.4125233" lon="15.9186783"><ele>62.0</ele><time>2026-04-08T15:21:27.365Z</time></trkpt><trkpt lat="38.4122883" lon="15.9184983"><ele>61.5</ele><time>2026-04-08T15:21:28.365Z</time></trkpt><trkpt lat="38.412055" lon="15.918315"><ele>61.0</ele><time>2026-04-08T15:21:29.365Z</time></trkpt><trkpt lat="38.4118317" lon="15.9181167"><ele>61.0</ele><time>2026-04-08T15:21:30.365Z</time></trkpt><trkpt lat="38.411605" lon="15.9179167"><ele>61.0</ele><time>2026-04-08T15:21:31.365Z</time></trkpt><trkpt lat="38.4113783" lon="15.917705"><ele>61.5</ele><time>2026-04-08T15:21:32.365Z</time></trkpt><trkpt lat="38.41116" lon="15.9175"><ele>62.0</ele><time>2026-04-08T15:21:33.366Z</time></trkpt><trkpt lat="38.4109367" lon="15.9172783"><ele>62.0</ele><time>2026-04-08T15:21:34.365Z</time></trkpt><trkpt lat="38.4107233" lon="15.9170533"><ele>62.0</ele><time>2026-04-08T15:21:35.366Z</time></trkpt><trkpt lat="38.4105183" lon="15.9168183"><ele>62.5</ele><time>2026-04-08T15:21:36.366Z</time></trkpt><trkpt lat="38.41031" lon="15.916575"><ele>63.0</ele><time>2026-04-08T15:21:37.365Z</time></trkpt><trkpt lat="38.4101083" lon="15.9163317"><ele>63.0</ele><time>2026-04-08T15:21:38.366Z</time></trkpt><trkpt lat="38.4099017" lon="15.9160767"><ele>63.0</ele><time>2026-04-08T15:21:39.365Z</time></trkpt><trkpt lat="38.40968" lon="15.9158233"><ele>64.0</ele><time>2026-04-08T15:21:40.366Z</time></trkpt><trkpt lat="38.409475" lon="15.9155767"><ele>65.0</ele><time>2026-04-08T15:21:41.366Z</time></trkpt><trkpt lat="38.40927" lon="15.9153117"><ele>63.5</ele><time>2026-04-08T15:21:42.366Z</time></trkpt><trkpt lat="38.40907" lon="15.91504"><ele>62.0</ele><time>2026-04-08T15:21:43.366Z</time></trkpt><trkpt lat="38.408875" lon="15.9147683"><ele>63.0</ele><time>2026-04-08T15:21:44.365Z</time></trkpt><trkpt lat="38.4086783" lon="15.9144967"><ele>64.0</ele><time>2026-04-08T15:21:45.366Z</time></trkpt><trkpt lat="38.4084767" lon="15.9142233"><ele>62.0</ele><time>2026-04-08T15:21:46.366Z</time></trkpt><trkpt lat="38.408275" lon="15.9139583"><ele>60.0</ele><time>2026-04-08T15:21:47.366Z</time></trkpt><trkpt lat="38.4080633" lon="15.9136967"><ele>60.5</ele><time>2026-04-08T15:21:48.366Z</time></trkpt><trkpt lat="38.4078433" lon="15.9134417"><ele>61.0</ele><time>2026-04-08T15:21:49.366Z</time></trkpt><trkpt lat="38.40762" lon="15.913185"><ele>57.0</ele><time>2026-04-08T15:21:50.365Z</time></trkpt><trkpt lat="38.4073933" lon="15.9129317"><ele>53.0</ele><time>2026-04-08T15:21:51.366Z</time></trkpt><trkpt lat="38.4071617" lon="15.9126933"><ele>49.5</ele><time>2026-04-08T15:21:52.366Z</time></trkpt><trkpt lat="38.4069233" lon="15.9124583"><ele>46.0</ele><time>2026-04-08T15:21:53.365Z</time></trkpt><trkpt lat="38.40668" lon="15.912235"><ele>46.0</ele><time>2026-04-08T15:21:54.365Z</time></trkpt><trkpt lat="38.406435" lon="15.9120083"><ele>46.0</ele><time>2026-04-08T15:21:55.366Z</time></trkpt><trkpt lat="38.406185" lon="15.9117833"><ele>43.0</ele><time>2026-04-08T15:21:56.366Z</time></trkpt><trkpt lat="38.40594" lon="15.91156"><ele>40.0</ele><time>2026-04-08T15:21:57.366Z</time></trkpt><trkpt lat="38.405695" lon="15.9113333"><ele>37.5</ele><time>2026-04-08T15:21:58.366Z</time></trkpt><trkpt lat="38.40545" lon="15.911115"><ele>35.0</ele><time>2026-04-08T15:21:59.366Z</time></trkpt><trkpt lat="38.4052" lon="15.91089"><ele>35.0</ele><time>2026-04-08T15:22:00.365Z</time></trkpt><trkpt lat="38.4049567" lon="15.9106733"><ele>35.0</ele><time>2026-04-08T15:22:01.365Z</time></trkpt><trkpt lat="38.40471" lon="15.910455"><ele>37.5</ele><time>2026-04-08T15:22:02.365Z</time></trkpt><trkpt lat="38.4044667" lon="15.9102367"><ele>40.0</ele><time>2026-04-08T15:22:03.365Z</time></trkpt><trkpt lat="38.4042233" lon="15.9100233"><ele>32.5</ele><time>2026-04-08T15:22:04.366Z</time></trkpt><trkpt lat="38.4039833" lon="15.9098067"><ele>25.0</ele><time>2026-04-08T15:22:05.365Z</time></trkpt><trkpt lat="38.403745" lon="15.909595"><ele>24.0</ele><time>2026-04-08T15:22:06.365Z</time></trkpt><trkpt lat="38.4035117" lon="15.9093933"><ele>23.0</ele><time>2026-04-08T15:22:07.365Z</time></trkpt><trkpt lat="38.4032783" lon="15.9091917"><ele>23.0</ele><time>2026-04-08T15:22:08.366Z</time></trkpt><trkpt lat="38.403035" lon="15.908985"><ele>23.0</ele><time>2026-04-08T15:22:09.365Z</time></trkpt><trkpt lat="38.40279" lon="15.90877"><ele>23.0</ele><time>2026-04-08T15:22:10.366Z</time></trkpt><trkpt lat="38.4025367" lon="15.9085517"><ele>23.0</ele><time>2026-04-08T15:22:11.365Z</time></trkpt><trkpt lat="38.4022933" lon="15.9083267"><ele>22.5</ele><time>2026-04-08T15:22:12.365Z</time></trkpt><trkpt lat="38.4020467" lon="15.9081067"><ele>22.0</ele><time>2026-04-08T15:22:13.365Z</time></trkpt><trkpt lat="38.4017967" lon="15.90789"><ele>22.0</ele><time>2026-04-08T15:22:14.365Z</time></trkpt><trkpt lat="38.4015433" lon="15.9076917"><ele>22.0</ele><time>2026-04-08T15:22:15.366Z</time></trkpt><trkpt lat="38.4012817" lon="15.9075067"><ele>27.0</ele><time>2026-04-08T15:22:16.366Z</time></trkpt><trkpt lat="38.4010117" lon="15.907335"><ele>32.0</ele><time>2026-04-08T15:22:17.365Z</time></trkpt><trkpt lat="38.4007367" lon="15.9071867"><ele>31.0</ele><time>2026-04-08T15:22:18.366Z</time></trkpt><trkpt lat="38.40046" lon="15.907045"><ele>30.0</ele><time>2026-04-08T15:22:19.365Z</time></trkpt><trkpt lat="38.4001817" lon="15.906935"><ele>30.0</ele><time>2026-04-08T15:22:20.365Z</time></trkpt><trkpt lat="38.3998967" lon="15.9068233"><ele>30.0</ele><time>2026-04-08T15:22:21.366Z</time></trkpt><trkpt lat="38.3996117" lon="15.90674"><ele>38.5</ele><time>2026-04-08T15:22:22.365Z</time></trkpt><trkpt lat="38.3993167" lon="15.9066617"><ele>47.0</ele><time>2026-04-08T15:22:23.366Z</time></trkpt><trkpt lat="38.3990233" lon="15.9066167"><ele>49.0</ele><time>2026-04-08T15:22:24.366Z</time></trkpt><trkpt lat="38.398725" lon="15.9065817"><ele>51.0</ele><time>2026-04-08T15:22:25.365Z</time></trkpt><trkpt lat="38.3984283" lon="15.9065533"><ele>51.0</ele><time>2026-04-08T15:22:26.365Z</time></trkpt><trkpt lat="38.3981283" lon="15.9065333"><ele>51.0</ele><time>2026-04-08T15:22:27.366Z</time></trkpt><trkpt lat="38.397825" lon="15.9065233"><ele>54.5</ele><time>2026-04-08T15:22:28.366Z</time></trkpt><trkpt lat="38.39752" lon="15.90651"><ele>58.0</ele><time>2026-04-08T15:22:29.365Z</time></trkpt><trkpt lat="38.3972133" lon="15.9064933"><ele>54.5</ele><time>2026-04-08T15:22:30.365Z</time></trkpt><trkpt lat="38.3969167" lon="15.9064583"><ele>51.0</ele><time>2026-04-08T15:22:31.365Z</time></trkpt><trkpt lat="38.39662" lon="15.9064183"><ele>47.0</ele><time>2026-04-08T15:22:32.365Z</time></trkpt><trkpt lat="38.39632" lon="15.9063567"><ele>43.0</ele><time>2026-04-08T15:22:33.366Z</time></trkpt><trkpt lat="38.39603" lon="15.90628"><ele>43.0</ele><time>2026-04-08T15:22:34.365Z</time></trkpt><trkpt lat="38.39574" lon="15.906185"><ele>43.0</ele><time>2026-04-08T15:22:35.366Z</time></trkpt><trkpt lat="38.395455" lon="15.906075"><ele>39.0</ele><time>2026-04-08T15:22:36.365Z</time></trkpt><trkpt lat="38.3951767" lon="15.9059483"><ele>35.0</ele><time>2026-04-08T15:22:37.365Z</time></trkpt><trkpt lat="38.3949" lon="15.9058133"><ele>43.0</ele><time>2026-04-08T15:22:38.366Z</time></trkpt><trkpt lat="38.394625" lon="15.9056817"><ele>51.0</ele><time>2026-04-08T15:22:39.366Z</time></trkpt><trkpt lat="38.394345" lon="15.90555"><ele>51.0</ele><time>2026-04-08T15:22:40.366Z</time></trkpt><trkpt lat="38.39407" lon="15.90541"><ele>51.0</ele><time>2026-04-08T15:22:41.366Z</time></trkpt><trkpt lat="38.3938" lon="15.9052617"><ele>51.5</ele><time>2026-04-08T15:22:42.366Z</time></trkpt><trkpt lat="38.3935383" lon="15.9051117"><ele>52.0</ele><time>2026-04-08T15:22:43.366Z</time></trkpt><trkpt lat="38.3932733" lon="15.9049517"><ele>54.0</ele><time>2026-04-08T15:22:44.365Z</time></trkpt><trkpt lat="38.3930117" lon="15.904785"><ele>56.0</ele><time>2026-04-08T15:22:45.365Z</time></trkpt><trkpt lat="38.392755" lon="15.9046033"><ele>56.0</ele><time>2026-04-08T15:22:46.366Z</time></trkpt><trkpt lat="38.3925017" lon="15.9044167"><ele>56.0</ele><time>2026-04-08T15:22:47.365Z</time></trkpt><trkpt lat="38.3922583" lon="15.9042183"><ele>63.5</ele><time>2026-04-08T15:22:48.366Z</time></trkpt><trkpt lat="38.3920183" lon="15.9040033"><ele>71.0</ele><time>2026-04-08T15:22:49.365Z</time></trkpt><trkpt lat="38.391785" lon="15.9037833"><ele>71.0</ele><time>2026-04-08T15:22:50.365Z</time></trkpt><trkpt lat="38.3915517" lon="15.9035633"><ele>71.0</ele><time>2026-04-08T15:22:51.366Z</time></trkpt><trkpt lat="38.3913233" lon="15.9033317"><ele>77.0</ele><time>2026-04-08T15:22:52.366Z</time></trkpt><trkpt lat="38.3911083" lon="15.9031017"><ele>83.0</ele><time>2026-04-08T15:22:53.365Z</time></trkpt><trkpt lat="38.390905" lon="15.9028617"><ele>83.0</ele><time>2026-04-08T15:22:54.365Z</time></trkpt><trkpt lat="38.3906967" lon="15.9026033"><ele>83.0</ele><time>2026-04-08T15:22:55.366Z</time></trkpt><trkpt lat="38.3904883" lon="15.902335"><ele>85.5</ele><time>2026-04-08T15:22:56.366Z</time></trkpt><trkpt lat="38.390305" lon="15.902075"><ele>88.0</ele><time>2026-04-08T15:22:57.366Z</time></trkpt><trkpt lat="38.3901283" lon="15.90183"><ele>92.5</ele><time>2026-04-08T15:22:58.366Z</time></trkpt><trkpt lat="38.3899617" lon="15.9016067"><ele>97.0</ele><time>2026-04-08T15:22:59.365Z</time></trkpt><trkpt lat="38.3897883" lon="15.901395"><ele>93.33333333333334</ele><time>2026-04-08T15:23:00.365Z</time></trkpt><trkpt lat="38.3896283" lon="15.9012"><ele>89.66666666666667</ele><time>2026-04-08T15:23:01.366Z</time></trkpt><trkpt lat="38.389465" lon="15.90101"><ele>86.0</ele><time>2026-04-08T15:23:02.365Z</time></trkpt><trkpt lat="38.38931" lon="15.9008133"><ele>84.0</ele><time>2026-04-08T15:23:03.366Z</time></trkpt><trkpt lat="38.3891517" lon="15.90062"><ele>82.0</ele><time>2026-04-08T15:23:04.365Z</time></trkpt><trkpt lat="38.3889817" lon="15.90041"><ele>82.0</ele><time>2026-04-08T15:23:05.366Z</time></trkpt><trkpt lat="38.3887883" lon="15.90019"><ele>82.0</ele><time>2026-04-08T15:23:06.366Z</time></trkpt><trkpt lat="38.3885967" lon="15.8999583"><ele>82.0</ele><time>2026-04-08T15:23:07.366Z</time></trkpt><trkpt lat="38.3883967" lon="15.8996933"><ele>82.0</ele><time>2026-04-08T15:23:08.366Z</time></trkpt><trkpt lat="38.3881783" lon="15.899425"><ele>86.5</ele><time>2026-04-08T15:23:09.365Z</time></trkpt><trkpt lat="38.3879617" lon="15.8991533"><ele>91.0</ele><time>2026-04-08T15:23:10.366Z</time></trkpt><trkpt lat="38.387735" lon="15.8988667"><ele>91.0</ele><time>2026-04-08T15:23:11.365Z</time></trkpt><trkpt lat="38.3875017" lon="15.8985683"><ele>91.0</ele><time>2026-04-08T15:23:12.365Z</time></trkpt><trkpt lat="38.38726" lon="15.8982767"><ele>91.0</ele><time>2026-04-08T15:23:13.366Z</time></trkpt><trkpt lat="38.3870183" lon="15.8979783"><ele>91.0</ele><time>2026-04-08T15:23:14.366Z</time></trkpt><trkpt lat="38.386785" lon="15.8976817"><ele>91.0</ele><time>2026-04-08T15:23:15.365Z</time></trkpt><trkpt lat="38.3865567" lon="15.8973917"><ele>91.0</ele><time>2026-04-08T15:23:16.365Z</time></trkpt><trkpt lat="38.3863383" lon="15.897105"><ele>91.0</ele><time>2026-04-08T15:23:17.365Z</time></trkpt><trkpt lat="38.3861167" lon="15.8968067"><ele>91.0</ele><time>2026-04-08T15:23:18.366Z</time></trkpt><trkpt lat="38.38591" lon="15.8965067"><ele>97.5</ele><time>2026-04-08T15:23:19.365Z</time></trkpt><trkpt lat="38.3857167" lon="15.896205"><ele>104.0</ele><time>2026-04-08T15:23:20.366Z</time></trkpt><trkpt lat="38.38553" lon="15.8958933"><ele>107.5</ele><time>2026-04-08T15:23:21.365Z</time></trkpt><trkpt lat="38.3853667" lon="15.895565"><ele>111.0</ele><time>2026-04-08T15:23:22.365Z</time></trkpt><trkpt lat="38.3852017" lon="15.8952267"><ele>114.5</ele><time>2026-04-08T15:23:23.365Z</time></trkpt><trkpt lat="38.3850517" lon="15.894885"><ele>118.0</ele><time>2026-04-08T15:23:24.365Z</time></trkpt><trkpt lat="38.3849083" lon="15.89454"><ele>118.0</ele><time>2026-04-08T15:23:25.365Z</time></trkpt><trkpt lat="38.3847767" lon="15.894185"><ele>118.0</ele><time>2026-04-08T15:23:26.365Z</time></trkpt><trkpt lat="38.3846467" lon="15.8938233"><ele>118.0</ele><time>2026-04-08T15:23:27.365Z</time></trkpt><trkpt lat="38.3845217" lon="15.89347"><ele>118.0</ele><time>2026-04-08T15:23:28.365Z</time></trkpt><trkpt lat="38.3844067" lon="15.8931083"><ele>120.0</ele><time>2026-04-08T15:23:29.366Z</time></trkpt><trkpt lat="38.3842883" lon="15.89274"><ele>122.0</ele><time>2026-04-08T15:23:30.365Z</time></trkpt><trkpt lat="38.38418" lon="15.8923717"><ele>122.5</ele><time>2026-04-08T15:23:31.366Z</time></trkpt><trkpt lat="38.3840783" lon="15.8920133"><ele>123.0</ele><time>2026-04-08T15:23:32.365Z</time></trkpt><trkpt lat="38.38398" lon="15.89164"><ele>126.5</ele><time>2026-04-08T15:23:33.365Z</time></trkpt><trkpt lat="38.3838833" lon="15.8912733"><ele>130.0</ele><time>2026-04-08T15:23:34.365Z</time></trkpt><trkpt lat="38.3837767" lon="15.8908967"><ele>130.0</ele><time>2026-04-08T15:23:35.366Z</time></trkpt><trkpt lat="38.3836833" lon="15.8905183"><ele>130.0</ele><time>2026-04-08T15:23:36.366Z</time></trkpt><trkpt lat="38.383595" lon="15.8901483"><ele>132.5</ele><time>2026-04-08T15:23:37.365Z</time></trkpt><trkpt lat="38.3835083" lon="15.889775"><ele>135.0</ele><time>2026-04-08T15:23:38.365Z</time></trkpt><trkpt lat="38.383435" lon="15.8893933"><ele>136.5</ele><time>2026-04-08T15:23:39.366Z</time></trkpt><trkpt lat="38.3833617" lon="15.889005"><ele>138.0</ele><time>2026-04-08T15:23:40.365Z</time></trkpt><trkpt lat="38.3832983" lon="15.8886183"><ele>138.5</ele><time>2026-04-08T15:23:41.365Z</time></trkpt><trkpt lat="38.3832383" lon="15.88823"><ele>139.0</ele><time>2026-04-08T15:23:42.365Z</time></trkpt><trkpt lat="38.383185" lon="15.8878483"><ele>141.0</ele><time>2026-04-08T15:23:43.366Z</time></trkpt><trkpt lat="38.38314" lon="15.887465"><ele>143.0</ele><time>2026-04-08T15:23:44.366Z</time></trkpt><trkpt lat="38.3831" lon="15.8870767"><ele>146.0</ele><time>2026-04-08T15:23:45.365Z</time></trkpt><trkpt lat="38.3830633" lon="15.8866883"><ele>149.0</ele><time>2026-04-08T15:23:46.365Z</time></trkpt><trkpt lat="38.383025" lon="15.8863067"><ele>147.0</ele><time>2026-04-08T15:23:47.365Z</time></trkpt><trkpt lat="38.3829933" lon="15.8859233"><ele>145.0</ele><time>2026-04-08T15:23:48.365Z</time></trkpt><trkpt lat="38.3829633" lon="15.8855367"><ele>145.0</ele><time>2026-04-08T15:23:49.365Z</time></trkpt><trkpt lat="38.3829283" lon="15.88515"><ele>145.0</ele><time>2026-04-08T15:23:50.366Z</time></trkpt><trkpt lat="38.3828967" lon="15.8847683"><ele>147.0</ele><time>2026-04-08T15:23:51.366Z</time></trkpt><trkpt lat="38.38286" lon="15.8843817"><ele>149.0</ele><time>2026-04-08T15:23:52.365Z</time></trkpt><trkpt lat="38.3828167" lon="15.883995"><ele>151.0</ele><time>2026-04-08T15:23:53.365Z</time></trkpt><trkpt lat="38.382775" lon="15.883615"><ele>153.0</ele><time>2026-04-08T15:23:54.366Z</time></trkpt><trkpt lat="38.38273" lon="15.8832333"><ele>155.0</ele><time>2026-04-08T15:23:55.365Z</time></trkpt><trkpt lat="38.3826783" lon="15.8828433"><ele>157.0</ele><time>2026-04-08T15:23:56.365Z</time></trkpt><trkpt lat="38.382625" lon="15.8824567"><ele>160.0</ele><time>2026-04-08T15:23:57.366Z</time></trkpt><trkpt lat="38.38257" lon="15.8820767"><ele>163.0</ele><time>2026-04-08T15:23:58.366Z</time></trkpt><trkpt lat="38.3825067" lon="15.8817033"><ele>167.5</ele><time>2026-04-08T15:23:59.366Z</time></trkpt><trkpt lat="38.3824333" lon="15.8813333"><ele>172.0</ele><time>2026-04-08T15:24:00.365Z</time></trkpt><trkpt lat="38.3823733" lon="15.8809367"><ele>179.5</ele><time>2026-04-08T15:24:01.365Z</time></trkpt><trkpt lat="38.3823133" lon="15.880545"><ele>187.0</ele><time>2026-04-08T15:24:02.365Z</time></trkpt><trkpt lat="38.38225" lon="15.880175"><ele>188.5</ele><time>2026-04-08T15:24:03.365Z</time></trkpt><trkpt lat="38.3821833" lon="15.8798067"><ele>190.0</ele><time>2026-04-08T15:24:04.365Z</time></trkpt><trkpt lat="38.3821167" lon="15.8794467"><ele>199.5</ele><time>2026-04-08T15:24:05.366Z</time></trkpt><trkpt lat="38.3820533" lon="15.879105"><ele>209.0</ele><time>2026-04-08T15:24:06.365Z</time></trkpt><trkpt lat="38.3819967" lon="15.8787933"><ele>209.0</ele><time>2026-04-08T15:24:07.366Z</time></trkpt><trkpt lat="38.3819367" lon="15.8784467"><ele>209.0</ele><time>2026-04-08T15:24:08.365Z</time></trkpt><trkpt lat="38.3818783" lon="15.8780983"><ele>213.5</ele><time>2026-04-08T15:24:09.365Z</time></trkpt><trkpt lat="38.38182" lon="15.877755"><ele>218.0</ele><time>2026-04-08T15:24:10.366Z</time></trkpt><trkpt lat="38.38176" lon="15.87741"><ele>214.0</ele><time>2026-04-08T15:24:11.365Z</time></trkpt><trkpt lat="38.3756983" lon="15.8703633"><ele>211.5</ele><time>2026-04-08T15:24:36.352Z</time></trkpt><trkpt lat="38.3754317" lon="15.8701633"><ele>209.0</ele><time>2026-04-08T15:24:37.351Z</time></trkpt><trkpt lat="38.375175" lon="15.8699567"><ele>213.0</ele><time>2026-04-08T15:24:38.351Z</time></trkpt><trkpt lat="38.37493" lon="15.8697167"><ele>217.0</ele><time>2026-04-08T15:24:39.352Z</time></trkpt><trkpt lat="38.3746767" lon="15.8694767"><ele>219.5</ele><time>2026-04-08T15:24:40.351Z</time></trkpt><trkpt lat="38.3744333" lon="15.86923"><ele>222.0</ele><time>2026-04-08T15:24:41.352Z</time></trkpt><trkpt lat="38.3741767" lon="15.8690083"><ele>222.0</ele><time>2026-04-08T15:24:42.351Z</time></trkpt><trkpt lat="38.373915" lon="15.8687783"><ele>222.0</ele><time>2026-04-08T15:24:43.351Z</time></trkpt><trkpt lat="38.37366" lon="15.868565"><ele>229.0</ele><time>2026-04-08T15:24:44.352Z</time></trkpt><trkpt lat="38.3734033" lon="15.8683367"><ele>236.0</ele><time>2026-04-08T15:24:45.351Z</time></trkpt><trkpt lat="38.3731533" lon="15.8681033"><ele>234.0</ele><time>2026-04-08T15:24:46.351Z</time></trkpt><trkpt lat="38.372895" lon="15.8678767"><ele>232.0</ele><time>2026-04-08T15:24:47.352Z</time></trkpt><trkpt lat="38.37264" lon="15.8676517"><ele>234.0</ele><time>2026-04-08T15:24:48.351Z</time></trkpt><trkpt lat="38.3723733" lon="15.8674267"><ele>236.0</ele><time>2026-04-08T15:24:49.351Z</time></trkpt><trkpt lat="38.3721133" lon="15.8672"><ele>236.0</ele><time>2026-04-08T15:24:50.351Z</time></trkpt><trkpt lat="38.3718517" lon="15.8669817"><ele>236.0</ele><time>2026-04-08T15:24:51.352Z</time></trkpt><trkpt lat="38.371595" lon="15.8667733"><ele>241.0</ele><time>2026-04-08T15:24:52.351Z</time></trkpt><trkpt lat="38.3713167" lon="15.8665833"><ele>246.0</ele><time>2026-04-08T15:24:53.351Z</time></trkpt><trkpt lat="38.37104" lon="15.8664"><ele>246.0</ele><time>2026-04-08T15:24:54.352Z</time></trkpt><trkpt lat="38.3707667" lon="15.8662183"><ele>246.0</ele><time>2026-04-08T15:24:55.352Z</time></trkpt><trkpt lat="38.370485" lon="15.8660733"><ele>244.0</ele><time>2026-04-08T15:24:56.351Z</time></trkpt><trkpt lat="38.3702017" lon="15.8659383"><ele>242.0</ele><time>2026-04-08T15:24:57.352Z</time></trkpt><trkpt lat="38.36991" lon="15.865815"><ele>245.0</ele><time>2026-04-08T15:24:58.351Z</time></trkpt><trkpt lat="38.3696217" lon="15.8656967"><ele>248.0</ele><time>2026-04-08T15:24:59.351Z</time></trkpt><trkpt lat="38.369335" lon="15.8655917"><ele>248.0</ele><time>2026-04-08T15:25:00.352Z</time></trkpt><trkpt lat="38.36905" lon="15.8654983"><ele>248.0</ele><time>2026-04-08T15:25:01.351Z</time></trkpt><trkpt lat="38.368745" lon="15.8654317"><ele>249.0</ele><time>2026-04-08T15:25:02.351Z</time></trkpt><trkpt lat="38.3684467" lon="15.8653767"><ele>250.0</ele><time>2026-04-08T15:25:03.351Z</time></trkpt><trkpt lat="38.3681567" lon="15.86532"><ele>250.5</ele><time>2026-04-08T15:25:04.351Z</time></trkpt><trkpt lat="38.367865" lon="15.8652683"><ele>251.0</ele><time>2026-04-08T15:25:05.351Z</time></trkpt><trkpt lat="38.3675633" lon="15.8652567"><ele>251.0</ele><time>2026-04-08T15:25:06.352Z</time></trkpt><trkpt lat="38.36726" lon="15.8652533"><ele>251.0</ele><time>2026-04-08T15:25:07.351Z</time></trkpt><trkpt lat="38.3669517" lon="15.865245"><ele>252.5</ele><time>2026-04-08T15:25:08.352Z</time></trkpt><trkpt lat="38.366645" lon="15.8652333"><ele>254.0</ele><time>2026-04-08T15:25:09.351Z</time></trkpt><trkpt lat="38.366345" lon="15.865215"><ele>254.0</ele><time>2026-04-08T15:25:10.351Z</time></trkpt><trkpt lat="38.3660467" lon="15.8652033"><ele>254.0</ele><time>2026-04-08T15:25:11.351Z</time></trkpt><trkpt lat="38.3657517" lon="15.8651833"><ele>256.5</ele><time>2026-04-08T15:25:12.351Z</time></trkpt><trkpt lat="38.3654483" lon="15.8651683"><ele>259.0</ele><time>2026-04-08T15:25:13.351Z</time></trkpt><trkpt lat="38.3651517" lon="15.8651567"><ele>259.0</ele><time>2026-04-08T15:25:14.351Z</time></trkpt><trkpt lat="38.3648483" lon="15.865145"><ele>259.0</ele><time>2026-04-08T15:25:15.352Z</time></trkpt><trkpt lat="38.364545" lon="15.8651283"><ele>260.5</ele><time>2026-04-08T15:25:16.351Z</time></trkpt><trkpt lat="38.3642467" lon="15.8651133"><ele>262.0</ele><time>2026-04-08T15:25:17.352Z</time></trkpt><trkpt lat="38.363945" lon="15.8651017"><ele>266.5</ele><time>2026-04-08T15:25:18.352Z</time></trkpt><trkpt lat="38.36364" lon="15.8650933"><ele>271.0</ele><time>2026-04-08T15:25:19.351Z</time></trkpt><trkpt lat="38.3633333" lon="15.86508"><ele>274.5</ele><time>2026-04-08T15:25:20.351Z</time></trkpt><trkpt lat="38.3630267" lon="15.8650683"><ele>278.0</ele><time>2026-04-08T15:25:21.351Z</time></trkpt><trkpt lat="38.3627233" lon="15.86505"><ele>278.0</ele><time>2026-04-08T15:25:22.351Z</time></trkpt><trkpt lat="38.3624267" lon="15.8650333"><ele>278.0</ele><time>2026-04-08T15:25:23.351Z</time></trkpt><trkpt lat="38.3621283" lon="15.8650167"><ele>282.5</ele><time>2026-04-08T15:25:24.351Z</time></trkpt><trkpt lat="38.3618217" lon="15.8650083"><ele>287.0</ele><time>2026-04-08T15:25:25.352Z</time></trkpt><trkpt lat="38.3615117" lon="15.8649983"><ele>289.0</ele><time>2026-04-08T15:25:26.351Z</time></trkpt><trkpt lat="38.3612083" lon="15.86498"><ele>291.0</ele><time>2026-04-08T15:25:27.352Z</time></trkpt><trkpt lat="38.3608983" lon="15.86497"><ele>291.0</ele><time>2026-04-08T15:25:28.352Z</time></trkpt><trkpt lat="38.360585" lon="15.864975"><ele>291.0</ele><time>2026-04-08T15:25:29.351Z</time></trkpt><trkpt lat="38.3602867" lon="15.8649833"><ele>293.5</ele><time>2026-04-08T15:25:30.352Z</time></trkpt><trkpt lat="38.3599767" lon="15.8649983"><ele>296.0</ele><time>2026-04-08T15:25:31.351Z</time></trkpt><trkpt lat="38.3596767" lon="15.8650483"><ele>292.5</ele><time>2026-04-08T15:25:32.351Z</time></trkpt><trkpt lat="38.3593817" lon="15.8650833"><ele>289.0</ele><time>2026-04-08T15:25:33.351Z</time></trkpt><trkpt lat="38.3590883" lon="15.8651467"><ele>291.0</ele><time>2026-04-08T15:25:34.352Z</time></trkpt><trkpt lat="38.358805" lon="15.8652083"><ele>293.0</ele><time>2026-04-08T15:25:35.351Z</time></trkpt><trkpt lat="38.3585033" lon="15.865275"><ele>293.0</ele><time>2026-04-08T15:25:36.352Z</time></trkpt><trkpt lat="38.358205" lon="15.8653633"><ele>293.0</ele><time>2026-04-08T15:25:37.351Z</time></trkpt><trkpt lat="38.3579233" lon="15.865455"><ele>295.5</ele><time>2026-04-08T15:25:38.351Z</time></trkpt><trkpt lat="38.3576367" lon="15.8655867"><ele>298.0</ele><time>2026-04-08T15:25:39.351Z</time></trkpt><trkpt lat="38.3573567" lon="15.8657083"><ele>299.0</ele><time>2026-04-08T15:25:40.352Z</time></trkpt><trkpt lat="38.3570767" lon="15.8658467"><ele>300.0</ele><time>2026-04-08T15:25:41.352Z</time></trkpt><trkpt lat="38.356795" lon="15.866"><ele>298.0</ele><time>2026-04-08T15:25:42.351Z</time></trkpt><trkpt lat="38.3565017" lon="15.8661633"><ele>296.0</ele><time>2026-04-08T15:25:43.351Z</time></trkpt><trkpt lat="38.3562183" lon="15.8663417"><ele>296.0</ele><time>2026-04-08T15:25:44.351Z</time></trkpt><trkpt lat="38.3559433" lon="15.8665217"><ele>296.0</ele><time>2026-04-08T15:25:45.351Z</time></trkpt><trkpt lat="38.3556633" lon="15.8667133"><ele>299.0</ele><time>2026-04-08T15:25:46.351Z</time></trkpt><trkpt lat="38.3553917" lon="15.8669167"><ele>302.0</ele><time>2026-04-08T15:25:47.352Z</time></trkpt><trkpt lat="38.3551383" lon="15.8671167"><ele>302.0</ele><time>2026-04-08T15:25:48.352Z</time></trkpt><trkpt lat="38.3548667" lon="15.8673267"><ele>302.0</ele><time>2026-04-08T15:25:49.351Z</time></trkpt><trkpt lat="38.3546" lon="15.8675317"><ele>302.0</ele><time>2026-04-08T15:25:50.351Z</time></trkpt><trkpt lat="38.35433" lon="15.86775"><ele>302.0</ele><time>2026-04-08T15:25:51.351Z</time></trkpt><trkpt lat="38.3540567" lon="15.8679567"><ele>312.0</ele><time>2026-04-08T15:25:52.352Z</time></trkpt><trkpt lat="38.3537767" lon="15.868165"><ele>322.0</ele><time>2026-04-08T15:25:53.351Z</time></trkpt><trkpt lat="38.353485" lon="15.868365"><ele>324.5</ele><time>2026-04-08T15:25:54.352Z</time></trkpt><trkpt lat="38.3532" lon="15.8685467"><ele>327.0</ele><time>2026-04-08T15:25:55.351Z</time></trkpt><trkpt lat="38.352915" lon="15.8687383"><ele>347.0</ele><time>2026-04-08T15:25:56.351Z</time></trkpt><trkpt lat="38.35263" lon="15.8689333"><ele>367.0</ele><time>2026-04-08T15:25:57.352Z</time></trkpt><trkpt lat="38.3523483" lon="15.8691217"><ele>378.0</ele><time>2026-04-08T15:25:58.351Z</time></trkpt><trkpt lat="38.3520667" lon="15.8693117"><ele>389.0</ele><time>2026-04-08T15:25:59.352Z</time></trkpt><trkpt lat="38.343885" lon="15.868185"><ele>355.5</ele><time>2026-04-08T15:26:25.352Z</time></trkpt><trkpt lat="38.3435933" lon="15.8679967"><ele>322.0</ele><time>2026-04-08T15:26:26.352Z</time></trkpt><trkpt lat="38.3433" lon="15.86779"><ele>328.0</ele><time>2026-04-08T15:26:27.351Z</time></trkpt><trkpt lat="38.3430167" lon="15.8675733"><ele>334.0</ele><time>2026-04-08T15:26:28.351Z</time></trkpt><trkpt lat="38.34273" lon="15.86735"><ele>334.0</ele><time>2026-04-08T15:26:29.351Z</time></trkpt><trkpt lat="38.342445" lon="15.8671367"><ele>334.0</ele><time>2026-04-08T15:26:30.352Z</time></trkpt><trkpt lat="38.3421617" lon="15.866925"><ele>341.0</ele><time>2026-04-08T15:26:31.351Z</time></trkpt><trkpt lat="38.3418867" lon="15.8667117"><ele>348.0</ele><time>2026-04-08T15:26:32.351Z</time></trkpt><trkpt lat="38.3416167" lon="15.866485"><ele>341.0</ele><time>2026-04-08T15:26:33.352Z</time></trkpt><trkpt lat="38.34135" lon="15.8662583"><ele>334.0</ele><time>2026-04-08T15:26:34.352Z</time></trkpt><trkpt lat="38.3410933" lon="15.8660383"><ele>347.0</ele><time>2026-04-08T15:26:35.351Z</time></trkpt><trkpt lat="38.340835" lon="15.8658267"><ele>360.0</ele><time>2026-04-08T15:26:36.351Z</time></trkpt><trkpt lat="38.3405617" lon="15.8656067"><ele>352.0</ele><time>2026-04-08T15:26:37.351Z</time></trkpt><trkpt lat="38.3403033" lon="15.8653833"><ele>344.0</ele><time>2026-04-08T15:26:38.351Z</time></trkpt><trkpt lat="38.3400383" lon="15.865165"><ele>341.0</ele><time>2026-04-08T15:26:39.352Z</time></trkpt><trkpt lat="38.3397767" lon="15.8649517"><ele>338.0</ele><time>2026-04-08T15:26:40.351Z</time></trkpt><trkpt lat="38.3395167" lon="15.864735"><ele>338.0</ele><time>2026-04-08T15:26:41.351Z</time></trkpt><trkpt lat="38.339265" lon="15.8645183"><ele>338.0</ele><time>2026-04-08T15:26:42.352Z</time></trkpt><trkpt lat="38.3390083" lon="15.8643067"><ele>336.5</ele><time>2026-04-08T15:26:43.351Z</time></trkpt><trkpt lat="38.3387583" lon="15.864095"><ele>335.0</ele><time>2026-04-08T15:26:44.352Z</time></trkpt><trkpt lat="38.3385067" lon="15.863885"><ele>335.0</ele><time>2026-04-08T15:26:45.352Z</time></trkpt><trkpt lat="38.3382633" lon="15.8636667"><ele>335.0</ele><time>2026-04-08T15:26:46.351Z</time></trkpt><trkpt lat="38.3380133" lon="15.863445"><ele>340.5</ele><time>2026-04-08T15:26:47.351Z</time></trkpt><trkpt lat="38.337755" lon="15.863225"><ele>346.0</ele><time>2026-04-08T15:26:48.351Z</time></trkpt><trkpt lat="38.3375033" lon="15.8630117"><ele>346.0</ele><time>2026-04-08T15:26:49.352Z</time></trkpt><trkpt lat="38.3372533" lon="15.8627883"><ele>346.0</ele><time>2026-04-08T15:26:50.351Z</time></trkpt><trkpt lat="38.3369883" lon="15.8625767"><ele>353.0</ele><time>2026-04-08T15:26:51.352Z</time></trkpt><trkpt lat="38.336735" lon="15.8623633"><ele>360.0</ele><time>2026-04-08T15:26:52.351Z</time></trkpt><trkpt lat="38.3364767" lon="15.862145"><ele>360.5</ele><time>2026-04-08T15:26:53.351Z</time></trkpt><trkpt lat="38.3362117" lon="15.8619233"><ele>361.0</ele><time>2026-04-08T15:26:54.351Z</time></trkpt><trkpt lat="38.335945" lon="15.8617"><ele>365.0</ele><time>2026-04-08T15:26:55.351Z</time></trkpt><trkpt lat="38.3356867" lon="15.8614767"><ele>369.0</ele><time>2026-04-08T15:26:56.352Z</time></trkpt><trkpt lat="38.3354283" lon="15.8612433"><ele>369.0</ele><time>2026-04-08T15:26:57.351Z</time></trkpt><trkpt lat="38.3351733" lon="15.8609933"><ele>369.0</ele><time>2026-04-08T15:26:58.351Z</time></trkpt><trkpt lat="38.3349133" lon="15.86074"><ele>370.0</ele><time>2026-04-08T15:26:59.351Z</time></trkpt><trkpt lat="38.33467" lon="15.86049"><ele>371.0</ele><time>2026-04-08T15:27:00.352Z</time></trkpt><trkpt lat="38.3344267" lon="15.860225"><ele>377.0</ele><time>2026-04-08T15:27:01.351Z</time></trkpt><trkpt lat="38.3341917" lon="15.8599467"><ele>383.0</ele><time>2026-04-08T15:27:02.352Z</time></trkpt><trkpt lat="38.33396" lon="15.85966"><ele>383.5</ele><time>2026-04-08T15:27:03.351Z</time></trkpt><trkpt lat="38.333735" lon="15.8593633"><ele>384.0</ele><time>2026-04-08T15:27:04.351Z</time></trkpt><trkpt lat="38.3335217" lon="15.85906"><ele>384.0</ele><time>2026-04-08T15:27:05.352Z</time></trkpt><trkpt lat="38.3333233" lon="15.858745"><ele>384.0</ele><time>2026-04-08T15:27:06.351Z</time></trkpt><trkpt lat="38.3331217" lon="15.8584233"><ele>387.5</ele><time>2026-04-08T15:27:07.351Z</time></trkpt><trkpt lat="38.3329283" lon="15.8580883"><ele>391.0</ele><time>2026-04-08T15:27:08.351Z</time></trkpt><trkpt lat="38.3327333" lon="15.8577567"><ele>399.5</ele><time>2026-04-08T15:27:09.352Z</time></trkpt><trkpt lat="38.332545" lon="15.8574283"><ele>408.0</ele><time>2026-04-08T15:27:10.351Z</time></trkpt><trkpt lat="38.3323567" lon="15.8570967"><ele>412.5</ele><time>2026-04-08T15:27:11.352Z</time></trkpt><trkpt lat="38.3321667" lon="15.8567683"><ele>417.0</ele><time>2026-04-08T15:27:12.352Z</time></trkpt><trkpt lat="38.3319783" lon="15.8564417"><ele>483.0</ele><time>2026-04-08T15:27:13.351Z</time></trkpt><trkpt lat="38.3141567" lon="15.84252"><ele>482.5</ele><time>2026-04-08T15:28:21.35Z</time></trkpt><trkpt lat="38.3138033" lon="15.84265"><ele>482.0</ele><time>2026-04-08T15:28:22.35Z</time></trkpt><trkpt lat="38.3134683" lon="15.8427883"><ele>482.0</ele><time>2026-04-08T15:28:23.35Z</time></trkpt><trkpt lat="38.3131217" lon="15.8429533"><ele>482.0</ele><time>2026-04-08T15:28:24.35Z</time></trkpt><trkpt lat="38.31278" lon="15.8431"><ele>480.5</ele><time>2026-04-08T15:28:25.351Z</time></trkpt><trkpt lat="38.3124417" lon="15.8432317"><ele>479.0</ele><time>2026-04-08T15:28:26.35Z</time></trkpt><trkpt lat="38.3121083" lon="15.8433533"><ele>477.5</ele><time>2026-04-08T15:28:27.35Z</time></trkpt><trkpt lat="38.3117817" lon="15.8434633"><ele>476.0</ele><time>2026-04-08T15:28:28.351Z</time></trkpt><trkpt lat="38.3114483" lon="15.8435683"><ele>477.0</ele><time>2026-04-08T15:28:29.35Z</time></trkpt><trkpt lat="38.311115" lon="15.843665"><ele>478.0</ele><time>2026-04-08T15:28:30.35Z</time></trkpt><trkpt lat="38.3107767" lon="15.8437517"><ele>479.0</ele><time>2026-04-08T15:28:31.35Z</time></trkpt><trkpt lat="38.310445" lon="15.8438267"><ele>480.0</ele><time>2026-04-08T15:28:32.35Z</time></trkpt><trkpt lat="38.3101117" lon="15.843895"><ele>480.0</ele><time>2026-04-08T15:28:33.35Z</time></trkpt><trkpt lat="38.309785" lon="15.8439583"><ele>480.0</ele><time>2026-04-08T15:28:34.351Z</time></trkpt><trkpt lat="38.309465" lon="15.84402"><ele>480.5</ele><time>2026-04-08T15:28:35.351Z</time></trkpt><trkpt lat="38.3091417" lon="15.8440617"><ele>481.0</ele><time>2026-04-08T15:28:36.351Z</time></trkpt><trkpt lat="38.3088217" lon="15.8440917"><ele>481.0</ele><time>2026-04-08T15:28:37.351Z</time></trkpt><trkpt lat="38.3085017" lon="15.8441233"><ele>481.0</ele><time>2026-04-08T15:28:38.351Z</time></trkpt><trkpt lat="38.30819" lon="15.84415"><ele>482.0</ele><time>2026-04-08T15:28:39.35Z</time></trkpt><trkpt lat="38.307885" lon="15.8441683"><ele>483.0</ele><time>2026-04-08T15:28:40.35Z</time></trkpt><trkpt lat="38.3075783" lon="15.8441717"><ele>483.0</ele><time>2026-04-08T15:28:41.35Z</time></trkpt><trkpt lat="38.3072717" lon="15.8441717"><ele>483.0</ele><time>2026-04-08T15:28:42.351Z</time></trkpt><trkpt lat="38.306965" lon="15.8441617"><ele>484.5</ele><time>2026-04-08T15:28:43.351Z</time></trkpt><trkpt lat="38.3066567" lon="15.8441467"><ele>486.0</ele><time>2026-04-08T15:28:44.35Z</time></trkpt><trkpt lat="38.3063483" lon="15.8441233"><ele>487.0</ele><time>2026-04-08T15:28:45.351Z</time></trkpt><trkpt lat="38.30604" lon="15.8441"><ele>488.0</ele><time>2026-04-08T15:28:46.35Z</time></trkpt><trkpt lat="38.3057333" lon="15.8440717"><ele>488.5</ele><time>2026-04-08T15:28:47.351Z</time></trkpt><trkpt lat="38.3054233" lon="15.8440333"><ele>489.0</ele><time>2026-04-08T15:28:48.35Z</time></trkpt><trkpt lat="38.3051133" lon="15.8439833"><ele>489.0</ele><time>2026-04-08T15:28:49.35Z</time></trkpt><trkpt lat="38.304815" lon="15.8439317"><ele>489.0</ele><time>2026-04-08T15:28:50.351Z</time></trkpt><trkpt lat="38.3045167" lon="15.843885"><ele>490.5</ele><time>2026-04-08T15:28:51.35Z</time></trkpt><trkpt lat="38.3042083" lon="15.8438483"><ele>492.0</ele><time>2026-04-08T15:28:52.35Z</time></trkpt><trkpt lat="38.303895" lon="15.8438033"><ele>495.0</ele><time>2026-04-08T15:28:53.351Z</time></trkpt><trkpt lat="38.3035867" lon="15.8437417"><ele>498.0</ele><time>2026-04-08T15:28:54.351Z</time></trkpt><trkpt lat="38.303265" lon="15.8436883"><ele>499.5</ele><time>2026-04-08T15:28:55.35Z</time></trkpt><trkpt lat="38.302945" lon="15.8436467"><ele>501.0</ele><time>2026-04-08T15:28:56.35Z</time></trkpt><trkpt lat="38.3026167" lon="15.8435783"><ele>501.0</ele><time>2026-04-08T15:28:57.35Z</time></trkpt><trkpt lat="38.302295" lon="15.8435167"><ele>501.0</ele><time>2026-04-08T15:28:58.35Z</time></trkpt><trkpt lat="38.30197" lon="15.8434567"><ele>500.0</ele><time>2026-04-08T15:28:59.35Z</time></trkpt><trkpt lat="38.301645" lon="15.843395"><ele>499.0</ele><time>2026-04-08T15:29:00.35Z</time></trkpt><trkpt lat="38.30131" lon="15.8433333"><ele>499.0</ele><time>2026-04-08T15:29:01.351Z</time></trkpt><trkpt lat="38.300955" lon="15.84328"><ele>499.0</ele><time>2026-04-08T15:29:02.35Z</time></trkpt><trkpt lat="38.3006167" lon="15.8432267"><ele>510.0</ele><time>2026-04-08T15:29:03.35Z</time></trkpt><trkpt lat="38.3002817" lon="15.843165"><ele>521.0</ele><time>2026-04-08T15:29:04.351Z</time></trkpt><trkpt lat="38.2999533" lon="15.8430867"><ele>529.0</ele><time>2026-04-08T15:29:05.35Z</time></trkpt><trkpt lat="38.2996217" lon="15.8430233"><ele>537.0</ele><time>2026-04-08T15:29:06.35Z</time></trkpt><trkpt lat="38.2992883" lon="15.84296"><ele>537.0</ele><time>2026-04-08T15:29:07.351Z</time></trkpt><trkpt lat="38.298955" lon="15.8428967"><ele>537.0</ele><time>2026-04-08T15:29:08.351Z</time></trkpt><trkpt lat="38.29445" lon="15.83989"><ele>514.5</ele><time>2026-04-08T15:29:24.35Z</time></trkpt><trkpt lat="38.2941867" lon="15.839595"><ele>492.0</ele><time>2026-04-08T15:29:25.35Z</time></trkpt><trkpt lat="38.2939417" lon="15.839295"><ele>483.5</ele><time>2026-04-08T15:29:26.35Z</time></trkpt><trkpt lat="38.2937067" lon="15.838995"><ele>475.0</ele><time>2026-04-08T15:29:27.351Z</time></trkpt><trkpt lat="38.293475" lon="15.838685"><ele>481.5</ele><time>2026-04-08T15:29:28.35Z</time></trkpt><trkpt lat="38.293255" lon="15.8383683"><ele>488.0</ele><time>2026-04-08T15:29:29.351Z</time></trkpt><trkpt lat="38.29304" lon="15.83805"><ele>496.0</ele><time>2026-04-08T15:29:30.35Z</time></trkpt><trkpt lat="38.2928267" lon="15.837725"><ele>504.0</ele><time>2026-04-08T15:29:31.35Z</time></trkpt><trkpt lat="38.292615" lon="15.8374"><ele>504.0</ele><time>2026-04-08T15:29:32.35Z</time></trkpt><trkpt lat="38.29241" lon="15.8370733"><ele>504.0</ele><time>2026-04-08T15:29:33.35Z</time></trkpt><trkpt lat="38.2922183" lon="15.836745"><ele>502.0</ele><time>2026-04-08T15:29:34.351Z</time></trkpt><trkpt lat="38.2920183" lon="15.8364233"><ele>500.0</ele><time>2026-04-08T15:29:35.35Z</time></trkpt><trkpt lat="38.29183" lon="15.8360867"><ele>495.5</ele><time>2026-04-08T15:29:36.35Z</time></trkpt><trkpt lat="38.291665" lon="15.8356767"><ele>491.0</ele><time>2026-04-08T15:29:37.35Z</time></trkpt><trkpt lat="38.2914633" lon="15.8352983"><ele>496.0</ele><time>2026-04-08T15:29:38.351Z</time></trkpt><trkpt lat="38.2912517" lon="15.8349333"><ele>501.0</ele><time>2026-04-08T15:29:39.35Z</time></trkpt><trkpt lat="38.2910517" lon="15.8345767"><ele>503.0</ele><time>2026-04-08T15:29:40.35Z</time></trkpt><trkpt lat="38.29086" lon="15.83422"><ele>505.0</ele><time>2026-04-08T15:29:41.351Z</time></trkpt><trkpt lat="38.2906683" lon="15.83387"><ele>512.0</ele><time>2026-04-08T15:29:42.351Z</time></trkpt><trkpt lat="38.290475" lon="15.83352"><ele>519.0</ele><time>2026-04-08T15:29:43.35Z</time></trkpt><trkpt lat="38.2902783" lon="15.8331783"><ele>519.5</ele><time>2026-04-08T15:29:44.351Z</time></trkpt><trkpt lat="38.290085" lon="15.8328333"><ele>520.0</ele><time>2026-04-08T15:29:45.351Z</time></trkpt><trkpt lat="38.2898933" lon="15.8324867"><ele>478.0</ele><time>2026-04-08T15:29:46.35Z</time></trkpt><trkpt lat="38.2841967" lon="15.82128"><ele>477.5</ele><time>2026-04-08T15:30:17.353Z</time></trkpt><trkpt lat="38.28401" lon="15.8209317"><ele>477.0</ele><time>2026-04-08T15:30:18.353Z</time></trkpt><trkpt lat="38.283825" lon="15.8205733"><ele>471.0</ele><time>2026-04-08T15:30:19.354Z</time></trkpt><trkpt lat="38.283635" lon="15.8202217"><ele>465.0</ele><time>2026-04-08T15:30:20.354Z</time></trkpt><trkpt lat="38.2809283" lon="15.8160333"><ele>462.0</ele><time>2026-04-08T15:30:32.352Z</time></trkpt><trkpt lat="38.280675" lon="15.8157783"><ele>459.0</ele><time>2026-04-08T15:30:33.352Z</time></trkpt><trkpt lat="38.28041" lon="15.815535"><ele>478.5</ele><time>2026-04-08T15:30:34.351Z</time></trkpt><trkpt lat="38.2801467" lon="15.8152633"><ele>498.0</ele><time>2026-04-08T15:30:35.351Z</time></trkpt><trkpt lat="38.2798817" lon="15.8149983"><ele>512.0</ele><time>2026-04-08T15:30:36.351Z</time></trkpt><trkpt lat="38.2796167" lon="15.81473"><ele>526.0</ele><time>2026-04-08T15:30:37.351Z</time></trkpt><trkpt lat="38.2793467" lon="15.8144533"><ele>527.0</ele><time>2026-04-08T15:30:38.351Z</time></trkpt><trkpt lat="38.27907" lon="15.8141683"><ele>528.0</ele><time>2026-04-08T15:30:39.351Z</time></trkpt><trkpt lat="38.278795" lon="15.8138783"><ele>528.0</ele><time>2026-04-08T15:30:40.352Z</time></trkpt><trkpt lat="38.27852" lon="15.8135833"><ele>528.0</ele><time>2026-04-08T15:30:41.352Z</time></trkpt><trkpt lat="38.2782417" lon="15.813285"><ele>526.5</ele><time>2026-04-08T15:30:42.351Z</time></trkpt><trkpt lat="38.27796" lon="15.8129833"><ele>525.0</ele><time>2026-04-08T15:30:43.351Z</time></trkpt><trkpt lat="38.2776767" lon="15.8126767"><ele>523.0</ele><time>2026-04-08T15:30:44.352Z</time></trkpt><trkpt lat="38.27739" lon="15.8123683"><ele>521.0</ele><time>2026-04-08T15:30:45.352Z</time></trkpt><trkpt lat="38.2771033" lon="15.8120583"><ele>505.5</ele><time>2026-04-08T15:30:46.351Z</time></trkpt><trkpt lat="38.276815" lon="15.8117483"><ele>490.0</ele><time>2026-04-08T15:30:47.351Z</time></trkpt><trkpt lat="38.276525" lon="15.811435"><ele>422.0</ele><time>2026-04-08T15:30:48.352Z</time></trkpt><trkpt lat="38.2724167" lon="15.8070383"><ele>350.0</ele><time>2026-04-08T15:31:02.354Z</time></trkpt><trkpt lat="38.272115" lon="15.8064283"><ele>334.5</ele><time>2026-04-08T15:31:03.354Z</time></trkpt><trkpt lat="38.2719467" lon="15.80592"><ele>319.0</ele><time>2026-04-08T15:31:04.354Z</time></trkpt><trkpt lat="38.271805" lon="15.805445"><ele>304.0</ele><time>2026-04-08T15:31:05.353Z</time></trkpt><trkpt lat="38.2716867" lon="15.8050233"><ele>289.0</ele><time>2026-04-08T15:31:06.354Z</time></trkpt><trkpt lat="38.2715733" lon="15.8046083"><ele>266.5</ele><time>2026-04-08T15:31:07.353Z</time></trkpt><trkpt lat="38.271455" lon="15.8042033"><ele>244.0</ele><time>2026-04-08T15:31:08.353Z</time></trkpt><trkpt lat="38.2713467" lon="15.8038133"><ele>216.5</ele><time>2026-04-08T15:31:09.353Z</time></trkpt><trkpt lat="38.27123" lon="15.8034217"><ele>189.0</ele><time>2026-04-08T15:31:10.353Z</time></trkpt><trkpt lat="38.2711217" lon="15.8030233"><ele>194.5</ele><time>2026-04-08T15:31:11.354Z</time></trkpt><trkpt lat="38.27099" lon="15.80261"><ele>200.0</ele><time>2026-04-08T15:31:12.354Z</time></trkpt><trkpt lat="38.27086" lon="15.8021883"><ele>215.0</ele><time>2026-04-08T15:31:13.354Z</time></trkpt><trkpt lat="38.2707333" lon="15.80176"><ele>230.0</ele><time>2026-04-08T15:31:14.353Z</time></trkpt><trkpt lat="38.2706033" lon="15.8013167"><ele>255.5</ele><time>2026-04-08T15:31:15.353Z</time></trkpt><trkpt lat="38.2704767" lon="15.8008767"><ele>281.0</ele><time>2026-04-08T15:31:16.353Z</time></trkpt><trkpt lat="38.27035" lon="15.8004283"><ele>330.0</ele><time>2026-04-08T15:31:17.354Z</time></trkpt><trkpt lat="38.2702283" lon="15.7999717"><ele>379.0</ele><time>2026-04-08T15:31:18.354Z</time></trkpt><trkpt lat="38.2701183" lon="15.79952"><ele>394.0</ele><time>2026-04-08T15:31:19.353Z</time></trkpt><trkpt lat="38.2700117" lon="15.799055"><ele>409.0</ele><time>2026-04-08T15:31:20.354Z</time></trkpt><trkpt lat="38.2699017" lon="15.798605"><ele>426.5</ele><time>2026-04-08T15:31:21.354Z</time></trkpt><trkpt lat="38.2697983" lon="15.7981633"><ele>444.0</ele><time>2026-04-08T15:31:22.353Z</time></trkpt><trkpt lat="38.269695" lon="15.797725"><ele>476.0</ele><time>2026-04-08T15:31:23.354Z</time></trkpt><trkpt lat="38.2695917" lon="15.7972833"><ele>508.0</ele><time>2026-04-08T15:31:24.353Z</time></trkpt><trkpt lat="38.26949" lon="15.7968533"><ele>375.0</ele><time>2026-04-08T15:31:25.353Z</time></trkpt><trkpt lat="38.265265" lon="15.7849683"><ele>375.0</ele><time>2026-04-08T15:31:49.351Z</time></trkpt><trkpt lat="38.2650283" lon="15.7845083"><ele>375.0</ele><time>2026-04-08T15:31:50.352Z</time></trkpt><trkpt lat="38.2647917" lon="15.7840167"><ele>442.0</ele><time>2026-04-08T15:31:51.351Z</time></trkpt><trkpt lat="38.2645583" lon="15.783525"><ele>472.0</ele><time>2026-04-08T15:31:52.351Z</time></trkpt><trkpt lat="38.2643233" lon="15.7830317"><ele>476.0</ele><time>2026-04-08T15:31:53.351Z</time></trkpt><trkpt lat="38.26409" lon="15.78254"><ele>502.0</ele><time>2026-04-08T15:31:54.351Z</time></trkpt><trkpt lat="38.2638567" lon="15.7820467"><ele>323.0</ele><time>2026-04-08T15:31:55.351Z</time></trkpt><trkpt lat="38.26236" lon="15.7791033"><ele>332.0</ele><time>2026-04-08T15:32:01.352Z</time></trkpt><trkpt lat="38.2621033" lon="15.7787483"><ele>341.0</ele><time>2026-04-08T15:32:02.352Z</time></trkpt><trkpt lat="38.26182" lon="15.778365"><ele>343.0</ele><time>2026-04-08T15:32:03.353Z</time></trkpt><trkpt lat="38.2615783" lon="15.7779367"><ele>345.0</ele><time>2026-04-08T15:32:04.352Z</time></trkpt><trkpt lat="38.26134" lon="15.7775117"><ele>237.0</ele><time>2026-04-08T15:32:05.353Z</time></trkpt><trkpt lat="38.25534" lon="15.768955"><ele>226.5</ele><time>2026-04-08T15:32:26.352Z</time></trkpt><trkpt lat="38.2551217" lon="15.768475"><ele>216.0</ele><time>2026-04-08T15:32:27.351Z</time></trkpt><trkpt lat="38.2549083" lon="15.7680167"><ele>204.5</ele><time>2026-04-08T15:32:28.352Z</time></trkpt><trkpt lat="38.2547183" lon="15.7675383"><ele>193.0</ele><time>2026-04-08T15:32:29.351Z</time></trkpt><trkpt lat="38.2545383" lon="15.7670583"><ele>211.0</ele><time>2026-04-08T15:32:30.351Z</time></trkpt><trkpt lat="38.2543767" lon="15.7665533"><ele>229.0</ele><time>2026-04-08T15:32:31.351Z</time></trkpt><trkpt lat="38.254205" lon="15.766055"><ele>242.0</ele><time>2026-04-08T15:32:32.352Z</time></trkpt><trkpt lat="38.2540467" lon="15.7655583"><ele>255.0</ele><time>2026-04-08T15:32:33.352Z</time></trkpt><trkpt lat="38.253895" lon="15.7650717"><ele>291.0</ele><time>2026-04-08T15:32:34.351Z</time></trkpt><trkpt lat="38.25373" lon="15.764565"><ele>327.0</ele><time>2026-04-08T15:32:35.352Z</time></trkpt><trkpt lat="38.2535783" lon="15.7640567"><ele>340.5</ele><time>2026-04-08T15:32:36.352Z</time></trkpt><trkpt lat="38.253425" lon="15.7635467"><ele>354.0</ele><time>2026-04-08T15:32:37.351Z</time></trkpt><trkpt lat="38.2532783" lon="15.76304"><ele>371.0</ele><time>2026-04-08T15:32:38.352Z</time></trkpt><trkpt lat="38.2531283" lon="15.7625317"><ele>388.0</ele><time>2026-04-08T15:32:39.351Z</time></trkpt><trkpt lat="38.2506633" lon="15.7446133"><ele>287.5</ele><time>2026-04-08T15:33:10.351Z</time></trkpt><trkpt lat="38.2505967" lon="15.7441117"><ele>187.0</ele><time>2026-04-08T15:33:11.352Z</time></trkpt><trkpt lat="38.2505283" lon="15.743635"><ele>193.0</ele><time>2026-04-08T15:33:12.351Z</time></trkpt><trkpt lat="38.2504617" lon="15.7431567"><ele>199.0</ele><time>2026-04-08T15:33:13.351Z</time></trkpt><trkpt lat="38.2503817" lon="15.7426667"><ele>233.0</ele><time>2026-04-08T15:33:14.351Z</time></trkpt><trkpt lat="38.2503083" lon="15.7421767"><ele>267.0</ele><time>2026-04-08T15:33:15.352Z</time></trkpt><trkpt lat="38.2502267" lon="15.7416933"><ele>291.0</ele><time>2026-04-08T15:33:16.351Z</time></trkpt><trkpt lat="38.25014" lon="15.741205"><ele>315.0</ele><time>2026-04-08T15:33:17.351Z</time></trkpt><trkpt lat="38.2500533" lon="15.7407167"><ele>148.0</ele><time>2026-04-08T15:33:18.352Z</time></trkpt><trkpt lat="38.248695" lon="15.7316867"><ele>148.0</ele><time>2026-04-08T15:33:33.351Z</time></trkpt><trkpt lat="38.2486683" lon="15.7310583"><ele>167.0</ele><time>2026-04-08T15:33:34.35Z</time></trkpt><trkpt lat="38.248645" lon="15.7304683"><ele>170.0</ele><time>2026-04-08T15:33:35.35Z</time></trkpt><trkpt lat="38.2486183" lon="15.72992"><ele>173.0</ele><time>2026-04-08T15:33:36.35Z</time></trkpt><trkpt lat="38.2486083" lon="15.729395"><ele>169.0</ele><time>2026-04-08T15:33:37.35Z</time></trkpt><trkpt lat="38.2486" lon="15.728885"><ele>165.0</ele><time>2026-04-08T15:33:38.35Z</time></trkpt><trkpt lat="38.2485933" lon="15.728385"><ele>161.5</ele><time>2026-04-08T15:33:39.35Z</time></trkpt><trkpt lat="38.2485683" lon="15.7279"><ele>158.0</ele><time>2026-04-08T15:33:40.351Z</time></trkpt><trkpt lat="38.2485483" lon="15.7274283"><ele>149.5</ele><time>2026-04-08T15:33:41.351Z</time></trkpt><trkpt lat="38.2485383" lon="15.72696"><ele>141.0</ele><time>2026-04-08T15:33:42.351Z</time></trkpt><trkpt lat="38.2485267" lon="15.7265067"><ele>147.5</ele><time>2026-04-08T15:33:43.351Z</time></trkpt><trkpt lat="38.248515" lon="15.7260533"><ele>154.0</ele><time>2026-04-08T15:33:44.351Z</time></trkpt><trkpt lat="38.2485083" lon="15.725605"><ele>155.0</ele><time>2026-04-08T15:33:45.35Z</time></trkpt><trkpt lat="38.2485067" lon="15.72516"><ele>156.0</ele><time>2026-04-08T15:33:46.351Z</time></trkpt><trkpt lat="38.24851" lon="15.724715"><ele>153.0</ele><time>2026-04-08T15:33:47.35Z</time></trkpt><trkpt lat="38.2485183" lon="15.72427"><ele>150.0</ele><time>2026-04-08T15:33:48.351Z</time></trkpt><trkpt lat="38.2485233" lon="15.7238333"><ele>149.5</ele><time>2026-04-08T15:33:49.35Z</time></trkpt><trkpt lat="38.2485267" lon="15.7234083"><ele>149.0</ele><time>2026-04-08T15:33:50.35Z</time></trkpt><trkpt lat="38.2485317" lon="15.72299"><ele>145.0</ele><time>2026-04-08T15:33:51.351Z</time></trkpt><trkpt lat="38.2485383" lon="15.7225733"><ele>141.0</ele><time>2026-04-08T15:33:52.35Z</time></trkpt><trkpt lat="38.2485467" lon="15.72216"><ele>141.5</ele><time>2026-04-08T15:33:53.351Z</time></trkpt><trkpt lat="38.24855" lon="15.7217383"><ele>142.0</ele><time>2026-04-08T15:33:54.351Z</time></trkpt><trkpt lat="38.2485617" lon="15.7213283"><ele>145.5</ele><time>2026-04-08T15:33:55.351Z</time></trkpt><trkpt lat="38.24857" lon="15.7209117"><ele>149.0</ele><time>2026-04-08T15:33:56.35Z</time></trkpt><trkpt lat="38.2485817" lon="15.7205033"><ele>148.0</ele><time>2026-04-08T15:33:57.351Z</time></trkpt><trkpt lat="38.2485867" lon="15.7201"><ele>147.0</ele><time>2026-04-08T15:33:58.351Z</time></trkpt><trkpt lat="38.2485983" lon="15.719695"><ele>148.5</ele><time>2026-04-08T15:33:59.351Z</time></trkpt><trkpt lat="38.2486167" lon="15.719295"><ele>150.0</ele><time>2026-04-08T15:34:00.35Z</time></trkpt><trkpt lat="38.2486367" lon="15.718895"><ele>152.0</ele><time>2026-04-08T15:34:01.351Z</time></trkpt><trkpt lat="38.2486467" lon="15.7185017"><ele>154.0</ele><time>2026-04-08T15:34:02.35Z</time></trkpt><trkpt lat="38.24865" lon="15.7181067"><ele>157.5</ele><time>2026-04-08T15:34:03.351Z</time></trkpt><trkpt lat="38.2486583" lon="15.7177133"><ele>161.0</ele><time>2026-04-08T15:34:04.35Z</time></trkpt><trkpt lat="38.2486433" lon="15.7173183"><ele>161.0</ele><time>2026-04-08T15:34:05.351Z</time></trkpt><trkpt lat="38.2486317" lon="15.7169283"><ele>161.0</ele><time>2026-04-08T15:34:06.35Z</time></trkpt><trkpt lat="38.2486" lon="15.7165417"><ele>158.0</ele><time>2026-04-08T15:34:07.35Z</time></trkpt><trkpt lat="38.248555" lon="15.7161583"><ele>155.0</ele><time>2026-04-08T15:34:08.35Z</time></trkpt><trkpt lat="38.2485067" lon="15.7157933"><ele>143.0</ele><time>2026-04-08T15:34:09.351Z</time></trkpt><trkpt lat="38.2484617" lon="15.71542"><ele>131.0</ele><time>2026-04-08T15:34:10.35Z</time></trkpt><trkpt lat="38.24841" lon="15.7150483"><ele>122.0</ele><time>2026-04-08T15:34:11.35Z</time></trkpt><trkpt lat="38.2483567" lon="15.71467"><ele>113.0</ele><time>2026-04-08T15:34:12.351Z</time></trkpt><trkpt lat="38.24831" lon="15.7142933"><ele>113.0</ele><time>2026-04-08T15:34:13.351Z</time></trkpt><trkpt lat="38.2482583" lon="15.7139133"><ele>113.0</ele><time>2026-04-08T15:34:14.35Z</time></trkpt><trkpt lat="38.24821" lon="15.7135317"><ele>125.0</ele><time>2026-04-08T15:34:15.351Z</time></trkpt><trkpt lat="38.2481617" lon="15.7131467"><ele>137.0</ele><time>2026-04-08T15:34:16.35Z</time></trkpt><trkpt lat="38.2481133" lon="15.7127567"><ele>165.0</ele><time>2026-04-08T15:34:17.35Z</time></trkpt><trkpt lat="38.248065" lon="15.7123567"><ele>193.0</ele><time>2026-04-08T15:34:18.351Z</time></trkpt><trkpt lat="38.2480133" lon="15.71196"><ele>201.5</ele><time>2026-04-08T15:34:19.35Z</time></trkpt><trkpt lat="38.2479617" lon="15.7115617"><ele>210.0</ele><time>2026-04-08T15:34:20.35Z</time></trkpt><trkpt lat="38.2479117" lon="15.711165"><ele>166.0</ele><time>2026-04-08T15:34:21.351Z</time></trkpt><trkpt lat="38.2477867" lon="15.7095733"><ele>170.5</ele><time>2026-04-08T15:34:25.352Z</time></trkpt><trkpt lat="38.247745" lon="15.7091783"><ele>175.0</ele><time>2026-04-08T15:34:26.352Z</time></trkpt><trkpt lat="38.2477" lon="15.7087783"><ele>197.0</ele><time>2026-04-08T15:34:27.352Z</time></trkpt><trkpt lat="38.247655" lon="15.7083767"><ele>219.0</ele><time>2026-04-08T15:34:28.352Z</time></trkpt><trkpt lat="38.24761" lon="15.7079733"><ele>235.0</ele><time>2026-04-08T15:34:29.352Z</time></trkpt><trkpt lat="38.2475667" lon="15.70757"><ele>251.0</ele><time>2026-04-08T15:34:30.353Z</time></trkpt><trkpt lat="38.24482" lon="15.6894133"><ele>190.0</ele><time>2026-04-08T15:35:18.354Z</time></trkpt><trkpt lat="38.2446917" lon="15.68907"><ele>129.0</ele><time>2026-04-08T15:35:19.354Z</time></trkpt><trkpt lat="38.2445567" lon="15.6887233"><ele>139.0</ele><time>2026-04-08T15:35:20.353Z</time></trkpt><trkpt lat="38.2444167" lon="15.688375"><ele>149.0</ele><time>2026-04-08T15:35:21.354Z</time></trkpt><trkpt lat="38.2442833" lon="15.6880417"><ele>153.5</ele><time>2026-04-08T15:35:22.354Z</time></trkpt><trkpt lat="38.2441483" lon="15.687705"><ele>158.0</ele><time>2026-04-08T15:35:23.354Z</time></trkpt><trkpt lat="38.24401" lon="15.687365"><ele>175.0</ele><time>2026-04-08T15:35:24.354Z</time></trkpt><trkpt lat="38.243875" lon="15.6870267"><ele>192.0</ele><time>2026-04-08T15:35:25.353Z</time></trkpt><trkpt lat="38.24374" lon="15.6866883"><ele>192.0</ele><time>2026-04-08T15:35:26.354Z</time></trkpt><trkpt lat="38.243605" lon="15.68635"><ele>192.0</ele><time>2026-04-08T15:35:27.354Z</time></trkpt><trkpt lat="38.2403833" lon="15.68114"><ele>157.5</ele><time>2026-04-08T15:35:44.351Z</time></trkpt><trkpt lat="38.2401183" lon="15.6809133"><ele>123.0</ele><time>2026-04-08T15:35:45.351Z</time></trkpt><trkpt lat="38.2398533" lon="15.680705"><ele>119.5</ele><time>2026-04-08T15:35:46.351Z</time></trkpt><trkpt lat="38.239595" lon="15.6805"><ele>116.0</ele><time>2026-04-08T15:35:47.352Z</time></trkpt><trkpt lat="38.239335" lon="15.680285"><ele>111.0</ele><time>2026-04-08T15:35:48.351Z</time></trkpt><trkpt lat="38.23907" lon="15.680075"><ele>106.0</ele><time>2026-04-08T15:35:49.351Z</time></trkpt><trkpt lat="38.2388217" lon="15.67987"><ele>106.0</ele><time>2026-04-08T15:35:50.351Z</time></trkpt><trkpt lat="38.2385667" lon="15.679635"><ele>106.0</ele><time>2026-04-08T15:35:51.352Z</time></trkpt><trkpt lat="38.2383067" lon="15.6793983"><ele>119.5</ele><time>2026-04-08T15:35:52.351Z</time></trkpt><trkpt lat="38.23806" lon="15.6791617"><ele>133.0</ele><time>2026-04-08T15:35:53.351Z</time></trkpt><trkpt lat="38.2378267" lon="15.6789067"><ele>133.0</ele><time>2026-04-08T15:35:54.351Z</time></trkpt><trkpt lat="38.2376183" lon="15.6786433"><ele>133.0</ele><time>2026-04-08T15:35:55.351Z</time></trkpt><trkpt lat="38.23742" lon="15.6783617"><ele>137.5</ele><time>2026-04-08T15:35:56.352Z</time></trkpt><trkpt lat="38.23722" lon="15.6780783"><ele>142.0</ele><time>2026-04-08T15:35:57.351Z</time></trkpt><trkpt lat="38.2370267" lon="15.677775"><ele>132.5</ele><time>2026-04-08T15:35:58.351Z</time></trkpt><trkpt lat="38.236845" lon="15.677465"><ele>123.0</ele><time>2026-04-08T15:35:59.352Z</time></trkpt><trkpt lat="38.2366767" lon="15.6771517"><ele>123.0</ele><time>2026-04-08T15:36:00.351Z</time></trkpt><trkpt lat="38.236515" lon="15.6768183"><ele>123.0</ele><time>2026-04-08T15:36:01.352Z</time></trkpt><trkpt lat="38.2363667" lon="15.6764767"><ele>123.0</ele><time>2026-04-08T15:36:02.352Z</time></trkpt><trkpt lat="38.2362233" lon="15.6761383"><ele>123.0</ele><time>2026-04-08T15:36:03.352Z</time></trkpt><trkpt lat="38.2360633" lon="15.6758117"><ele>114.5</ele><time>2026-04-08T15:36:04.351Z</time></trkpt><trkpt lat="38.2359167" lon="15.675475"><ele>106.0</ele><time>2026-04-08T15:36:05.352Z</time></trkpt><trkpt lat="38.2357683" lon="15.6751367"><ele>120.0</ele><time>2026-04-08T15:36:06.352Z</time></trkpt><trkpt lat="38.23562" lon="15.6747967"><ele>134.0</ele><time>2026-04-08T15:36:07.351Z</time></trkpt><trkpt lat="38.2354733" lon="15.6744567"><ele>128.0</ele><time>2026-04-08T15:36:08.351Z</time></trkpt><trkpt lat="38.2353233" lon="15.6741117"><ele>122.0</ele><time>2026-04-08T15:36:09.352Z</time></trkpt><trkpt lat="38.2351733" lon="15.6737683"><ele>115.0</ele><time>2026-04-08T15:36:10.351Z</time></trkpt><trkpt lat="38.2350133" lon="15.673435"><ele>108.0</ele><time>2026-04-08T15:36:11.351Z</time></trkpt><trkpt lat="38.2348617" lon="15.6731"><ele>117.0</ele><time>2026-04-08T15:36:12.351Z</time></trkpt><trkpt lat="38.2347117" lon="15.67276"><ele>126.0</ele><time>2026-04-08T15:36:13.352Z</time></trkpt><trkpt lat="38.2345583" lon="15.6724133"><ele>126.0</ele><time>2026-04-08T15:36:14.351Z</time></trkpt><trkpt lat="38.23441" lon="15.6720733"><ele>126.0</ele><time>2026-04-08T15:36:15.351Z</time></trkpt><trkpt lat="38.234275" lon="15.671725"><ele>121.5</ele><time>2026-04-08T15:36:16.352Z</time></trkpt><trkpt lat="38.2341283" lon="15.6713733"><ele>117.0</ele><time>2026-04-08T15:36:17.352Z</time></trkpt><trkpt lat="38.2339767" lon="15.67102"><ele>121.0</ele><time>2026-04-08T15:36:18.352Z</time></trkpt><trkpt lat="38.233845" lon="15.6706533"><ele>125.0</ele><time>2026-04-08T15:36:19.352Z</time></trkpt><trkpt lat="38.2337133" lon="15.67029"><ele>119.0</ele><time>2026-04-08T15:36:20.351Z</time></trkpt><trkpt lat="38.2335983" lon="15.669925"><ele>113.0</ele><time>2026-04-08T15:36:21.352Z</time></trkpt><trkpt lat="38.2334683" lon="15.6695583"><ele>109.5</ele><time>2026-04-08T15:36:22.352Z</time></trkpt><trkpt lat="38.2333467" lon="15.6691883"><ele>106.0</ele><time>2026-04-08T15:36:23.351Z</time></trkpt><trkpt lat="38.2332317" lon="15.668825"><ele>107.5</ele><time>2026-04-08T15:36:24.351Z</time></trkpt><trkpt lat="38.233115" lon="15.6684567"><ele>109.0</ele><time>2026-04-08T15:36:25.352Z</time></trkpt><trkpt lat="38.2329983" lon="15.6680933"><ele>108.0</ele><time>2026-04-08T15:36:26.352Z</time></trkpt><trkpt lat="38.232885" lon="15.6677317"><ele>107.0</ele><time>2026-04-08T15:36:27.351Z</time></trkpt><trkpt lat="38.2327667" lon="15.6673667"><ele>107.0</ele><time>2026-04-08T15:36:28.351Z</time></trkpt><trkpt lat="38.23264" lon="15.6670067"><ele>107.0</ele><time>2026-04-08T15:36:29.352Z</time></trkpt><trkpt lat="38.2325133" lon="15.666655"><ele>107.5</ele><time>2026-04-08T15:36:30.352Z</time></trkpt><trkpt lat="38.232385" lon="15.6662933"><ele>108.0</ele><time>2026-04-08T15:36:31.351Z</time></trkpt><trkpt lat="38.23226" lon="15.6659383"><ele>108.0</ele><time>2026-04-08T15:36:32.351Z</time></trkpt><trkpt lat="38.2321383" lon="15.665585"><ele>108.0</ele><time>2026-04-08T15:36:33.352Z</time></trkpt><trkpt lat="38.23203" lon="15.6652167"><ele>103.0</ele><time>2026-04-08T15:36:34.352Z</time></trkpt><trkpt lat="38.23192" lon="15.664865"><ele>98.0</ele><time>2026-04-08T15:36:35.352Z</time></trkpt><trkpt lat="38.2318083" lon="15.664515"><ele>95.0</ele><time>2026-04-08T15:36:36.352Z</time></trkpt><trkpt lat="38.2316967" lon="15.66415"><ele>92.0</ele><time>2026-04-08T15:36:37.351Z</time></trkpt><trkpt lat="38.2315883" lon="15.663785"><ele>103.0</ele><time>2026-04-08T15:36:38.352Z</time></trkpt><trkpt lat="38.2314733" lon="15.6634233"><ele>114.0</ele><time>2026-04-08T15:36:39.351Z</time></trkpt><trkpt lat="38.2313733" lon="15.6630583"><ele>110.5</ele><time>2026-04-08T15:36:40.351Z</time></trkpt><trkpt lat="38.2312733" lon="15.6626983"><ele>107.0</ele><time>2026-04-08T15:36:41.351Z</time></trkpt><trkpt lat="38.2311733" lon="15.66234"><ele>107.0</ele><time>2026-04-08T15:36:42.351Z</time></trkpt><trkpt lat="38.2310733" lon="15.6619767"><ele>107.0</ele><time>2026-04-08T15:36:43.352Z</time></trkpt><trkpt lat="38.23097" lon="15.6616217"><ele>102.0</ele><time>2026-04-08T15:36:44.351Z</time></trkpt><trkpt lat="38.230875" lon="15.6612767"><ele>97.0</ele><time>2026-04-08T15:36:45.351Z</time></trkpt><trkpt lat="38.230775" lon="15.6609233"><ele>94.5</ele><time>2026-04-08T15:36:46.351Z</time></trkpt><trkpt lat="38.2306717" lon="15.6605667"><ele>92.0</ele><time>2026-04-08T15:36:47.352Z</time></trkpt><trkpt lat="38.23057" lon="15.6602133"><ele>98.5</ele><time>2026-04-08T15:36:48.351Z</time></trkpt><trkpt lat="38.2304633" lon="15.6598617"><ele>105.0</ele><time>2026-04-08T15:36:49.352Z</time></trkpt><trkpt lat="38.2303567" lon="15.659505"><ele>102.0</ele><time>2026-04-08T15:36:50.351Z</time></trkpt><trkpt lat="38.2302483" lon="15.6591567"><ele>99.0</ele><time>2026-04-08T15:36:51.351Z</time></trkpt><trkpt lat="38.2301417" lon="15.6588167"><ele>97.0</ele><time>2026-04-08T15:36:52.351Z</time></trkpt><trkpt lat="38.2300333" lon="15.6584683"><ele>95.0</ele><time>2026-04-08T15:36:53.352Z</time></trkpt><trkpt lat="38.2299283" lon="15.6581167"><ele>93.0</ele><time>2026-04-08T15:36:54.351Z</time></trkpt><trkpt lat="38.2298217" lon="15.6577683"><ele>91.0</ele><time>2026-04-08T15:36:55.351Z</time></trkpt><trkpt lat="38.22971" lon="15.6574217"><ele>100.5</ele><time>2026-04-08T15:36:56.351Z</time></trkpt><trkpt lat="38.229595" lon="15.65707"><ele>110.0</ele><time>2026-04-08T15:36:57.352Z</time></trkpt><trkpt lat="38.2294833" lon="15.6567233"><ele>110.0</ele><time>2026-04-08T15:36:58.351Z</time></trkpt><trkpt lat="38.229375" lon="15.6563817"><ele>110.0</ele><time>2026-04-08T15:36:59.351Z</time></trkpt><trkpt lat="38.2292617" lon="15.6560283"><ele>107.5</ele><time>2026-04-08T15:37:00.351Z</time></trkpt><trkpt lat="38.229145" lon="15.6556817"><ele>105.0</ele><time>2026-04-08T15:37:01.351Z</time></trkpt><trkpt lat="38.2290367" lon="15.655325"><ele>115.0</ele><time>2026-04-08T15:37:02.351Z</time></trkpt><trkpt lat="38.2289183" lon="15.654975"><ele>125.0</ele><time>2026-04-08T15:37:03.351Z</time></trkpt><trkpt lat="38.2287783" lon="15.6546367"><ele>121.0</ele><time>2026-04-08T15:37:04.351Z</time></trkpt><trkpt lat="38.228625" lon="15.65431"><ele>117.0</ele><time>2026-04-08T15:37:05.351Z</time></trkpt><trkpt lat="38.2284683" lon="15.6539817"><ele>117.0</ele><time>2026-04-08T15:37:06.351Z</time></trkpt><trkpt lat="38.2283033" lon="15.65366"><ele>117.0</ele><time>2026-04-08T15:37:07.351Z</time></trkpt><trkpt lat="38.2281417" lon="15.6533283"><ele>128.5</ele><time>2026-04-08T15:37:08.352Z</time></trkpt><trkpt lat="38.2279733" lon="15.6530067"><ele>140.0</ele><time>2026-04-08T15:37:09.352Z</time></trkpt><trkpt lat="38.2277967" lon="15.6526917"><ele>140.0</ele><time>2026-04-08T15:37:10.352Z</time></trkpt><trkpt lat="38.2276167" lon="15.652375"><ele>140.0</ele><time>2026-04-08T15:37:11.352Z</time></trkpt><trkpt lat="38.22743" lon="15.6520633"><ele>147.5</ele><time>2026-04-08T15:37:12.351Z</time></trkpt><trkpt lat="38.2272517" lon="15.651745"><ele>155.0</ele><time>2026-04-08T15:37:13.352Z</time></trkpt><trkpt lat="38.227075" lon="15.6514267"><ele>153.0</ele><time>2026-04-08T15:37:14.352Z</time></trkpt><trkpt lat="38.2268967" lon="15.6511083"><ele>151.0</ele><time>2026-04-08T15:37:15.351Z</time></trkpt><trkpt lat="38.2208983" lon="15.6478933"><ele>119.0</ele><time>2026-04-08T15:37:35.352Z</time></trkpt><trkpt lat="38.2205933" lon="15.64787"><ele>87.0</ele><time>2026-04-08T15:37:36.352Z</time></trkpt><trkpt lat="38.22029" lon="15.6478383"><ele>87.0</ele><time>2026-04-08T15:37:37.352Z</time></trkpt><trkpt lat="38.219985" lon="15.6478367"><ele>87.0</ele><time>2026-04-08T15:37:38.352Z</time></trkpt><trkpt lat="38.21969" lon="15.6478367"><ele>97.0</ele><time>2026-04-08T15:37:39.353Z</time></trkpt><trkpt lat="38.2194117" lon="15.64787"><ele>107.0</ele><time>2026-04-08T15:37:40.352Z</time></trkpt><trkpt lat="38.2191183" lon="15.6478983"><ele>110.0</ele><time>2026-04-08T15:37:41.352Z</time></trkpt><trkpt lat="38.2188267" lon="15.6479067"><ele>113.0</ele><time>2026-04-08T15:37:42.352Z</time></trkpt><trkpt lat="38.2185233" lon="15.647925"><ele>113.0</ele><time>2026-04-08T15:37:43.352Z</time></trkpt><trkpt lat="38.2182233" lon="15.6479417"><ele>113.0</ele><time>2026-04-08T15:37:44.353Z</time></trkpt><trkpt lat="38.2179167" lon="15.647955"><ele>113.0</ele><time>2026-04-08T15:37:45.353Z</time></trkpt><trkpt lat="38.217615" lon="15.6479717"><ele>113.0</ele><time>2026-04-08T15:37:46.352Z</time></trkpt><trkpt lat="38.2173133" lon="15.6479683"><ele>111.5</ele><time>2026-04-08T15:37:47.352Z</time></trkpt><trkpt lat="38.2170183" lon="15.64796"><ele>110.0</ele><time>2026-04-08T15:37:48.352Z</time></trkpt><trkpt lat="38.2167183" lon="15.64794"><ele>111.5</ele><time>2026-04-08T15:37:49.352Z</time></trkpt><trkpt lat="38.21643" lon="15.6479233"><ele>113.0</ele><time>2026-04-08T15:37:50.352Z</time></trkpt><trkpt lat="38.2161483" lon="15.6478617"><ele>108.5</ele><time>2026-04-08T15:37:51.352Z</time></trkpt><trkpt lat="38.215855" lon="15.6477833"><ele>104.0</ele><time>2026-04-08T15:37:52.352Z</time></trkpt><trkpt lat="38.2155617" lon="15.6477"><ele>103.0</ele><time>2026-04-08T15:37:53.352Z</time></trkpt><trkpt lat="38.2152683" lon="15.6476083"><ele>102.0</ele><time>2026-04-08T15:37:54.353Z</time></trkpt><trkpt lat="38.2149833" lon="15.6474967"><ele>101.0</ele><time>2026-04-08T15:37:55.352Z</time></trkpt><trkpt lat="38.214695" lon="15.6473883"><ele>100.0</ele><time>2026-04-08T15:37:56.352Z</time></trkpt><trkpt lat="38.21441" lon="15.6472567"><ele>100.0</ele><time>2026-04-08T15:37:57.352Z</time></trkpt><trkpt lat="38.21412" lon="15.6471117"><ele>100.0</ele><time>2026-04-08T15:37:58.353Z</time></trkpt><trkpt lat="38.2138383" lon="15.6469517"><ele>89.5</ele><time>2026-04-08T15:37:59.352Z</time></trkpt><trkpt lat="38.2135617" lon="15.646785"><ele>79.0</ele><time>2026-04-08T15:38:00.352Z</time></trkpt><trkpt lat="38.2132983" lon="15.6465967"><ele>76.0</ele><time>2026-04-08T15:38:01.352Z</time></trkpt><trkpt lat="38.2130433" lon="15.6463833"><ele>73.0</ele><time>2026-04-08T15:38:02.352Z</time></trkpt><trkpt lat="38.21279" lon="15.64617"><ele>77.0</ele><time>2026-04-08T15:38:03.353Z</time></trkpt><trkpt lat="38.21254" lon="15.6459517"><ele>81.0</ele><time>2026-04-08T15:38:04.352Z</time></trkpt><trkpt lat="38.2123" lon="15.64572"><ele>82.0</ele><time>2026-04-08T15:38:05.352Z</time></trkpt><trkpt lat="38.2120633" lon="15.64548"><ele>83.0</ele><time>2026-04-08T15:38:06.352Z</time></trkpt><trkpt lat="38.211835" lon="15.6452183"><ele>83.0</ele><time>2026-04-08T15:38:07.353Z</time></trkpt><trkpt lat="38.21161" lon="15.64497"><ele>83.0</ele><time>2026-04-08T15:38:08.352Z</time></trkpt><trkpt lat="38.2113817" lon="15.6447183"><ele>82.5</ele><time>2026-04-08T15:38:09.352Z</time></trkpt><trkpt lat="38.2111633" lon="15.6444533"><ele>82.0</ele><time>2026-04-08T15:38:10.353Z</time></trkpt><trkpt lat="38.210935" lon="15.6441967"><ele>82.0</ele><time>2026-04-08T15:38:11.352Z</time></trkpt><trkpt lat="38.21071" lon="15.6439483"><ele>82.0</ele><time>2026-04-08T15:38:12.352Z</time></trkpt><trkpt lat="38.21047" lon="15.64369"><ele>78.0</ele><time>2026-04-08T15:38:13.352Z</time></trkpt><trkpt lat="38.2102317" lon="15.6434417"><ele>74.0</ele><time>2026-04-08T15:38:14.352Z</time></trkpt><trkpt lat="38.2099983" lon="15.6431883"><ele>73.0</ele><time>2026-04-08T15:38:15.353Z</time></trkpt><trkpt lat="38.20975" lon="15.64294"><ele>72.0</ele><time>2026-04-08T15:38:16.353Z</time></trkpt><trkpt lat="38.2094967" lon="15.6426983"><ele>68.5</ele><time>2026-04-08T15:38:17.353Z</time></trkpt><trkpt lat="38.2092367" lon="15.64248"><ele>65.0</ele><time>2026-04-08T15:38:18.353Z</time></trkpt><trkpt lat="38.2089633" lon="15.642275"><ele>63.0</ele><time>2026-04-08T15:38:19.352Z</time></trkpt><trkpt lat="38.2086967" lon="15.6420867"><ele>61.0</ele><time>2026-04-08T15:38:20.353Z</time></trkpt><trkpt lat="38.2084217" lon="15.6419183"><ele>58.0</ele><time>2026-04-08T15:38:21.352Z</time></trkpt><trkpt lat="38.2081433" lon="15.6417467"><ele>55.0</ele><time>2026-04-08T15:38:22.352Z</time></trkpt><trkpt lat="38.2078633" lon="15.6415883"><ele>55.0</ele><time>2026-04-08T15:38:23.352Z</time></trkpt><trkpt lat="38.2075867" lon="15.641435"><ele>55.0</ele><time>2026-04-08T15:38:24.352Z</time></trkpt><trkpt lat="38.2072933" lon="15.6413083"><ele>54.0</ele><time>2026-04-08T15:38:25.353Z</time></trkpt><trkpt lat="38.2070017" lon="15.6411983"><ele>53.0</ele><time>2026-04-08T15:38:26.352Z</time></trkpt><trkpt lat="38.2067" lon="15.6410933"><ele>55.0</ele><time>2026-04-08T15:38:27.352Z</time></trkpt><trkpt lat="38.2063917" lon="15.6410033"><ele>57.0</ele><time>2026-04-08T15:38:28.352Z</time></trkpt><trkpt lat="38.2060833" lon="15.6409233"><ele>57.0</ele><time>2026-04-08T15:38:29.352Z</time></trkpt><trkpt lat="38.2057667" lon="15.64085"><ele>57.0</ele><time>2026-04-08T15:38:30.353Z</time></trkpt><trkpt lat="38.205455" lon="15.64079"><ele>55.0</ele><time>2026-04-08T15:38:31.353Z</time></trkpt><trkpt lat="38.2051467" lon="15.64075"><ele>53.0</ele><time>2026-04-08T15:38:32.352Z</time></trkpt><trkpt lat="38.204835" lon="15.6407167"><ele>53.0</ele><time>2026-04-08T15:38:33.352Z</time></trkpt><trkpt lat="38.2045117" lon="15.6406933"><ele>53.0</ele><time>2026-04-08T15:38:34.353Z</time></trkpt><trkpt lat="38.2041983" lon="15.6406883"><ele>54.5</ele><time>2026-04-08T15:38:35.353Z</time></trkpt><trkpt lat="38.2038883" lon="15.640675"><ele>56.0</ele><time>2026-04-08T15:38:36.352Z</time></trkpt><trkpt lat="38.2035833" lon="15.6406667"><ele>56.0</ele><time>2026-04-08T15:38:37.352Z</time></trkpt><trkpt lat="38.2032783" lon="15.6406583"><ele>56.0</ele><time>2026-04-08T15:38:38.353Z</time></trkpt><trkpt lat="38.20297" lon="15.64065"><ele>58.0</ele><time>2026-04-08T15:38:39.353Z</time></trkpt><trkpt lat="38.2026683" lon="15.6406467"><ele>60.0</ele><time>2026-04-08T15:38:40.352Z</time></trkpt><trkpt lat="38.2023733" lon="15.640645"><ele>58.5</ele><time>2026-04-08T15:38:41.352Z</time></trkpt><trkpt lat="38.2020883" lon="15.6406567"><ele>57.0</ele><time>2026-04-08T15:38:42.353Z</time></trkpt><trkpt lat="38.2018" lon="15.64069"><ele>57.0</ele><time>2026-04-08T15:38:43.353Z</time></trkpt><trkpt lat="38.201525" lon="15.6407267"><ele>57.0</ele><time>2026-04-08T15:38:44.352Z</time></trkpt><trkpt lat="38.2012533" lon="15.6407733"><ele>56.0</ele><time>2026-04-08T15:38:45.352Z</time></trkpt><trkpt lat="38.2009767" lon="15.6408317"><ele>55.0</ele><time>2026-04-08T15:38:46.352Z</time></trkpt><trkpt lat="38.2006983" lon="15.64089"><ele>56.0</ele><time>2026-04-08T15:38:47.353Z</time></trkpt><trkpt lat="38.200425" lon="15.64096"><ele>57.0</ele><time>2026-04-08T15:38:48.352Z</time></trkpt><trkpt lat="38.2001517" lon="15.6410417"><ele>57.0</ele><time>2026-04-08T15:38:49.352Z</time></trkpt><trkpt lat="38.1998733" lon="15.64113"><ele>57.0</ele><time>2026-04-08T15:38:50.352Z</time></trkpt><trkpt lat="38.1995917" lon="15.6412417"><ele>58.0</ele><time>2026-04-08T15:38:51.352Z</time></trkpt><trkpt lat="38.1992983" lon="15.641365"><ele>59.0</ele><time>2026-04-08T15:38:52.353Z</time></trkpt><trkpt lat="38.19901" lon="15.6415017"><ele>57.0</ele><time>2026-04-08T15:38:53.352Z</time></trkpt><trkpt lat="38.1987333" lon="15.6416367"><ele>55.0</ele><time>2026-04-08T15:38:54.353Z</time></trkpt><trkpt lat="38.1984467" lon="15.641805"><ele>55.0</ele><time>2026-04-08T15:38:55.352Z</time></trkpt><trkpt lat="38.1981633" lon="15.641975"><ele>55.0</ele><time>2026-04-08T15:38:56.352Z</time></trkpt><trkpt lat="38.1978817" lon="15.6421633"><ele>55.0</ele><time>2026-04-08T15:38:57.352Z</time></trkpt><trkpt lat="38.1976167" lon="15.6423617"><ele>55.0</ele><time>2026-04-08T15:38:58.352Z</time></trkpt><trkpt lat="38.1973533" lon="15.642565"><ele>56.0</ele><time>2026-04-08T15:38:59.352Z</time></trkpt><trkpt lat="38.1970967" lon="15.64277"><ele>57.0</ele><time>2026-04-08T15:39:00.352Z</time></trkpt><trkpt lat="38.1968517" lon="15.64298"><ele>55.0</ele><time>2026-04-08T15:39:01.352Z</time></trkpt><trkpt lat="38.1966217" lon="15.6432033"><ele>53.0</ele><time>2026-04-08T15:39:02.353Z</time></trkpt><trkpt lat="38.1963983" lon="15.6434067"><ele>48.0</ele><time>2026-04-08T15:39:03.352Z</time></trkpt><trkpt lat="38.1961883" lon="15.6436283"><ele>43.0</ele><time>2026-04-08T15:39:04.353Z</time></trkpt><trkpt lat="38.195975" lon="15.6438417"><ele>41.0</ele><time>2026-04-08T15:39:05.352Z</time></trkpt><trkpt lat="38.1957633" lon="15.64406"><ele>39.0</ele><time>2026-04-08T15:39:06.353Z</time></trkpt><trkpt lat="38.19556" lon="15.6442767"><ele>36.5</ele><time>2026-04-08T15:39:07.352Z</time></trkpt><trkpt lat="38.1953583" lon="15.6444833"><ele>34.0</ele><time>2026-04-08T15:39:08.353Z</time></trkpt><trkpt lat="38.195155" lon="15.6446883"><ele>34.0</ele><time>2026-04-08T15:39:09.352Z</time></trkpt><trkpt lat="38.19496" lon="15.6448867"><ele>34.0</ele><time>2026-04-08T15:39:10.353Z</time></trkpt><trkpt lat="38.194775" lon="15.6450883"><ele>34.5</ele><time>2026-04-08T15:39:11.353Z</time></trkpt><trkpt lat="38.1945883" lon="15.6452817"><ele>35.0</ele><time>2026-04-08T15:39:12.352Z</time></trkpt><trkpt lat="38.1943933" lon="15.64548"><ele>35.0</ele><time>2026-04-08T15:39:13.352Z</time></trkpt><trkpt lat="38.194205" lon="15.6456833"><ele>35.0</ele><time>2026-04-08T15:39:14.352Z</time></trkpt><trkpt lat="38.19401" lon="15.6458817"><ele>34.5</ele><time>2026-04-08T15:39:15.352Z</time></trkpt><trkpt lat="38.1938167" lon="15.6460767"><ele>34.0</ele><time>2026-04-08T15:39:16.353Z</time></trkpt><trkpt lat="38.1936233" lon="15.646275"><ele>35.0</ele><time>2026-04-08T15:39:17.352Z</time></trkpt><trkpt lat="38.1934267" lon="15.64647"><ele>36.0</ele><time>2026-04-08T15:39:18.353Z</time></trkpt><trkpt lat="38.1932267" lon="15.64667"><ele>34.5</ele><time>2026-04-08T15:39:19.353Z</time></trkpt><trkpt lat="38.19303" lon="15.6468817"><ele>33.0</ele><time>2026-04-08T15:39:20.353Z</time></trkpt><trkpt lat="38.1928283" lon="15.647085"><ele>33.0</ele><time>2026-04-08T15:39:21.353Z</time></trkpt><trkpt lat="38.19262" lon="15.6472983"><ele>33.0</ele><time>2026-04-08T15:39:22.352Z</time></trkpt><trkpt lat="38.192405" lon="15.6475183"><ele>32.5</ele><time>2026-04-08T15:39:23.353Z</time></trkpt><trkpt lat="38.1921833" lon="15.647745"><ele>32.0</ele><time>2026-04-08T15:39:24.352Z</time></trkpt><trkpt lat="38.1919567" lon="15.6479567"><ele>32.0</ele><time>2026-04-08T15:39:25.353Z</time></trkpt><trkpt lat="38.1917217" lon="15.64815"><ele>32.0</ele><time>2026-04-08T15:39:26.353Z</time></trkpt><trkpt lat="38.1914717" lon="15.648315"><ele>31.0</ele><time>2026-04-08T15:39:27.352Z</time></trkpt><trkpt lat="38.1912167" lon="15.648455"><ele>30.0</ele><time>2026-04-08T15:39:28.352Z</time></trkpt><trkpt lat="38.190955" lon="15.64857"><ele>30.5</ele><time>2026-04-08T15:39:29.353Z</time></trkpt><trkpt lat="38.1906867" lon="15.648665"><ele>31.0</ele><time>2026-04-08T15:39:30.352Z</time></trkpt><trkpt lat="38.1904183" lon="15.64873"><ele>29.5</ele><time>2026-04-08T15:39:31.353Z</time></trkpt><trkpt lat="38.19014" lon="15.6487783"><ele>28.0</ele><time>2026-04-08T15:39:32.353Z</time></trkpt><trkpt lat="38.18986" lon="15.6488033"><ele>28.0</ele><time>2026-04-08T15:39:33.353Z</time></trkpt><trkpt lat="38.1895867" lon="15.6488017"><ele>28.0</ele><time>2026-04-08T15:39:34.353Z</time></trkpt><trkpt lat="38.1893183" lon="15.648775"><ele>28.0</ele><time>2026-04-08T15:39:35.352Z</time></trkpt><trkpt lat="38.1890483" lon="15.6487283"><ele>28.0</ele><time>2026-04-08T15:39:36.353Z</time></trkpt><trkpt lat="38.18878" lon="15.6486633"><ele>28.5</ele><time>2026-04-08T15:39:37.352Z</time></trkpt><trkpt lat="38.18851" lon="15.6485783"><ele>29.0</ele><time>2026-04-08T15:39:38.353Z</time></trkpt><trkpt lat="38.188225" lon="15.6484817"><ele>29.5</ele><time>2026-04-08T15:39:39.352Z</time></trkpt><trkpt lat="38.1879483" lon="15.648385"><ele>30.0</ele><time>2026-04-08T15:39:40.352Z</time></trkpt><trkpt lat="38.1876683" lon="15.6482867"><ele>30.0</ele><time>2026-04-08T15:39:41.352Z</time></trkpt><trkpt lat="38.187385" lon="15.648195"><ele>30.0</ele><time>2026-04-08T15:39:42.352Z</time></trkpt><trkpt lat="38.187095" lon="15.64812"><ele>30.0</ele><time>2026-04-08T15:39:43.352Z</time></trkpt><trkpt lat="38.1867983" lon="15.6480567"><ele>30.0</ele><time>2026-04-08T15:39:44.353Z</time></trkpt><trkpt lat="38.1865117" lon="15.6480133"><ele>33.5</ele><time>2026-04-08T15:39:45.352Z</time></trkpt><trkpt lat="38.1862233" lon="15.647985"><ele>37.0</ele><time>2026-04-08T15:39:46.353Z</time></trkpt><trkpt lat="38.18594" lon="15.6479867"><ele>38.0</ele><time>2026-04-08T15:39:47.353Z</time></trkpt><trkpt lat="38.18566" lon="15.648005"><ele>39.0</ele><time>2026-04-08T15:39:48.353Z</time></trkpt><trkpt lat="38.1853717" lon="15.6480533"><ele>39.0</ele><time>2026-04-08T15:39:49.353Z</time></trkpt><trkpt lat="38.1850883" lon="15.64812"><ele>39.0</ele><time>2026-04-08T15:39:50.352Z</time></trkpt><trkpt lat="38.1848067" lon="15.6482067"><ele>37.5</ele><time>2026-04-08T15:39:51.352Z</time></trkpt><trkpt lat="38.184525" lon="15.648305"><ele>36.0</ele><time>2026-04-08T15:39:52.353Z</time></trkpt><trkpt lat="38.1842583" lon="15.6484233"><ele>36.0</ele><time>2026-04-08T15:39:53.352Z</time></trkpt><trkpt lat="38.183995" lon="15.648555"><ele>36.0</ele><time>2026-04-08T15:39:54.352Z</time></trkpt><trkpt lat="38.18373" lon="15.648705"><ele>38.0</ele><time>2026-04-08T15:39:55.352Z</time></trkpt><trkpt lat="38.1834683" lon="15.6488583"><ele>40.0</ele><time>2026-04-08T15:39:56.353Z</time></trkpt><trkpt lat="38.183215" lon="15.6490283"><ele>41.0</ele><time>2026-04-08T15:39:57.352Z</time></trkpt><trkpt lat="38.1829667" lon="15.649195"><ele>42.0</ele><time>2026-04-08T15:39:58.353Z</time></trkpt><trkpt lat="38.1827133" lon="15.6493633"><ele>41.0</ele><time>2026-04-08T15:39:59.352Z</time></trkpt><trkpt lat="38.1824633" lon="15.6495283"><ele>40.0</ele><time>2026-04-08T15:40:00.353Z</time></trkpt><trkpt lat="38.18222" lon="15.6497017"><ele>40.0</ele><time>2026-04-08T15:40:01.352Z</time></trkpt><trkpt lat="38.1819817" lon="15.649875"><ele>40.0</ele><time>2026-04-08T15:40:02.352Z</time></trkpt><trkpt lat="38.1817433" lon="15.6500633"><ele>38.5</ele><time>2026-04-08T15:40:03.353Z</time></trkpt><trkpt lat="38.1815083" lon="15.6502367"><ele>37.0</ele><time>2026-04-08T15:40:04.352Z</time></trkpt><trkpt lat="38.1812767" lon="15.6504033"><ele>40.0</ele><time>2026-04-08T15:40:05.352Z</time></trkpt><trkpt lat="38.1810483" lon="15.6505567"><ele>43.0</ele><time>2026-04-08T15:40:06.352Z</time></trkpt><trkpt lat="38.18082" lon="15.6507067"><ele>44.0</ele><time>2026-04-08T15:40:07.352Z</time></trkpt><trkpt lat="38.1805783" lon="15.6508433"><ele>45.0</ele><time>2026-04-08T15:40:08.352Z</time></trkpt><trkpt lat="38.1803383" lon="15.65098"><ele>45.0</ele><time>2026-04-08T15:40:09.352Z</time></trkpt><trkpt lat="38.1801033" lon="15.6511033"><ele>45.0</ele><time>2026-04-08T15:40:10.353Z</time></trkpt><trkpt lat="38.17985" lon="15.6512217"><ele>48.5</ele><time>2026-04-08T15:40:11.352Z</time></trkpt><trkpt lat="38.1795967" lon="15.6513333"><ele>52.0</ele><time>2026-04-08T15:40:12.353Z</time></trkpt><trkpt lat="38.1793233" lon="15.651445"><ele>52.0</ele><time>2026-04-08T15:40:13.353Z</time></trkpt><trkpt lat="38.1790583" lon="15.6515517"><ele>52.0</ele><time>2026-04-08T15:40:14.352Z</time></trkpt><trkpt lat="38.1788067" lon="15.65166"><ele>49.0</ele><time>2026-04-08T15:40:15.352Z</time></trkpt><trkpt lat="38.1785617" lon="15.6517617"><ele>46.0</ele><time>2026-04-08T15:40:16.353Z</time></trkpt><trkpt lat="38.1783083" lon="15.6518567"><ele>48.0</ele><time>2026-04-08T15:40:17.352Z</time></trkpt><trkpt lat="38.1780567" lon="15.65196"><ele>50.0</ele><time>2026-04-08T15:40:18.353Z</time></trkpt><trkpt lat="38.1778" lon="15.6520717"><ele>50.0</ele><time>2026-04-08T15:40:19.353Z</time></trkpt><trkpt lat="38.17754" lon="15.652185"><ele>50.0</ele><time>2026-04-08T15:40:20.352Z</time></trkpt><trkpt lat="38.1772817" lon="15.6522983"><ele>49.5</ele><time>2026-04-08T15:40:21.352Z</time></trkpt><trkpt lat="38.17702" lon="15.6524183"><ele>49.0</ele><time>2026-04-08T15:40:22.352Z</time></trkpt><trkpt lat="38.17676" lon="15.6525483"><ele>45.5</ele><time>2026-04-08T15:40:23.352Z</time></trkpt><trkpt lat="38.1764967" lon="15.65267"><ele>42.0</ele><time>2026-04-08T15:40:24.352Z</time></trkpt><trkpt lat="38.1762283" lon="15.6527867"><ele>41.5</ele><time>2026-04-08T15:40:25.353Z</time></trkpt><trkpt lat="38.1759567" lon="15.6529117"><ele>41.0</ele><time>2026-04-08T15:40:26.352Z</time></trkpt><trkpt lat="38.175685" lon="15.65303"><ele>39.0</ele><time>2026-04-08T15:40:27.352Z</time></trkpt><trkpt lat="38.1754133" lon="15.6531483"><ele>37.0</ele><time>2026-04-08T15:40:28.352Z</time></trkpt><trkpt lat="38.17514" lon="15.65327"><ele>37.0</ele><time>2026-04-08T15:40:29.353Z</time></trkpt><trkpt lat="38.1748667" lon="15.6533883"><ele>37.0</ele><time>2026-04-08T15:40:30.352Z</time></trkpt><trkpt lat="38.1745917" lon="15.6535133"><ele>37.5</ele><time>2026-04-08T15:40:31.352Z</time></trkpt><trkpt lat="38.1743117" lon="15.6536283"><ele>38.0</ele><time>2026-04-08T15:40:32.352Z</time></trkpt><trkpt lat="38.174035" lon="15.6537533"><ele>36.0</ele><time>2026-04-08T15:40:33.352Z</time></trkpt><trkpt lat="38.1737533" lon="15.6538717"><ele>34.0</ele><time>2026-04-08T15:40:34.353Z</time></trkpt><trkpt lat="38.1734717" lon="15.6539917"><ele>34.0</ele><time>2026-04-08T15:40:35.352Z</time></trkpt><trkpt lat="38.1731917" lon="15.6541067"><ele>34.0</ele><time>2026-04-08T15:40:36.352Z</time></trkpt><trkpt lat="38.17291" lon="15.6542183"><ele>33.5</ele><time>2026-04-08T15:40:37.352Z</time></trkpt><trkpt lat="38.1726267" lon="15.6543333"><ele>33.0</ele><time>2026-04-08T15:40:38.352Z</time></trkpt><trkpt lat="38.172345" lon="15.6544517"><ele>33.5</ele><time>2026-04-08T15:40:39.353Z</time></trkpt><trkpt lat="38.1720767" lon="15.6545717"><ele>34.0</ele><time>2026-04-08T15:40:40.352Z</time></trkpt><trkpt lat="38.171805" lon="15.6546883"><ele>34.0</ele><time>2026-04-08T15:40:41.353Z</time></trkpt><trkpt lat="38.17154" lon="15.654805"><ele>34.0</ele><time>2026-04-08T15:40:42.352Z</time></trkpt><trkpt lat="38.1712767" lon="15.6549217"><ele>33.0</ele><time>2026-04-08T15:40:43.352Z</time></trkpt><trkpt lat="38.171" lon="15.6550367"><ele>32.0</ele><time>2026-04-08T15:40:44.353Z</time></trkpt><trkpt lat="38.17074" lon="15.655165"><ele>33.5</ele><time>2026-04-08T15:40:45.352Z</time></trkpt><trkpt lat="38.1704817" lon="15.6553"><ele>35.0</ele><time>2026-04-08T15:40:46.353Z</time></trkpt><trkpt lat="38.1702167" lon="15.6554333"><ele>35.0</ele><time>2026-04-08T15:40:47.353Z</time></trkpt><trkpt lat="38.16996" lon="15.6555767"><ele>35.0</ele><time>2026-04-08T15:40:48.352Z</time></trkpt><trkpt lat="38.1697067" lon="15.6557267"><ele>33.0</ele><time>2026-04-08T15:40:49.353Z</time></trkpt><trkpt lat="38.169445" lon="15.65587"><ele>31.0</ele><time>2026-04-08T15:40:50.352Z</time></trkpt><trkpt lat="38.1691933" lon="15.656015"><ele>31.5</ele><time>2026-04-08T15:40:51.352Z</time></trkpt><trkpt lat="38.168945" lon="15.6561717"><ele>32.0</ele><time>2026-04-08T15:40:52.352Z</time></trkpt><trkpt lat="38.168695" lon="15.656325"><ele>32.0</ele><time>2026-04-08T15:40:53.352Z</time></trkpt><trkpt lat="38.1684433" lon="15.656485"><ele>32.0</ele><time>2026-04-08T15:40:54.353Z</time></trkpt><trkpt lat="38.1681967" lon="15.6566617"><ele>31.5</ele><time>2026-04-08T15:40:55.353Z</time></trkpt><trkpt lat="38.1679617" lon="15.6568383"><ele>31.0</ele><time>2026-04-08T15:40:56.352Z</time></trkpt><trkpt lat="38.1677117" lon="15.6570317"><ele>31.0</ele><time>2026-04-08T15:40:57.352Z</time></trkpt><trkpt lat="38.167475" lon="15.65723"><ele>31.0</ele><time>2026-04-08T15:40:58.353Z</time></trkpt><trkpt lat="38.1672333" lon="15.657435"><ele>31.0</ele><time>2026-04-08T15:40:59.352Z</time></trkpt><trkpt lat="38.166995" lon="15.657655"><ele>31.0</ele><time>2026-04-08T15:41:00.353Z</time></trkpt><trkpt lat="38.166765" lon="15.6578683"><ele>31.0</ele><time>2026-04-08T15:41:01.353Z</time></trkpt><trkpt lat="38.1665317" lon="15.65809"><ele>31.0</ele><time>2026-04-08T15:41:02.352Z</time></trkpt><trkpt lat="38.1662983" lon="15.6583117"><ele>31.5</ele><time>2026-04-08T15:41:03.353Z</time></trkpt><trkpt lat="38.166065" lon="15.6585383"><ele>32.0</ele><time>2026-04-08T15:41:04.353Z</time></trkpt><trkpt lat="38.1658333" lon="15.6587583"><ele>30.5</ele><time>2026-04-08T15:41:05.352Z</time></trkpt><trkpt lat="38.1656067" lon="15.6589833"><ele>29.0</ele><time>2026-04-08T15:41:06.353Z</time></trkpt><trkpt lat="38.16537" lon="15.6592067"><ele>29.0</ele><time>2026-04-08T15:41:07.353Z</time></trkpt><trkpt lat="38.165145" lon="15.6594267"><ele>29.0</ele><time>2026-04-08T15:41:08.353Z</time></trkpt><trkpt lat="38.1649167" lon="15.65965"><ele>30.0</ele><time>2026-04-08T15:41:09.353Z</time></trkpt><trkpt lat="38.1646917" lon="15.6598767"><ele>31.0</ele><time>2026-04-08T15:41:10.353Z</time></trkpt><trkpt lat="38.1644567" lon="15.660095"><ele>34.5</ele><time>2026-04-08T15:41:11.353Z</time></trkpt><trkpt lat="38.1642233" lon="15.6603133"><ele>38.0</ele><time>2026-04-08T15:41:12.352Z</time></trkpt><trkpt lat="38.1639883" lon="15.6605367"><ele>38.0</ele><time>2026-04-08T15:41:13.353Z</time></trkpt><trkpt lat="38.1637567" lon="15.660755"><ele>38.0</ele><time>2026-04-08T15:41:14.353Z</time></trkpt><trkpt lat="38.1635317" lon="15.6609767"><ele>40.5</ele><time>2026-04-08T15:41:15.352Z</time></trkpt><trkpt lat="38.163305" lon="15.6611967"><ele>43.0</ele><time>2026-04-08T15:41:16.352Z</time></trkpt><trkpt lat="38.1630733" lon="15.661415"><ele>43.0</ele><time>2026-04-08T15:41:17.352Z</time></trkpt><trkpt lat="38.162845" lon="15.6616317"><ele>43.0</ele><time>2026-04-08T15:41:18.352Z</time></trkpt><trkpt lat="38.1626067" lon="15.6618583"><ele>45.5</ele><time>2026-04-08T15:41:19.352Z</time></trkpt><trkpt lat="38.16237" lon="15.662075"><ele>48.0</ele><time>2026-04-08T15:41:20.352Z</time></trkpt><trkpt lat="38.1621383" lon="15.6623"><ele>48.0</ele><time>2026-04-08T15:41:21.352Z</time></trkpt><trkpt lat="38.1619083" lon="15.6625167"><ele>48.0</ele><time>2026-04-08T15:41:22.352Z</time></trkpt><trkpt lat="38.1616883" lon="15.6627433"><ele>49.5</ele><time>2026-04-08T15:41:23.353Z</time></trkpt><trkpt lat="38.16146" lon="15.6629517"><ele>51.0</ele><time>2026-04-08T15:41:24.352Z</time></trkpt><trkpt lat="38.161235" lon="15.66317"><ele>51.0</ele><time>2026-04-08T15:41:25.353Z</time></trkpt><trkpt lat="38.161005" lon="15.6633817"><ele>51.0</ele><time>2026-04-08T15:41:26.352Z</time></trkpt><trkpt lat="38.1607767" lon="15.6635933"><ele>52.5</ele><time>2026-04-08T15:41:27.353Z</time></trkpt><trkpt lat="38.1605417" lon="15.6638067"><ele>54.0</ele><time>2026-04-08T15:41:28.353Z</time></trkpt><trkpt lat="38.1603267" lon="15.6640217"><ele>54.0</ele><time>2026-04-08T15:41:29.353Z</time></trkpt><trkpt lat="38.16011" lon="15.664245"><ele>54.0</ele><time>2026-04-08T15:41:30.353Z</time></trkpt><trkpt lat="38.1598967" lon="15.6644683"><ele>53.0</ele><time>2026-04-08T15:41:31.352Z</time></trkpt><trkpt lat="38.1596733" lon="15.664705"><ele>52.0</ele><time>2026-04-08T15:41:32.353Z</time></trkpt><trkpt lat="38.15945" lon="15.6649083"><ele>52.0</ele><time>2026-04-08T15:41:33.352Z</time></trkpt><trkpt lat="38.1592117" lon="15.66513"><ele>52.0</ele><time>2026-04-08T15:41:34.352Z</time></trkpt><trkpt lat="38.1589817" lon="15.66534"><ele>53.5</ele><time>2026-04-08T15:41:35.353Z</time></trkpt><trkpt lat="38.158755" lon="15.66555"><ele>55.0</ele><time>2026-04-08T15:41:36.352Z</time></trkpt><trkpt lat="38.1585283" lon="15.6657517"><ele>55.0</ele><time>2026-04-08T15:41:37.352Z</time></trkpt><trkpt lat="38.1582983" lon="15.6659517"><ele>55.0</ele><time>2026-04-08T15:41:38.352Z</time></trkpt><trkpt lat="38.15806" lon="15.666115"><ele>57.0</ele><time>2026-04-08T15:41:39.353Z</time></trkpt><trkpt lat="38.1578" lon="15.666255"><ele>59.0</ele><time>2026-04-08T15:41:40.352Z</time></trkpt><trkpt lat="38.15755" lon="15.6663817"><ele>58.5</ele><time>2026-04-08T15:41:41.353Z</time></trkpt><trkpt lat="38.1572883" lon="15.6665083"><ele>58.0</ele><time>2026-04-08T15:41:42.352Z</time></trkpt><trkpt lat="38.1570283" lon="15.6666133"><ele>58.0</ele><time>2026-04-08T15:41:43.353Z</time></trkpt><trkpt lat="38.1567583" lon="15.6667117"><ele>58.0</ele><time>2026-04-08T15:41:44.353Z</time></trkpt><trkpt lat="38.1564767" lon="15.6668083"><ele>56.5</ele><time>2026-04-08T15:41:45.352Z</time></trkpt><trkpt lat="38.156195" lon="15.6669"><ele>55.0</ele><time>2026-04-08T15:41:46.352Z</time></trkpt><trkpt lat="38.155915" lon="15.6669883"><ele>60.0</ele><time>2026-04-08T15:41:47.352Z</time></trkpt><trkpt lat="38.1556367" lon="15.66708"><ele>65.0</ele><time>2026-04-08T15:41:48.353Z</time></trkpt><trkpt lat="38.1553567" lon="15.6671717"><ele>65.0</ele><time>2026-04-08T15:41:49.352Z</time></trkpt><trkpt lat="38.1550817" lon="15.66725"><ele>65.0</ele><time>2026-04-08T15:41:50.352Z</time></trkpt><trkpt lat="38.1548017" lon="15.6673417"><ele>64.0</ele><time>2026-04-08T15:41:51.352Z</time></trkpt><trkpt lat="38.15452" lon="15.6674167"><ele>63.0</ele><time>2026-04-08T15:41:52.352Z</time></trkpt><trkpt lat="38.154245" lon="15.6674983"><ele>63.5</ele><time>2026-04-08T15:41:53.352Z</time></trkpt><trkpt lat="38.153965" lon="15.6675833"><ele>64.0</ele><time>2026-04-08T15:41:54.353Z</time></trkpt><trkpt lat="38.1536933" lon="15.6676717"><ele>64.0</ele><time>2026-04-08T15:41:55.353Z</time></trkpt><trkpt lat="38.15342" lon="15.6677567"><ele>64.0</ele><time>2026-04-08T15:41:56.352Z</time></trkpt><trkpt lat="38.1531483" lon="15.667845"><ele>71.0</ele><time>2026-04-08T15:41:57.353Z</time></trkpt><trkpt lat="38.1528717" lon="15.6679467"><ele>78.0</ele><time>2026-04-08T15:41:58.353Z</time></trkpt><trkpt lat="38.1525933" lon="15.6680533"><ele>77.5</ele><time>2026-04-08T15:41:59.352Z</time></trkpt><trkpt lat="38.1523117" lon="15.6681433"><ele>77.0</ele><time>2026-04-08T15:42:00.352Z</time></trkpt><trkpt lat="38.1520183" lon="15.6682"><ele>77.0</ele><time>2026-04-08T15:42:01.352Z</time></trkpt><trkpt lat="38.1517283" lon="15.668245"><ele>77.0</ele><time>2026-04-08T15:42:02.352Z</time></trkpt><trkpt lat="38.1514317" lon="15.6682767"><ele>77.0</ele><time>2026-04-08T15:42:03.353Z</time></trkpt><trkpt lat="38.1511433" lon="15.66829"><ele>77.0</ele><time>2026-04-08T15:42:04.352Z</time></trkpt><trkpt lat="38.15087" lon="15.668305"><ele>76.0</ele><time>2026-04-08T15:42:05.352Z</time></trkpt><trkpt lat="38.1505933" lon="15.6683067"><ele>75.0</ele><time>2026-04-08T15:42:06.352Z</time></trkpt><trkpt lat="38.1503" lon="15.6683083"><ele>75.0</ele><time>2026-04-08T15:42:07.353Z</time></trkpt><trkpt lat="38.1500183" lon="15.6682933"><ele>75.0</ele><time>2026-04-08T15:42:08.352Z</time></trkpt><trkpt lat="38.1497317" lon="15.6682633"><ele>80.0</ele><time>2026-04-08T15:42:09.352Z</time></trkpt><trkpt lat="38.1494567" lon="15.6682267"><ele>85.0</ele><time>2026-04-08T15:42:10.352Z</time></trkpt><trkpt lat="38.1491717" lon="15.66819"><ele>88.0</ele><time>2026-04-08T15:42:11.352Z</time></trkpt><trkpt lat="38.1488983" lon="15.6681567"><ele>91.0</ele><time>2026-04-08T15:42:12.353Z</time></trkpt><trkpt lat="38.14861" lon="15.6681133"><ele>91.0</ele><time>2026-04-08T15:42:13.353Z</time></trkpt><trkpt lat="38.148335" lon="15.6680667"><ele>91.0</ele><time>2026-04-08T15:42:14.352Z</time></trkpt><trkpt lat="38.1480633" lon="15.6680233"><ele>94.5</ele><time>2026-04-08T15:42:15.352Z</time></trkpt><trkpt lat="38.1477933" lon="15.6679783"><ele>98.0</ele><time>2026-04-08T15:42:16.352Z</time></trkpt><trkpt lat="38.14752" lon="15.6679433"><ele>103.5</ele><time>2026-04-08T15:42:17.353Z</time></trkpt><trkpt lat="38.147245" lon="15.667905"><ele>109.0</ele><time>2026-04-08T15:42:18.352Z</time></trkpt><trkpt lat="38.146985" lon="15.6678733"><ele>109.0</ele><time>2026-04-08T15:42:19.353Z</time></trkpt><trkpt lat="38.1467267" lon="15.6678417"><ele>109.0</ele><time>2026-04-08T15:42:20.352Z</time></trkpt><trkpt lat="38.1464733" lon="15.66781"><ele>101.5</ele><time>2026-04-08T15:42:21.352Z</time></trkpt><trkpt lat="38.14622" lon="15.6677667"><ele>94.0</ele><time>2026-04-08T15:42:22.353Z</time></trkpt><trkpt lat="38.145965" lon="15.66772"><ele>94.0</ele><time>2026-04-08T15:42:23.353Z</time></trkpt><trkpt lat="38.1457233" lon="15.6676617"><ele>94.0</ele><time>2026-04-08T15:42:24.352Z</time></trkpt><trkpt lat="38.1454817" lon="15.6675233"><ele>91.0</ele><time>2026-04-08T15:42:25.352Z</time></trkpt><trkpt lat="38.14532" lon="15.6672833"><ele>88.0</ele><time>2026-04-08T15:42:26.352Z</time></trkpt><trkpt lat="38.1450417" lon="15.6671867"><ele>78.5</ele><time>2026-04-08T15:42:27.353Z</time></trkpt><trkpt lat="38.1447883" lon="15.6670233"><ele>69.0</ele><time>2026-04-08T15:42:28.352Z</time></trkpt><trkpt lat="38.144555" lon="15.66684"><ele>69.0</ele><time>2026-04-08T15:42:29.353Z</time></trkpt><trkpt lat="38.1443517" lon="15.666615"><ele>69.0</ele><time>2026-04-08T15:42:30.352Z</time></trkpt><trkpt lat="38.1441633" lon="15.6663683"><ele>64.5</ele><time>2026-04-08T15:42:31.352Z</time></trkpt><trkpt lat="38.143985" lon="15.6660933"><ele>60.0</ele><time>2026-04-08T15:42:32.353Z</time></trkpt><trkpt lat="38.1438267" lon="15.66581"><ele>60.0</ele><time>2026-04-08T15:42:33.352Z</time></trkpt><trkpt lat="38.1436833" lon="15.66552"><ele>60.0</ele><time>2026-04-08T15:42:34.352Z</time></trkpt><trkpt lat="38.14353" lon="15.6652283"><ele>62.5</ele><time>2026-04-08T15:42:35.352Z</time></trkpt><trkpt lat="38.1433717" lon="15.6649383"><ele>65.0</ele><time>2026-04-08T15:42:36.352Z</time></trkpt><trkpt lat="38.1431917" lon="15.66465"><ele>72.5</ele><time>2026-04-08T15:42:37.352Z</time></trkpt><trkpt lat="38.14301" lon="15.6643733"><ele>80.0</ele><time>2026-04-08T15:42:38.352Z</time></trkpt><trkpt lat="38.14283" lon="15.6641117"><ele>80.0</ele><time>2026-04-08T15:42:39.353Z</time></trkpt><trkpt lat="38.1426433" lon="15.6638533"><ele>80.0</ele><time>2026-04-08T15:42:40.352Z</time></trkpt><trkpt lat="38.14245" lon="15.6635867"><ele>82.0</ele><time>2026-04-08T15:42:41.352Z</time></trkpt><trkpt lat="38.1422483" lon="15.663335"><ele>84.0</ele><time>2026-04-08T15:42:42.352Z</time></trkpt><trkpt lat="38.1420267" lon="15.6630967"><ele>84.0</ele><time>2026-04-08T15:42:43.353Z</time></trkpt><trkpt lat="38.1418083" lon="15.6628733"><ele>84.0</ele><time>2026-04-08T15:42:44.352Z</time></trkpt><trkpt lat="38.1415767" lon="15.6626633"><ele>79.5</ele><time>2026-04-08T15:42:45.353Z</time></trkpt><trkpt lat="38.1413433" lon="15.662475"><ele>75.0</ele><time>2026-04-08T15:42:46.352Z</time></trkpt><trkpt lat="38.1411133" lon="15.6623"><ele>75.0</ele><time>2026-04-08T15:42:47.353Z</time></trkpt><trkpt lat="38.1408733" lon="15.6621383"><ele>75.0</ele><time>2026-04-08T15:42:48.352Z</time></trkpt><trkpt lat="38.1406333" lon="15.66197"><ele>74.5</ele><time>2026-04-08T15:42:49.353Z</time></trkpt><trkpt lat="38.140395" lon="15.661815"><ele>74.0</ele><time>2026-04-08T15:42:50.352Z</time></trkpt><trkpt lat="38.1401483" lon="15.661675"><ele>74.0</ele><time>2026-04-08T15:42:51.353Z</time></trkpt><trkpt lat="38.139895" lon="15.6615383"><ele>74.0</ele><time>2026-04-08T15:42:52.352Z</time></trkpt><trkpt lat="38.1396367" lon="15.6614133"><ele>72.0</ele><time>2026-04-08T15:42:53.353Z</time></trkpt><trkpt lat="38.1393833" lon="15.6612867"><ele>70.0</ele><time>2026-04-08T15:42:54.353Z</time></trkpt><trkpt lat="38.13913" lon="15.6611517"><ele>68.0</ele><time>2026-04-08T15:42:55.352Z</time></trkpt><trkpt lat="38.1388717" lon="15.6610217"><ele>66.0</ele><time>2026-04-08T15:42:56.352Z</time></trkpt><trkpt lat="38.1386167" lon="15.66089"><ele>66.0</ele><time>2026-04-08T15:42:57.352Z</time></trkpt><trkpt lat="38.1383633" lon="15.6607467"><ele>66.0</ele><time>2026-04-08T15:42:58.352Z</time></trkpt><trkpt lat="38.1381" lon="15.6606"><ele>72.5</ele><time>2026-04-08T15:42:59.353Z</time></trkpt><trkpt lat="38.1378367" lon="15.6604583"><ele>79.0</ele><time>2026-04-08T15:43:00.352Z</time></trkpt><trkpt lat="38.1375683" lon="15.660315"><ele>73.5</ele><time>2026-04-08T15:43:01.352Z</time></trkpt><trkpt lat="38.137305" lon="15.6601717"><ele>68.0</ele><time>2026-04-08T15:43:02.352Z</time></trkpt><trkpt lat="38.1370233" lon="15.6600417"><ele>68.0</ele><time>2026-04-08T15:43:03.352Z</time></trkpt><trkpt lat="38.1367533" lon="15.6598967"><ele>68.0</ele><time>2026-04-08T15:43:04.352Z</time></trkpt><trkpt lat="38.1365" lon="15.6597433"><ele>82.5</ele><time>2026-04-08T15:43:05.353Z</time></trkpt><trkpt lat="38.1362483" lon="15.6596067"><ele>97.0</ele><time>2026-04-08T15:43:06.352Z</time></trkpt><trkpt lat="38.1359983" lon="15.659475"><ele>83.5</ele><time>2026-04-08T15:43:07.352Z</time></trkpt><trkpt lat="38.1357533" lon="15.6593417"><ele>70.0</ele><time>2026-04-08T15:43:08.353Z</time></trkpt><trkpt lat="38.13551" lon="15.659205"><ele>60.0</ele><time>2026-04-08T15:43:09.353Z</time></trkpt><trkpt lat="38.135245" lon="15.6590933"><ele>50.0</ele><time>2026-04-08T15:43:10.353Z</time></trkpt><trkpt lat="38.1349967" lon="15.6589883"><ele>46.5</ele><time>2026-04-08T15:43:11.353Z</time></trkpt><trkpt lat="38.1347417" lon="15.65886"><ele>43.0</ele><time>2026-04-08T15:43:12.353Z</time></trkpt><trkpt lat="38.1344933" lon="15.658725"><ele>37.5</ele><time>2026-04-08T15:43:13.352Z</time></trkpt><trkpt lat="38.1342467" lon="15.6585717"><ele>32.0</ele><time>2026-04-08T15:43:14.352Z</time></trkpt><trkpt lat="38.133995" lon="15.6584317"><ele>46.0</ele><time>2026-04-08T15:43:15.352Z</time></trkpt><trkpt lat="38.1337467" lon="15.65829"><ele>60.0</ele><time>2026-04-08T15:43:16.352Z</time></trkpt><trkpt lat="38.1335" lon="15.6581467"><ele>60.0</ele><time>2026-04-08T15:43:17.353Z</time></trkpt><trkpt lat="38.13325" lon="15.6580033"><ele>60.0</ele><time>2026-04-08T15:43:18.353Z</time></trkpt><trkpt lat="38.133005" lon="15.6578583"><ele>54.5</ele><time>2026-04-08T15:43:19.352Z</time></trkpt><trkpt lat="38.13276" lon="15.6577117"><ele>49.0</ele><time>2026-04-08T15:43:20.352Z</time></trkpt><trkpt lat="38.1325233" lon="15.6575733"><ele>50.5</ele><time>2026-04-08T15:43:21.352Z</time></trkpt><trkpt lat="38.1322833" lon="15.657435"><ele>52.0</ele><time>2026-04-08T15:43:22.352Z</time></trkpt><trkpt lat="38.1320467" lon="15.6572967"><ele>52.0</ele><time>2026-04-08T15:43:23.352Z</time></trkpt><trkpt lat="38.131815" lon="15.65718"><ele>52.0</ele><time>2026-04-08T15:43:24.352Z</time></trkpt><trkpt lat="38.13157" lon="15.6570567"><ele>48.0</ele><time>2026-04-08T15:43:25.353Z</time></trkpt><trkpt lat="38.1313317" lon="15.656935"><ele>44.0</ele><time>2026-04-08T15:43:26.353Z</time></trkpt><trkpt lat="38.1311067" lon="15.6568133"><ele>44.0</ele><time>2026-04-08T15:43:27.352Z</time></trkpt><trkpt lat="38.1308867" lon="15.656685"><ele>44.0</ele><time>2026-04-08T15:43:28.352Z</time></trkpt><trkpt lat="38.130675" lon="15.6565633"><ele>45.33333333333333</ele><time>2026-04-08T15:43:29.353Z</time></trkpt><trkpt lat="38.1304733" lon="15.6564433"><ele>46.666666666666664</ele><time>2026-04-08T15:43:30.353Z</time></trkpt><trkpt lat="38.130285" lon="15.6563333"><ele>48.0</ele><time>2026-04-08T15:43:31.353Z</time></trkpt><trkpt lat="38.13009" lon="15.6562367"><ele>48.0</ele><time>2026-04-08T15:43:32.352Z</time></trkpt><trkpt lat="38.1299017" lon="15.6561533"><ele>48.0</ele><time>2026-04-08T15:43:33.353Z</time></trkpt><trkpt lat="38.1297367" lon="15.65609"><ele>48.0</ele><time>2026-04-08T15:43:34.352Z</time></trkpt><trkpt lat="38.1295717" lon="15.65605"><ele>45.25</ele><time>2026-04-08T15:43:35.352Z</time></trkpt><trkpt lat="38.12942" lon="15.65602"><ele>42.5</ele><time>2026-04-08T15:43:36.352Z</time></trkpt><trkpt lat="38.1292917" lon="15.656005"><ele>39.75</ele><time>2026-04-08T15:43:37.353Z</time></trkpt><trkpt lat="38.1291767" lon="15.65599"><ele>37.0</ele><time>2026-04-08T15:43:38.352Z</time></trkpt><trkpt lat="38.1290733" lon="15.655975"><ele>36.6</ele><time>2026-04-08T15:43:39.353Z</time></trkpt><trkpt lat="38.1289783" lon="15.6559533"><ele>36.2</ele><time>2026-04-08T15:43:40.353Z</time></trkpt><trkpt lat="38.1288883" lon="15.6559433"><ele>35.8</ele><time>2026-04-08T15:43:41.353Z</time></trkpt><trkpt lat="38.1287917" lon="15.6559217"><ele>35.4</ele><time>2026-04-08T15:43:42.353Z</time></trkpt><trkpt lat="38.1286967" lon="15.6559017"><ele>35.0</ele><time>2026-04-08T15:43:43.353Z</time></trkpt><trkpt lat="38.1285983" lon="15.6558933"><ele>35.0</ele><time>2026-04-08T15:43:44.352Z</time></trkpt><trkpt lat="38.1284967" lon="15.6558933"><ele>35.0</ele><time>2026-04-08T15:43:45.352Z</time></trkpt><trkpt lat="38.128395" lon="15.6558817"><ele>35.0</ele><time>2026-04-08T15:43:46.353Z</time></trkpt><trkpt lat="38.128285" lon="15.6558667"><ele>35.0</ele><time>2026-04-08T15:43:47.353Z</time></trkpt><trkpt lat="38.128185" lon="15.6558583"><ele>35.0</ele><time>2026-04-08T15:43:48.352Z</time></trkpt><trkpt lat="38.1280917" lon="15.6558417"><ele>34.4</ele><time>2026-04-08T15:43:49.353Z</time></trkpt><trkpt lat="38.1279883" lon="15.6558267"><ele>33.8</ele><time>2026-04-08T15:43:50.353Z</time></trkpt><trkpt lat="38.1278817" lon="15.6557933"><ele>33.2</ele><time>2026-04-08T15:43:51.352Z</time></trkpt><trkpt lat="38.127775" lon="15.6557717"><ele>32.6</ele><time>2026-04-08T15:43:52.353Z</time></trkpt><trkpt lat="38.1276617" lon="15.65575"><ele>32.0</ele><time>2026-04-08T15:43:53.352Z</time></trkpt><trkpt lat="38.1275467" lon="15.6557283"><ele>32.0</ele><time>2026-04-08T15:43:54.353Z</time></trkpt><trkpt lat="38.1274383" lon="15.6557067"><ele>32.0</ele><time>2026-04-08T15:43:55.352Z</time></trkpt><trkpt lat="38.127335" lon="15.65568"><ele>32.0</ele><time>2026-04-08T15:43:56.352Z</time></trkpt><trkpt lat="38.1272333" lon="15.6556633"><ele>32.0</ele><time>2026-04-08T15:43:57.353Z</time></trkpt><trkpt lat="38.127135" lon="15.6556583"><ele>32.0</ele><time>2026-04-08T15:43:58.353Z</time></trkpt><trkpt lat="38.1270367" lon="15.6556417"><ele>31.6</ele><time>2026-04-08T15:43:59.353Z</time></trkpt><trkpt lat="38.1269383" lon="15.6556283"><ele>31.200000000000003</ele><time>2026-04-08T15:44:00.353Z</time></trkpt><trkpt lat="38.1268417" lon="15.6556017"><ele>30.8</ele><time>2026-04-08T15:44:01.352Z</time></trkpt><trkpt lat="38.1267433" lon="15.6555867"><ele>30.4</ele><time>2026-04-08T15:44:02.352Z</time></trkpt><trkpt lat="38.1266533" lon="15.65557"><ele>30.0</ele><time>2026-04-08T15:44:03.352Z</time></trkpt><trkpt lat="38.126555" lon="15.655565"><ele>29.6</ele><time>2026-04-08T15:44:04.352Z</time></trkpt><trkpt lat="38.12646" lon="15.655545"><ele>29.2</ele><time>2026-04-08T15:44:05.353Z</time></trkpt><trkpt lat="38.1263683" lon="15.6555267"><ele>28.799999999999997</ele><time>2026-04-08T15:44:06.352Z</time></trkpt><trkpt lat="38.1262617" lon="15.6555083"><ele>28.4</ele><time>2026-04-08T15:44:07.353Z</time></trkpt><trkpt lat="38.1261567" lon="15.655485"><ele>28.0</ele><time>2026-04-08T15:44:08.352Z</time></trkpt><trkpt lat="38.1260467" lon="15.6554683"><ele>28.0</ele><time>2026-04-08T15:44:09.352Z</time></trkpt><trkpt lat="38.1259433" lon="15.6554517"><ele>27.999999999999996</ele><time>2026-04-08T15:44:10.353Z</time></trkpt><trkpt lat="38.12584" lon="15.65543"><ele>27.999999999999996</ele><time>2026-04-08T15:44:11.352Z</time></trkpt><trkpt lat="38.125745" lon="15.65541"><ele>28.0</ele><time>2026-04-08T15:44:12.353Z</time></trkpt><trkpt lat="38.1256467" lon="15.6554017"><ele>28.0</ele><time>2026-04-08T15:44:13.353Z</time></trkpt><trkpt lat="38.125555" lon="15.6553917"><ele>28.166666666666668</ele><time>2026-04-08T15:44:14.353Z</time></trkpt><trkpt lat="38.1254567" lon="15.6553767"><ele>28.333333333333336</ele><time>2026-04-08T15:44:15.352Z</time></trkpt><trkpt lat="38.125375" lon="15.6553633"><ele>28.5</ele><time>2026-04-08T15:44:16.353Z</time></trkpt><trkpt lat="38.1252983" lon="15.6553533"><ele>28.666666666666664</ele><time>2026-04-08T15:44:17.352Z</time></trkpt><trkpt lat="38.1252267" lon="15.6553583"><ele>28.833333333333332</ele><time>2026-04-08T15:44:18.353Z</time></trkpt><trkpt lat="38.1251083" lon="15.6553417"><ele>29.0</ele><time>2026-04-08T15:44:20.352Z</time></trkpt><trkpt lat="38.1250417" lon="15.6553183"><ele>28.999999999999996</ele><time>2026-04-08T15:44:21.353Z</time></trkpt><trkpt lat="38.1249683" lon="15.6552983"><ele>29.0</ele><time>2026-04-08T15:44:22.352Z</time></trkpt><trkpt lat="38.1248983" lon="15.6552783"><ele>29.0</ele><time>2026-04-08T15:44:23.352Z</time></trkpt><trkpt lat="38.124825" lon="15.6552583"><ele>29.0</ele><time>2026-04-08T15:44:24.352Z</time></trkpt><trkpt lat="38.1247433" lon="15.6552333"><ele>28.999999999999996</ele><time>2026-04-08T15:44:25.352Z</time></trkpt><trkpt lat="38.1246617" lon="15.6552183"><ele>29.0</ele><time>2026-04-08T15:44:26.353Z</time></trkpt><trkpt lat="38.1245717" lon="15.6552067"><ele>28.799999999999997</ele><time>2026-04-08T15:44:27.352Z</time></trkpt><trkpt lat="38.12448" lon="15.6551967"><ele>28.599999999999998</ele><time>2026-04-08T15:44:28.353Z</time></trkpt><trkpt lat="38.124385" lon="15.655175"><ele>28.4</ele><time>2026-04-08T15:44:29.352Z</time></trkpt><trkpt lat="38.1242817" lon="15.6551517"><ele>28.2</ele><time>2026-04-08T15:44:30.352Z</time></trkpt><trkpt lat="38.12417" lon="15.6551317"><ele>28.0</ele><time>2026-04-08T15:44:31.352Z</time></trkpt><trkpt lat="38.1240633" lon="15.6551083"><ele>28.333333333333336</ele><time>2026-04-08T15:44:32.353Z</time></trkpt><trkpt lat="38.1239583" lon="15.65509"><ele>28.666666666666668</ele><time>2026-04-08T15:44:33.353Z</time></trkpt><trkpt lat="38.12386" lon="15.65508"><ele>29.0</ele><time>2026-04-08T15:44:34.352Z</time></trkpt><trkpt lat="38.1237867" lon="15.6550667"><ele>29.333333333333336</ele><time>2026-04-08T15:44:35.353Z</time></trkpt><trkpt lat="38.1236917" lon="15.655085"><ele>29.666666666666668</ele><time>2026-04-08T15:44:36.352Z</time></trkpt><trkpt lat="38.1236283" lon="15.6550617"><ele>30.0</ele><time>2026-04-08T15:44:37.353Z</time></trkpt><trkpt lat="38.1235517" lon="15.6550433"><ele>30.0</ele><time>2026-04-08T15:44:38.352Z</time></trkpt><trkpt lat="38.1234633" lon="15.6550283"><ele>30.0</ele><time>2026-04-08T15:44:39.352Z</time></trkpt><trkpt lat="38.1233683" lon="15.6550133"><ele>30.0</ele><time>2026-04-08T15:44:40.353Z</time></trkpt><trkpt lat="38.1232717" lon="15.65498"><ele>30.0</ele><time>2026-04-08T15:44:41.353Z</time></trkpt><trkpt lat="38.1231733" lon="15.654955"><ele>30.0</ele><time>2026-04-08T15:44:42.352Z</time></trkpt><trkpt lat="38.1230683" lon="15.6549367"><ele>30.2</ele><time>2026-04-08T15:44:43.352Z</time></trkpt><trkpt lat="38.1229683" lon="15.654925"><ele>30.4</ele><time>2026-04-08T15:44:44.352Z</time></trkpt><trkpt lat="38.1228717" lon="15.6549017"><ele>30.6</ele><time>2026-04-08T15:44:45.353Z</time></trkpt><trkpt lat="38.1227667" lon="15.654885"><ele>30.8</ele><time>2026-04-08T15:44:46.352Z</time></trkpt><trkpt lat="38.122655" lon="15.6548667"><ele>31.0</ele><time>2026-04-08T15:44:47.352Z</time></trkpt><trkpt lat="38.1225417" lon="15.6548467"><ele>31.0</ele><time>2026-04-08T15:44:48.352Z</time></trkpt><trkpt lat="38.12243" lon="15.654825"><ele>31.0</ele><time>2026-04-08T15:44:49.353Z</time></trkpt><trkpt lat="38.12232" lon="15.6548067"><ele>31.0</ele><time>2026-04-08T15:44:50.352Z</time></trkpt><trkpt lat="38.1222083" lon="15.6547717"><ele>31.0</ele><time>2026-04-08T15:44:51.352Z</time></trkpt><trkpt lat="38.1221033" lon="15.6547567"><ele>31.0</ele><time>2026-04-08T15:44:52.353Z</time></trkpt><trkpt lat="38.122005" lon="15.6547483"><ele>31.000000000000004</ele><time>2026-04-08T15:44:53.352Z</time></trkpt><trkpt lat="38.12191" lon="15.6547467"><ele>31.0</ele><time>2026-04-08T15:44:54.352Z</time></trkpt><trkpt lat="38.1218433" lon="15.654735"><ele>31.0</ele><time>2026-04-08T15:44:55.352Z</time></trkpt><trkpt lat="38.1217417" lon="15.654765"><ele>31.0</ele><time>2026-04-08T15:44:57.353Z</time></trkpt><trkpt lat="38.121685" lon="15.65488"><ele>31.000000000000004</ele><time>2026-04-08T15:44:59.353Z</time></trkpt><trkpt lat="38.1216833" lon="15.6549617"><ele>31.0</ele><time>2026-04-08T15:45:00.352Z</time></trkpt><trkpt lat="38.1217017" lon="15.6550717"><ele>31.000000000000004</ele><time>2026-04-08T15:45:01.352Z</time></trkpt><trkpt lat="38.1217267" lon="15.65518"><ele>31.0</ele><time>2026-04-08T15:45:02.352Z</time></trkpt><trkpt lat="38.1217433" lon="15.655275"><ele>31.0</ele><time>2026-04-08T15:45:03.353Z</time></trkpt><trkpt lat="38.121725" lon="15.6553683"><ele>31.0</ele><time>2026-04-08T15:45:05.352Z</time></trkpt><trkpt lat="38.1216583" lon="15.655255"><ele>31.000000000000004</ele><time>2026-04-08T15:45:07.353Z</time></trkpt><trkpt lat="38.1216217" lon="15.6551467"><ele>31.0</ele><time>2026-04-08T15:45:08.353Z</time></trkpt><trkpt lat="38.1215933" lon="15.6550317"><ele>31.000000000000004</ele><time>2026-04-08T15:45:09.353Z</time></trkpt><trkpt lat="38.1215667" lon="15.6549233"><ele>31.0</ele><time>2026-04-08T15:45:10.352Z</time></trkpt><trkpt lat="38.1215433" lon="15.6548167"><ele>31.0</ele><time>2026-04-08T15:45:11.353Z</time></trkpt><trkpt lat="38.121525" lon="15.6547133"><ele>31.0</ele><time>2026-04-08T15:45:12.353Z</time></trkpt><trkpt lat="38.1215083" lon="15.6546183"><ele>31.000000000000004</ele><time>2026-04-08T15:45:13.352Z</time></trkpt><trkpt lat="38.1214883" lon="15.65453"><ele>31.0</ele><time>2026-04-08T15:45:14.353Z</time></trkpt><trkpt lat="38.1214717" lon="15.6544367"><ele>30.0</ele><time>2026-04-08T15:45:15.352Z</time></trkpt><trkpt lat="38.1214667" lon="15.654295"><ele>29.0</ele><time>2026-04-08T15:45:17.352Z</time></trkpt><trkpt lat="38.1214683" lon="15.6541917"><ele>28.0</ele><time>2026-04-08T15:45:19.352Z</time></trkpt><trkpt lat="38.1214767" lon="15.6540833"><ele>27.0</ele><time>2026-04-08T15:45:21.352Z</time></trkpt><trkpt lat="38.12149" lon="15.6539717"><ele>26.0</ele><time>2026-04-08T15:45:23.352Z</time></trkpt><trkpt lat="38.1215083" lon="15.6538417"><ele>26.0</ele><time>2026-04-08T15:45:25.353Z</time></trkpt><trkpt lat="38.121515" lon="15.6536917"><ele>26.0</ele><time>2026-04-08T15:45:27.353Z</time></trkpt><trkpt lat="38.1215417" lon="15.653555"><ele>26.0</ele><time>2026-04-08T15:45:29.352Z</time></trkpt><trkpt lat="38.1215783" lon="15.6534383"><ele>26.0</ele><time>2026-04-08T15:45:31.352Z</time></trkpt><trkpt lat="38.121605" lon="15.6533583"><ele>26.0</ele><time>2026-04-08T15:45:33.352Z</time></trkpt><trkpt lat="38.1215767" lon="15.65328"><ele>25.6</ele><time>2026-04-08T15:45:36.352Z</time></trkpt><trkpt lat="38.1215" lon="15.6532233"><ele>25.200000000000003</ele><time>2026-04-08T15:45:39.352Z</time></trkpt><trkpt lat="38.1214333" lon="15.6532167"><ele>24.799999999999997</ele><time>2026-04-08T15:45:41.353Z</time></trkpt><trkpt lat="38.1213267" lon="15.6532233"><ele>24.4</ele><time>2026-04-08T15:45:43.352Z</time></trkpt><trkpt lat="38.12121" lon="15.653245"><ele>24.0</ele><time>2026-04-08T15:45:45.352Z</time></trkpt><trkpt lat="38.1211183" lon="15.6532817"><ele>24.0</ele><time>2026-04-08T15:45:47.352Z</time></trkpt><trkpt lat="38.1210433" lon="15.6533683"><ele>24.0</ele><time>2026-04-08T15:45:49.352Z</time></trkpt><trkpt lat="38.1210317" lon="15.6534867"><ele>24.0</ele><time>2026-04-08T15:45:51.352Z</time></trkpt><trkpt lat="38.1210433" lon="15.6536167"><ele>24.0</ele><time>2026-04-08T15:45:53.353Z</time></trkpt><trkpt lat="38.12106" lon="15.6536983"><ele>24.0</ele><time>2026-04-08T15:45:54.353Z</time></trkpt><trkpt lat="38.1210817" lon="15.65379"><ele>24.0</ele><time>2026-04-08T15:45:55.353Z</time></trkpt><trkpt lat="38.121105" lon="15.6538833"><ele>24.333333333333332</ele><time>2026-04-08T15:45:56.352Z</time></trkpt><trkpt lat="38.1211283" lon="15.6539633"><ele>24.666666666666664</ele><time>2026-04-08T15:45:57.353Z</time></trkpt><trkpt lat="38.1211583" lon="15.6540367"><ele>25.0</ele><time>2026-04-08T15:45:58.352Z</time></trkpt><trkpt lat="38.1212383" lon="15.654125"><ele>25.333333333333332</ele><time>2026-04-08T15:46:00.353Z</time></trkpt><trkpt lat="38.1213433" lon="15.6541317"><ele>25.666666666666664</ele><time>2026-04-08T15:46:02.352Z</time></trkpt><trkpt lat="38.121405" lon="15.6540917"><ele>26.0</ele><time>2026-04-08T15:46:03.352Z</time></trkpt><trkpt lat="38.1214583" lon="15.6540483"><ele>25.999999999999996</ele><time>2026-04-08T15:46:04.353Z</time></trkpt><trkpt lat="38.1215167" lon="15.65399"><ele>26.0</ele><time>2026-04-08T15:46:05.352Z</time></trkpt><trkpt lat="38.12156" lon="15.6538333"><ele>26.0</ele><time>2026-04-08T15:46:07.352Z</time></trkpt><trkpt lat="38.1215667" lon="15.6537417"><ele>26.0</ele><time>2026-04-08T15:46:08.352Z</time></trkpt><trkpt lat="38.1215583" lon="15.6536583"><ele>25.999999999999996</ele><time>2026-04-08T15:46:09.353Z</time></trkpt><trkpt lat="38.1215517" lon="15.6535267"><ele>26.0</ele><time>2026-04-08T15:46:11.353Z</time></trkpt><trkpt lat="38.1215617" lon="15.6534233"><ele>25.999999999999996</ele><time>2026-04-08T15:46:13.353Z</time></trkpt><trkpt lat="38.1216033" lon="15.65336"><ele>26.0</ele><time>2026-04-08T15:46:16.353Z</time></trkpt><trkpt lat="38.12159" lon="15.6532533"><ele>26.0</ele><time>2026-04-08T15:49:19.352Z</time></trkpt><trkpt lat="38.1215307" lon="15.6531857"><ele>26.0</ele><time>2026-04-08T15:49:52.353Z</time></trkpt><trkpt lat="38.1214455" lon="15.653231"><ele>25.999999999999996</ele><time>2026-04-08T16:22:57.35Z</time></trkpt><trkpt lat="38.121377" lon="15.6533189"><ele>26.0</ele><time>2026-04-08T16:24:03.35Z</time></trkpt><trkpt lat="38.1213538" lon="15.6534304"><ele>25.999999999999996</ele><time>2026-04-08T16:26:04.35Z</time></trkpt><trkpt lat="38.1212896" lon="15.6535107"><ele>26.0</ele><time>2026-04-08T16:30:50.349Z</time></trkpt><trkpt lat="38.1213331" lon="15.6535905"><ele>26.0</ele><time>2026-04-08T16:45:32.35Z</time></trkpt><trkpt lat="38.1213234" lon="15.6537093"><ele>26.0</ele><time>2026-04-08T16:51:27.35Z</time></trkpt><trkpt lat="38.1213639" lon="15.6536327"><ele>25.999999999999996</ele><time>2026-04-08T17:00:37.351Z</time></trkpt><trkpt lat="38.1214696" lon="15.6535874"><ele>26.0</ele><time>2026-04-08T17:00:47.351Z</time></trkpt><trkpt lat="38.121544" lon="15.6534879"><ele>25.666666666666664</ele><time>2026-04-08T17:01:28.351Z</time></trkpt><trkpt lat="38.1214871" lon="15.6533786"><ele>25.333333333333332</ele><time>2026-04-08T17:10:41.352Z</time></trkpt><trkpt lat="38.1214766" lon="15.6532978"><ele>25.0</ele><time>2026-04-08T17:10:46.352Z</time></trkpt><trkpt lat="38.1214075" lon="15.6532324"><ele>24.666666666666664</ele><time>2026-04-08T17:10:50.352Z</time></trkpt><trkpt lat="38.1213009" lon="15.6532204"><ele>24.333333333333332</ele><time>2026-04-08T17:10:52.352Z</time></trkpt><trkpt lat="38.1212348" lon="15.653199"><ele>24.0</ele><time>2026-04-08T17:10:53.352Z</time></trkpt><trkpt lat="38.1211703" lon="15.6531833"><ele>24.0</ele><time>2026-04-08T17:10:54.353Z</time></trkpt><trkpt lat="38.1210809" lon="15.6531841"><ele>24.0</ele><time>2026-04-08T17:10:56.353Z</time></trkpt><trkpt lat="38.1210127" lon="15.6532535"><ele>24.0</ele><time>2026-04-08T17:10:58.353Z</time></trkpt><trkpt lat="38.12097" lon="15.6533463"><ele>24.0</ele><time>2026-04-08T17:11:00.352Z</time></trkpt><trkpt lat="38.1209569" lon="15.6534583"><ele>24.0</ele><time>2026-04-08T17:11:02.352Z</time></trkpt><trkpt lat="38.1209633" lon="15.6535383"><ele>24.0</ele><time>2026-04-08T17:11:03.353Z</time></trkpt><trkpt lat="38.1209833" lon="15.6536317"><ele>24.285714285714285</ele><time>2026-04-08T17:11:04.353Z</time></trkpt><trkpt lat="38.1210133" lon="15.6537283"><ele>24.57142857142857</ele><time>2026-04-08T17:11:05.352Z</time></trkpt><trkpt lat="38.1210367" lon="15.6538117"><ele>24.857142857142854</ele><time>2026-04-08T17:11:06.352Z</time></trkpt><trkpt lat="38.12107" lon="15.6538817"><ele>25.142857142857142</ele><time>2026-04-08T17:11:07.352Z</time></trkpt><trkpt lat="38.1211017" lon="15.6539517"><ele>25.42857142857143</ele><time>2026-04-08T17:11:08.352Z</time></trkpt><trkpt lat="38.1211317" lon="15.6540267"><ele>25.71428571428571</ele><time>2026-04-08T17:11:09.353Z</time></trkpt><trkpt lat="38.1211617" lon="15.6540983"><ele>26.0</ele><time>2026-04-08T17:11:10.353Z</time></trkpt><trkpt lat="38.12117" lon="15.654245"><ele>25.999999999999996</ele><time>2026-04-08T17:11:12.352Z</time></trkpt><trkpt lat="38.1211867" lon="15.6543317"><ele>26.0</ele><time>2026-04-08T17:11:13.352Z</time></trkpt><trkpt lat="38.1212" lon="15.6544283"><ele>26.0</ele><time>2026-04-08T17:11:14.353Z</time></trkpt><trkpt lat="38.12122" lon="15.6545117"><ele>26.0</ele><time>2026-04-08T17:11:15.352Z</time></trkpt><trkpt lat="38.1212333" lon="15.6546633"><ele>25.999999999999996</ele><time>2026-04-08T17:11:17.352Z</time></trkpt><trkpt lat="38.1212183" lon="15.65476"><ele>26.0</ele><time>2026-04-08T17:11:18.352Z</time></trkpt><trkpt lat="38.1212" lon="15.654875"><ele>26.499999999999996</ele><time>2026-04-08T17:11:19.353Z</time></trkpt><trkpt lat="38.121175" lon="15.6549933"><ele>27.0</ele><time>2026-04-08T17:11:20.353Z</time></trkpt><trkpt lat="38.1211617" lon="15.655115"><ele>27.5</ele><time>2026-04-08T17:11:21.353Z</time></trkpt><trkpt lat="38.1211367" lon="15.6552333"><ele>28.0</ele><time>2026-04-08T17:11:22.353Z</time></trkpt><trkpt lat="38.1211083" lon="15.6553267"><ele>28.499999999999996</ele><time>2026-04-08T17:11:23.352Z</time></trkpt><trkpt lat="38.1210783" lon="15.6554133"><ele>29.0</ele><time>2026-04-08T17:11:24.352Z</time></trkpt><trkpt lat="38.1210467" lon="15.6555"><ele>29.166666666666664</ele><time>2026-04-08T17:11:25.353Z</time></trkpt><trkpt lat="38.1210317" lon="15.6556"><ele>29.333333333333332</ele><time>2026-04-08T17:11:26.353Z</time></trkpt><trkpt lat="38.1210117" lon="15.6557"><ele>29.5</ele><time>2026-04-08T17:11:27.352Z</time></trkpt><trkpt lat="38.121" lon="15.6558033"><ele>29.666666666666664</ele><time>2026-04-08T17:11:28.353Z</time></trkpt><trkpt lat="38.1209867" lon="15.6558883"><ele>29.833333333333332</ele><time>2026-04-08T17:11:29.353Z</time></trkpt><trkpt lat="38.1209633" lon="15.6559817"><ele>30.0</ele><time>2026-04-08T17:11:31.353Z</time></trkpt><trkpt lat="38.1209283" lon="15.65609"><ele>31.2</ele><time>2026-04-08T17:11:33.352Z</time></trkpt><trkpt lat="38.1208867" lon="15.656225"><ele>32.4</ele><time>2026-04-08T17:11:35.353Z</time></trkpt><trkpt lat="38.12086" lon="15.6563817"><ele>33.6</ele><time>2026-04-08T17:11:37.353Z</time></trkpt><trkpt lat="38.1208283" lon="15.6565317"><ele>34.8</ele><time>2026-04-08T17:11:39.352Z</time></trkpt><trkpt lat="38.1208017" lon="15.6566083"><ele>36.0</ele><time>2026-04-08T17:11:41.352Z</time></trkpt><trkpt lat="38.1207817" lon="15.656685"><ele>36.0</ele><time>2026-04-08T17:11:49.352Z</time></trkpt><trkpt lat="38.12075" lon="15.6568167"><ele>36.0</ele><time>2026-04-08T17:11:51.352Z</time></trkpt><trkpt lat="38.1207167" lon="15.6569117"><ele>36.0</ele><time>2026-04-08T17:11:53.353Z</time></trkpt><trkpt lat="38.1206817" lon="15.6570217"><ele>36.0</ele><time>2026-04-08T17:11:55.352Z</time></trkpt><trkpt lat="38.12066" lon="15.6571317"><ele>36.0</ele><time>2026-04-08T17:11:57.352Z</time></trkpt><trkpt lat="38.120645" lon="15.657245"><ele>37.0</ele><time>2026-04-08T17:11:59.352Z</time></trkpt><trkpt lat="38.120685" lon="15.657335"><ele>38.0</ele><time>2026-04-08T17:12:01.352Z</time></trkpt><trkpt lat="38.120785" lon="15.657415"><ele>39.0</ele><time>2026-04-08T17:12:03.352Z</time></trkpt><trkpt lat="38.1208917" lon="15.6574633"><ele>40.0</ele><time>2026-04-08T17:12:05.352Z</time></trkpt><trkpt lat="38.120975" lon="15.65749"><ele>41.0</ele><time>2026-04-08T17:12:07.352Z</time></trkpt><trkpt lat="38.1210467" lon="15.65752"><ele>41.0</ele><time>2026-04-08T17:12:09.353Z</time></trkpt><trkpt lat="38.1211283" lon="15.6575417"><ele>41.0</ele><time>2026-04-08T17:12:11.352Z</time></trkpt><trkpt lat="38.1211967" lon="15.6575467"><ele>41.0</ele><time>2026-04-08T17:12:13.353Z</time></trkpt><trkpt lat="38.1212933" lon="15.657575"><ele>41.0</ele><time>2026-04-08T17:12:16.352Z</time></trkpt><trkpt lat="38.1213717" lon="15.657605"><ele>41.0</ele><time>2026-04-08T17:12:18.352Z</time></trkpt><trkpt lat="38.12145" lon="15.6576333"><ele>41.0</ele><time>2026-04-08T17:12:20.353Z</time></trkpt><trkpt lat="38.121525" lon="15.65767"><ele>40.83333333333333</ele><time>2026-04-08T17:12:22.352Z</time></trkpt><trkpt lat="38.1216183" lon="15.657705"><ele>40.666666666666664</ele><time>2026-04-08T17:12:24.352Z</time></trkpt><trkpt lat="38.121715" lon="15.65775"><ele>40.5</ele><time>2026-04-08T17:12:26.352Z</time></trkpt><trkpt lat="38.1218067" lon="15.6577867"><ele>40.333333333333336</ele><time>2026-04-08T17:12:28.352Z</time></trkpt><trkpt lat="38.1218783" lon="15.6578083"><ele>40.16666666666667</ele><time>2026-04-08T17:12:30.353Z</time></trkpt><trkpt lat="38.1219433" lon="15.6578083"><ele>40.0</ele><time>2026-04-08T17:12:32.352Z</time></trkpt><trkpt lat="38.1220267" lon="15.657795"><ele>40.0</ele><time>2026-04-08T17:12:34.352Z</time></trkpt><trkpt lat="38.1221183" lon="15.6577333"><ele>40.0</ele><time>2026-04-08T17:12:36.352Z</time></trkpt><trkpt lat="38.1221467" lon="15.6576617"><ele>40.0</ele><time>2026-04-08T17:12:37.352Z</time></trkpt><trkpt lat="38.1221533" lon="15.6575633"><ele>40.0</ele><time>2026-04-08T17:12:38.352Z</time></trkpt><trkpt lat="38.12213" lon="15.6574483"><ele>40.0</ele><time>2026-04-08T17:12:39.352Z</time></trkpt><trkpt lat="38.1221133" lon="15.6573317"><ele>40.0</ele><time>2026-04-08T17:12:40.352Z</time></trkpt><trkpt lat="38.1220933" lon="15.6572133"><ele>40.0</ele><time>2026-04-08T17:12:41.352Z</time></trkpt><trkpt lat="38.122075" lon="15.6570983"><ele>40.0</ele><time>2026-04-08T17:12:42.352Z</time></trkpt><trkpt lat="38.12206" lon="15.6569817"><ele>40.0</ele><time>2026-04-08T17:12:43.353Z</time></trkpt><trkpt lat="38.12204" lon="15.6568617"><ele>40.0</ele><time>2026-04-08T17:12:44.353Z</time></trkpt><trkpt lat="38.12203" lon="15.6567383"><ele>40.0</ele><time>2026-04-08T17:12:45.352Z</time></trkpt><trkpt lat="38.12201" lon="15.6566217"><ele>38.8</ele><time>2026-04-08T17:12:46.352Z</time></trkpt><trkpt lat="38.1219867" lon="15.6565033"><ele>37.6</ele><time>2026-04-08T17:12:47.353Z</time></trkpt><trkpt lat="38.1219617" lon="15.6563883"><ele>36.4</ele><time>2026-04-08T17:12:48.353Z</time></trkpt><trkpt lat="38.1219367" lon="15.656275"><ele>35.2</ele><time>2026-04-08T17:12:49.353Z</time></trkpt><trkpt lat="38.1219117" lon="15.6561517"><ele>34.0</ele><time>2026-04-08T17:12:50.352Z</time></trkpt><trkpt lat="38.121875" lon="15.6560383"><ele>33.5</ele><time>2026-04-08T17:12:51.353Z</time></trkpt><trkpt lat="38.1218433" lon="15.65593"><ele>33.0</ele><time>2026-04-08T17:12:52.353Z</time></trkpt><trkpt lat="38.1218117" lon="15.6558283"><ele>32.5</ele><time>2026-04-08T17:12:53.352Z</time></trkpt><trkpt lat="38.1217883" lon="15.6557317"><ele>32.0</ele><time>2026-04-08T17:12:54.353Z</time></trkpt><trkpt lat="38.1217683" lon="15.655655"><ele>31.500000000000004</ele><time>2026-04-08T17:12:55.352Z</time></trkpt><trkpt lat="38.1217517" lon="15.655535"><ele>31.0</ele><time>2026-04-08T17:12:57.352Z</time></trkpt><trkpt lat="38.121815" lon="15.65545"><ele>31.0</ele><time>2026-04-08T17:13:00.352Z</time></trkpt><trkpt lat="38.1219333" lon="15.655465"><ele>31.0</ele><time>2026-04-08T17:13:02.353Z</time></trkpt><trkpt lat="38.1220133" lon="15.6554817"><ele>31.0</ele><time>2026-04-08T17:13:03.352Z</time></trkpt><trkpt lat="38.1221033" lon="15.6555017"><ele>31.0</ele><time>2026-04-08T17:13:04.352Z</time></trkpt><trkpt lat="38.1222033" lon="15.655525"><ele>31.0</ele><time>2026-04-08T17:13:05.352Z</time></trkpt><trkpt lat="38.1223067" lon="15.6555317"><ele>31.0</ele><time>2026-04-08T17:13:06.353Z</time></trkpt><trkpt lat="38.1224167" lon="15.6555583"><ele>31.0</ele><time>2026-04-08T17:13:07.352Z</time></trkpt><trkpt lat="38.12253" lon="15.6555867"><ele>31.0</ele><time>2026-04-08T17:13:08.352Z</time></trkpt><trkpt lat="38.1226383" lon="15.6555917"><ele>31.0</ele><time>2026-04-08T17:13:09.353Z</time></trkpt><trkpt lat="38.1227417" lon="15.6556117"><ele>31.0</ele><time>2026-04-08T17:13:10.352Z</time></trkpt><trkpt lat="38.1228533" lon="15.6556233"><ele>31.0</ele><time>2026-04-08T17:13:11.353Z</time></trkpt><trkpt lat="38.122965" lon="15.6556433"><ele>31.0</ele><time>2026-04-08T17:13:12.353Z</time></trkpt><trkpt lat="38.12308" lon="15.6556667"><ele>31.0</ele><time>2026-04-08T17:13:13.353Z</time></trkpt><trkpt lat="38.1231933" lon="15.655695"><ele>31.0</ele><time>2026-04-08T17:13:14.352Z</time></trkpt><trkpt lat="38.123305" lon="15.65571"><ele>31.0</ele><time>2026-04-08T17:13:15.352Z</time></trkpt><trkpt lat="38.1234067" lon="15.6557167"><ele>31.0</ele><time>2026-04-08T17:13:16.352Z</time></trkpt><trkpt lat="38.1235133" lon="15.655735"><ele>31.0</ele><time>2026-04-08T17:13:17.353Z</time></trkpt><trkpt lat="38.1236367" lon="15.6557717"><ele>31.0</ele><time>2026-04-08T17:13:18.353Z</time></trkpt><trkpt lat="38.1237467" lon="15.6557883"><ele>31.0</ele><time>2026-04-08T17:13:19.352Z</time></trkpt><trkpt lat="38.1238517" lon="15.6558033"><ele>31.0</ele><time>2026-04-08T17:13:20.352Z</time></trkpt><trkpt lat="38.1239567" lon="15.6558133"><ele>31.0</ele><time>2026-04-08T17:13:21.352Z</time></trkpt><trkpt lat="38.1240583" lon="15.6558317"><ele>31.0</ele><time>2026-04-08T17:13:22.353Z</time></trkpt><trkpt lat="38.1241667" lon="15.6558517"><ele>31.0</ele><time>2026-04-08T17:13:23.352Z</time></trkpt><trkpt lat="38.1242767" lon="15.6558767"><ele>31.0</ele><time>2026-04-08T17:13:24.353Z</time></trkpt><trkpt lat="38.1243883" lon="15.6558967"><ele>31.0</ele><time>2026-04-08T17:13:25.353Z</time></trkpt><trkpt lat="38.1245033" lon="15.655915"><ele>31.0</ele><time>2026-04-08T17:13:26.352Z</time></trkpt><trkpt lat="38.124625" lon="15.6559367"><ele>31.0</ele><time>2026-04-08T17:13:27.353Z</time></trkpt><trkpt lat="38.124745" lon="15.6559533"><ele>31.0</ele><time>2026-04-08T17:13:28.353Z</time></trkpt><trkpt lat="38.1248617" lon="15.6559583"><ele>30.666666666666668</ele><time>2026-04-08T17:13:29.352Z</time></trkpt><trkpt lat="38.124955" lon="15.6559783"><ele>30.333333333333336</ele><time>2026-04-08T17:13:30.352Z</time></trkpt><trkpt lat="38.1250383" lon="15.65599"><ele>30.0</ele><time>2026-04-08T17:13:31.353Z</time></trkpt><trkpt lat="38.12512" lon="15.65601"><ele>29.666666666666664</ele><time>2026-04-08T17:13:32.352Z</time></trkpt><trkpt lat="38.1252083" lon="15.6560183"><ele>29.333333333333332</ele><time>2026-04-08T17:13:33.352Z</time></trkpt><trkpt lat="38.1253033" lon="15.656025"><ele>29.0</ele><time>2026-04-08T17:13:34.353Z</time></trkpt><trkpt lat="38.1254033" lon="15.656035"><ele>29.0</ele><time>2026-04-08T17:13:35.352Z</time></trkpt><trkpt lat="38.1255" lon="15.65605"><ele>29.0</ele><time>2026-04-08T17:13:36.352Z</time></trkpt><trkpt lat="38.1256017" lon="15.6560767"><ele>29.0</ele><time>2026-04-08T17:13:37.353Z</time></trkpt><trkpt lat="38.1257033" lon="15.6561067"><ele>29.0</ele><time>2026-04-08T17:13:38.352Z</time></trkpt><trkpt lat="38.1258133" lon="15.6561333"><ele>29.0</ele><time>2026-04-08T17:13:39.352Z</time></trkpt><trkpt lat="38.1259267" lon="15.6561633"><ele>30.75</ele><time>2026-04-08T17:13:40.353Z</time></trkpt><trkpt lat="38.1260583" lon="15.6561833"><ele>32.5</ele><time>2026-04-08T17:13:41.352Z</time></trkpt><trkpt lat="38.1261883" lon="15.6561967"><ele>34.25</ele><time>2026-04-08T17:13:42.353Z</time></trkpt><trkpt lat="38.1263017" lon="15.6562017"><ele>36.0</ele><time>2026-04-08T17:13:43.353Z</time></trkpt><trkpt lat="38.1264067" lon="15.6562117"><ele>36.0</ele><time>2026-04-08T17:13:44.352Z</time></trkpt><trkpt lat="38.1265167" lon="15.6562267"><ele>36.0</ele><time>2026-04-08T17:13:45.352Z</time></trkpt><trkpt lat="38.1266267" lon="15.6562467"><ele>36.0</ele><time>2026-04-08T17:13:46.352Z</time></trkpt><trkpt lat="38.12674" lon="15.6562767"><ele>36.0</ele><time>2026-04-08T17:13:47.353Z</time></trkpt><trkpt lat="38.1268467" lon="15.6562983"><ele>36.0</ele><time>2026-04-08T17:13:48.353Z</time></trkpt><trkpt lat="38.1269433" lon="15.6563167"><ele>36.2</ele><time>2026-04-08T17:13:49.353Z</time></trkpt><trkpt lat="38.127035" lon="15.6563383"><ele>36.400000000000006</ele><time>2026-04-08T17:13:50.352Z</time></trkpt><trkpt lat="38.1271333" lon="15.656355"><ele>36.6</ele><time>2026-04-08T17:13:51.353Z</time></trkpt><trkpt lat="38.1272483" lon="15.6563567"><ele>36.800000000000004</ele><time>2026-04-08T17:13:52.353Z</time></trkpt><trkpt lat="38.1273667" lon="15.6563633"><ele>37.0</ele><time>2026-04-08T17:13:53.353Z</time></trkpt><trkpt lat="38.1274867" lon="15.65638"><ele>38.25</ele><time>2026-04-08T17:13:54.353Z</time></trkpt><trkpt lat="38.1276083" lon="15.6563983"><ele>39.5</ele><time>2026-04-08T17:13:55.352Z</time></trkpt><trkpt lat="38.127735" lon="15.6564317"><ele>40.75</ele><time>2026-04-08T17:13:56.353Z</time></trkpt><trkpt lat="38.12786" lon="15.6564717"><ele>42.0</ele><time>2026-04-08T17:13:57.352Z</time></trkpt><trkpt lat="38.1279917" lon="15.6565017"><ele>42.0</ele><time>2026-04-08T17:13:58.353Z</time></trkpt><trkpt lat="38.12813" lon="15.65653"><ele>42.0</ele><time>2026-04-08T17:13:59.352Z</time></trkpt><trkpt lat="38.1282617" lon="15.65654"><ele>42.0</ele><time>2026-04-08T17:14:00.353Z</time></trkpt><trkpt lat="38.1284133" lon="15.6565733"><ele>42.0</ele><time>2026-04-08T17:14:01.352Z</time></trkpt><trkpt lat="38.1285633" lon="15.6565917"><ele>42.5</ele><time>2026-04-08T17:14:02.352Z</time></trkpt><trkpt lat="38.1287067" lon="15.6566167"><ele>43.0</ele><time>2026-04-08T17:14:03.352Z</time></trkpt><trkpt lat="38.1288467" lon="15.656635"><ele>43.5</ele><time>2026-04-08T17:14:04.352Z</time></trkpt><trkpt lat="38.1289783" lon="15.6566417"><ele>44.0</ele><time>2026-04-08T17:14:05.353Z</time></trkpt><trkpt lat="38.129115" lon="15.6566283"><ele>44.33333333333333</ele><time>2026-04-08T17:14:06.352Z</time></trkpt><trkpt lat="38.1292567" lon="15.6565633"><ele>44.666666666666664</ele><time>2026-04-08T17:14:07.352Z</time></trkpt><trkpt lat="38.1294217" lon="15.656465"><ele>45.0</ele><time>2026-04-08T17:14:08.353Z</time></trkpt><trkpt lat="38.12959" lon="15.6563783"><ele>45.0</ele><time>2026-04-08T17:14:09.352Z</time></trkpt><trkpt lat="38.12978" lon="15.65633"><ele>45.0</ele><time>2026-04-08T17:14:10.352Z</time></trkpt><trkpt lat="38.12998" lon="15.65632"><ele>45.0</ele><time>2026-04-08T17:14:11.352Z</time></trkpt><trkpt lat="38.130175" lon="15.656365"><ele>44.666666666666664</ele><time>2026-04-08T17:14:12.352Z</time></trkpt><trkpt lat="38.130375" lon="15.656445"><ele>44.33333333333333</ele><time>2026-04-08T17:14:13.352Z</time></trkpt><trkpt lat="38.1305733" lon="15.6565633"><ele>44.0</ele><time>2026-04-08T17:14:14.353Z</time></trkpt><trkpt lat="38.13078" lon="15.6566817"><ele>44.0</ele><time>2026-04-08T17:14:15.352Z</time></trkpt><trkpt lat="38.13099" lon="15.6567933"><ele>44.0</ele><time>2026-04-08T17:14:16.352Z</time></trkpt><trkpt lat="38.131205" lon="15.65691"><ele>48.0</ele><time>2026-04-08T17:14:17.352Z</time></trkpt><trkpt lat="38.1314267" lon="15.657035"><ele>52.0</ele><time>2026-04-08T17:14:18.353Z</time></trkpt><trkpt lat="38.1316367" lon="15.657155"><ele>52.0</ele><time>2026-04-08T17:14:19.352Z</time></trkpt><trkpt lat="38.1318533" lon="15.6572717"><ele>52.0</ele><time>2026-04-08T17:14:20.353Z</time></trkpt><trkpt lat="38.13207" lon="15.6574"><ele>52.0</ele><time>2026-04-08T17:14:21.352Z</time></trkpt><trkpt lat="38.1322833" lon="15.6575083"><ele>52.0</ele><time>2026-04-08T17:14:22.352Z</time></trkpt><trkpt lat="38.1324933" lon="15.6576233"><ele>50.5</ele><time>2026-04-08T17:14:23.353Z</time></trkpt><trkpt lat="38.132705" lon="15.65773"><ele>49.0</ele><time>2026-04-08T17:14:24.352Z</time></trkpt><trkpt lat="38.13292" lon="15.6578483"><ele>54.5</ele><time>2026-04-08T17:14:25.352Z</time></trkpt><trkpt lat="38.1331317" lon="15.65796"><ele>60.0</ele><time>2026-04-08T17:14:26.352Z</time></trkpt><trkpt lat="38.1333417" lon="15.6580783"><ele>60.0</ele><time>2026-04-08T17:14:27.353Z</time></trkpt><trkpt lat="38.133555" lon="15.658185"><ele>60.0</ele><time>2026-04-08T17:14:28.352Z</time></trkpt><trkpt lat="38.1337683" lon="15.658305"><ele>60.0</ele><time>2026-04-08T17:14:29.352Z</time></trkpt><trkpt lat="38.1339917" lon="15.658415"><ele>60.0</ele><time>2026-04-08T17:14:30.353Z</time></trkpt><trkpt lat="38.1342083" lon="15.65854"><ele>51.5</ele><time>2026-04-08T17:14:31.353Z</time></trkpt><trkpt lat="38.1344383" lon="15.6586617"><ele>43.0</ele><time>2026-04-08T17:14:32.352Z</time></trkpt><trkpt lat="38.1346617" lon="15.658795"><ele>46.5</ele><time>2026-04-08T17:14:33.353Z</time></trkpt><trkpt lat="38.1348967" lon="15.65892"><ele>50.0</ele><time>2026-04-08T17:14:34.352Z</time></trkpt><trkpt lat="38.135125" lon="15.65905"><ele>50.0</ele><time>2026-04-08T17:14:35.353Z</time></trkpt><trkpt lat="38.1353617" lon="15.6591833"><ele>50.0</ele><time>2026-04-08T17:14:36.352Z</time></trkpt><trkpt lat="38.1356017" lon="15.6593183"><ele>60.0</ele><time>2026-04-08T17:14:37.353Z</time></trkpt><trkpt lat="38.1358433" lon="15.6594417"><ele>70.0</ele><time>2026-04-08T17:14:38.353Z</time></trkpt><trkpt lat="38.136085" lon="15.6595617"><ele>83.5</ele><time>2026-04-08T17:14:39.352Z</time></trkpt><trkpt lat="38.13633" lon="15.6596867"><ele>97.0</ele><time>2026-04-08T17:14:40.353Z</time></trkpt><trkpt lat="38.136535" lon="15.659865"><ele>82.5</ele><time>2026-04-08T17:14:41.353Z</time></trkpt><trkpt lat="38.1368017" lon="15.660005"><ele>68.0</ele><time>2026-04-08T17:14:42.352Z</time></trkpt><trkpt lat="38.1372983" lon="15.6602417"><ele>73.5</ele><time>2026-04-08T17:14:44.353Z</time></trkpt><trkpt lat="38.13754" lon="15.6603767"><ele>79.0</ele><time>2026-04-08T17:14:45.352Z</time></trkpt><trkpt lat="38.1380317" lon="15.66062"><ele>72.5</ele><time>2026-04-08T17:14:47.353Z</time></trkpt><trkpt lat="38.1382867" lon="15.660745"><ele>66.0</ele><time>2026-04-08T17:14:48.353Z</time></trkpt><trkpt lat="38.138535" lon="15.660875"><ele>66.0</ele><time>2026-04-08T17:14:49.353Z</time></trkpt><trkpt lat="38.1387833" lon="15.6610117"><ele>66.0</ele><time>2026-04-08T17:14:50.352Z</time></trkpt><trkpt lat="38.13902" lon="15.661145"><ele>68.0</ele><time>2026-04-08T17:14:51.353Z</time></trkpt><trkpt lat="38.1392667" lon="15.66128"><ele>70.0</ele><time>2026-04-08T17:14:52.353Z</time></trkpt><trkpt lat="38.1395067" lon="15.6614067"><ele>74.0</ele><time>2026-04-08T17:14:53.353Z</time></trkpt><trkpt lat="38.14" lon="15.6616767"><ele>74.0</ele><time>2026-04-08T17:14:55.353Z</time></trkpt><trkpt lat="38.1404867" lon="15.6619383"><ele>74.5</ele><time>2026-04-08T17:14:57.352Z</time></trkpt><trkpt lat="38.140725" lon="15.66208"><ele>75.0</ele><time>2026-04-08T17:14:58.353Z</time></trkpt><trkpt lat="38.140955" lon="15.662235"><ele>75.0</ele><time>2026-04-08T17:14:59.352Z</time></trkpt><trkpt lat="38.14118" lon="15.6623983"><ele>75.0</ele><time>2026-04-08T17:15:00.353Z</time></trkpt><trkpt lat="38.1413967" lon="15.6625717"><ele>74.0</ele><time>2026-04-08T17:15:01.353Z</time></trkpt><trkpt lat="38.1416033" lon="15.6627483"><ele>73.0</ele><time>2026-04-08T17:15:02.352Z</time></trkpt><trkpt lat="38.1418083" lon="15.662925"><ele>78.5</ele><time>2026-04-08T17:15:03.352Z</time></trkpt><trkpt lat="38.1419933" lon="15.6631317"><ele>84.0</ele><time>2026-04-08T17:15:04.352Z</time></trkpt><trkpt lat="38.14217" lon="15.66332"><ele>84.0</ele><time>2026-04-08T17:15:05.352Z</time></trkpt><trkpt lat="38.14233" lon="15.663505"><ele>84.0</ele><time>2026-04-08T17:15:06.352Z</time></trkpt><trkpt lat="38.1424767" lon="15.6636917"><ele>84.0</ele><time>2026-04-08T17:15:07.352Z</time></trkpt><trkpt lat="38.1426233" lon="15.6638817"><ele>82.66666666666667</ele><time>2026-04-08T17:15:08.353Z</time></trkpt><trkpt lat="38.1427633" lon="15.6640867"><ele>81.33333333333334</ele><time>2026-04-08T17:15:09.352Z</time></trkpt><trkpt lat="38.1429033" lon="15.6642983"><ele>80.0</ele><time>2026-04-08T17:15:10.352Z</time></trkpt><trkpt lat="38.1430417" lon="15.6645033"><ele>78.66666666666667</ele><time>2026-04-08T17:15:11.352Z</time></trkpt><trkpt lat="38.14318" lon="15.66472"><ele>77.33333333333333</ele><time>2026-04-08T17:15:12.353Z</time></trkpt><trkpt lat="38.1433083" lon="15.6649433"><ele>76.0</ele><time>2026-04-08T17:15:13.352Z</time></trkpt><trkpt lat="38.1434383" lon="15.66517"><ele>70.66666666666666</ele><time>2026-04-08T17:15:14.353Z</time></trkpt><trkpt lat="38.1435667" lon="15.665395"><ele>65.33333333333333</ele><time>2026-04-08T17:15:15.352Z</time></trkpt><trkpt lat="38.1436917" lon="15.6656133"><ele>60.0</ele><time>2026-04-08T17:15:16.353Z</time></trkpt><trkpt lat="38.1438217" lon="15.6658383"><ele>60.0</ele><time>2026-04-08T17:15:17.352Z</time></trkpt><trkpt lat="38.14395" lon="15.6660683"><ele>60.0</ele><time>2026-04-08T17:15:18.353Z</time></trkpt><trkpt lat="38.144085" lon="15.666295"><ele>60.0</ele><time>2026-04-08T17:15:19.353Z</time></trkpt><trkpt lat="38.144225" lon="15.6665083"><ele>64.5</ele><time>2026-04-08T17:15:20.353Z</time></trkpt><trkpt lat="38.144385" lon="15.666715"><ele>69.0</ele><time>2026-04-08T17:15:21.353Z</time></trkpt><trkpt lat="38.14456" lon="15.666915"><ele>68.0</ele><time>2026-04-08T17:15:22.352Z</time></trkpt><trkpt lat="38.1447567" lon="15.6671033"><ele>67.0</ele><time>2026-04-08T17:15:23.353Z</time></trkpt><trkpt lat="38.1449667" lon="15.6672783"><ele>77.5</ele><time>2026-04-08T17:15:24.353Z</time></trkpt><trkpt lat="38.1451917" lon="15.6674417"><ele>88.0</ele><time>2026-04-08T17:15:25.352Z</time></trkpt><trkpt lat="38.145425" lon="15.6675833"><ele>88.0</ele><time>2026-04-08T17:15:26.352Z</time></trkpt><trkpt lat="38.1456783" lon="15.6677133"><ele>88.0</ele><time>2026-04-08T17:15:27.353Z</time></trkpt><trkpt lat="38.14593" lon="15.66785"><ele>101.0</ele><time>2026-04-08T17:15:28.352Z</time></trkpt><trkpt lat="38.146205" lon="15.6679867"><ele>114.0</ele><time>2026-04-08T17:15:29.353Z</time></trkpt><trkpt lat="38.1464717" lon="15.6681117"><ele>111.5</ele><time>2026-04-08T17:15:30.352Z</time></trkpt><trkpt lat="38.14675" lon="15.6682433"><ele>109.0</ele><time>2026-04-08T17:15:31.353Z</time></trkpt><trkpt lat="38.1470417" lon="15.6683883"><ele>103.5</ele><time>2026-04-08T17:15:32.353Z</time></trkpt><trkpt lat="38.147435" lon="15.6683283"><ele>98.0</ele><time>2026-04-08T17:15:33.353Z</time></trkpt><trkpt lat="38.147855" lon="15.668145"><ele>98.0</ele><time>2026-04-08T17:15:34.353Z</time></trkpt><trkpt lat="38.1481783" lon="15.6681433"><ele>98.0</ele><time>2026-04-08T17:15:35.353Z</time></trkpt><trkpt lat="38.1484733" lon="15.6681617"><ele>94.5</ele><time>2026-04-08T17:15:36.352Z</time></trkpt><trkpt lat="38.1487717" lon="15.6681933"><ele>91.0</ele><time>2026-04-08T17:15:37.352Z</time></trkpt><trkpt lat="38.1490783" lon="15.6682383"><ele>88.0</ele><time>2026-04-08T17:15:38.352Z</time></trkpt><trkpt lat="38.14938" lon="15.6682717"><ele>85.0</ele><time>2026-04-08T17:15:39.353Z</time></trkpt><trkpt lat="38.149695" lon="15.668315"><ele>80.0</ele><time>2026-04-08T17:15:40.352Z</time></trkpt><trkpt lat="38.1500117" lon="15.6683483"><ele>75.0</ele><time>2026-04-08T17:15:41.353Z</time></trkpt><trkpt lat="38.150335" lon="15.6683717"><ele>75.0</ele><time>2026-04-08T17:15:42.352Z</time></trkpt><trkpt lat="38.1506617" lon="15.6683767"><ele>75.0</ele><time>2026-04-08T17:15:43.353Z</time></trkpt><trkpt lat="38.1510033" lon="15.66837"><ele>76.0</ele><time>2026-04-08T17:15:44.352Z</time></trkpt><trkpt lat="38.151345" lon="15.6683433"><ele>77.0</ele><time>2026-04-08T17:15:45.352Z</time></trkpt><trkpt lat="38.1516817" lon="15.6682983"><ele>77.0</ele><time>2026-04-08T17:15:46.352Z</time></trkpt><trkpt lat="38.1520167" lon="15.6682467"><ele>77.0</ele><time>2026-04-08T17:15:47.352Z</time></trkpt><trkpt lat="38.1523383" lon="15.6681667"><ele>77.5</ele><time>2026-04-08T17:15:48.352Z</time></trkpt><trkpt lat="38.1526633" lon="15.668075"><ele>78.0</ele><time>2026-04-08T17:15:49.352Z</time></trkpt><trkpt lat="38.1529917" lon="15.6679783"><ele>78.0</ele><time>2026-04-08T17:15:50.352Z</time></trkpt><trkpt lat="38.1533267" lon="15.6678667"><ele>78.0</ele><time>2026-04-08T17:15:51.352Z</time></trkpt><trkpt lat="38.1536633" lon="15.6677383"><ele>71.0</ele><time>2026-04-08T17:15:52.352Z</time></trkpt><trkpt lat="38.1540133" lon="15.6676117"><ele>64.0</ele><time>2026-04-08T17:15:53.352Z</time></trkpt><trkpt lat="38.1543817" lon="15.6674933"><ele>63.5</ele><time>2026-04-08T17:15:54.352Z</time></trkpt><trkpt lat="38.1547683" lon="15.66737"><ele>63.0</ele><time>2026-04-08T17:15:55.353Z</time></trkpt><trkpt lat="38.155145" lon="15.6672567"><ele>64.0</ele><time>2026-04-08T17:15:56.353Z</time></trkpt><trkpt lat="38.1555117" lon="15.6671383"><ele>65.0</ele><time>2026-04-08T17:15:57.352Z</time></trkpt><trkpt lat="38.1558667" lon="15.6670183"><ele>61.5</ele><time>2026-04-08T17:15:58.353Z</time></trkpt><trkpt lat="38.15622" lon="15.6668967"><ele>58.0</ele><time>2026-04-08T17:15:59.352Z</time></trkpt><trkpt lat="38.156585" lon="15.666775"><ele>58.0</ele><time>2026-04-08T17:16:00.352Z</time></trkpt><trkpt lat="38.1569633" lon="15.6666533"><ele>58.0</ele><time>2026-04-08T17:16:01.353Z</time></trkpt><trkpt lat="38.1573217" lon="15.66651"><ele>58.5</ele><time>2026-04-08T17:16:02.353Z</time></trkpt><trkpt lat="38.1576683" lon="15.6663417"><ele>59.0</ele><time>2026-04-08T17:16:03.352Z</time></trkpt><trkpt lat="38.15802" lon="15.6661367"><ele>57.0</ele><time>2026-04-08T17:16:04.352Z</time></trkpt><trkpt lat="38.158365" lon="15.6659033"><ele>55.0</ele><time>2026-04-08T17:16:05.352Z</time></trkpt><trkpt lat="38.1586983" lon="15.665645"><ele>55.0</ele><time>2026-04-08T17:16:06.352Z</time></trkpt><trkpt lat="38.15902" lon="15.6653667"><ele>55.0</ele><time>2026-04-08T17:16:07.352Z</time></trkpt><trkpt lat="38.1593283" lon="15.6650683"><ele>54.5</ele><time>2026-04-08T17:16:08.352Z</time></trkpt><trkpt lat="38.1596417" lon="15.66475"><ele>54.0</ele><time>2026-04-08T17:16:09.353Z</time></trkpt><trkpt lat="38.1599717" lon="15.6644367"><ele>54.0</ele><time>2026-04-08T17:16:10.352Z</time></trkpt><trkpt lat="38.1603033" lon="15.66413"><ele>54.0</ele><time>2026-04-08T17:16:11.352Z</time></trkpt><trkpt lat="38.160635" lon="15.6638133"><ele>52.5</ele><time>2026-04-08T17:16:12.353Z</time></trkpt><trkpt lat="38.16097" lon="15.6634867"><ele>51.0</ele><time>2026-04-08T17:16:13.353Z</time></trkpt><trkpt lat="38.1612783" lon="15.663175"><ele>52.5</ele><time>2026-04-08T17:16:14.352Z</time></trkpt><trkpt lat="38.1615683" lon="15.6628917"><ele>54.0</ele><time>2026-04-08T17:16:15.353Z</time></trkpt><trkpt lat="38.1618417" lon="15.66263"><ele>52.5</ele><time>2026-04-08T17:16:16.353Z</time></trkpt><trkpt lat="38.1621183" lon="15.6623717"><ele>51.0</ele><time>2026-04-08T17:16:17.352Z</time></trkpt><trkpt lat="38.1623867" lon="15.662115"><ele>47.0</ele><time>2026-04-08T17:16:18.353Z</time></trkpt><trkpt lat="38.1626533" lon="15.6618517"><ele>43.0</ele><time>2026-04-08T17:16:19.352Z</time></trkpt><trkpt lat="38.1629267" lon="15.6615933"><ele>43.0</ele><time>2026-04-08T17:16:20.352Z</time></trkpt><trkpt lat="38.16319" lon="15.6613483"><ele>43.0</ele><time>2026-04-08T17:16:21.352Z</time></trkpt><trkpt lat="38.1634417" lon="15.6611117"><ele>40.5</ele><time>2026-04-08T17:16:22.353Z</time></trkpt><trkpt lat="38.1636833" lon="15.6608917"><ele>38.0</ele><time>2026-04-08T17:16:23.353Z</time></trkpt><trkpt lat="38.16391" lon="15.6606783"><ele>38.5</ele><time>2026-04-08T17:16:24.352Z</time></trkpt><trkpt lat="38.1641317" lon="15.6604567"><ele>39.0</ele><time>2026-04-08T17:16:25.353Z</time></trkpt><trkpt lat="38.1643567" lon="15.6602417"><ele>35.0</ele><time>2026-04-08T17:16:26.353Z</time></trkpt><trkpt lat="38.164585" lon="15.6600217"><ele>31.0</ele><time>2026-04-08T17:16:27.352Z</time></trkpt><trkpt lat="38.164815" lon="15.6598017"><ele>32.0</ele><time>2026-04-08T17:16:28.353Z</time></trkpt><trkpt lat="38.1650433" lon="15.6595783"><ele>33.0</ele><time>2026-04-08T17:16:29.353Z</time></trkpt><trkpt lat="38.1652617" lon="15.6593733"><ele>32.5</ele><time>2026-04-08T17:16:30.353Z</time></trkpt><trkpt lat="38.1654883" lon="15.659175"><ele>32.0</ele><time>2026-04-08T17:16:31.353Z</time></trkpt><trkpt lat="38.16571" lon="15.6589783"><ele>32.0</ele><time>2026-04-08T17:16:32.352Z</time></trkpt><trkpt lat="38.1659183" lon="15.65879"><ele>32.0</ele><time>2026-04-08T17:16:33.352Z</time></trkpt><trkpt lat="38.166115" lon="15.658605"><ele>30.5</ele><time>2026-04-08T17:16:34.352Z</time></trkpt><trkpt lat="38.1663067" lon="15.6584267"><ele>29.0</ele><time>2026-04-08T17:16:35.352Z</time></trkpt><trkpt lat="38.1664967" lon="15.6582533"><ele>30.0</ele><time>2026-04-08T17:16:36.352Z</time></trkpt><trkpt lat="38.1666867" lon="15.658075"><ele>31.0</ele><time>2026-04-08T17:16:37.352Z</time></trkpt><trkpt lat="38.1668717" lon="15.6578933"><ele>29.5</ele><time>2026-04-08T17:16:38.353Z</time></trkpt><trkpt lat="38.1670533" lon="15.6577083"><ele>28.0</ele><time>2026-04-08T17:16:39.352Z</time></trkpt><trkpt lat="38.167255" lon="15.6575133"><ele>29.5</ele><time>2026-04-08T17:16:40.353Z</time></trkpt><trkpt lat="38.1674583" lon="15.6573117"><ele>31.0</ele><time>2026-04-08T17:16:41.353Z</time></trkpt><trkpt lat="38.1676683" lon="15.657115"><ele>29.5</ele><time>2026-04-08T17:16:42.352Z</time></trkpt><trkpt lat="38.16789" lon="15.6569417"><ele>28.0</ele><time>2026-04-08T17:16:43.353Z</time></trkpt><trkpt lat="38.1681183" lon="15.6567817"><ele>30.0</ele><time>2026-04-08T17:16:44.352Z</time></trkpt><trkpt lat="38.1683483" lon="15.6566283"><ele>32.0</ele><time>2026-04-08T17:16:45.352Z</time></trkpt><trkpt lat="38.1685933" lon="15.65648"><ele>32.0</ele><time>2026-04-08T17:16:46.353Z</time></trkpt><trkpt lat="38.1688317" lon="15.6563333"><ele>32.0</ele><time>2026-04-08T17:16:47.353Z</time></trkpt><trkpt lat="38.1690667" lon="15.6561917"><ele>31.5</ele><time>2026-04-08T17:16:48.353Z</time></trkpt><trkpt lat="38.1693117" lon="15.656055"><ele>31.0</ele><time>2026-04-08T17:16:49.352Z</time></trkpt><trkpt lat="38.1695433" lon="15.6559217"><ele>31.0</ele><time>2026-04-08T17:16:50.353Z</time></trkpt><trkpt lat="38.1697683" lon="15.655795"><ele>31.0</ele><time>2026-04-08T17:16:51.352Z</time></trkpt><trkpt lat="38.1699967" lon="15.6556583"><ele>33.0</ele><time>2026-04-08T17:16:52.352Z</time></trkpt><trkpt lat="38.17024" lon="15.6555167"><ele>35.0</ele><time>2026-04-08T17:16:53.353Z</time></trkpt><trkpt lat="38.1705233" lon="15.6553717"><ele>33.5</ele><time>2026-04-08T17:16:54.353Z</time></trkpt><trkpt lat="38.170825" lon="15.6552283"><ele>32.0</ele><time>2026-04-08T17:16:55.353Z</time></trkpt><trkpt lat="38.171155" lon="15.655085"><ele>32.0</ele><time>2026-04-08T17:16:56.352Z</time></trkpt><trkpt lat="38.1714917" lon="15.6549433"><ele>32.0</ele><time>2026-04-08T17:16:57.353Z</time></trkpt><trkpt lat="38.1717983" lon="15.654815"><ele>32.666666666666664</ele><time>2026-04-08T17:16:58.353Z</time></trkpt><trkpt lat="38.172035" lon="15.6547167"><ele>33.333333333333336</ele><time>2026-04-08T17:16:59.354Z</time></trkpt><trkpt lat="38.1722067" lon="15.65464"><ele>34.0</ele><time>2026-04-08T17:17:00.353Z</time></trkpt><trkpt lat="38.1723317" lon="15.654605"><ele>34.25</ele><time>2026-04-08T17:17:01.353Z</time></trkpt><trkpt lat="38.1724433" lon="15.6545983"><ele>34.5</ele><time>2026-04-08T17:17:02.353Z</time></trkpt><trkpt lat="38.172555" lon="15.6546133"><ele>34.75</ele><time>2026-04-08T17:17:03.353Z</time></trkpt><trkpt lat="38.1726517" lon="15.6546933"><ele>35.0</ele><time>2026-04-08T17:17:04.353Z</time></trkpt><trkpt lat="38.1727317" lon="15.6548233"><ele>35.0</ele><time>2026-04-08T17:17:05.354Z</time></trkpt><trkpt lat="38.172795" lon="15.654975"><ele>35.0</ele><time>2026-04-08T17:17:06.354Z</time></trkpt><trkpt lat="38.1728617" lon="15.6550917"><ele>35.0</ele><time>2026-04-08T17:17:07.353Z</time></trkpt><trkpt lat="38.1729517" lon="15.6551633"><ele>35.0</ele><time>2026-04-08T17:17:08.354Z</time></trkpt><trkpt lat="38.1730633" lon="15.655195"><ele>35.0</ele><time>2026-04-08T17:17:09.353Z</time></trkpt><trkpt lat="38.1731817" lon="15.655175"><ele>35.0</ele><time>2026-04-08T17:17:10.353Z</time></trkpt><trkpt lat="38.1733133" lon="15.6551033"><ele>35.0</ele><time>2026-04-08T17:17:11.353Z</time></trkpt><trkpt lat="38.17347" lon="15.655005"><ele>35.0</ele><time>2026-04-08T17:17:12.353Z</time></trkpt><trkpt lat="38.1736667" lon="15.65491"><ele>34.666666666666664</ele><time>2026-04-08T17:17:13.354Z</time></trkpt><trkpt lat="38.1738817" lon="15.6548017"><ele>34.333333333333336</ele><time>2026-04-08T17:17:14.353Z</time></trkpt><trkpt lat="38.1740533" lon="15.65467"><ele>34.0</ele><time>2026-04-08T17:17:15.353Z</time></trkpt><trkpt lat="38.1741817" lon="15.6545167"><ele>35.333333333333336</ele><time>2026-04-08T17:17:16.354Z</time></trkpt><trkpt lat="38.174275" lon="15.6543267"><ele>36.666666666666664</ele><time>2026-04-08T17:17:17.353Z</time></trkpt><trkpt lat="38.174325" lon="15.6541167"><ele>38.0</ele><time>2026-04-08T17:17:18.353Z</time></trkpt><trkpt lat="38.1743317" lon="15.65389"><ele>38.0</ele><time>2026-04-08T17:17:19.354Z</time></trkpt><trkpt lat="38.1742933" lon="15.6536617"><ele>38.0</ele><time>2026-04-08T17:17:20.353Z</time></trkpt><trkpt lat="38.17422" lon="15.653445"><ele>38.0</ele><time>2026-04-08T17:17:21.353Z</time></trkpt><trkpt lat="38.1741167" lon="15.65326"><ele>35.666666666666664</ele><time>2026-04-08T17:17:22.354Z</time></trkpt><trkpt lat="38.173985" lon="15.6531333"><ele>33.333333333333336</ele><time>2026-04-08T17:17:23.353Z</time></trkpt><trkpt lat="38.173815" lon="15.6530533"><ele>31.0</ele><time>2026-04-08T17:17:24.354Z</time></trkpt><trkpt lat="38.1736267" lon="15.6530183"><ele>31.0</ele><time>2026-04-08T17:17:25.353Z</time></trkpt><trkpt lat="38.173415" lon="15.6530483"><ele>31.0</ele><time>2026-04-08T17:17:26.354Z</time></trkpt><trkpt lat="38.1731917" lon="15.6531117"><ele>31.0</ele><time>2026-04-08T17:17:27.354Z</time></trkpt><trkpt lat="38.172955" lon="15.653185"><ele>31.0</ele><time>2026-04-08T17:17:28.354Z</time></trkpt><trkpt lat="38.1727383" lon="15.6532517"><ele>31.0</ele><time>2026-04-08T17:17:29.354Z</time></trkpt><trkpt lat="38.172555" lon="15.6532983"><ele>31.0</ele><time>2026-04-08T17:17:30.354Z</time></trkpt><trkpt lat="38.1723833" lon="15.6533133"><ele>30.5</ele><time>2026-04-08T17:17:31.354Z</time></trkpt><trkpt lat="38.172235" lon="15.6532867"><ele>30.0</ele><time>2026-04-08T17:17:32.353Z</time></trkpt><trkpt lat="38.1721033" lon="15.65323"><ele>29.5</ele><time>2026-04-08T17:17:33.354Z</time></trkpt><trkpt lat="38.1719967" lon="15.6531567"><ele>29.0</ele><time>2026-04-08T17:17:34.353Z</time></trkpt><trkpt lat="38.1719183" lon="15.6530717"><ele>29.0</ele><time>2026-04-08T17:17:35.353Z</time></trkpt><trkpt lat="38.1718533" lon="15.6529833"><ele>29.0</ele><time>2026-04-08T17:17:36.354Z</time></trkpt><trkpt lat="38.1718067" lon="15.65287"><ele>29.0</ele><time>2026-04-08T17:17:37.353Z</time></trkpt><trkpt lat="38.171765" lon="15.6527333"><ele>29.0</ele><time>2026-04-08T17:17:38.353Z</time></trkpt><trkpt lat="38.17172" lon="15.652585"><ele>29.0</ele><time>2026-04-08T17:17:39.354Z</time></trkpt><trkpt lat="38.1716567" lon="15.652425"><ele>28.75</ele><time>2026-04-08T17:17:40.353Z</time></trkpt><trkpt lat="38.171595" lon="15.65226"><ele>28.5</ele><time>2026-04-08T17:17:41.353Z</time></trkpt><trkpt lat="38.171525" lon="15.6521283"><ele>28.25</ele><time>2026-04-08T17:17:42.353Z</time></trkpt><trkpt lat="38.1714633" lon="15.6520283"><ele>28.0</ele><time>2026-04-08T17:17:43.353Z</time></trkpt><trkpt lat="38.1714017" lon="15.6519383"><ele>27.4</ele><time>2026-04-08T17:17:44.353Z</time></trkpt><trkpt lat="38.1713517" lon="15.6518583"><ele>26.799999999999997</ele><time>2026-04-08T17:17:45.353Z</time></trkpt><trkpt lat="38.1712983" lon="15.6517833"><ele>26.2</ele><time>2026-04-08T17:17:46.353Z</time></trkpt><trkpt lat="38.1712483" lon="15.651715"><ele>25.6</ele><time>2026-04-08T17:17:47.354Z</time></trkpt><trkpt lat="38.1711617" lon="15.65161"><ele>25.0</ele><time>2026-04-08T17:17:49.354Z</time></trkpt><trkpt lat="38.1710883" lon="15.6515217"><ele>25.000000000000004</ele><time>2026-04-08T17:17:51.354Z</time></trkpt><trkpt lat="38.1709933" lon="15.6514017"><ele>25.0</ele><time>2026-04-08T17:17:53.354Z</time></trkpt><trkpt lat="38.17094" lon="15.6513383"><ele>25.0</ele><time>2026-04-08T17:17:54.354Z</time></trkpt><trkpt lat="38.1708883" lon="15.6512867"><ele>25.0</ele><time>2026-04-08T17:17:55.353Z</time></trkpt><trkpt lat="38.17083" lon="15.65124"><ele>25.000000000000004</ele><time>2026-04-08T17:17:56.353Z</time></trkpt><trkpt lat="38.1707617" lon="15.6512183"><ele>25.0</ele><time>2026-04-08T17:17:57.353Z</time></trkpt><trkpt lat="38.170685" lon="15.6512217"><ele>24.6</ele><time>2026-04-08T17:17:58.354Z</time></trkpt><trkpt lat="38.1706017" lon="15.6512567"><ele>24.2</ele><time>2026-04-08T17:17:59.354Z</time></trkpt><trkpt lat="38.1705333" lon="15.6513283"><ele>23.799999999999997</ele><time>2026-04-08T17:18:00.353Z</time></trkpt><trkpt lat="38.17048" lon="15.6514267"><ele>23.4</ele><time>2026-04-08T17:18:01.353Z</time></trkpt><trkpt lat="38.1704633" lon="15.6515467"><ele>23.0</ele><time>2026-04-08T17:18:02.353Z</time></trkpt><trkpt lat="38.1704683" lon="15.6516617"><ele>23.0</ele><time>2026-04-08T17:18:03.354Z</time></trkpt><trkpt lat="38.1705033" lon="15.651765"><ele>23.0</ele><time>2026-04-08T17:18:04.353Z</time></trkpt><trkpt lat="38.1705467" lon="15.6518783"><ele>23.0</ele><time>2026-04-08T17:18:05.353Z</time></trkpt><trkpt lat="38.1705933" lon="15.6520017"><ele>23.0</ele><time>2026-04-08T17:18:06.353Z</time></trkpt><trkpt lat="38.17063" lon="15.6521417"><ele>23.0</ele><time>2026-04-08T17:18:07.353Z</time></trkpt><trkpt lat="38.1706517" lon="15.652295"><ele>23.5</ele><time>2026-04-08T17:18:08.353Z</time></trkpt><trkpt lat="38.1706617" lon="15.65246"><ele>24.0</ele><time>2026-04-08T17:18:09.354Z</time></trkpt><trkpt lat="38.170665" lon="15.65264"><ele>24.5</ele><time>2026-04-08T17:18:10.354Z</time></trkpt><trkpt lat="38.1706783" lon="15.6528383"><ele>25.0</ele><time>2026-04-08T17:18:11.353Z</time></trkpt><trkpt lat="38.1706983" lon="15.6530483"><ele>26.0</ele><time>2026-04-08T17:18:12.353Z</time></trkpt><trkpt lat="38.170735" lon="15.6532567"><ele>27.0</ele><time>2026-04-08T17:18:13.354Z</time></trkpt><trkpt lat="38.17078" lon="15.6534683"><ele>28.0</ele><time>2026-04-08T17:18:14.354Z</time></trkpt><trkpt lat="38.1708217" lon="15.6536767"><ele>28.25</ele><time>2026-04-08T17:18:15.354Z</time></trkpt><trkpt lat="38.17086" lon="15.653865"><ele>28.5</ele><time>2026-04-08T17:18:16.353Z</time></trkpt><trkpt lat="38.1708917" lon="15.6540417"><ele>28.75</ele><time>2026-04-08T17:18:17.354Z</time></trkpt><trkpt lat="38.17093" lon="15.6542133"><ele>29.0</ele><time>2026-04-08T17:18:18.353Z</time></trkpt><trkpt lat="38.1709683" lon="15.6543833"><ele>29.6</ele><time>2026-04-08T17:18:19.354Z</time></trkpt><trkpt lat="38.1709867" lon="15.654525"><ele>30.2</ele><time>2026-04-08T17:18:20.353Z</time></trkpt><trkpt lat="38.1709817" lon="15.6546467"><ele>30.800000000000004</ele><time>2026-04-08T17:18:21.354Z</time></trkpt><trkpt lat="38.1709467" lon="15.6547433"><ele>31.400000000000002</ele><time>2026-04-08T17:18:22.354Z</time></trkpt><trkpt lat="38.1708783" lon="15.65481"><ele>32.0</ele><time>2026-04-08T17:18:23.353Z</time></trkpt><trkpt lat="38.1707883" lon="15.65486"><ele>32.0</ele><time>2026-04-08T17:18:24.354Z</time></trkpt><trkpt lat="38.1706867" lon="15.6548967"><ele>32.0</ele><time>2026-04-08T17:18:25.353Z</time></trkpt><trkpt lat="38.1705717" lon="15.654915"><ele>32.0</ele><time>2026-04-08T17:18:26.353Z</time></trkpt><trkpt lat="38.170445" lon="15.6549067"><ele>32.0</ele><time>2026-04-08T17:18:27.354Z</time></trkpt><trkpt lat="38.1703383" lon="15.654905"><ele>32.0</ele><time>2026-04-08T17:18:28.354Z</time></trkpt><trkpt lat="38.1702217" lon="15.6549183"><ele>32.0</ele><time>2026-04-08T17:18:29.353Z</time></trkpt><trkpt lat="38.1701117" lon="15.6549383"><ele>32.0</ele><time>2026-04-08T17:18:30.353Z</time></trkpt><trkpt lat="38.17002" lon="15.6549667"><ele>32.0</ele><time>2026-04-08T17:18:31.354Z</time></trkpt><trkpt lat="38.1699333" lon="15.6549983"><ele>32.0</ele><time>2026-04-08T17:18:32.354Z</time></trkpt><trkpt lat="38.1698217" lon="15.655045"><ele>31.8</ele><time>2026-04-08T17:18:33.354Z</time></trkpt><trkpt lat="38.1697117" lon="15.6551"><ele>31.6</ele><time>2026-04-08T17:18:34.353Z</time></trkpt><trkpt lat="38.1696183" lon="15.6551567"><ele>31.400000000000002</ele><time>2026-04-08T17:18:35.353Z</time></trkpt><trkpt lat="38.1695517" lon="15.655185"><ele>31.200000000000003</ele><time>2026-04-08T17:18:36.354Z</time></trkpt><trkpt lat="38.169485" lon="15.65522"><ele>31.0</ele><time>2026-04-08T17:18:38.354Z</time></trkpt><trkpt lat="38.16947" lon="15.6553467"><ele>31.0</ele><time>2026-04-08T17:18:42.353Z</time></trkpt><trkpt lat="38.1694983" lon="15.6554717"><ele>31.0</ele><time>2026-04-08T17:18:43.354Z</time></trkpt><trkpt lat="38.1695483" lon="15.655625"><ele>31.0</ele><time>2026-04-08T17:18:44.353Z</time></trkpt><trkpt lat="38.1696117" lon="15.6558067"><ele>31.0</ele><time>2026-04-08T17:18:45.353Z</time></trkpt><trkpt lat="38.169685" lon="15.656005"><ele>32.0</ele><time>2026-04-08T17:18:46.353Z</time></trkpt><trkpt lat="38.16976" lon="15.6561983"><ele>33.0</ele><time>2026-04-08T17:18:47.353Z</time></trkpt><trkpt lat="38.16983" lon="15.6563883"><ele>34.0</ele><time>2026-04-08T17:18:48.353Z</time></trkpt><trkpt lat="38.1699133" lon="15.656585"><ele>34.75</ele><time>2026-04-08T17:18:49.353Z</time></trkpt><trkpt lat="38.1699933" lon="15.65678"><ele>35.5</ele><time>2026-04-08T17:18:50.353Z</time></trkpt><trkpt lat="38.170065" lon="15.65695"><ele>36.25</ele><time>2026-04-08T17:18:51.354Z</time></trkpt><trkpt lat="38.17012" lon="15.6570883"><ele>37.0</ele><time>2026-04-08T17:18:52.353Z</time></trkpt><trkpt lat="38.1701467" lon="15.6572217"><ele>37.5</ele><time>2026-04-08T17:18:53.353Z</time></trkpt><trkpt lat="38.170155" lon="15.65737"><ele>38.0</ele><time>2026-04-08T17:18:54.353Z</time></trkpt><trkpt lat="38.17014" lon="15.6575333"><ele>38.5</ele><time>2026-04-08T17:18:55.353Z</time></trkpt><trkpt lat="38.170105" lon="15.657695"><ele>39.0</ele><time>2026-04-08T17:18:56.353Z</time></trkpt><trkpt lat="38.1700817" lon="15.6578417"><ele>39.2</ele><time>2026-04-08T17:18:57.353Z</time></trkpt><trkpt lat="38.1700733" lon="15.6579783"><ele>39.4</ele><time>2026-04-08T17:18:58.353Z</time></trkpt><trkpt lat="38.170095" lon="15.6581"><ele>39.6</ele><time>2026-04-08T17:18:59.353Z</time></trkpt><trkpt lat="38.1701283" lon="15.658215"><ele>39.8</ele><time>2026-04-08T17:19:00.353Z</time></trkpt><trkpt lat="38.1701683" lon="15.658325"><ele>40.0</ele><time>2026-04-08T17:19:01.353Z</time></trkpt><trkpt lat="38.17022" lon="15.65843"><ele>40.0</ele><time>2026-04-08T17:19:02.354Z</time></trkpt><trkpt lat="38.1702817" lon="15.6585283"><ele>40.0</ele><time>2026-04-08T17:19:03.353Z</time></trkpt><trkpt lat="38.1703517" lon="15.658635"><ele>40.0</ele><time>2026-04-08T17:19:04.354Z</time></trkpt><trkpt lat="38.17042" lon="15.6587517"><ele>40.0</ele><time>2026-04-08T17:19:05.353Z</time></trkpt><trkpt lat="38.1704817" lon="15.6588767"><ele>40.0</ele><time>2026-04-08T17:19:06.354Z</time></trkpt><trkpt lat="38.1705333" lon="15.658985"><ele>40.8</ele><time>2026-04-08T17:19:07.354Z</time></trkpt><trkpt lat="38.1705883" lon="15.65908"><ele>41.6</ele><time>2026-04-08T17:19:08.354Z</time></trkpt><trkpt lat="38.170635" lon="15.6591867"><ele>42.400000000000006</ele><time>2026-04-08T17:19:09.354Z</time></trkpt><trkpt lat="38.1706917" lon="15.65932"><ele>43.2</ele><time>2026-04-08T17:19:10.354Z</time></trkpt><trkpt lat="38.170745" lon="15.6594817"><ele>44.0</ele><time>2026-04-08T17:19:11.354Z</time></trkpt><trkpt lat="38.1708" lon="15.65963"><ele>46.0</ele><time>2026-04-08T17:19:12.353Z</time></trkpt><trkpt lat="38.1708433" lon="15.65977"><ele>48.0</ele><time>2026-04-08T17:19:13.353Z</time></trkpt><trkpt lat="38.170895" lon="15.6598917"><ele>50.0</ele><time>2026-04-08T17:19:14.354Z</time></trkpt><trkpt lat="38.17094" lon="15.660035"><ele>52.0</ele><time>2026-04-08T17:19:15.353Z</time></trkpt><trkpt lat="38.1709967" lon="15.6601883"><ele>53.25</ele><time>2026-04-08T17:19:16.354Z</time></trkpt><trkpt lat="38.1710433" lon="15.6603533"><ele>54.5</ele><time>2026-04-08T17:19:17.353Z</time></trkpt><trkpt lat="38.1711017" lon="15.6605"><ele>55.75</ele><time>2026-04-08T17:19:18.353Z</time></trkpt><trkpt lat="38.1711583" lon="15.660655"><ele>57.0</ele><time>2026-04-08T17:19:19.353Z</time></trkpt><trkpt lat="38.1712117" lon="15.6608333"><ele>57.0</ele><time>2026-04-08T17:19:20.354Z</time></trkpt><trkpt lat="38.17125" lon="15.6610183"><ele>57.0</ele><time>2026-04-08T17:19:21.354Z</time></trkpt><trkpt lat="38.1712833" lon="15.6611867"><ele>57.0</ele><time>2026-04-08T17:19:22.354Z</time></trkpt><trkpt lat="38.171315" lon="15.661365"><ele>57.0</ele><time>2026-04-08T17:19:23.353Z</time></trkpt><trkpt lat="38.1713467" lon="15.6615367"><ele>56.66666666666667</ele><time>2026-04-08T17:19:24.354Z</time></trkpt><trkpt lat="38.1713533" lon="15.6617117"><ele>56.333333333333336</ele><time>2026-04-08T17:19:25.353Z</time></trkpt><trkpt lat="38.1713633" lon="15.6619067"><ele>56.0</ele><time>2026-04-08T17:19:26.353Z</time></trkpt><trkpt lat="38.171365" lon="15.6621183"><ele>56.75</ele><time>2026-04-08T17:19:27.354Z</time></trkpt><trkpt lat="38.1713717" lon="15.662325"><ele>57.5</ele><time>2026-04-08T17:19:28.353Z</time></trkpt><trkpt lat="38.17137" lon="15.6625"><ele>58.25</ele><time>2026-04-08T17:19:29.353Z</time></trkpt><trkpt lat="38.1713867" lon="15.6626517"><ele>59.0</ele><time>2026-04-08T17:19:30.354Z</time></trkpt><trkpt lat="38.1714183" lon="15.6627833"><ele>59.50000000000001</ele><time>2026-04-08T17:19:31.353Z</time></trkpt><trkpt lat="38.1714567" lon="15.662905"><ele>60.0</ele><time>2026-04-08T17:19:32.353Z</time></trkpt><trkpt lat="38.1714717" lon="15.6630167"><ele>60.5</ele><time>2026-04-08T17:19:33.353Z</time></trkpt><trkpt lat="38.1714917" lon="15.6631217"><ele>61.0</ele><time>2026-04-08T17:19:34.354Z</time></trkpt><trkpt lat="38.17152" lon="15.6632017"><ele>61.50000000000001</ele><time>2026-04-08T17:19:35.354Z</time></trkpt><trkpt lat="38.1715617" lon="15.66329"><ele>62.0</ele><time>2026-04-08T17:19:36.354Z</time></trkpt><trkpt lat="38.171615" lon="15.6633783"><ele>62.6</ele><time>2026-04-08T17:19:37.353Z</time></trkpt><trkpt lat="38.1716717" lon="15.6634633"><ele>63.2</ele><time>2026-04-08T17:19:38.354Z</time></trkpt><trkpt lat="38.1717317" lon="15.6635667"><ele>63.8</ele><time>2026-04-08T17:19:39.354Z</time></trkpt><trkpt lat="38.1718083" lon="15.6636783"><ele>64.4</ele><time>2026-04-08T17:19:40.354Z</time></trkpt><trkpt lat="38.1718867" lon="15.6637933"><ele>65.0</ele><time>2026-04-08T17:19:41.353Z</time></trkpt><trkpt lat="38.1719633" lon="15.6639017"><ele>65.5</ele><time>2026-04-08T17:19:42.354Z</time></trkpt><trkpt lat="38.17203" lon="15.66398"><ele>66.0</ele><time>2026-04-08T17:19:43.354Z</time></trkpt><trkpt lat="38.1720883" lon="15.6640433"><ele>66.5</ele><time>2026-04-08T17:19:44.354Z</time></trkpt><trkpt lat="38.1721433" lon="15.6641483"><ele>67.0</ele><time>2026-04-08T17:19:46.354Z</time></trkpt><trkpt lat="38.1720833" lon="15.6642133"><ele>67.5</ele><time>2026-04-08T17:19:49.354Z</time></trkpt><trkpt lat="38.1720217" lon="15.6641733"><ele>68.0</ele><time>2026-04-08T17:19:52.354Z</time></trkpt><trkpt lat="38.1720683" lon="15.6641017"><ele>68.0</ele><time>2026-04-08T17:20:02.353Z</time></trkpt><trkpt lat="38.17216" lon="15.6641733"><ele>68.0</ele><time>2026-04-08T17:20:05.353Z</time></trkpt><trkpt lat="38.1722217" lon="15.6642333"><ele>68.0</ele><time>2026-04-08T17:20:06.353Z</time></trkpt><trkpt lat="38.1723067" lon="15.6643133"><ele>68.0</ele><time>2026-04-08T17:20:07.353Z</time></trkpt><trkpt lat="38.1724033" lon="15.6643933"><ele>68.0</ele><time>2026-04-08T17:20:08.353Z</time></trkpt><trkpt lat="38.1725033" lon="15.66449"><ele>68.75</ele><time>2026-04-08T17:20:09.353Z</time></trkpt><trkpt lat="38.172605" lon="15.6645833"><ele>69.5</ele><time>2026-04-08T17:20:10.354Z</time></trkpt><trkpt lat="38.1727133" lon="15.6646817"><ele>70.25</ele><time>2026-04-08T17:20:11.354Z</time></trkpt><trkpt lat="38.17283" lon="15.6647883"><ele>71.0</ele><time>2026-04-08T17:20:12.353Z</time></trkpt><trkpt lat="38.17296" lon="15.6649017"><ele>71.0</ele><time>2026-04-08T17:20:13.353Z</time></trkpt><trkpt lat="38.1731" lon="15.6649917"><ele>71.0</ele><time>2026-04-08T17:20:14.354Z</time></trkpt><trkpt lat="38.173225" lon="15.6651233"><ele>71.0</ele><time>2026-04-08T17:20:15.353Z</time></trkpt><trkpt lat="38.1733583" lon="15.665245"><ele>72.0</ele><time>2026-04-08T17:20:16.354Z</time></trkpt><trkpt lat="38.17351" lon="15.6653433"><ele>73.0</ele><time>2026-04-08T17:20:17.353Z</time></trkpt><trkpt lat="38.1736533" lon="15.6654617"><ele>74.0</ele><time>2026-04-08T17:20:18.353Z</time></trkpt><trkpt lat="38.1737583" lon="15.665595"><ele>74.0</ele><time>2026-04-08T17:20:19.354Z</time></trkpt><trkpt lat="38.1738717" lon="15.6656867"><ele>74.0</ele><time>2026-04-08T17:20:20.353Z</time></trkpt><trkpt lat="38.17399" lon="15.665775"><ele>74.0</ele><time>2026-04-08T17:20:21.353Z</time></trkpt><trkpt lat="38.1741033" lon="15.6658933"><ele>74.0</ele><time>2026-04-08T17:20:22.354Z</time></trkpt><trkpt lat="38.17423" lon="15.665995"><ele>75.25</ele><time>2026-04-08T17:20:23.354Z</time></trkpt><trkpt lat="38.174345" lon="15.6661133"><ele>76.5</ele><time>2026-04-08T17:20:24.354Z</time></trkpt><trkpt lat="38.1744633" lon="15.6662067"><ele>77.75</ele><time>2026-04-08T17:20:25.353Z</time></trkpt><trkpt lat="38.174585" lon="15.6663183"><ele>79.0</ele><time>2026-04-08T17:20:26.353Z</time></trkpt><trkpt lat="38.174705" lon="15.666425"><ele>79.0</ele><time>2026-04-08T17:20:27.353Z</time></trkpt><trkpt lat="38.1748067" lon="15.6665383"><ele>79.0</ele><time>2026-04-08T17:20:28.353Z</time></trkpt><trkpt lat="38.1749033" lon="15.6666133"><ele>79.0</ele><time>2026-04-08T17:20:29.353Z</time></trkpt><trkpt lat="38.17499" lon="15.6666633"><ele>79.0</ele><time>2026-04-08T17:20:30.354Z</time></trkpt><trkpt lat="38.175045" lon="15.6667233"><ele>79.0</ele><time>2026-04-08T17:20:31.354Z</time></trkpt><trkpt lat="38.175085" lon="15.666795"><ele>79.5</ele><time>2026-04-08T17:20:32.354Z</time></trkpt><trkpt lat="38.1750467" lon="15.6669733"><ele>80.0</ele><time>2026-04-08T17:20:34.353Z</time></trkpt><trkpt lat="38.174995" lon="15.66711"><ele>80.5</ele><time>2026-04-08T17:20:35.354Z</time></trkpt><trkpt lat="38.174885" lon="15.66729"><ele>81.0</ele><time>2026-04-08T17:20:36.353Z</time></trkpt><trkpt lat="38.1747667" lon="15.6674567"><ele>81.25</ele><time>2026-04-08T17:20:37.354Z</time></trkpt><trkpt lat="38.1746867" lon="15.667605"><ele>81.5</ele><time>2026-04-08T17:20:38.353Z</time></trkpt><trkpt lat="38.1746583" lon="15.66776"><ele>81.75</ele><time>2026-04-08T17:20:39.353Z</time></trkpt><trkpt lat="38.17468" lon="15.6679283"><ele>82.0</ele><time>2026-04-08T17:20:40.353Z</time></trkpt><trkpt lat="38.1747117" lon="15.6681033"><ele>83.75</ele><time>2026-04-08T17:20:41.354Z</time></trkpt><trkpt lat="38.174735" lon="15.6682567"><ele>85.5</ele><time>2026-04-08T17:20:42.354Z</time></trkpt><trkpt lat="38.1747283" lon="15.6684183"><ele>87.25</ele><time>2026-04-08T17:20:43.353Z</time></trkpt><trkpt lat="38.1747083" lon="15.6685867"><ele>89.0</ele><time>2026-04-08T17:20:44.353Z</time></trkpt><trkpt lat="38.1746817" lon="15.6687683"><ele>90.25</ele><time>2026-04-08T17:20:45.353Z</time></trkpt><trkpt lat="38.17466" lon="15.66894"><ele>91.5</ele><time>2026-04-08T17:20:46.354Z</time></trkpt><trkpt lat="38.1746333" lon="15.6690983"><ele>92.75</ele><time>2026-04-08T17:20:47.354Z</time></trkpt><trkpt lat="38.1746083" lon="15.6692533"><ele>94.0</ele><time>2026-04-08T17:20:48.354Z</time></trkpt><trkpt lat="38.1745717" lon="15.66941"><ele>95.0</ele><time>2026-04-08T17:20:49.353Z</time></trkpt><trkpt lat="38.1745283" lon="15.6695767"><ele>96.0</ele><time>2026-04-08T17:20:50.354Z</time></trkpt><trkpt lat="38.1744817" lon="15.6697533"><ele>97.0</ele><time>2026-04-08T17:20:51.353Z</time></trkpt><trkpt lat="38.1744483" lon="15.6699367"><ele>98.0</ele><time>2026-04-08T17:20:52.354Z</time></trkpt><trkpt lat="38.1744367" lon="15.6700967"><ele>98.0</ele><time>2026-04-08T17:20:53.353Z</time></trkpt><trkpt lat="38.1744267" lon="15.670225"><ele>98.0</ele><time>2026-04-08T17:20:54.353Z</time></trkpt><trkpt lat="38.1744017" lon="15.67031"><ele>98.0</ele><time>2026-04-08T17:20:55.354Z</time></trkpt><trkpt lat="38.1742733" lon="15.6703617"><ele>98.0</ele><time>2026-04-08T17:20:57.353Z</time></trkpt><trkpt lat="38.1741833" lon="15.6703367"><ele>98.0</ele><time>2026-04-08T17:20:58.354Z</time></trkpt><trkpt lat="38.1740833" lon="15.6702917"><ele>98.49999999999999</ele><time>2026-04-08T17:20:59.353Z</time></trkpt><trkpt lat="38.1740017" lon="15.6702767"><ele>99.0</ele><time>2026-04-08T17:21:00.354Z</time></trkpt><trkpt lat="38.1739" lon="15.6703233"><ele>99.5</ele><time>2026-04-08T17:21:02.353Z</time></trkpt><trkpt lat="38.1738583" lon="15.6703883"><ele>100.0</ele><time>2026-04-08T17:21:03.353Z</time></trkpt><trkpt lat="38.1738383" lon="15.67047"><ele>100.49999999999999</ele><time>2026-04-08T17:21:04.353Z</time></trkpt><trkpt lat="38.1738267" lon="15.6705517"><ele>101.0</ele><time>2026-04-08T17:21:05.354Z</time></trkpt><trkpt lat="38.173815" lon="15.6706883"><ele>100.99999999999999</ele><time>2026-04-08T17:21:07.353Z</time></trkpt><trkpt lat="38.1738317" lon="15.6707733"><ele>101.0</ele><time>2026-04-08T17:21:22.353Z</time></trkpt><trkpt lat="38.1737967" lon="15.6708683"><ele>101.0</ele><time>2026-04-08T17:21:43.354Z</time></trkpt><trkpt lat="38.1737617" lon="15.67098"><ele>101.0</ele><time>2026-04-08T17:21:46.354Z</time></trkpt><trkpt lat="38.1737133" lon="15.67105"><ele>100.99999999999999</ele><time>2026-04-08T17:21:48.354Z</time></trkpt><trkpt lat="38.1736633" lon="15.6711333"><ele>101.0</ele><time>2026-04-08T17:21:51.353Z</time></trkpt><trkpt lat="38.1736083" lon="15.671225"><ele>102.19999999999999</ele><time>2026-04-08T17:21:54.354Z</time></trkpt><trkpt lat="38.173555" lon="15.671315"><ele>103.39999999999999</ele><time>2026-04-08T17:21:57.354Z</time></trkpt><trkpt lat="38.1735283" lon="15.6714083"><ele>104.6</ele><time>2026-04-08T17:22:00.354Z</time></trkpt><trkpt lat="38.1735833" lon="15.671355"><ele>105.8</ele><time>2026-04-08T17:22:04.353Z</time></trkpt><trkpt lat="38.1736467" lon="15.6712117"><ele>107.0</ele><time>2026-04-08T17:22:06.353Z</time></trkpt><trkpt lat="38.1736933" lon="15.67112"><ele>105.99999999999999</ele><time>2026-04-08T17:22:07.353Z</time></trkpt><trkpt lat="38.1737367" lon="15.6710533"><ele>105.0</ele><time>2026-04-08T17:22:08.353Z</time></trkpt><trkpt lat="38.173775" lon="15.670965"><ele>104.0</ele><time>2026-04-08T17:22:10.354Z</time></trkpt><trkpt lat="38.1738033" lon="15.6708833"><ele>103.0</ele><time>2026-04-08T17:22:12.354Z</time></trkpt><trkpt lat="38.1738333" lon="15.6707917"><ele>101.99999999999999</ele><time>2026-04-08T17:22:14.354Z</time></trkpt><trkpt lat="38.173875" lon="15.6706917"><ele>101.0</ele><time>2026-04-08T17:22:16.354Z</time></trkpt><trkpt lat="38.1738967" lon="15.6705833"><ele>100.99999999999999</ele><time>2026-04-08T17:22:18.354Z</time></trkpt><trkpt lat="38.1739133" lon="15.6704817"><ele>101.0</ele><time>2026-04-08T17:22:20.354Z</time></trkpt><trkpt lat="38.173925" lon="15.6703933"><ele>101.0</ele><time>2026-04-08T17:22:22.354Z</time></trkpt><trkpt lat="38.173965" lon="15.6703117"><ele>101.0</ele><time>2026-04-08T17:22:25.353Z</time></trkpt><trkpt lat="38.1740267" lon="15.6703417"><ele>100.99999999999999</ele><time>2026-04-08T17:22:27.353Z</time></trkpt><trkpt lat="38.174095" lon="15.670365"><ele>101.0</ele><time>2026-04-08T17:22:32.353Z</time></trkpt><trkpt lat="38.1741817" lon="15.670395"><ele>100.99999999999999</ele><time>2026-04-08T17:22:36.354Z</time></trkpt><trkpt lat="38.17427" lon="15.6703867"><ele>101.0</ele><time>2026-04-08T17:22:39.353Z</time></trkpt><trkpt lat="38.1742033" lon="15.6703333"><ele>101.0</ele><time>2026-04-08T17:22:45.353Z</time></trkpt><trkpt lat="38.1741367" lon="15.670315"><ele>101.0</ele><time>2026-04-08T17:22:46.354Z</time></trkpt><trkpt lat="38.1740667" lon="15.6702867"><ele>100.99999999999999</ele><time>2026-04-08T17:22:47.354Z</time></trkpt><trkpt lat="38.1739717" lon="15.6702633"><ele>101.0</ele><time>2026-04-08T17:22:49.353Z</time></trkpt><trkpt lat="38.17391" lon="15.6703083"><ele>101.0</ele><time>2026-04-08T17:22:51.354Z</time></trkpt><trkpt lat="38.1738583" lon="15.67039"><ele>101.0</ele><time>2026-04-08T17:22:53.353Z</time></trkpt><trkpt lat="38.1738433" lon="15.6705283"><ele>101.0</ele><time>2026-04-08T17:22:55.354Z</time></trkpt><trkpt lat="38.1738267" lon="15.6706717"><ele>101.0</ele><time>2026-04-08T17:22:57.353Z</time></trkpt><trkpt lat="38.1738067" lon="15.670785"><ele>101.0</ele><time>2026-04-08T17:22:59.353Z</time></trkpt><trkpt lat="38.173785" lon="15.6709017"><ele>100.99999999999999</ele><time>2026-04-08T17:23:01.353Z</time></trkpt><trkpt lat="38.17376" lon="15.6710033"><ele>101.0</ele><time>2026-04-08T17:23:03.354Z</time></trkpt><trkpt lat="38.173785" lon="15.6709183"><ele>101.0</ele><time>2026-04-08T17:23:10.353Z</time></trkpt><trkpt lat="38.1738133" lon="15.6708383"><ele>101.0</ele><time>2026-04-08T17:25:03.353Z</time></trkpt><trkpt lat="38.173845" lon="15.6707667"><ele>100.99999999999999</ele><time>2026-04-08T17:25:06.353Z</time></trkpt><trkpt lat="38.173845" lon="15.6708517"><ele>101.0</ele><time>2026-04-08T17:26:44.354Z</time></trkpt><trkpt lat="38.1737517" lon="15.6709333"><ele>100.99999999999999</ele><time>2026-04-08T17:27:03.354Z</time></trkpt><trkpt lat="38.1738231" lon="15.6708909"><ele>101.0</ele><time>2026-04-08T17:30:06.354Z</time></trkpt><trkpt lat="38.1738165" lon="15.6707999"><ele>101.0</ele><time>2026-04-08T17:30:11.353Z</time></trkpt><trkpt lat="38.1738516" lon="15.6708856"><ele>101.0</ele><time>2026-04-08T17:37:31.355Z</time></trkpt><trkpt lat="38.1739252" lon="15.6708845"><ele>100.99999999999999</ele><time>2026-04-08T17:37:36.355Z</time></trkpt><trkpt lat="38.1739735" lon="15.6709399"><ele>101.0</ele><time>2026-04-08T17:37:49.354Z</time></trkpt><trkpt lat="38.1740333" lon="15.6708547"><ele>101.0</ele><time>2026-04-08T17:38:00.353Z</time></trkpt><trkpt lat="38.1739288" lon="15.6707854"><ele>101.0</ele><time>2026-04-08T17:38:04.353Z</time></trkpt><trkpt lat="38.1738974" lon="15.670879"><ele>101.0</ele><time>2026-04-08T17:38:34.354Z</time></trkpt><trkpt lat="38.1738137" lon="15.6709223"><ele>101.0</ele><time>2026-04-08T17:38:45.353Z</time></trkpt><trkpt lat="38.1737879" lon="15.6708318"><ele>101.0</ele><time>2026-04-08T17:39:07.353Z</time></trkpt><trkpt lat="38.1738894" lon="15.6708061"><ele>100.99999999999999</ele><time>2026-04-08T17:39:31.353Z</time></trkpt><trkpt lat="38.173773" lon="15.670783"><ele>101.0</ele><time>2026-04-08T17:40:14.353Z</time></trkpt><trkpt lat="38.1738492" lon="15.6708204"><ele>101.0</ele><time>2026-04-08T17:40:19.353Z</time></trkpt><trkpt lat="38.1738787" lon="15.6709"><ele>101.0</ele><time>2026-04-08T17:40:21.354Z</time></trkpt><trkpt lat="38.1738631" lon="15.6708206"><ele>100.99999999999999</ele><time>2026-04-08T17:40:36.354Z</time></trkpt><trkpt lat="38.1738858" lon="15.6707224"><ele>101.0</ele><time>2026-04-08T17:40:42.353Z</time></trkpt><trkpt lat="38.1739063" lon="15.6708153"><ele>101.0</ele><time>2026-04-08T17:40:57.353Z</time></trkpt><trkpt lat="38.1738566" lon="15.6708802"><ele>101.0</ele><time>2026-04-08T17:41:11.354Z</time></trkpt><trkpt lat="38.1738011" lon="15.6709517"><ele>101.0</ele><time>2026-04-08T17:41:22.935Z</time></trkpt><trkpt lat="38.1739087" lon="15.6708978"><ele>101.0</ele><time>2026-04-08T17:42:18.351Z</time></trkpt><trkpt lat="38.1741675" lon="15.6706947"><ele>101.0</ele><time>2026-04-08T17:42:21.351Z</time></trkpt><trkpt lat="38.1741061" lon="15.6707311"><ele>101.0</ele><time>2026-04-08T17:42:23.352Z</time></trkpt><trkpt lat="38.1740223" lon="15.6707911"><ele>101.0</ele><time>2026-04-08T17:42:25.352Z</time></trkpt><trkpt lat="38.1739613" lon="15.6708385"><ele>101.0</ele><time>2026-04-08T17:42:27.351Z</time></trkpt><trkpt lat="38.1738598" lon="15.6708904"><ele>101.0</ele><time>2026-04-08T17:42:52.351Z</time></trkpt><trkpt lat="38.1739326" lon="15.6707821"><ele>100.99999999999999</ele><time>2026-04-08T17:43:23.352Z</time></trkpt><trkpt lat="38.1740096" lon="15.6707278"><ele>101.0</ele><time>2026-04-08T17:43:25.351Z</time></trkpt><trkpt lat="38.1739644" lon="15.6708612"><ele>101.0</ele><time>2026-04-08T17:43:44.351Z</time></trkpt><trkpt lat="38.1739244" lon="15.6709306"><ele>101.0</ele><time>2026-04-08T17:43:48.352Z</time></trkpt><trkpt lat="38.1738321" lon="15.6710144"><ele>100.99999999999999</ele><time>2026-04-08T17:43:50.351Z</time></trkpt><trkpt lat="38.1737786" lon="15.6710574"><ele>101.0</ele><time>2026-04-08T17:43:51.352Z</time></trkpt><trkpt lat="38.1738383" lon="15.6709898"><ele>101.0</ele><time>2026-04-08T17:44:00.351Z</time></trkpt><trkpt lat="38.1738483" lon="15.6708385"><ele>101.0</ele><time>2026-04-08T17:44:48.351Z</time></trkpt><trkpt lat="38.1738216" lon="15.6707657"><ele>101.0</ele><time>2026-04-08T17:44:53.351Z</time></trkpt><trkpt lat="38.1737696" lon="15.6708421"><ele>101.0</ele><time>2026-04-08T17:45:02.351Z</time></trkpt><trkpt lat="38.1738471" lon="15.6708712"><ele>101.0</ele><time>2026-04-08T17:45:11.351Z</time></trkpt><trkpt lat="38.1737686" lon="15.6709705"><ele>100.99999999999999</ele><time>2026-04-08T17:45:39.352Z</time></trkpt><trkpt lat="38.1738316" lon="15.6708981"><ele>101.0</ele><time>2026-04-08T17:46:05.351Z</time></trkpt><trkpt lat="38.1739368" lon="15.6708149"><ele>101.0</ele><time>2026-04-08T17:46:47.351Z</time></trkpt><trkpt lat="38.173918" lon="15.6707286"><ele>101.0</ele><time>2026-04-08T17:46:56.352Z</time></trkpt><trkpt lat="38.1739285" lon="15.6706428"><ele>100.99999999999999</ele><time>2026-04-08T17:47:02.351Z</time></trkpt><trkpt lat="38.1738689" lon="15.670743"><ele>101.0</ele><time>2026-04-08T17:47:11.352Z</time></trkpt><trkpt lat="38.1738271" lon="15.670906"><ele>101.0</ele><time>2026-04-08T17:47:17.329Z</time></trkpt><trkpt lat="38.1738218" lon="15.6705598"><ele>101.0</ele><time>2026-04-08T17:48:32.354Z</time></trkpt><trkpt lat="38.1738128" lon="15.6706972"><ele>101.0</ele><time>2026-04-08T17:48:33.354Z</time></trkpt><trkpt lat="38.1738055" lon="15.6708038"><ele>101.0</ele><time>2026-04-08T17:48:34.355Z</time></trkpt><trkpt lat="38.1738025" lon="15.6708979"><ele>101.0</ele><time>2026-04-08T17:48:36.355Z</time></trkpt><trkpt lat="38.1738235" lon="15.6707526"><ele>101.0</ele><time>2026-04-08T17:48:47.551Z</time></trkpt><trkpt lat="38.1738516" lon="15.6704864"><ele>101.0</ele><time>2026-04-08T17:48:52.595Z</time></trkpt><trkpt lat="38.1738146" lon="15.6709588"><ele>100.99999999999999</ele><time>2026-04-08T17:49:13.764Z</time></trkpt><trkpt lat="38.1739076" lon="15.6709678"><ele>101.0</ele><time>2026-04-08T17:49:41.352Z</time></trkpt><trkpt lat="38.1739514" lon="15.6710358"><ele>101.0</ele><time>2026-04-08T17:49:56.351Z</time></trkpt><trkpt lat="38.1740115" lon="15.6710655"><ele>101.0</ele><time>2026-04-08T17:49:58.352Z</time></trkpt><trkpt lat="38.1740791" lon="15.6710983"><ele>100.99999999999999</ele><time>2026-04-08T17:50:00.352Z</time></trkpt><trkpt lat="38.1739683" lon="15.6710483"><ele>101.0</ele><time>2026-04-08T17:50:04.351Z</time></trkpt><trkpt lat="38.1738966" lon="15.6710177"><ele>101.0</ele><time>2026-04-08T17:50:06.733Z</time></trkpt><trkpt lat="38.1737916" lon="15.6709827"><ele>101.0</ele><time>2026-04-08T17:50:38.35Z</time></trkpt><trkpt lat="38.1739104" lon="15.6706063"><ele>101.0</ele><time>2026-04-08T17:50:42.35Z</time></trkpt><trkpt lat="38.1739546" lon="15.6705026"><ele>101.0</ele><time>2026-04-08T17:50:47.35Z</time></trkpt><trkpt lat="38.1739011" lon="15.6706712"><ele>101.0</ele><time>2026-04-08T17:50:50.351Z</time></trkpt><trkpt lat="38.1738604" lon="15.6707873"><ele>101.0</ele><time>2026-04-08T17:50:52.35Z</time></trkpt><trkpt lat="38.1739564" lon="15.6705378"><ele>101.0</ele><time>2026-04-08T17:50:55.351Z</time></trkpt><trkpt lat="38.173919" lon="15.670639"><ele>101.0</ele><time>2026-04-08T17:51:02.351Z</time></trkpt><trkpt lat="38.1739673" lon="15.6705128"><ele>101.0</ele><time>2026-04-08T17:51:03.35Z</time></trkpt><trkpt lat="38.1739733" lon="15.6706046"><ele>101.0</ele><time>2026-04-08T17:51:34.35Z</time></trkpt><trkpt lat="38.1739018" lon="15.6707512"><ele>101.0</ele><time>2026-04-08T17:51:46.351Z</time></trkpt><trkpt lat="38.1738569" lon="15.6708496"><ele>101.0</ele><time>2026-04-08T17:51:47.351Z</time></trkpt><trkpt lat="38.173868" lon="15.6706569"><ele>101.0</ele><time>2026-04-08T17:51:49.351Z</time></trkpt><trkpt lat="38.1738465" lon="15.6707612"><ele>101.0</ele><time>2026-04-08T17:51:52.35Z</time></trkpt><trkpt lat="38.1738096" lon="15.6708372"><ele>101.0</ele><time>2026-04-08T17:52:02.35Z</time></trkpt><trkpt lat="38.1739165" lon="15.6706599"><ele>101.0</ele><time>2026-04-08T17:52:18.35Z</time></trkpt><trkpt lat="38.1738722" lon="15.6707863"><ele>101.0</ele><time>2026-04-08T17:52:33.351Z</time></trkpt><trkpt lat="38.1738305" lon="15.6708858"><ele>101.0</ele><time>2026-04-08T17:52:35.017Z</time></trkpt><trkpt lat="38.1740776" lon="15.6706236"><ele>101.4</ele><time>2026-04-08T17:53:21.352Z</time></trkpt><trkpt lat="38.1741231" lon="15.6706835"><ele>101.8</ele><time>2026-04-08T17:53:26.352Z</time></trkpt><trkpt lat="38.1742127" lon="15.6706674"><ele>102.2</ele><time>2026-04-08T17:53:29.352Z</time></trkpt><trkpt lat="38.1742778" lon="15.6706617"><ele>102.60000000000001</ele><time>2026-04-08T17:53:31.353Z</time></trkpt><trkpt lat="38.174135" lon="15.6707433"><ele>103.0</ele><time>2026-04-08T17:53:33.353Z</time></trkpt><trkpt lat="38.1743162" lon="15.6706108"><ele>103.00000000000001</ele><time>2026-04-08T17:53:34.352Z</time></trkpt><trkpt lat="38.1742361" lon="15.6705992"><ele>103.0</ele><time>2026-04-08T17:53:41.353Z</time></trkpt><trkpt lat="38.1741467" lon="15.6706466"><ele>103.0</ele><time>2026-04-08T17:53:43.353Z</time></trkpt><trkpt lat="38.1740613" lon="15.6706894"><ele>103.0</ele><time>2026-04-08T17:53:45.353Z</time></trkpt><trkpt lat="38.1739852" lon="15.6707422"><ele>103.00000000000001</ele><time>2026-04-08T17:53:50.353Z</time></trkpt><trkpt lat="38.1739384" lon="15.6708057"><ele>103.0</ele><time>2026-04-08T17:53:55.352Z</time></trkpt><trkpt lat="38.1738983" lon="15.6708767"><ele>103.00000000000001</ele><time>2026-04-08T17:54:06.353Z</time></trkpt><trkpt lat="38.1739703" lon="15.6708723"><ele>103.0</ele><time>2026-04-08T17:54:30.352Z</time></trkpt><trkpt lat="38.1740382" lon="15.67076"><ele>103.0</ele><time>2026-04-08T17:54:48.352Z</time></trkpt><trkpt lat="38.1739798" lon="15.6707939"><ele>103.0</ele><time>2026-04-08T17:55:01.353Z</time></trkpt><trkpt lat="38.1739121" lon="15.6708761"><ele>103.00000000000001</ele><time>2026-04-08T17:55:11.352Z</time></trkpt><trkpt lat="38.1739863" lon="15.6708218"><ele>103.0</ele><time>2026-04-08T17:55:33.353Z</time></trkpt><trkpt lat="38.1739062" lon="15.6708761"><ele>103.0</ele><time>2026-04-08T17:55:36.352Z</time></trkpt><trkpt lat="38.1739854" lon="15.670803"><ele>103.0</ele><time>2026-04-08T17:55:41.352Z</time></trkpt><trkpt lat="38.1739153" lon="15.6708687"><ele>103.0</ele><time>2026-04-08T17:55:46.352Z</time></trkpt><trkpt lat="38.1739856" lon="15.6707549"><ele>103.0</ele><time>2026-04-08T17:55:51.352Z</time></trkpt><trkpt lat="38.1738899" lon="15.6708604"><ele>103.0</ele><time>2026-04-08T17:55:54.353Z</time></trkpt><trkpt lat="38.1740388" lon="15.6706927"><ele>102.66666666666667</ele><time>2026-04-08T17:55:55.352Z</time></trkpt><trkpt lat="38.1739436" lon="15.6707428"><ele>102.33333333333334</ele><time>2026-04-08T17:56:09.353Z</time></trkpt><trkpt lat="38.1738947" lon="15.6708423"><ele>102.0</ele><time>2026-04-08T17:56:12.34Z</time></trkpt><trkpt lat="38.1738631" lon="15.6709255"><ele>101.66666666666666</ele><time>2026-04-08T17:56:25.352Z</time></trkpt><trkpt lat="38.1739295" lon="15.6709326"><ele>101.33333333333333</ele><time>2026-04-08T17:57:06.352Z</time></trkpt><trkpt lat="38.1738507" lon="15.6709596"><ele>101.0</ele><time>2026-04-08T17:57:19.352Z</time></trkpt><trkpt lat="38.1735807" lon="15.6711286"><ele>100.99999999999999</ele><time>2026-04-08T17:57:31.352Z</time></trkpt><trkpt lat="38.1736559" lon="15.671112"><ele>101.0</ele><time>2026-04-08T17:57:33.353Z</time></trkpt><trkpt lat="38.1737455" lon="15.6710385"><ele>101.0</ele><time>2026-04-08T17:57:37.352Z</time></trkpt><trkpt lat="38.1736787" lon="15.6711361"><ele>101.0</ele><time>2026-04-08T17:57:42.352Z</time></trkpt><trkpt lat="38.1736184" lon="15.6711943"><ele>100.99999999999999</ele><time>2026-04-08T17:57:49.353Z</time></trkpt><trkpt lat="38.1736568" lon="15.6711307"><ele>101.0</ele><time>2026-04-08T17:57:54.352Z</time></trkpt><trkpt lat="38.1737029" lon="15.6710643"><ele>100.99999999999999</ele><time>2026-04-08T17:57:57.352Z</time></trkpt><trkpt lat="38.1737739" lon="15.671053"><ele>101.0</ele><time>2026-04-08T17:58:22.352Z</time></trkpt><trkpt lat="38.1738345" lon="15.6710186"><ele>101.0</ele><time>2026-04-08T17:58:24.333Z</time></trkpt><trkpt lat="38.1739542" lon="15.6710739"><ele>101.0</ele><time>2026-04-08T17:58:40.352Z</time></trkpt><trkpt lat="38.174021" lon="15.6710404"><ele>100.99999999999999</ele><time>2026-04-08T17:58:43.353Z</time></trkpt><trkpt lat="38.1739442" lon="15.6710192"><ele>101.0</ele><time>2026-04-08T17:58:50.352Z</time></trkpt><trkpt lat="38.1738839" lon="15.670984"><ele>101.0</ele><time>2026-04-08T17:58:53.352Z</time></trkpt><trkpt lat="38.173838" lon="15.671056"><ele>101.0</ele><time>2026-04-08T17:58:57.353Z</time></trkpt><trkpt lat="38.1737695" lon="15.6712248"><ele>101.0</ele><time>2026-04-08T17:59:02.352Z</time></trkpt><trkpt lat="38.1737912" lon="15.6710459"><ele>101.0</ele><time>2026-04-08T17:59:07.353Z</time></trkpt><trkpt lat="38.1738149" lon="15.6709522"><ele>101.0</ele><time>2026-04-08T18:03:10.457Z</time></trkpt><trkpt lat="38.1738928" lon="15.6709048"><ele>100.99999999999999</ele><time>2026-04-08T18:03:14.352Z</time></trkpt><trkpt lat="38.1739927" lon="15.6708456"><ele>101.0</ele><time>2026-04-08T18:03:15.352Z</time></trkpt><trkpt lat="38.1739187" lon="15.6708715"><ele>101.0</ele><time>2026-04-08T18:03:39.352Z</time></trkpt><trkpt lat="38.173858" lon="15.6708956"><ele>101.0</ele><time>2026-04-08T18:03:42.351Z</time></trkpt><trkpt lat="38.1738018" lon="15.6709353"><ele>100.99999999999999</ele><time>2026-04-08T18:04:09.351Z</time></trkpt><trkpt lat="38.1738961" lon="15.6709"><ele>101.0</ele><time>2026-04-08T18:04:23.351Z</time></trkpt><trkpt lat="38.1739613" lon="15.6708903"><ele>100.99999999999999</ele><time>2026-04-08T18:04:33.351Z</time></trkpt><trkpt lat="38.1740667" lon="15.6708747"><ele>101.0</ele><time>2026-04-08T18:04:41.352Z</time></trkpt><trkpt lat="38.1739853" lon="15.6708823"><ele>101.0</ele><time>2026-04-08T18:04:58.351Z</time></trkpt><trkpt lat="38.1739257" lon="15.6709251"><ele>101.0</ele><time>2026-04-08T18:05:02.352Z</time></trkpt><trkpt lat="38.1739976" lon="15.6708692"><ele>100.99999999999999</ele><time>2026-04-08T18:05:27.351Z</time></trkpt><trkpt lat="38.1739508" lon="15.6708052"><ele>101.0</ele><time>2026-04-08T18:07:27.351Z</time></trkpt><trkpt lat="38.1738914" lon="15.6708595"><ele>100.99999999999999</ele><time>2026-04-08T18:07:41.351Z</time></trkpt><trkpt lat="38.1738308" lon="15.6709374"><ele>101.0</ele><time>2026-04-08T18:07:43.351Z</time></trkpt><trkpt lat="38.1739106" lon="15.6708571"><ele>101.0</ele><time>2026-04-08T18:07:47.351Z</time></trkpt><trkpt lat="38.1739833" lon="15.6708685"><ele>101.0</ele><time>2026-04-08T18:08:50.352Z</time></trkpt><trkpt lat="38.1740568" lon="15.6708841"><ele>100.99999999999999</ele><time>2026-04-08T18:08:56.352Z</time></trkpt><trkpt lat="38.1741104" lon="15.6708231"><ele>101.0</ele><time>2026-04-08T18:09:14.352Z</time></trkpt><trkpt lat="38.1739961" lon="15.6709011"><ele>101.0</ele><time>2026-04-08T18:09:18.351Z</time></trkpt><trkpt lat="38.1739011" lon="15.6709299"><ele>101.0</ele><time>2026-04-08T18:09:20.352Z</time></trkpt><trkpt lat="38.1738323" lon="15.6709571"><ele>101.0</ele><time>2026-04-08T18:09:22.352Z</time></trkpt><trkpt lat="38.1737427" lon="15.6710336"><ele>101.0</ele><time>2026-04-08T18:11:43.354Z</time></trkpt><trkpt lat="38.1738159" lon="15.6710856"><ele>101.0</ele><time>2026-04-08T18:11:44.354Z</time></trkpt><trkpt lat="38.1739427" lon="15.6711619"><ele>100.99999999999999</ele><time>2026-04-08T18:12:02.353Z</time></trkpt><trkpt lat="38.1738798" lon="15.6711212"><ele>101.0</ele><time>2026-04-08T18:12:11.354Z</time></trkpt><trkpt lat="38.1738174" lon="15.6710881"><ele>101.0</ele><time>2026-04-08T18:12:15.353Z</time></trkpt><trkpt lat="38.1737063" lon="15.6711017"><ele>101.0</ele><time>2026-04-08T18:12:27.353Z</time></trkpt><trkpt lat="38.1737721" lon="15.6711042"><ele>100.99999999999999</ele><time>2026-04-08T18:12:36.353Z</time></trkpt><trkpt lat="38.1736897" lon="15.6711466"><ele>101.0</ele><time>2026-04-08T18:12:57.353Z</time></trkpt><trkpt lat="38.1737421" lon="15.6710786"><ele>100.99999999999999</ele><time>2026-04-08T18:13:11.354Z</time></trkpt><trkpt lat="38.1737497" lon="15.6709878"><ele>101.0</ele><time>2026-04-08T18:14:06.354Z</time></trkpt><trkpt lat="38.173859" lon="15.6709028"><ele>101.0</ele><time>2026-04-08T18:14:39.354Z</time></trkpt><trkpt lat="38.1739428" lon="15.6708389"><ele>101.0</ele><time>2026-04-08T18:14:50.353Z</time></trkpt><trkpt lat="38.1739879" lon="15.6707743"><ele>100.99999999999999</ele><time>2026-04-08T18:16:17.353Z</time></trkpt><trkpt lat="38.1739935" lon="15.6708672"><ele>101.0</ele><time>2026-04-08T18:18:02.354Z</time></trkpt><trkpt lat="38.1739181" lon="15.6709114"><ele>101.0</ele><time>2026-04-08T18:18:51.353Z</time></trkpt><trkpt lat="38.1738" lon="15.6709153"><ele>101.0</ele><time>2026-04-08T18:19:18.353Z</time></trkpt><trkpt lat="38.1738986" lon="15.6708424"><ele>101.0</ele><time>2026-04-08T18:19:45.354Z</time></trkpt><trkpt lat="38.173968" lon="15.6708185"><ele>101.0</ele><time>2026-04-08T18:20:59.354Z</time></trkpt><trkpt lat="38.1739291" lon="15.6708904"><ele>101.0</ele><time>2026-04-08T18:22:03.354Z</time></trkpt><trkpt lat="38.1738526" lon="15.6709108"><ele>101.0</ele><time>2026-04-08T18:22:42.353Z</time></trkpt><trkpt lat="38.1737894" lon="15.6709122"><ele>101.0</ele><time>2026-04-08T18:22:46.354Z</time></trkpt><trkpt lat="38.1736465" lon="15.6710425"><ele>101.0</ele><time>2026-04-08T18:23:50.354Z</time></trkpt><trkpt lat="38.173658" lon="15.6709602"><ele>101.0</ele><time>2026-04-08T18:24:08.354Z</time></trkpt><trkpt lat="38.1737585" lon="15.6709385"><ele>101.0</ele><time>2026-04-08T18:24:19.353Z</time></trkpt><trkpt lat="38.1738498" lon="15.6708977"><ele>101.0</ele><time>2026-04-08T18:25:26.353Z</time></trkpt><trkpt lat="38.1739382" lon="15.6709218"><ele>101.0</ele><time>2026-04-08T18:27:33.355Z</time></trkpt><trkpt lat="38.1740015" lon="15.6709222"><ele>101.0</ele><time>2026-04-08T18:28:37.354Z</time></trkpt><trkpt lat="38.1739477" lon="15.6708769"><ele>101.0</ele><time>2026-04-08T18:28:58.355Z</time></trkpt><trkpt lat="38.173842" lon="15.67092"><ele>101.0</ele><time>2026-04-08T18:29:12.959Z</time></trkpt></trkseg></trk></gpx>